<?xml version="1.0" encoding="UTF-8" standalone="no" ?>
<gpx xmlns="http://www.topografix.com/GPX/1/1" xmlns:xsi="http://www.w3.org/2001/XMLSchema-instance" xsi:schemaLocation="http://www.topografix.com/GPX/1/1 http://www.topografix.com/GPX/1/1/gpx.xsd" version="1.1" creator="VisuGPX - https://www.visugpx.com">
  <metadata>
    <name>Pornichet 20/02/2020</name>
    <desc><![CDATA[Sortie VTT du jeudi 20 février 2020
]]></desc>
  </metadata>
  <trk>
    <name><![CDATA[Pornichet Cyclisme]]></name>
    <trkseg>
      <trkpt lat="47.264" lon="-2.31588">
        <ele>9.4</ele>
        <time>2020-02-20T08:29:54.000Z</time>
      </trkpt>
      <trkpt lat="47.26399" lon="-2.3161">
        <ele>9.4</ele>
        <time>2020-02-20T08:29:58.000Z</time>
      </trkpt>
      <trkpt lat="47.26399" lon="-2.31616">
        <ele>-0.80000001192093</ele>
        <time>2020-02-20T08:29:59.000Z</time>
      </trkpt>
      <trkpt lat="47.264" lon="-2.31629">
        <ele>-0.80000001192093</ele>
        <time>2020-02-20T08:30:01.000Z</time>
      </trkpt>
      <trkpt lat="47.26401" lon="-2.31664">
        <ele>-0.80000001192093</ele>
        <time>2020-02-20T08:30:07.000Z</time>
      </trkpt>
      <trkpt lat="47.26396" lon="-2.3167">
        <ele>-0.80000001192093</ele>
        <time>2020-02-20T08:30:09.000Z</time>
      </trkpt>
      <trkpt lat="47.26389" lon="-2.31674">
        <ele>-0.80000001192093</ele>
        <time>2020-02-20T08:30:11.000Z</time>
      </trkpt>
      <trkpt lat="47.26362" lon="-2.31689">
        <ele>-0.80000001192093</ele>
        <time>2020-02-20T08:30:17.000Z</time>
      </trkpt>
      <trkpt lat="47.26334" lon="-2.31704">
        <ele>-0.80000001192093</ele>
        <time>2020-02-20T08:30:23.000Z</time>
      </trkpt>
      <trkpt lat="47.26323" lon="-2.3171">
        <ele>-1.3999999761581</ele>
        <time>2020-02-20T08:30:25.000Z</time>
      </trkpt>
      <trkpt lat="47.26318" lon="-2.31713">
        <ele>-1.7999999523163</ele>
        <time>2020-02-20T08:30:26.000Z</time>
      </trkpt>
      <trkpt lat="47.26313" lon="-2.31716">
        <ele>-2.4000000953674</ele>
        <time>2020-02-20T08:30:27.000Z</time>
      </trkpt>
      <trkpt lat="47.26308" lon="-2.31719">
        <ele>-2.7999999523163</ele>
        <time>2020-02-20T08:30:28.000Z</time>
      </trkpt>
      <trkpt lat="47.26303" lon="-2.31721">
        <ele>-3.4000000953674</ele>
        <time>2020-02-20T08:30:29.000Z</time>
      </trkpt>
      <trkpt lat="47.26292" lon="-2.31718">
        <ele>-3.7999999523163</ele>
        <time>2020-02-20T08:30:32.000Z</time>
      </trkpt>
      <trkpt lat="47.26288" lon="-2.31715">
        <ele>-4.1999998092651</ele>
        <time>2020-02-20T08:30:33.000Z</time>
      </trkpt>
      <trkpt lat="47.26285" lon="-2.3171">
        <ele>-4.5999999046326</ele>
        <time>2020-02-20T08:30:34.000Z</time>
      </trkpt>
      <trkpt lat="47.26282" lon="-2.31705">
        <ele>-5</ele>
        <time>2020-02-20T08:30:35.000Z</time>
      </trkpt>
      <trkpt lat="47.26279" lon="-2.317">
        <ele>-5.4000000953674</ele>
        <time>2020-02-20T08:30:36.000Z</time>
      </trkpt>
      <trkpt lat="47.2626" lon="-2.31667">
        <ele>-5.4000000953674</ele>
        <time>2020-02-20T08:30:42.000Z</time>
      </trkpt>
      <trkpt lat="47.26237" lon="-2.3163">
        <ele>-5.4000000953674</ele>
        <time>2020-02-20T08:30:49.000Z</time>
      </trkpt>
      <trkpt lat="47.26234" lon="-2.31625">
        <ele>-5.4000000953674</ele>
        <time>2020-02-20T08:30:50.000Z</time>
      </trkpt>
      <trkpt lat="47.26215" lon="-2.31613">
        <ele>-5.4000000953674</ele>
        <time>2020-02-20T08:30:54.000Z</time>
      </trkpt>
      <trkpt lat="47.26199" lon="-2.31608">
        <ele>-5.4000000953674</ele>
        <time>2020-02-20T08:30:57.000Z</time>
      </trkpt>
      <trkpt lat="47.26194" lon="-2.31608">
        <ele>-5.4000000953674</ele>
        <time>2020-02-20T08:30:58.000Z</time>
      </trkpt>
      <trkpt lat="47.26165" lon="-2.31616">
        <ele>-5.4000000953674</ele>
        <time>2020-02-20T08:31:04.000Z</time>
      </trkpt>
      <trkpt lat="47.26126" lon="-2.31626">
        <ele>-5.4000000953674</ele>
        <time>2020-02-20T08:31:12.000Z</time>
      </trkpt>
      <trkpt lat="47.26105" lon="-2.31627">
        <ele>-5.4000000953674</ele>
        <time>2020-02-20T08:31:16.000Z</time>
      </trkpt>
      <trkpt lat="47.26096" lon="-2.31623">
        <ele>-5.4000000953674</ele>
        <time>2020-02-20T08:31:18.000Z</time>
      </trkpt>
      <trkpt lat="47.26081" lon="-2.31605">
        <ele>-5.4000000953674</ele>
        <time>2020-02-20T08:31:22.000Z</time>
      </trkpt>
      <trkpt lat="47.26071" lon="-2.31597">
        <ele>-5.4000000953674</ele>
        <time>2020-02-20T08:31:25.000Z</time>
      </trkpt>
      <trkpt lat="47.2606" lon="-2.31607">
        <ele>-5.4000000953674</ele>
        <time>2020-02-20T08:31:28.000Z</time>
      </trkpt>
      <trkpt lat="47.26057" lon="-2.31611">
        <ele>-5.4000000953674</ele>
        <time>2020-02-20T08:31:29.000Z</time>
      </trkpt>
      <trkpt lat="47.26032" lon="-2.31642">
        <ele>-5</ele>
        <time>2020-02-20T08:31:36.000Z</time>
      </trkpt>
      <trkpt lat="47.26028" lon="-2.31646">
        <ele>-4.5999999046326</ele>
        <time>2020-02-20T08:31:37.000Z</time>
      </trkpt>
      <trkpt lat="47.26025" lon="-2.3165">
        <ele>-4.1999998092651</ele>
        <time>2020-02-20T08:31:38.000Z</time>
      </trkpt>
      <trkpt lat="47.26021" lon="-2.31654">
        <ele>-3.7999999523163</ele>
        <time>2020-02-20T08:31:39.000Z</time>
      </trkpt>
      <trkpt lat="47.26017" lon="-2.31657">
        <ele>-3.4000000953674</ele>
        <time>2020-02-20T08:31:40.000Z</time>
      </trkpt>
      <trkpt lat="47.26006" lon="-2.31666">
        <ele>-3.4000000953674</ele>
        <time>2020-02-20T08:31:43.000Z</time>
      </trkpt>
      <trkpt lat="47.25983" lon="-2.31683">
        <ele>-3.4000000953674</ele>
        <time>2020-02-20T08:31:49.000Z</time>
      </trkpt>
      <trkpt lat="47.25979" lon="-2.31685">
        <ele>-3.4000000953674</ele>
        <time>2020-02-20T08:31:50.000Z</time>
      </trkpt>
      <trkpt lat="47.25967" lon="-2.31691">
        <ele>-3</ele>
        <time>2020-02-20T08:31:53.000Z</time>
      </trkpt>
      <trkpt lat="47.25964" lon="-2.31694">
        <ele>-2.5999999046326</ele>
        <time>2020-02-20T08:31:54.000Z</time>
      </trkpt>
      <trkpt lat="47.2596" lon="-2.31697">
        <ele>-2</ele>
        <time>2020-02-20T08:31:55.000Z</time>
      </trkpt>
      <trkpt lat="47.25956" lon="-2.317">
        <ele>-1.6000000238419</ele>
        <time>2020-02-20T08:31:56.000Z</time>
      </trkpt>
      <trkpt lat="47.25952" lon="-2.31703">
        <ele>-1.2000000476837</ele>
        <time>2020-02-20T08:31:57.000Z</time>
      </trkpt>
      <trkpt lat="47.25939" lon="-2.31714">
        <ele>-1.2000000476837</ele>
        <time>2020-02-20T08:32:00.000Z</time>
      </trkpt>
      <trkpt lat="47.25932" lon="-2.31724">
        <ele>-1.2000000476837</ele>
        <time>2020-02-20T08:32:02.000Z</time>
      </trkpt>
      <trkpt lat="47.25912" lon="-2.3176">
        <ele>-1.2000000476837</ele>
        <time>2020-02-20T08:32:08.000Z</time>
      </trkpt>
      <trkpt lat="47.25882" lon="-2.31828">
        <ele>-1.2000000476837</ele>
        <time>2020-02-20T08:32:18.000Z</time>
      </trkpt>
      <trkpt lat="47.2586" lon="-2.31873">
        <ele>-1.2000000476837</ele>
        <time>2020-02-20T08:32:26.000Z</time>
      </trkpt>
      <trkpt lat="47.25849" lon="-2.31887">
        <ele>-1.2000000476837</ele>
        <time>2020-02-20T08:32:29.000Z</time>
      </trkpt>
      <trkpt lat="47.25837" lon="-2.31898">
        <ele>-1.2000000476837</ele>
        <time>2020-02-20T08:32:32.000Z</time>
      </trkpt>
      <trkpt lat="47.2581" lon="-2.31916">
        <ele>-1.2000000476837</ele>
        <time>2020-02-20T08:32:38.000Z</time>
      </trkpt>
      <trkpt lat="47.25786" lon="-2.31931">
        <ele>-1.2000000476837</ele>
        <time>2020-02-20T08:32:44.000Z</time>
      </trkpt>
      <trkpt lat="47.25783" lon="-2.31934">
        <ele>-1.2000000476837</ele>
        <time>2020-02-20T08:32:45.000Z</time>
      </trkpt>
      <trkpt lat="47.25765" lon="-2.31951">
        <ele>-1.2000000476837</ele>
        <time>2020-02-20T08:32:50.000Z</time>
      </trkpt>
      <trkpt lat="47.25759" lon="-2.31958">
        <ele>-0.60000002384186</ele>
        <time>2020-02-20T08:32:52.000Z</time>
      </trkpt>
      <trkpt lat="47.25756" lon="-2.31961">
        <ele>-0.20000000298023</ele>
        <time>2020-02-20T08:32:53.000Z</time>
      </trkpt>
      <trkpt lat="47.25752" lon="-2.31964">
        <ele>0.80000001192093</ele>
        <time>2020-02-20T08:32:54.000Z</time>
      </trkpt>
      <trkpt lat="47.25749" lon="-2.31967">
        <ele>1.2000000476837</ele>
        <time>2020-02-20T08:32:55.000Z</time>
      </trkpt>
      <trkpt lat="47.25741" lon="-2.31972">
        <ele>1.2000000476837</ele>
        <time>2020-02-20T08:32:57.000Z</time>
      </trkpt>
      <trkpt lat="47.25716" lon="-2.31987">
        <ele>1.2000000476837</ele>
        <time>2020-02-20T08:33:04.000Z</time>
      </trkpt>
      <trkpt lat="47.25703" lon="-2.31992">
        <ele>1.6000000238419</ele>
        <time>2020-02-20T08:33:08.000Z</time>
      </trkpt>
      <trkpt lat="47.257" lon="-2.31993">
        <ele>2.2000000476837</ele>
        <time>2020-02-20T08:33:09.000Z</time>
      </trkpt>
      <trkpt lat="47.25697" lon="-2.31993">
        <ele>2.5999999046326</ele>
        <time>2020-02-20T08:33:10.000Z</time>
      </trkpt>
      <trkpt lat="47.25693" lon="-2.31994">
        <ele>3</ele>
        <time>2020-02-20T08:33:11.000Z</time>
      </trkpt>
      <trkpt lat="47.2569" lon="-2.31994">
        <ele>3.4000000953674</ele>
        <time>2020-02-20T08:33:12.000Z</time>
      </trkpt>
      <trkpt lat="47.25676" lon="-2.31997">
        <ele>3.4000000953674</ele>
        <time>2020-02-20T08:33:17.000Z</time>
      </trkpt>
      <trkpt lat="47.25673" lon="-2.31995">
        <ele>3.4000000953674</ele>
        <time>2020-02-20T08:33:18.000Z</time>
      </trkpt>
      <trkpt lat="47.25669" lon="-2.31985">
        <ele>3.4000000953674</ele>
        <time>2020-02-20T08:33:20.000Z</time>
      </trkpt>
      <trkpt lat="47.25666" lon="-2.31973">
        <ele>3.4000000953674</ele>
        <time>2020-02-20T08:33:22.000Z</time>
      </trkpt>
      <trkpt lat="47.25659" lon="-2.31942">
        <ele>3.4000000953674</ele>
        <time>2020-02-20T08:33:27.000Z</time>
      </trkpt>
      <trkpt lat="47.25647" lon="-2.31895">
        <ele>3.4000000953674</ele>
        <time>2020-02-20T08:33:35.000Z</time>
      </trkpt>
      <trkpt lat="47.25641" lon="-2.31871">
        <ele>3.4000000953674</ele>
        <time>2020-02-20T08:33:39.000Z</time>
      </trkpt>
      <trkpt lat="47.25637" lon="-2.31854">
        <ele>3.4000000953674</ele>
        <time>2020-02-20T08:33:42.000Z</time>
      </trkpt>
      <trkpt lat="47.25621" lon="-2.31798">
        <ele>3.4000000953674</ele>
        <time>2020-02-20T08:33:52.000Z</time>
      </trkpt>
      <trkpt lat="47.25617" lon="-2.31789">
        <ele>3.7999999523163</ele>
        <time>2020-02-20T08:33:54.000Z</time>
      </trkpt>
      <trkpt lat="47.25616" lon="-2.31785">
        <ele>4.1999998092651</ele>
        <time>2020-02-20T08:33:55.000Z</time>
      </trkpt>
      <trkpt lat="47.25614" lon="-2.31781">
        <ele>4.5999999046326</ele>
        <time>2020-02-20T08:33:56.000Z</time>
      </trkpt>
      <trkpt lat="47.25611" lon="-2.31779">
        <ele>5</ele>
        <time>2020-02-20T08:33:57.000Z</time>
      </trkpt>
      <trkpt lat="47.25608" lon="-2.31777">
        <ele>5.4000000953674</ele>
        <time>2020-02-20T08:33:58.000Z</time>
      </trkpt>
      <trkpt lat="47.25587" lon="-2.31777">
        <ele>5.4000000953674</ele>
        <time>2020-02-20T08:34:03.000Z</time>
      </trkpt>
      <trkpt lat="47.2558" lon="-2.3178">
        <ele>5.4000000953674</ele>
        <time>2020-02-20T08:34:05.000Z</time>
      </trkpt>
      <trkpt lat="47.2557" lon="-2.31788">
        <ele>6</ele>
        <time>2020-02-20T08:34:08.000Z</time>
      </trkpt>
      <trkpt lat="47.25568" lon="-2.31791">
        <ele>6.4000000953674</ele>
        <time>2020-02-20T08:34:09.000Z</time>
      </trkpt>
      <trkpt lat="47.25567" lon="-2.31794">
        <ele>7</ele>
        <time>2020-02-20T08:34:10.000Z</time>
      </trkpt>
      <trkpt lat="47.25566" lon="-2.31796">
        <ele>7.4000000953674</ele>
        <time>2020-02-20T08:34:11.000Z</time>
      </trkpt>
      <trkpt lat="47.25566" lon="-2.31799">
        <ele>8</ele>
        <time>2020-02-20T08:34:12.000Z</time>
      </trkpt>
      <trkpt lat="47.25565" lon="-2.318">
        <ele>8</ele>
        <time>2020-02-20T08:34:13.000Z</time>
      </trkpt>
      <trkpt lat="47.25556" lon="-2.31804">
        <ele>8</ele>
        <time>2020-02-20T08:34:17.000Z</time>
      </trkpt>
      <trkpt lat="47.25552" lon="-2.31805">
        <ele>8</ele>
        <time>2020-02-20T08:34:18.000Z</time>
      </trkpt>
      <trkpt lat="47.25536" lon="-2.3181">
        <ele>8</ele>
        <time>2020-02-20T08:34:23.000Z</time>
      </trkpt>
      <trkpt lat="47.25534" lon="-2.31811">
        <ele>8</ele>
        <time>2020-02-20T08:34:24.000Z</time>
      </trkpt>
      <trkpt lat="47.25522" lon="-2.31814">
        <ele>8.3999996185303</ele>
        <time>2020-02-20T08:34:28.000Z</time>
      </trkpt>
      <trkpt lat="47.25519" lon="-2.31815">
        <ele>8.8000001907349</ele>
        <time>2020-02-20T08:34:29.000Z</time>
      </trkpt>
      <trkpt lat="47.25516" lon="-2.31816">
        <ele>9.1999998092651</ele>
        <time>2020-02-20T08:34:30.000Z</time>
      </trkpt>
      <trkpt lat="47.25513" lon="-2.31817">
        <ele>9.6000003814697</ele>
        <time>2020-02-20T08:34:31.000Z</time>
      </trkpt>
      <trkpt lat="47.25511" lon="-2.31818">
        <ele>10</ele>
        <time>2020-02-20T08:34:32.000Z</time>
      </trkpt>
      <trkpt lat="47.25508" lon="-2.31822">
        <ele>10</ele>
        <time>2020-02-20T08:34:34.000Z</time>
      </trkpt>
      <trkpt lat="47.2551" lon="-2.31826">
        <ele>10</ele>
        <time>2020-02-20T08:34:36.000Z</time>
      </trkpt>
      <trkpt lat="47.25512" lon="-2.31827">
        <ele>10</ele>
        <time>2020-02-20T08:34:39.000Z</time>
      </trkpt>
      <trkpt lat="47.25524" lon="-2.31821">
        <ele>10</ele>
        <time>2020-02-20T08:39:05.000Z</time>
      </trkpt>
      <trkpt lat="47.25526" lon="-2.31823">
        <ele>10</ele>
        <time>2020-02-20T08:39:07.000Z</time>
      </trkpt>
      <trkpt lat="47.25527" lon="-2.3183">
        <ele>10</ele>
        <time>2020-02-20T08:39:10.000Z</time>
      </trkpt>
      <trkpt lat="47.25528" lon="-2.31833">
        <ele>10</ele>
        <time>2020-02-20T08:39:11.000Z</time>
      </trkpt>
      <trkpt lat="47.25528" lon="-2.31838">
        <ele>10</ele>
        <time>2020-02-20T08:39:13.000Z</time>
      </trkpt>
      <trkpt lat="47.25526" lon="-2.31841">
        <ele>10</ele>
        <time>2020-02-20T08:39:15.000Z</time>
      </trkpt>
      <trkpt lat="47.25528" lon="-2.31853">
        <ele>10</ele>
        <time>2020-02-20T08:39:19.000Z</time>
      </trkpt>
      <trkpt lat="47.25532" lon="-2.31879">
        <ele>10</ele>
        <time>2020-02-20T08:39:27.000Z</time>
      </trkpt>
      <trkpt lat="47.25534" lon="-2.31907">
        <ele>10</ele>
        <time>2020-02-20T08:39:36.000Z</time>
      </trkpt>
      <trkpt lat="47.25536" lon="-2.31917">
        <ele>10</ele>
        <time>2020-02-20T08:39:41.000Z</time>
      </trkpt>
      <trkpt lat="47.25538" lon="-2.31919">
        <ele>10</ele>
        <time>2020-02-20T08:39:42.000Z</time>
      </trkpt>
      <trkpt lat="47.25544" lon="-2.31917">
        <ele>10</ele>
        <time>2020-02-20T08:39:45.000Z</time>
      </trkpt>
      <trkpt lat="47.25547" lon="-2.31915">
        <ele>10</ele>
        <time>2020-02-20T08:39:46.000Z</time>
      </trkpt>
      <trkpt lat="47.25557" lon="-2.31913">
        <ele>10</ele>
        <time>2020-02-20T08:39:51.000Z</time>
      </trkpt>
      <trkpt lat="47.2556" lon="-2.31924">
        <ele>10</ele>
        <time>2020-02-20T08:39:55.000Z</time>
      </trkpt>
      <trkpt lat="47.25562" lon="-2.31951">
        <ele>10</ele>
        <time>2020-02-20T08:40:02.000Z</time>
      </trkpt>
      <trkpt lat="47.25569" lon="-2.31972">
        <ele>10</ele>
        <time>2020-02-20T08:40:07.000Z</time>
      </trkpt>
      <trkpt lat="47.25579" lon="-2.32006">
        <ele>10</ele>
        <time>2020-02-20T08:40:14.000Z</time>
      </trkpt>
      <trkpt lat="47.2559" lon="-2.32038">
        <ele>10</ele>
        <time>2020-02-20T08:40:20.000Z</time>
      </trkpt>
      <trkpt lat="47.25605" lon="-2.32078">
        <ele>10</ele>
        <time>2020-02-20T08:40:28.000Z</time>
      </trkpt>
      <trkpt lat="47.25611" lon="-2.32081">
        <ele>10</ele>
        <time>2020-02-20T08:40:30.000Z</time>
      </trkpt>
      <trkpt lat="47.25615" lon="-2.3208">
        <ele>10</ele>
        <time>2020-02-20T08:40:31.000Z</time>
      </trkpt>
      <trkpt lat="47.25622" lon="-2.32076">
        <ele>9.6000003814697</ele>
        <time>2020-02-20T08:40:33.000Z</time>
      </trkpt>
      <trkpt lat="47.25624" lon="-2.32073">
        <ele>9.1999998092651</ele>
        <time>2020-02-20T08:40:34.000Z</time>
      </trkpt>
      <trkpt lat="47.25628" lon="-2.3207">
        <ele>8.8000001907349</ele>
        <time>2020-02-20T08:40:35.000Z</time>
      </trkpt>
      <trkpt lat="47.25631" lon="-2.32067">
        <ele>8.1999998092651</ele>
        <time>2020-02-20T08:40:36.000Z</time>
      </trkpt>
      <trkpt lat="47.25634" lon="-2.32063">
        <ele>7.8000001907349</ele>
        <time>2020-02-20T08:40:37.000Z</time>
      </trkpt>
      <trkpt lat="47.25655" lon="-2.32044">
        <ele>7.8000001907349</ele>
        <time>2020-02-20T08:40:43.000Z</time>
      </trkpt>
      <trkpt lat="47.25662" lon="-2.32038">
        <ele>7.8000001907349</ele>
        <time>2020-02-20T08:40:45.000Z</time>
      </trkpt>
      <trkpt lat="47.2567" lon="-2.32031">
        <ele>7.8000001907349</ele>
        <time>2020-02-20T08:40:47.000Z</time>
      </trkpt>
      <trkpt lat="47.25673" lon="-2.32026">
        <ele>7.8000001907349</ele>
        <time>2020-02-20T08:40:48.000Z</time>
      </trkpt>
      <trkpt lat="47.25684" lon="-2.32008">
        <ele>7.8000001907349</ele>
        <time>2020-02-20T08:40:53.000Z</time>
      </trkpt>
      <trkpt lat="47.25692" lon="-2.31996">
        <ele>7.8000001907349</ele>
        <time>2020-02-20T08:40:58.000Z</time>
      </trkpt>
      <trkpt lat="47.25695" lon="-2.31996">
        <ele>7.8000001907349</ele>
        <time>2020-02-20T08:40:59.000Z</time>
      </trkpt>
      <trkpt lat="47.25699" lon="-2.32001">
        <ele>7.8000001907349</ele>
        <time>2020-02-20T08:41:01.000Z</time>
      </trkpt>
      <trkpt lat="47.25706" lon="-2.32019">
        <ele>7.8000001907349</ele>
        <time>2020-02-20T08:41:05.000Z</time>
      </trkpt>
      <trkpt lat="47.25708" lon="-2.32028">
        <ele>7.8000001907349</ele>
        <time>2020-02-20T08:41:07.000Z</time>
      </trkpt>
      <trkpt lat="47.2572" lon="-2.32071">
        <ele>7.8000001907349</ele>
        <time>2020-02-20T08:41:15.000Z</time>
      </trkpt>
      <trkpt lat="47.25732" lon="-2.32117">
        <ele>7.8000001907349</ele>
        <time>2020-02-20T08:41:23.000Z</time>
      </trkpt>
      <trkpt lat="47.25737" lon="-2.32135">
        <ele>7.8000001907349</ele>
        <time>2020-02-20T08:41:28.000Z</time>
      </trkpt>
      <trkpt lat="47.25746" lon="-2.32165">
        <ele>7.8000001907349</ele>
        <time>2020-02-20T08:41:37.000Z</time>
      </trkpt>
      <trkpt lat="47.25752" lon="-2.32195">
        <ele>7.8000001907349</ele>
        <time>2020-02-20T08:41:44.000Z</time>
      </trkpt>
      <trkpt lat="47.25757" lon="-2.32239">
        <ele>7.8000001907349</ele>
        <time>2020-02-20T08:41:53.000Z</time>
      </trkpt>
      <trkpt lat="47.25761" lon="-2.32262">
        <ele>7.4000000953674</ele>
        <time>2020-02-20T08:41:58.000Z</time>
      </trkpt>
      <trkpt lat="47.25762" lon="-2.32267">
        <ele>7</ele>
        <time>2020-02-20T08:41:59.000Z</time>
      </trkpt>
      <trkpt lat="47.25762" lon="-2.32271">
        <ele>6.5999999046326</ele>
        <time>2020-02-20T08:42:00.000Z</time>
      </trkpt>
      <trkpt lat="47.25763" lon="-2.32275">
        <ele>6.1999998092651</ele>
        <time>2020-02-20T08:42:01.000Z</time>
      </trkpt>
      <trkpt lat="47.25763" lon="-2.32279">
        <ele>5.5999999046326</ele>
        <time>2020-02-20T08:42:02.000Z</time>
      </trkpt>
      <trkpt lat="47.25768" lon="-2.32304">
        <ele>5.1999998092651</ele>
        <time>2020-02-20T08:42:08.000Z</time>
      </trkpt>
      <trkpt lat="47.25768" lon="-2.32307">
        <ele>4.8000001907349</ele>
        <time>2020-02-20T08:42:09.000Z</time>
      </trkpt>
      <trkpt lat="47.25768" lon="-2.3231">
        <ele>4.4000000953674</ele>
        <time>2020-02-20T08:42:10.000Z</time>
      </trkpt>
      <trkpt lat="47.25768" lon="-2.32314">
        <ele>4</ele>
        <time>2020-02-20T08:42:11.000Z</time>
      </trkpt>
      <trkpt lat="47.25769" lon="-2.32318">
        <ele>3.5999999046326</ele>
        <time>2020-02-20T08:42:12.000Z</time>
      </trkpt>
      <trkpt lat="47.25771" lon="-2.32331">
        <ele>3.5999999046326</ele>
        <time>2020-02-20T08:42:15.000Z</time>
      </trkpt>
      <trkpt lat="47.25776" lon="-2.32357">
        <ele>2.5999999046326</ele>
        <time>2020-02-20T08:42:21.000Z</time>
      </trkpt>
      <trkpt lat="47.25776" lon="-2.32362">
        <ele>2.2000000476837</ele>
        <time>2020-02-20T08:42:22.000Z</time>
      </trkpt>
      <trkpt lat="47.25777" lon="-2.32367">
        <ele>1.7999999523163</ele>
        <time>2020-02-20T08:42:23.000Z</time>
      </trkpt>
      <trkpt lat="47.25777" lon="-2.32372">
        <ele>1.3999999761581</ele>
        <time>2020-02-20T08:42:24.000Z</time>
      </trkpt>
      <trkpt lat="47.25781" lon="-2.32382">
        <ele>1.3999999761581</ele>
        <time>2020-02-20T08:42:27.000Z</time>
      </trkpt>
      <trkpt lat="47.25782" lon="-2.32389">
        <ele>1.3999999761581</ele>
        <time>2020-02-20T08:42:31.000Z</time>
      </trkpt>
      <trkpt lat="47.25783" lon="-2.32391">
        <ele>1</ele>
        <time>2020-02-20T08:42:32.000Z</time>
      </trkpt>
      <trkpt lat="47.25783" lon="-2.32393">
        <ele>0.40000000596046</ele>
        <time>2020-02-20T08:42:33.000Z</time>
      </trkpt>
      <trkpt lat="47.25783" lon="-2.32395">
        <ele>6</ele>
        <time>2020-02-20T08:42:34.000Z</time>
      </trkpt>
      <trkpt lat="47.25783" lon="-2.32395">
        <ele>-0.40000000596046</ele>
        <time>2020-02-20T08:42:35.000Z</time>
      </trkpt>
      <trkpt lat="47.25783" lon="-2.32396">
        <ele>-0.80000001192093</ele>
        <time>2020-02-20T08:42:36.000Z</time>
      </trkpt>
      <trkpt lat="47.25783" lon="-2.32396">
        <ele>-0.80000001192093</ele>
        <time>2020-02-20T08:42:37.000Z</time>
      </trkpt>
      <trkpt lat="47.25783" lon="-2.32399">
        <ele>-0.80000001192093</ele>
        <time>2020-02-20T08:43:35.000Z</time>
      </trkpt>
      <trkpt lat="47.25785" lon="-2.32405">
        <ele>-0.80000001192093</ele>
        <time>2020-02-20T08:43:37.000Z</time>
      </trkpt>
      <trkpt lat="47.25787" lon="-2.32421">
        <ele>-0.80000001192093</ele>
        <time>2020-02-20T08:43:43.000Z</time>
      </trkpt>
      <trkpt lat="47.25793" lon="-2.32435">
        <ele>-0.80000001192093</ele>
        <time>2020-02-20T08:43:50.000Z</time>
      </trkpt>
      <trkpt lat="47.25805" lon="-2.32449">
        <ele>-0.80000001192093</ele>
        <time>2020-02-20T08:43:56.000Z</time>
      </trkpt>
      <trkpt lat="47.25807" lon="-2.32455">
        <ele>-0.80000001192093</ele>
        <time>2020-02-20T08:43:58.000Z</time>
      </trkpt>
      <trkpt lat="47.25807" lon="-2.3246">
        <ele>-0.80000001192093</ele>
        <time>2020-02-20T08:44:00.000Z</time>
      </trkpt>
      <trkpt lat="47.25801" lon="-2.32471">
        <ele>-0.80000001192093</ele>
        <time>2020-02-20T08:44:06.000Z</time>
      </trkpt>
      <trkpt lat="47.258" lon="-2.32478">
        <ele>-0.80000001192093</ele>
        <time>2020-02-20T08:44:09.000Z</time>
      </trkpt>
      <trkpt lat="47.258" lon="-2.32482">
        <ele>-0.80000001192093</ele>
        <time>2020-02-20T08:44:11.000Z</time>
      </trkpt>
      <trkpt lat="47.25799" lon="-2.32486">
        <ele>-0.80000001192093</ele>
        <time>2020-02-20T08:44:13.000Z</time>
      </trkpt>
      <trkpt lat="47.258" lon="-2.32498">
        <ele>-0.80000001192093</ele>
        <time>2020-02-20T08:44:17.000Z</time>
      </trkpt>
      <trkpt lat="47.25802" lon="-2.32508">
        <ele>-0.80000001192093</ele>
        <time>2020-02-20T08:44:20.000Z</time>
      </trkpt>
      <trkpt lat="47.25805" lon="-2.32521">
        <ele>-0.80000001192093</ele>
        <time>2020-02-20T08:44:24.000Z</time>
      </trkpt>
      <trkpt lat="47.25808" lon="-2.32539">
        <ele>-0.80000001192093</ele>
        <time>2020-02-20T08:44:30.000Z</time>
      </trkpt>
      <trkpt lat="47.25812" lon="-2.32559">
        <ele>-0.80000001192093</ele>
        <time>2020-02-20T08:44:36.000Z</time>
      </trkpt>
      <trkpt lat="47.25819" lon="-2.32583">
        <ele>-0.80000001192093</ele>
        <time>2020-02-20T08:44:43.000Z</time>
      </trkpt>
      <trkpt lat="47.25826" lon="-2.32611">
        <ele>-0.80000001192093</ele>
        <time>2020-02-20T08:44:50.000Z</time>
      </trkpt>
      <trkpt lat="47.25837" lon="-2.32647">
        <ele>-0.80000001192093</ele>
        <time>2020-02-20T08:44:59.000Z</time>
      </trkpt>
      <trkpt lat="47.25846" lon="-2.3268">
        <ele>-0.80000001192093</ele>
        <time>2020-02-20T08:45:07.000Z</time>
      </trkpt>
      <trkpt lat="47.25855" lon="-2.32714">
        <ele>-0.80000001192093</ele>
        <time>2020-02-20T08:45:15.000Z</time>
      </trkpt>
      <trkpt lat="47.25867" lon="-2.32755">
        <ele>-0.80000001192093</ele>
        <time>2020-02-20T08:45:24.000Z</time>
      </trkpt>
      <trkpt lat="47.25881" lon="-2.328">
        <ele>-0.80000001192093</ele>
        <time>2020-02-20T08:45:34.000Z</time>
      </trkpt>
      <trkpt lat="47.25895" lon="-2.32841">
        <ele>-0.80000001192093</ele>
        <time>2020-02-20T08:45:43.000Z</time>
      </trkpt>
      <trkpt lat="47.25907" lon="-2.32874">
        <ele>-0.80000001192093</ele>
        <time>2020-02-20T08:45:51.000Z</time>
      </trkpt>
      <trkpt lat="47.25916" lon="-2.32905">
        <ele>-0.80000001192093</ele>
        <time>2020-02-20T08:45:58.000Z</time>
      </trkpt>
      <trkpt lat="47.25922" lon="-2.32917">
        <ele>-0.80000001192093</ele>
        <time>2020-02-20T08:46:03.000Z</time>
      </trkpt>
      <trkpt lat="47.25928" lon="-2.32936">
        <ele>-0.80000001192093</ele>
        <time>2020-02-20T08:46:11.000Z</time>
      </trkpt>
      <trkpt lat="47.2593" lon="-2.32946">
        <ele>-0.80000001192093</ele>
        <time>2020-02-20T08:46:16.000Z</time>
      </trkpt>
      <trkpt lat="47.25931" lon="-2.32946">
        <ele>-0.80000001192093</ele>
        <time>2020-02-20T08:46:17.000Z</time>
      </trkpt>
      <trkpt lat="47.25933" lon="-2.32947">
        <ele>-0.80000001192093</ele>
        <time>2020-02-20T08:46:46.000Z</time>
      </trkpt>
      <trkpt lat="47.25936" lon="-2.32949">
        <ele>-0.80000001192093</ele>
        <time>2020-02-20T08:46:48.000Z</time>
      </trkpt>
      <trkpt lat="47.25941" lon="-2.32958">
        <ele>-0.80000001192093</ele>
        <time>2020-02-20T08:46:54.000Z</time>
      </trkpt>
      <trkpt lat="47.25947" lon="-2.32971">
        <ele>-0.80000001192093</ele>
        <time>2020-02-20T08:47:02.000Z</time>
      </trkpt>
      <trkpt lat="47.25953" lon="-2.32982">
        <ele>-0.80000001192093</ele>
        <time>2020-02-20T08:47:08.000Z</time>
      </trkpt>
      <trkpt lat="47.25952" lon="-2.32983">
        <ele>-0.80000001192093</ele>
        <time>2020-02-20T08:47:10.000Z</time>
      </trkpt>
      <trkpt lat="47.25952" lon="-2.32984">
        <ele>-0.80000001192093</ele>
        <time>2020-02-20T08:47:25.000Z</time>
      </trkpt>
      <trkpt lat="47.25952" lon="-2.32987">
        <ele>-0.80000001192093</ele>
        <time>2020-02-20T08:47:26.000Z</time>
      </trkpt>
      <trkpt lat="47.25954" lon="-2.32996">
        <ele>-0.80000001192093</ele>
        <time>2020-02-20T08:47:29.000Z</time>
      </trkpt>
      <trkpt lat="47.25957" lon="-2.33004">
        <ele>-0.80000001192093</ele>
        <time>2020-02-20T08:47:31.000Z</time>
      </trkpt>
      <trkpt lat="47.25969" lon="-2.33039">
        <ele>-0.80000001192093</ele>
        <time>2020-02-20T08:47:38.000Z</time>
      </trkpt>
      <trkpt lat="47.25982" lon="-2.33077">
        <ele>-0.80000001192093</ele>
        <time>2020-02-20T08:47:44.000Z</time>
      </trkpt>
      <trkpt lat="47.25989" lon="-2.33098">
        <ele>-0.20000000298023</ele>
        <time>2020-02-20T08:47:47.000Z</time>
      </trkpt>
      <trkpt lat="47.25991" lon="-2.33105">
        <ele>0.20000000298023</ele>
        <time>2020-02-20T08:47:48.000Z</time>
      </trkpt>
      <trkpt lat="47.25993" lon="-2.33111">
        <ele>0.60000002384186</ele>
        <time>2020-02-20T08:47:49.000Z</time>
      </trkpt>
      <trkpt lat="47.25995" lon="-2.33118">
        <ele>1.2000000476837</ele>
        <time>2020-02-20T08:47:50.000Z</time>
      </trkpt>
      <trkpt lat="47.25997" lon="-2.33125">
        <ele>1.6000000238419</ele>
        <time>2020-02-20T08:47:51.000Z</time>
      </trkpt>
      <trkpt lat="47.26001" lon="-2.33139">
        <ele>1.6000000238419</ele>
        <time>2020-02-20T08:47:53.000Z</time>
      </trkpt>
      <trkpt lat="47.26026" lon="-2.33208">
        <ele>1.6000000238419</ele>
        <time>2020-02-20T08:48:03.000Z</time>
      </trkpt>
      <trkpt lat="47.26045" lon="-2.33263">
        <ele>1.6000000238419</ele>
        <time>2020-02-20T08:48:11.000Z</time>
      </trkpt>
      <trkpt lat="47.26066" lon="-2.33316">
        <ele>1.6000000238419</ele>
        <time>2020-02-20T08:48:19.000Z</time>
      </trkpt>
      <trkpt lat="47.26088" lon="-2.33369">
        <ele>1.6000000238419</ele>
        <time>2020-02-20T08:48:28.000Z</time>
      </trkpt>
      <trkpt lat="47.26093" lon="-2.33377">
        <ele>1.6000000238419</ele>
        <time>2020-02-20T08:48:32.000Z</time>
      </trkpt>
      <trkpt lat="47.26099" lon="-2.33382">
        <ele>1.6000000238419</ele>
        <time>2020-02-20T08:48:39.000Z</time>
      </trkpt>
      <trkpt lat="47.26103" lon="-2.33393">
        <ele>1.6000000238419</ele>
        <time>2020-02-20T08:48:46.000Z</time>
      </trkpt>
      <trkpt lat="47.26111" lon="-2.33404">
        <ele>1.6000000238419</ele>
        <time>2020-02-20T08:48:54.000Z</time>
      </trkpt>
      <trkpt lat="47.26115" lon="-2.33408">
        <ele>1.6000000238419</ele>
        <time>2020-02-20T08:48:57.000Z</time>
      </trkpt>
      <trkpt lat="47.26121" lon="-2.3341">
        <ele>1.6000000238419</ele>
        <time>2020-02-20T08:49:01.000Z</time>
      </trkpt>
      <trkpt lat="47.26128" lon="-2.33418">
        <ele>1.6000000238419</ele>
        <time>2020-02-20T08:49:07.000Z</time>
      </trkpt>
      <trkpt lat="47.26131" lon="-2.33419">
        <ele>1.6000000238419</ele>
        <time>2020-02-20T08:49:09.000Z</time>
      </trkpt>
      <trkpt lat="47.26138" lon="-2.33425">
        <ele>1.6000000238419</ele>
        <time>2020-02-20T08:49:13.000Z</time>
      </trkpt>
      <trkpt lat="47.26141" lon="-2.33426">
        <ele>1.6000000238419</ele>
        <time>2020-02-20T08:49:15.000Z</time>
      </trkpt>
      <trkpt lat="47.26142" lon="-2.33425">
        <ele>1.6000000238419</ele>
        <time>2020-02-20T08:49:17.000Z</time>
      </trkpt>
      <trkpt lat="47.2614" lon="-2.33422">
        <ele>1.6000000238419</ele>
        <time>2020-02-20T08:49:21.000Z</time>
      </trkpt>
      <trkpt lat="47.26139" lon="-2.33422">
        <ele>1.6000000238419</ele>
        <time>2020-02-20T08:49:22.000Z</time>
      </trkpt>
      <trkpt lat="47.26138" lon="-2.33422">
        <ele>1.6000000238419</ele>
        <time>2020-02-20T08:49:24.000Z</time>
      </trkpt>
      <trkpt lat="47.26133" lon="-2.33418">
        <ele>1.6000000238419</ele>
        <time>2020-02-20T08:49:28.000Z</time>
      </trkpt>
      <trkpt lat="47.2612" lon="-2.33407">
        <ele>1.6000000238419</ele>
        <time>2020-02-20T08:49:35.000Z</time>
      </trkpt>
      <trkpt lat="47.26102" lon="-2.33387">
        <ele>1.6000000238419</ele>
        <time>2020-02-20T08:49:45.000Z</time>
      </trkpt>
      <trkpt lat="47.26097" lon="-2.33381">
        <ele>1.6000000238419</ele>
        <time>2020-02-20T08:49:49.000Z</time>
      </trkpt>
      <trkpt lat="47.26095" lon="-2.3338">
        <ele>1.6000000238419</ele>
        <time>2020-02-20T08:49:51.000Z</time>
      </trkpt>
      <trkpt lat="47.26086" lon="-2.33379">
        <ele>1.6000000238419</ele>
        <time>2020-02-20T08:49:58.000Z</time>
      </trkpt>
      <trkpt lat="47.26084" lon="-2.33377">
        <ele>1.6000000238419</ele>
        <time>2020-02-20T08:50:00.000Z</time>
      </trkpt>
      <trkpt lat="47.26079" lon="-2.33371">
        <ele>1.6000000238419</ele>
        <time>2020-02-20T08:50:05.000Z</time>
      </trkpt>
      <trkpt lat="47.26078" lon="-2.33364">
        <ele>1.6000000238419</ele>
        <time>2020-02-20T08:50:08.000Z</time>
      </trkpt>
      <trkpt lat="47.26079" lon="-2.3336">
        <ele>1.6000000238419</ele>
        <time>2020-02-20T08:50:10.000Z</time>
      </trkpt>
      <trkpt lat="47.26085" lon="-2.33363">
        <ele>1.6000000238419</ele>
        <time>2020-02-20T08:50:14.000Z</time>
      </trkpt>
      <trkpt lat="47.26089" lon="-2.33368">
        <ele>1.6000000238419</ele>
        <time>2020-02-20T08:50:18.000Z</time>
      </trkpt>
      <trkpt lat="47.26091" lon="-2.33372">
        <ele>1.6000000238419</ele>
        <time>2020-02-20T08:50:21.000Z</time>
      </trkpt>
      <trkpt lat="47.2609" lon="-2.33379">
        <ele>1.6000000238419</ele>
        <time>2020-02-20T08:50:27.000Z</time>
      </trkpt>
      <trkpt lat="47.26086" lon="-2.33376">
        <ele>1.6000000238419</ele>
        <time>2020-02-20T08:50:31.000Z</time>
      </trkpt>
      <trkpt lat="47.26082" lon="-2.33372">
        <ele>1.6000000238419</ele>
        <time>2020-02-20T08:50:34.000Z</time>
      </trkpt>
      <trkpt lat="47.26076" lon="-2.33358">
        <ele>1.6000000238419</ele>
        <time>2020-02-20T08:50:41.000Z</time>
      </trkpt>
      <trkpt lat="47.26079" lon="-2.33348">
        <ele>1.6000000238419</ele>
        <time>2020-02-20T08:50:47.000Z</time>
      </trkpt>
      <trkpt lat="47.26085" lon="-2.33353">
        <ele>1.6000000238419</ele>
        <time>2020-02-20T08:50:52.000Z</time>
      </trkpt>
      <trkpt lat="47.26085" lon="-2.33367">
        <ele>1.6000000238419</ele>
        <time>2020-02-20T08:50:59.000Z</time>
      </trkpt>
      <trkpt lat="47.26084" lon="-2.33369">
        <ele>1.6000000238419</ele>
        <time>2020-02-20T08:51:00.000Z</time>
      </trkpt>
      <trkpt lat="47.26083" lon="-2.33374">
        <ele>1.6000000238419</ele>
        <time>2020-02-20T08:51:03.000Z</time>
      </trkpt>
      <trkpt lat="47.2608" lon="-2.33374">
        <ele>1.6000000238419</ele>
        <time>2020-02-20T08:51:05.000Z</time>
      </trkpt>
      <trkpt lat="47.26078" lon="-2.33363">
        <ele>1.6000000238419</ele>
        <time>2020-02-20T08:51:10.000Z</time>
      </trkpt>
      <trkpt lat="47.26074" lon="-2.3335">
        <ele>1.6000000238419</ele>
        <time>2020-02-20T08:51:17.000Z</time>
      </trkpt>
      <trkpt lat="47.26071" lon="-2.33337">
        <ele>1.6000000238419</ele>
        <time>2020-02-20T08:51:23.000Z</time>
      </trkpt>
      <trkpt lat="47.26066" lon="-2.33324">
        <ele>1.6000000238419</ele>
        <time>2020-02-20T08:51:32.000Z</time>
      </trkpt>
      <trkpt lat="47.26066" lon="-2.33323">
        <ele>1.6000000238419</ele>
        <time>2020-02-20T08:51:34.000Z</time>
      </trkpt>
      <trkpt lat="47.26067" lon="-2.33316">
        <ele>1.6000000238419</ele>
        <time>2020-02-20T08:51:46.000Z</time>
      </trkpt>
      <trkpt lat="47.26066" lon="-2.33314">
        <ele>1.6000000238419</ele>
        <time>2020-02-20T08:51:48.000Z</time>
      </trkpt>
      <trkpt lat="47.26058" lon="-2.33306">
        <ele>1.6000000238419</ele>
        <time>2020-02-20T08:51:55.000Z</time>
      </trkpt>
      <trkpt lat="47.26057" lon="-2.33297">
        <ele>1.6000000238419</ele>
        <time>2020-02-20T08:52:01.000Z</time>
      </trkpt>
      <trkpt lat="47.26053" lon="-2.33288">
        <ele>1.6000000238419</ele>
        <time>2020-02-20T08:52:08.000Z</time>
      </trkpt>
      <trkpt lat="47.26048" lon="-2.33274">
        <ele>1.6000000238419</ele>
        <time>2020-02-20T08:52:15.000Z</time>
      </trkpt>
      <trkpt lat="47.26048" lon="-2.33269">
        <ele>1.6000000238419</ele>
        <time>2020-02-20T08:52:18.000Z</time>
      </trkpt>
      <trkpt lat="47.26052" lon="-2.33272">
        <ele>1.6000000238419</ele>
        <time>2020-02-20T08:52:21.000Z</time>
      </trkpt>
      <trkpt lat="47.26054" lon="-2.33283">
        <ele>1.6000000238419</ele>
        <time>2020-02-20T08:52:25.000Z</time>
      </trkpt>
      <trkpt lat="47.26056" lon="-2.33293">
        <ele>1.6000000238419</ele>
        <time>2020-02-20T08:52:28.000Z</time>
      </trkpt>
      <trkpt lat="47.26064" lon="-2.33319">
        <ele>1.6000000238419</ele>
        <time>2020-02-20T08:52:35.000Z</time>
      </trkpt>
      <trkpt lat="47.26073" lon="-2.33348">
        <ele>1.6000000238419</ele>
        <time>2020-02-20T08:52:44.000Z</time>
      </trkpt>
      <trkpt lat="47.26078" lon="-2.33366">
        <ele>1.6000000238419</ele>
        <time>2020-02-20T08:52:53.000Z</time>
      </trkpt>
      <trkpt lat="47.26084" lon="-2.33377">
        <ele>1.6000000238419</ele>
        <time>2020-02-20T08:53:00.000Z</time>
      </trkpt>
      <trkpt lat="47.26086" lon="-2.33377">
        <ele>1.6000000238419</ele>
        <time>2020-02-20T08:53:01.000Z</time>
      </trkpt>
      <trkpt lat="47.26088" lon="-2.3337">
        <ele>1.6000000238419</ele>
        <time>2020-02-20T08:53:05.000Z</time>
      </trkpt>
      <trkpt lat="47.26082" lon="-2.33358">
        <ele>1.6000000238419</ele>
        <time>2020-02-20T08:53:12.000Z</time>
      </trkpt>
      <trkpt lat="47.26074" lon="-2.3335">
        <ele>1.6000000238419</ele>
        <time>2020-02-20T08:53:18.000Z</time>
      </trkpt>
      <trkpt lat="47.26072" lon="-2.33343">
        <ele>1.6000000238419</ele>
        <time>2020-02-20T08:53:21.000Z</time>
      </trkpt>
      <trkpt lat="47.26071" lon="-2.33334">
        <ele>1.6000000238419</ele>
        <time>2020-02-20T08:53:25.000Z</time>
      </trkpt>
      <trkpt lat="47.26066" lon="-2.33326">
        <ele>1.6000000238419</ele>
        <time>2020-02-20T08:53:31.000Z</time>
      </trkpt>
      <trkpt lat="47.26066" lon="-2.3332">
        <ele>1.6000000238419</ele>
        <time>2020-02-20T08:53:35.000Z</time>
      </trkpt>
      <trkpt lat="47.26065" lon="-2.33318">
        <ele>1.6000000238419</ele>
        <time>2020-02-20T08:53:36.000Z</time>
      </trkpt>
      <trkpt lat="47.26058" lon="-2.33304">
        <ele>1.6000000238419</ele>
        <time>2020-02-20T08:53:42.000Z</time>
      </trkpt>
      <trkpt lat="47.26052" lon="-2.33289">
        <ele>1.6000000238419</ele>
        <time>2020-02-20T08:53:49.000Z</time>
      </trkpt>
      <trkpt lat="47.26051" lon="-2.33279">
        <ele>1.6000000238419</ele>
        <time>2020-02-20T08:53:54.000Z</time>
      </trkpt>
      <trkpt lat="47.26053" lon="-2.33279">
        <ele>1.6000000238419</ele>
        <time>2020-02-20T08:53:56.000Z</time>
      </trkpt>
      <trkpt lat="47.26054" lon="-2.33282">
        <ele>1.6000000238419</ele>
        <time>2020-02-20T08:53:58.000Z</time>
      </trkpt>
      <trkpt lat="47.26056" lon="-2.3329">
        <ele>1.6000000238419</ele>
        <time>2020-02-20T08:54:00.000Z</time>
      </trkpt>
      <trkpt lat="47.26062" lon="-2.33306">
        <ele>1.6000000238419</ele>
        <time>2020-02-20T08:54:04.000Z</time>
      </trkpt>
      <trkpt lat="47.26065" lon="-2.33316">
        <ele>1.6000000238419</ele>
        <time>2020-02-20T08:54:06.000Z</time>
      </trkpt>
      <trkpt lat="47.26073" lon="-2.33345">
        <ele>1.6000000238419</ele>
        <time>2020-02-20T08:54:11.000Z</time>
      </trkpt>
      <trkpt lat="47.26077" lon="-2.33357">
        <ele>1.6000000238419</ele>
        <time>2020-02-20T08:54:13.000Z</time>
      </trkpt>
      <trkpt lat="47.26083" lon="-2.33374">
        <ele>1.6000000238419</ele>
        <time>2020-02-20T08:54:16.000Z</time>
      </trkpt>
      <trkpt lat="47.2609" lon="-2.33379">
        <ele>1.6000000238419</ele>
        <time>2020-02-20T08:54:18.000Z</time>
      </trkpt>
      <trkpt lat="47.26097" lon="-2.33384">
        <ele>2</ele>
        <time>2020-02-20T08:54:20.000Z</time>
      </trkpt>
      <trkpt lat="47.261" lon="-2.33387">
        <ele>2.4000000953674</ele>
        <time>2020-02-20T08:54:21.000Z</time>
      </trkpt>
      <trkpt lat="47.26103" lon="-2.33391">
        <ele>2.7999999523163</ele>
        <time>2020-02-20T08:54:22.000Z</time>
      </trkpt>
      <trkpt lat="47.26107" lon="-2.33395">
        <ele>3.2000000476837</ele>
        <time>2020-02-20T08:54:23.000Z</time>
      </trkpt>
      <trkpt lat="47.2611" lon="-2.334">
        <ele>3.5999999046326</ele>
        <time>2020-02-20T08:54:24.000Z</time>
      </trkpt>
      <trkpt lat="47.26129" lon="-2.33417">
        <ele>3.5999999046326</ele>
        <time>2020-02-20T08:54:29.000Z</time>
      </trkpt>
      <trkpt lat="47.26148" lon="-2.33431">
        <ele>3.5999999046326</ele>
        <time>2020-02-20T08:54:33.000Z</time>
      </trkpt>
      <trkpt lat="47.26153" lon="-2.33434">
        <ele>3.5999999046326</ele>
        <time>2020-02-20T08:54:34.000Z</time>
      </trkpt>
      <trkpt lat="47.2617" lon="-2.33441">
        <ele>3.5999999046326</ele>
        <time>2020-02-20T08:54:37.000Z</time>
      </trkpt>
      <trkpt lat="47.26176" lon="-2.33441">
        <ele>3.5999999046326</ele>
        <time>2020-02-20T08:54:38.000Z</time>
      </trkpt>
      <trkpt lat="47.26192" lon="-2.33435">
        <ele>3.5999999046326</ele>
        <time>2020-02-20T08:54:41.000Z</time>
      </trkpt>
      <trkpt lat="47.26204" lon="-2.33435">
        <ele>3.5999999046326</ele>
        <time>2020-02-20T08:54:43.000Z</time>
      </trkpt>
      <trkpt lat="47.26222" lon="-2.3343">
        <ele>3.5999999046326</ele>
        <time>2020-02-20T08:54:46.000Z</time>
      </trkpt>
      <trkpt lat="47.2625" lon="-2.33422">
        <ele>3.5999999046326</ele>
        <time>2020-02-20T08:54:51.000Z</time>
      </trkpt>
      <trkpt lat="47.26255" lon="-2.33423">
        <ele>3.5999999046326</ele>
        <time>2020-02-20T08:54:52.000Z</time>
      </trkpt>
      <trkpt lat="47.2628" lon="-2.33421">
        <ele>3.5999999046326</ele>
        <time>2020-02-20T08:54:56.000Z</time>
      </trkpt>
      <trkpt lat="47.26287" lon="-2.3342">
        <ele>3.2000000476837</ele>
        <time>2020-02-20T08:54:57.000Z</time>
      </trkpt>
      <trkpt lat="47.26293" lon="-2.33419">
        <ele>2.7999999523163</ele>
        <time>2020-02-20T08:54:58.000Z</time>
      </trkpt>
      <trkpt lat="47.263" lon="-2.33418">
        <ele>2.2000000476837</ele>
        <time>2020-02-20T08:54:59.000Z</time>
      </trkpt>
      <trkpt lat="47.26307" lon="-2.33416">
        <ele>1.7999999523163</ele>
        <time>2020-02-20T08:55:00.000Z</time>
      </trkpt>
      <trkpt lat="47.26314" lon="-2.33413">
        <ele>1.3999999761581</ele>
        <time>2020-02-20T08:55:01.000Z</time>
      </trkpt>
      <trkpt lat="47.26321" lon="-2.33407">
        <ele>1.3999999761581</ele>
        <time>2020-02-20T08:55:02.000Z</time>
      </trkpt>
      <trkpt lat="47.26338" lon="-2.33394">
        <ele>1.3999999761581</ele>
        <time>2020-02-20T08:55:05.000Z</time>
      </trkpt>
      <trkpt lat="47.26345" lon="-2.33391">
        <ele>1.3999999761581</ele>
        <time>2020-02-20T08:55:06.000Z</time>
      </trkpt>
      <trkpt lat="47.26392" lon="-2.33365">
        <ele>1.3999999761581</ele>
        <time>2020-02-20T08:55:14.000Z</time>
      </trkpt>
      <trkpt lat="47.26433" lon="-2.3334">
        <ele>1.3999999761581</ele>
        <time>2020-02-20T08:55:21.000Z</time>
      </trkpt>
      <trkpt lat="47.26474" lon="-2.33306">
        <ele>1.3999999761581</ele>
        <time>2020-02-20T08:55:29.000Z</time>
      </trkpt>
      <trkpt lat="47.26479" lon="-2.33301">
        <ele>1.3999999761581</ele>
        <time>2020-02-20T08:55:30.000Z</time>
      </trkpt>
      <trkpt lat="47.26495" lon="-2.33282">
        <ele>1.3999999761581</ele>
        <time>2020-02-20T08:55:34.000Z</time>
      </trkpt>
      <trkpt lat="47.265" lon="-2.33278">
        <ele>1.3999999761581</ele>
        <time>2020-02-20T08:55:37.000Z</time>
      </trkpt>
      <trkpt lat="47.26508" lon="-2.3328">
        <ele>1.3999999761581</ele>
        <time>2020-02-20T08:55:42.000Z</time>
      </trkpt>
      <trkpt lat="47.26508" lon="-2.3328">
        <ele>1.3999999761581</ele>
        <time>2020-02-20T08:55:43.000Z</time>
      </trkpt>
      <trkpt lat="47.26509" lon="-2.33283">
        <ele>1.3999999761581</ele>
        <time>2020-02-20T08:56:21.000Z</time>
      </trkpt>
      <trkpt lat="47.26511" lon="-2.33284">
        <ele>1.3999999761581</ele>
        <time>2020-02-20T08:56:22.000Z</time>
      </trkpt>
      <trkpt lat="47.26522" lon="-2.33288">
        <ele>1.3999999761581</ele>
        <time>2020-02-20T08:56:27.000Z</time>
      </trkpt>
      <trkpt lat="47.26532" lon="-2.33289">
        <ele>1.3999999761581</ele>
        <time>2020-02-20T08:56:30.000Z</time>
      </trkpt>
      <trkpt lat="47.26535" lon="-2.33292">
        <ele>1.3999999761581</ele>
        <time>2020-02-20T08:56:31.000Z</time>
      </trkpt>
      <trkpt lat="47.26543" lon="-2.33299">
        <ele>1.3999999761581</ele>
        <time>2020-02-20T08:56:35.000Z</time>
      </trkpt>
      <trkpt lat="47.26546" lon="-2.33295">
        <ele>1.3999999761581</ele>
        <time>2020-02-20T08:56:36.000Z</time>
      </trkpt>
      <trkpt lat="47.26554" lon="-2.33283">
        <ele>1.3999999761581</ele>
        <time>2020-02-20T08:56:39.000Z</time>
      </trkpt>
      <trkpt lat="47.26562" lon="-2.33274">
        <ele>1.3999999761581</ele>
        <time>2020-02-20T08:56:41.000Z</time>
      </trkpt>
      <trkpt lat="47.26593" lon="-2.33244">
        <ele>1.3999999761581</ele>
        <time>2020-02-20T08:56:48.000Z</time>
      </trkpt>
      <trkpt lat="47.2662" lon="-2.33215">
        <ele>1.3999999761581</ele>
        <time>2020-02-20T08:56:54.000Z</time>
      </trkpt>
      <trkpt lat="47.26624" lon="-2.33211">
        <ele>1.3999999761581</ele>
        <time>2020-02-20T08:56:55.000Z</time>
      </trkpt>
      <trkpt lat="47.26654" lon="-2.33181">
        <ele>1.3999999761581</ele>
        <time>2020-02-20T08:57:02.000Z</time>
      </trkpt>
      <trkpt lat="47.26671" lon="-2.33165">
        <ele>1.7999999523163</ele>
        <time>2020-02-20T08:57:06.000Z</time>
      </trkpt>
      <trkpt lat="47.26674" lon="-2.33164">
        <ele>2.2000000476837</ele>
        <time>2020-02-20T08:57:07.000Z</time>
      </trkpt>
      <trkpt lat="47.26676" lon="-2.33165">
        <ele>2.5999999046326</ele>
        <time>2020-02-20T08:57:08.000Z</time>
      </trkpt>
      <trkpt lat="47.26679" lon="-2.33166">
        <ele>3.4000000953674</ele>
        <time>2020-02-20T08:57:09.000Z</time>
      </trkpt>
      <trkpt lat="47.26684" lon="-2.33171">
        <ele>3.4000000953674</ele>
        <time>2020-02-20T08:57:11.000Z</time>
      </trkpt>
      <trkpt lat="47.26691" lon="-2.33186">
        <ele>3.4000000953674</ele>
        <time>2020-02-20T08:57:16.000Z</time>
      </trkpt>
      <trkpt lat="47.26696" lon="-2.33206">
        <ele>3.4000000953674</ele>
        <time>2020-02-20T08:57:22.000Z</time>
      </trkpt>
      <trkpt lat="47.267" lon="-2.33228">
        <ele>3.4000000953674</ele>
        <time>2020-02-20T08:57:26.000Z</time>
      </trkpt>
      <trkpt lat="47.26705" lon="-2.33252">
        <ele>3.4000000953674</ele>
        <time>2020-02-20T08:57:30.000Z</time>
      </trkpt>
      <trkpt lat="47.26706" lon="-2.33259">
        <ele>3.4000000953674</ele>
        <time>2020-02-20T08:57:31.000Z</time>
      </trkpt>
      <trkpt lat="47.26708" lon="-2.3328">
        <ele>3.4000000953674</ele>
        <time>2020-02-20T08:57:34.000Z</time>
      </trkpt>
      <trkpt lat="47.26711" lon="-2.33295">
        <ele>3.4000000953674</ele>
        <time>2020-02-20T08:57:36.000Z</time>
      </trkpt>
      <trkpt lat="47.26714" lon="-2.33308">
        <ele>3.4000000953674</ele>
        <time>2020-02-20T08:57:38.000Z</time>
      </trkpt>
      <trkpt lat="47.2672" lon="-2.33319">
        <ele>3.4000000953674</ele>
        <time>2020-02-20T08:57:40.000Z</time>
      </trkpt>
      <trkpt lat="47.26733" lon="-2.33327">
        <ele>3.4000000953674</ele>
        <time>2020-02-20T08:57:43.000Z</time>
      </trkpt>
      <trkpt lat="47.26736" lon="-2.3333">
        <ele>3.4000000953674</ele>
        <time>2020-02-20T08:57:44.000Z</time>
      </trkpt>
      <trkpt lat="47.26746" lon="-2.33337">
        <ele>3.4000000953674</ele>
        <time>2020-02-20T08:57:47.000Z</time>
      </trkpt>
      <trkpt lat="47.26747" lon="-2.33342">
        <ele>3.4000000953674</ele>
        <time>2020-02-20T08:57:48.000Z</time>
      </trkpt>
      <trkpt lat="47.26754" lon="-2.33372">
        <ele>3.4000000953674</ele>
        <time>2020-02-20T08:57:53.000Z</time>
      </trkpt>
      <trkpt lat="47.26759" lon="-2.33424">
        <ele>3.4000000953674</ele>
        <time>2020-02-20T08:58:00.000Z</time>
      </trkpt>
      <trkpt lat="47.26764" lon="-2.33468">
        <ele>3.4000000953674</ele>
        <time>2020-02-20T08:58:06.000Z</time>
      </trkpt>
      <trkpt lat="47.26766" lon="-2.33475">
        <ele>3.4000000953674</ele>
        <time>2020-02-20T08:58:07.000Z</time>
      </trkpt>
      <trkpt lat="47.26767" lon="-2.33483">
        <ele>3.4000000953674</ele>
        <time>2020-02-20T08:58:08.000Z</time>
      </trkpt>
      <trkpt lat="47.26769" lon="-2.33496">
        <ele>3.4000000953674</ele>
        <time>2020-02-20T08:58:10.000Z</time>
      </trkpt>
      <trkpt lat="47.26774" lon="-2.3351">
        <ele>3.4000000953674</ele>
        <time>2020-02-20T08:58:12.000Z</time>
      </trkpt>
      <trkpt lat="47.26777" lon="-2.33526">
        <ele>3.4000000953674</ele>
        <time>2020-02-20T08:58:14.000Z</time>
      </trkpt>
      <trkpt lat="47.26782" lon="-2.33549">
        <ele>3.4000000953674</ele>
        <time>2020-02-20T08:58:17.000Z</time>
      </trkpt>
      <trkpt lat="47.26789" lon="-2.33559">
        <ele>3.4000000953674</ele>
        <time>2020-02-20T08:58:20.000Z</time>
      </trkpt>
      <trkpt lat="47.26811" lon="-2.33553">
        <ele>3.4000000953674</ele>
        <time>2020-02-20T08:58:26.000Z</time>
      </trkpt>
      <trkpt lat="47.26837" lon="-2.33546">
        <ele>3.4000000953674</ele>
        <time>2020-02-20T08:58:32.000Z</time>
      </trkpt>
      <trkpt lat="47.26861" lon="-2.33538">
        <ele>3.4000000953674</ele>
        <time>2020-02-20T08:58:38.000Z</time>
      </trkpt>
      <trkpt lat="47.2687" lon="-2.33536">
        <ele>3.7999999523163</ele>
        <time>2020-02-20T08:58:40.000Z</time>
      </trkpt>
      <trkpt lat="47.26874" lon="-2.33535">
        <ele>4.1999998092651</ele>
        <time>2020-02-20T08:58:41.000Z</time>
      </trkpt>
      <trkpt lat="47.26879" lon="-2.33534">
        <ele>4.5999999046326</ele>
        <time>2020-02-20T08:58:42.000Z</time>
      </trkpt>
      <trkpt lat="47.26883" lon="-2.33534">
        <ele>5</ele>
        <time>2020-02-20T08:58:43.000Z</time>
      </trkpt>
      <trkpt lat="47.26887" lon="-2.33535">
        <ele>5.4000000953674</ele>
        <time>2020-02-20T08:58:44.000Z</time>
      </trkpt>
      <trkpt lat="47.26891" lon="-2.33537">
        <ele>5.4000000953674</ele>
        <time>2020-02-20T08:58:45.000Z</time>
      </trkpt>
      <trkpt lat="47.269" lon="-2.3355">
        <ele>5.8000001907349</ele>
        <time>2020-02-20T08:58:48.000Z</time>
      </trkpt>
      <trkpt lat="47.26902" lon="-2.33555">
        <ele>6.4000000953674</ele>
        <time>2020-02-20T08:58:49.000Z</time>
      </trkpt>
      <trkpt lat="47.26904" lon="-2.33559">
        <ele>6.8000001907349</ele>
        <time>2020-02-20T08:58:50.000Z</time>
      </trkpt>
      <trkpt lat="47.26906" lon="-2.33562">
        <ele>7.1999998092651</ele>
        <time>2020-02-20T08:58:51.000Z</time>
      </trkpt>
      <trkpt lat="47.26908" lon="-2.33566">
        <ele>7.5999999046326</ele>
        <time>2020-02-20T08:58:52.000Z</time>
      </trkpt>
      <trkpt lat="47.26914" lon="-2.33574">
        <ele>7.5999999046326</ele>
        <time>2020-02-20T08:58:55.000Z</time>
      </trkpt>
      <trkpt lat="47.2692" lon="-2.33583">
        <ele>7.5999999046326</ele>
        <time>2020-02-20T08:59:00.000Z</time>
      </trkpt>
      <trkpt lat="47.26919" lon="-2.33584">
        <ele>7.5999999046326</ele>
        <time>2020-02-20T08:59:01.000Z</time>
      </trkpt>
      <trkpt lat="47.26918" lon="-2.33586">
        <ele>7.5999999046326</ele>
        <time>2020-02-20T08:59:03.000Z</time>
      </trkpt>
      <trkpt lat="47.26913" lon="-2.33582">
        <ele>7.5999999046326</ele>
        <time>2020-02-20T08:59:06.000Z</time>
      </trkpt>
      <trkpt lat="47.2691" lon="-2.33572">
        <ele>7.5999999046326</ele>
        <time>2020-02-20T08:59:09.000Z</time>
      </trkpt>
      <trkpt lat="47.26909" lon="-2.33568">
        <ele>7.5999999046326</ele>
        <time>2020-02-20T08:59:11.000Z</time>
      </trkpt>
      <trkpt lat="47.2691" lon="-2.33565">
        <ele>7.5999999046326</ele>
        <time>2020-02-20T08:59:13.000Z</time>
      </trkpt>
      <trkpt lat="47.26912" lon="-2.33565">
        <ele>7.5999999046326</ele>
        <time>2020-02-20T08:59:16.000Z</time>
      </trkpt>
      <trkpt lat="47.26913" lon="-2.33573">
        <ele>9.6000003814697</ele>
        <time>2020-02-20T09:02:13.000Z</time>
      </trkpt>
      <trkpt lat="47.26915" lon="-2.33591">
        <ele>9.6000003814697</ele>
        <time>2020-02-20T09:02:17.000Z</time>
      </trkpt>
      <trkpt lat="47.26925" lon="-2.33627">
        <ele>10</ele>
        <time>2020-02-20T09:02:24.000Z</time>
      </trkpt>
      <trkpt lat="47.26926" lon="-2.33632">
        <ele>10.39999961853</ele>
        <time>2020-02-20T09:02:25.000Z</time>
      </trkpt>
      <trkpt lat="47.26927" lon="-2.33638">
        <ele>10.800000190735</ele>
        <time>2020-02-20T09:02:26.000Z</time>
      </trkpt>
      <trkpt lat="47.26928" lon="-2.33643">
        <ele>11.199999809265</ele>
        <time>2020-02-20T09:02:27.000Z</time>
      </trkpt>
      <trkpt lat="47.2693" lon="-2.33649">
        <ele>11.60000038147</ele>
        <time>2020-02-20T09:02:28.000Z</time>
      </trkpt>
      <trkpt lat="47.26934" lon="-2.33669">
        <ele>11.60000038147</ele>
        <time>2020-02-20T09:02:31.000Z</time>
      </trkpt>
      <trkpt lat="47.26936" lon="-2.33683">
        <ele>11.60000038147</ele>
        <time>2020-02-20T09:02:33.000Z</time>
      </trkpt>
      <trkpt lat="47.2694" lon="-2.3371">
        <ele>12</ele>
        <time>2020-02-20T09:02:37.000Z</time>
      </trkpt>
      <trkpt lat="47.26941" lon="-2.33716">
        <ele>12.39999961853</ele>
        <time>2020-02-20T09:02:38.000Z</time>
      </trkpt>
      <trkpt lat="47.26941" lon="-2.33722">
        <ele>12.800000190735</ele>
        <time>2020-02-20T09:02:39.000Z</time>
      </trkpt>
      <trkpt lat="47.2694" lon="-2.33728">
        <ele>13.199999809265</ele>
        <time>2020-02-20T09:02:40.000Z</time>
      </trkpt>
      <trkpt lat="47.26939" lon="-2.33735">
        <ele>13.800000190735</ele>
        <time>2020-02-20T09:02:41.000Z</time>
      </trkpt>
      <trkpt lat="47.26938" lon="-2.33741">
        <ele>13.800000190735</ele>
        <time>2020-02-20T09:02:42.000Z</time>
      </trkpt>
      <trkpt lat="47.26933" lon="-2.33768">
        <ele>13.800000190735</ele>
        <time>2020-02-20T09:02:46.000Z</time>
      </trkpt>
      <trkpt lat="47.26932" lon="-2.33782">
        <ele>13.800000190735</ele>
        <time>2020-02-20T09:02:48.000Z</time>
      </trkpt>
      <trkpt lat="47.26931" lon="-2.33789">
        <ele>13.800000190735</ele>
        <time>2020-02-20T09:02:49.000Z</time>
      </trkpt>
      <trkpt lat="47.26937" lon="-2.33809">
        <ele>13.800000190735</ele>
        <time>2020-02-20T09:02:52.000Z</time>
      </trkpt>
      <trkpt lat="47.26952" lon="-2.33825">
        <ele>13.800000190735</ele>
        <time>2020-02-20T09:02:56.000Z</time>
      </trkpt>
      <trkpt lat="47.26961" lon="-2.33831">
        <ele>13.800000190735</ele>
        <time>2020-02-20T09:02:58.000Z</time>
      </trkpt>
      <trkpt lat="47.26984" lon="-2.33844">
        <ele>13.800000190735</ele>
        <time>2020-02-20T09:03:03.000Z</time>
      </trkpt>
      <trkpt lat="47.27006" lon="-2.33858">
        <ele>14.199999809265</ele>
        <time>2020-02-20T09:03:08.000Z</time>
      </trkpt>
      <trkpt lat="47.27009" lon="-2.33861">
        <ele>14.60000038147</ele>
        <time>2020-02-20T09:03:09.000Z</time>
      </trkpt>
      <trkpt lat="47.27013" lon="-2.33864">
        <ele>15</ele>
        <time>2020-02-20T09:03:10.000Z</time>
      </trkpt>
      <trkpt lat="47.27017" lon="-2.33867">
        <ele>15.39999961853</ele>
        <time>2020-02-20T09:03:11.000Z</time>
      </trkpt>
      <trkpt lat="47.27022" lon="-2.3387">
        <ele>15.800000190735</ele>
        <time>2020-02-20T09:03:12.000Z</time>
      </trkpt>
      <trkpt lat="47.2704" lon="-2.33882">
        <ele>16.200000762939</ele>
        <time>2020-02-20T09:03:16.000Z</time>
      </trkpt>
      <trkpt lat="47.27044" lon="-2.33885">
        <ele>16.799999237061</ele>
        <time>2020-02-20T09:03:17.000Z</time>
      </trkpt>
      <trkpt lat="47.27049" lon="-2.33889">
        <ele>17.799999237061</ele>
        <time>2020-02-20T09:03:18.000Z</time>
      </trkpt>
      <trkpt lat="47.27053" lon="-2.33893">
        <ele>18.39999961853</ele>
        <time>2020-02-20T09:03:19.000Z</time>
      </trkpt>
      <trkpt lat="47.2707" lon="-2.33909">
        <ele>18.39999961853</ele>
        <time>2020-02-20T09:03:23.000Z</time>
      </trkpt>
      <trkpt lat="47.27081" lon="-2.3392">
        <ele>18.799999237061</ele>
        <time>2020-02-20T09:03:26.000Z</time>
      </trkpt>
      <trkpt lat="47.27085" lon="-2.33924">
        <ele>19.200000762939</ele>
        <time>2020-02-20T09:03:27.000Z</time>
      </trkpt>
      <trkpt lat="47.27088" lon="-2.33927">
        <ele>19.799999237061</ele>
        <time>2020-02-20T09:03:28.000Z</time>
      </trkpt>
      <trkpt lat="47.27092" lon="-2.33931">
        <ele>20.200000762939</ele>
        <time>2020-02-20T09:03:29.000Z</time>
      </trkpt>
      <trkpt lat="47.27095" lon="-2.33934">
        <ele>20.799999237061</ele>
        <time>2020-02-20T09:03:30.000Z</time>
      </trkpt>
      <trkpt lat="47.27099" lon="-2.33937">
        <ele>20.799999237061</ele>
        <time>2020-02-20T09:03:31.000Z</time>
      </trkpt>
      <trkpt lat="47.27109" lon="-2.33947">
        <ele>21.200000762939</ele>
        <time>2020-02-20T09:03:34.000Z</time>
      </trkpt>
      <trkpt lat="47.27113" lon="-2.3395">
        <ele>21.60000038147</ele>
        <time>2020-02-20T09:03:35.000Z</time>
      </trkpt>
      <trkpt lat="47.27117" lon="-2.33953">
        <ele>22</ele>
        <time>2020-02-20T09:03:36.000Z</time>
      </trkpt>
      <trkpt lat="47.2712" lon="-2.33957">
        <ele>22.39999961853</ele>
        <time>2020-02-20T09:03:37.000Z</time>
      </trkpt>
      <trkpt lat="47.27124" lon="-2.3396">
        <ele>22.799999237061</ele>
        <time>2020-02-20T09:03:38.000Z</time>
      </trkpt>
      <trkpt lat="47.27144" lon="-2.3398">
        <ele>22.799999237061</ele>
        <time>2020-02-20T09:03:43.000Z</time>
      </trkpt>
      <trkpt lat="47.27149" lon="-2.33984">
        <ele>23.200000762939</ele>
        <time>2020-02-20T09:03:44.000Z</time>
      </trkpt>
      <trkpt lat="47.27153" lon="-2.33987">
        <ele>23.60000038147</ele>
        <time>2020-02-20T09:03:45.000Z</time>
      </trkpt>
      <trkpt lat="47.27157" lon="-2.33991">
        <ele>24</ele>
        <time>2020-02-20T09:03:46.000Z</time>
      </trkpt>
      <trkpt lat="47.27162" lon="-2.33996">
        <ele>24.39999961853</ele>
        <time>2020-02-20T09:03:47.000Z</time>
      </trkpt>
      <trkpt lat="47.27166" lon="-2.34">
        <ele>24.799999237061</ele>
        <time>2020-02-20T09:03:48.000Z</time>
      </trkpt>
      <trkpt lat="47.27174" lon="-2.34009">
        <ele>24.799999237061</ele>
        <time>2020-02-20T09:03:50.000Z</time>
      </trkpt>
      <trkpt lat="47.27195" lon="-2.3403">
        <ele>25.200000762939</ele>
        <time>2020-02-20T09:03:55.000Z</time>
      </trkpt>
      <trkpt lat="47.272" lon="-2.34034">
        <ele>25.799999237061</ele>
        <time>2020-02-20T09:03:56.000Z</time>
      </trkpt>
      <trkpt lat="47.27204" lon="-2.34038">
        <ele>26.200000762939</ele>
        <time>2020-02-20T09:03:57.000Z</time>
      </trkpt>
      <trkpt lat="47.27208" lon="-2.34042">
        <ele>26.60000038147</ele>
        <time>2020-02-20T09:03:58.000Z</time>
      </trkpt>
      <trkpt lat="47.27212" lon="-2.34046">
        <ele>27</ele>
        <time>2020-02-20T09:03:59.000Z</time>
      </trkpt>
      <trkpt lat="47.27216" lon="-2.34049">
        <ele>27</ele>
        <time>2020-02-20T09:04:00.000Z</time>
      </trkpt>
      <trkpt lat="47.27225" lon="-2.34052">
        <ele>27</ele>
        <time>2020-02-20T09:04:02.000Z</time>
      </trkpt>
      <trkpt lat="47.27239" lon="-2.34051">
        <ele>27</ele>
        <time>2020-02-20T09:04:05.000Z</time>
      </trkpt>
      <trkpt lat="47.27249" lon="-2.34049">
        <ele>27</ele>
        <time>2020-02-20T09:04:07.000Z</time>
      </trkpt>
      <trkpt lat="47.27253" lon="-2.34049">
        <ele>27</ele>
        <time>2020-02-20T09:04:08.000Z</time>
      </trkpt>
      <trkpt lat="47.27265" lon="-2.34059">
        <ele>27</ele>
        <time>2020-02-20T09:04:11.000Z</time>
      </trkpt>
      <trkpt lat="47.27269" lon="-2.34063">
        <ele>27</ele>
        <time>2020-02-20T09:04:12.000Z</time>
      </trkpt>
      <trkpt lat="47.27273" lon="-2.34067">
        <ele>27</ele>
        <time>2020-02-20T09:04:13.000Z</time>
      </trkpt>
      <trkpt lat="47.2728" lon="-2.34085">
        <ele>27</ele>
        <time>2020-02-20T09:04:16.000Z</time>
      </trkpt>
      <trkpt lat="47.27283" lon="-2.34099">
        <ele>27</ele>
        <time>2020-02-20T09:04:18.000Z</time>
      </trkpt>
      <trkpt lat="47.27287" lon="-2.34113">
        <ele>27</ele>
        <time>2020-02-20T09:04:20.000Z</time>
      </trkpt>
      <trkpt lat="47.2729" lon="-2.34119">
        <ele>27</ele>
        <time>2020-02-20T09:04:21.000Z</time>
      </trkpt>
      <trkpt lat="47.27308" lon="-2.34136">
        <ele>27</ele>
        <time>2020-02-20T09:04:25.000Z</time>
      </trkpt>
      <trkpt lat="47.27351" lon="-2.34164">
        <ele>27</ele>
        <time>2020-02-20T09:04:34.000Z</time>
      </trkpt>
      <trkpt lat="47.2738" lon="-2.34182">
        <ele>27</ele>
        <time>2020-02-20T09:04:40.000Z</time>
      </trkpt>
      <trkpt lat="47.27384" lon="-2.34186">
        <ele>27</ele>
        <time>2020-02-20T09:04:41.000Z</time>
      </trkpt>
      <trkpt lat="47.27392" lon="-2.34194">
        <ele>27</ele>
        <time>2020-02-20T09:04:43.000Z</time>
      </trkpt>
      <trkpt lat="47.27398" lon="-2.34209">
        <ele>27</ele>
        <time>2020-02-20T09:04:46.000Z</time>
      </trkpt>
      <trkpt lat="47.27401" lon="-2.34221">
        <ele>27</ele>
        <time>2020-02-20T09:04:48.000Z</time>
      </trkpt>
      <trkpt lat="47.27408" lon="-2.3424">
        <ele>27</ele>
        <time>2020-02-20T09:04:52.000Z</time>
      </trkpt>
      <trkpt lat="47.27415" lon="-2.34258">
        <ele>27</ele>
        <time>2020-02-20T09:04:56.000Z</time>
      </trkpt>
      <trkpt lat="47.27416" lon="-2.34264">
        <ele>27</ele>
        <time>2020-02-20T09:04:57.000Z</time>
      </trkpt>
      <trkpt lat="47.27417" lon="-2.34293">
        <ele>27</ele>
        <time>2020-02-20T09:05:01.000Z</time>
      </trkpt>
      <trkpt lat="47.27417" lon="-2.34309">
        <ele>27</ele>
        <time>2020-02-20T09:05:03.000Z</time>
      </trkpt>
      <trkpt lat="47.27417" lon="-2.34324">
        <ele>27</ele>
        <time>2020-02-20T09:05:05.000Z</time>
      </trkpt>
      <trkpt lat="47.27417" lon="-2.34355">
        <ele>27</ele>
        <time>2020-02-20T09:05:09.000Z</time>
      </trkpt>
      <trkpt lat="47.2742" lon="-2.34393">
        <ele>27.39999961853</ele>
        <time>2020-02-20T09:05:14.000Z</time>
      </trkpt>
      <trkpt lat="47.27421" lon="-2.344">
        <ele>27.799999237061</ele>
        <time>2020-02-20T09:05:15.000Z</time>
      </trkpt>
      <trkpt lat="47.27422" lon="-2.34407">
        <ele>28.200000762939</ele>
        <time>2020-02-20T09:05:16.000Z</time>
      </trkpt>
      <trkpt lat="47.27422" lon="-2.34415">
        <ele>28.60000038147</ele>
        <time>2020-02-20T09:05:17.000Z</time>
      </trkpt>
      <trkpt lat="47.27422" lon="-2.34422">
        <ele>29</ele>
        <time>2020-02-20T09:05:18.000Z</time>
      </trkpt>
      <trkpt lat="47.27425" lon="-2.34457">
        <ele>29</ele>
        <time>2020-02-20T09:05:23.000Z</time>
      </trkpt>
      <trkpt lat="47.27433" lon="-2.34514">
        <ele>29</ele>
        <time>2020-02-20T09:05:31.000Z</time>
      </trkpt>
      <trkpt lat="47.2744" lon="-2.34548">
        <ele>29</ele>
        <time>2020-02-20T09:05:36.000Z</time>
      </trkpt>
      <trkpt lat="47.27443" lon="-2.34562">
        <ele>29.39999961853</ele>
        <time>2020-02-20T09:05:38.000Z</time>
      </trkpt>
      <trkpt lat="47.27444" lon="-2.34569">
        <ele>29.799999237061</ele>
        <time>2020-02-20T09:05:39.000Z</time>
      </trkpt>
      <trkpt lat="47.27446" lon="-2.34576">
        <ele>30.200000762939</ele>
        <time>2020-02-20T09:05:40.000Z</time>
      </trkpt>
      <trkpt lat="47.27447" lon="-2.34583">
        <ele>30.60000038147</ele>
        <time>2020-02-20T09:05:41.000Z</time>
      </trkpt>
      <trkpt lat="47.27449" lon="-2.3459">
        <ele>31</ele>
        <time>2020-02-20T09:05:42.000Z</time>
      </trkpt>
      <trkpt lat="47.27451" lon="-2.34604">
        <ele>31</ele>
        <time>2020-02-20T09:05:44.000Z</time>
      </trkpt>
      <trkpt lat="47.27457" lon="-2.34663">
        <ele>31</ele>
        <time>2020-02-20T09:05:52.000Z</time>
      </trkpt>
      <trkpt lat="47.27459" lon="-2.34705">
        <ele>31</ele>
        <time>2020-02-20T09:05:58.000Z</time>
      </trkpt>
      <trkpt lat="47.27458" lon="-2.34732">
        <ele>30.60000038147</ele>
        <time>2020-02-20T09:06:02.000Z</time>
      </trkpt>
      <trkpt lat="47.27457" lon="-2.3474">
        <ele>30.200000762939</ele>
        <time>2020-02-20T09:06:03.000Z</time>
      </trkpt>
      <trkpt lat="47.27457" lon="-2.34747">
        <ele>29.799999237061</ele>
        <time>2020-02-20T09:06:04.000Z</time>
      </trkpt>
      <trkpt lat="47.27457" lon="-2.34755">
        <ele>29.39999961853</ele>
        <time>2020-02-20T09:06:05.000Z</time>
      </trkpt>
      <trkpt lat="47.27458" lon="-2.34763">
        <ele>29</ele>
        <time>2020-02-20T09:06:06.000Z</time>
      </trkpt>
      <trkpt lat="47.2746" lon="-2.34804">
        <ele>29</ele>
        <time>2020-02-20T09:06:11.000Z</time>
      </trkpt>
      <trkpt lat="47.27463" lon="-2.34872">
        <ele>28.39999961853</ele>
        <time>2020-02-20T09:06:19.000Z</time>
      </trkpt>
      <trkpt lat="47.27462" lon="-2.3488">
        <ele>28</ele>
        <time>2020-02-20T09:06:20.000Z</time>
      </trkpt>
      <trkpt lat="47.27462" lon="-2.34888">
        <ele>27.60000038147</ele>
        <time>2020-02-20T09:06:21.000Z</time>
      </trkpt>
      <trkpt lat="47.27463" lon="-2.34896">
        <ele>27.200000762939</ele>
        <time>2020-02-20T09:06:22.000Z</time>
      </trkpt>
      <trkpt lat="47.27464" lon="-2.34903">
        <ele>26.799999237061</ele>
        <time>2020-02-20T09:06:23.000Z</time>
      </trkpt>
      <trkpt lat="47.27466" lon="-2.34911">
        <ele>26.799999237061</ele>
        <time>2020-02-20T09:06:24.000Z</time>
      </trkpt>
      <trkpt lat="47.27479" lon="-2.3496">
        <ele>26.799999237061</ele>
        <time>2020-02-20T09:06:31.000Z</time>
      </trkpt>
      <trkpt lat="47.27491" lon="-2.35003">
        <ele>26.799999237061</ele>
        <time>2020-02-20T09:06:37.000Z</time>
      </trkpt>
      <trkpt lat="47.27495" lon="-2.35017">
        <ele>26.799999237061</ele>
        <time>2020-02-20T09:06:39.000Z</time>
      </trkpt>
      <trkpt lat="47.27504" lon="-2.35053">
        <ele>26.799999237061</ele>
        <time>2020-02-20T09:06:44.000Z</time>
      </trkpt>
      <trkpt lat="47.27505" lon="-2.3506">
        <ele>27.200000762939</ele>
        <time>2020-02-20T09:06:45.000Z</time>
      </trkpt>
      <trkpt lat="47.27504" lon="-2.35066">
        <ele>27.60000038147</ele>
        <time>2020-02-20T09:06:46.000Z</time>
      </trkpt>
      <trkpt lat="47.27504" lon="-2.35073">
        <ele>28.200000762939</ele>
        <time>2020-02-20T09:06:47.000Z</time>
      </trkpt>
      <trkpt lat="47.27504" lon="-2.35081">
        <ele>28.60000038147</ele>
        <time>2020-02-20T09:06:48.000Z</time>
      </trkpt>
      <trkpt lat="47.27504" lon="-2.35088">
        <ele>29</ele>
        <time>2020-02-20T09:06:49.000Z</time>
      </trkpt>
      <trkpt lat="47.27504" lon="-2.35103">
        <ele>29</ele>
        <time>2020-02-20T09:06:51.000Z</time>
      </trkpt>
      <trkpt lat="47.27504" lon="-2.35116">
        <ele>29</ele>
        <time>2020-02-20T09:06:53.000Z</time>
      </trkpt>
      <trkpt lat="47.2751" lon="-2.35131">
        <ele>29</ele>
        <time>2020-02-20T09:06:56.000Z</time>
      </trkpt>
      <trkpt lat="47.27528" lon="-2.35141">
        <ele>29</ele>
        <time>2020-02-20T09:07:00.000Z</time>
      </trkpt>
      <trkpt lat="47.27544" lon="-2.35141">
        <ele>29</ele>
        <time>2020-02-20T09:07:03.000Z</time>
      </trkpt>
      <trkpt lat="47.27549" lon="-2.3514">
        <ele>29</ele>
        <time>2020-02-20T09:07:04.000Z</time>
      </trkpt>
      <trkpt lat="47.27583" lon="-2.35133">
        <ele>29</ele>
        <time>2020-02-20T09:07:10.000Z</time>
      </trkpt>
      <trkpt lat="47.27595" lon="-2.35132">
        <ele>29</ele>
        <time>2020-02-20T09:07:12.000Z</time>
      </trkpt>
      <trkpt lat="47.27605" lon="-2.3514">
        <ele>29</ele>
        <time>2020-02-20T09:07:14.000Z</time>
      </trkpt>
      <trkpt lat="47.27609" lon="-2.35154">
        <ele>29</ele>
        <time>2020-02-20T09:07:16.000Z</time>
      </trkpt>
      <trkpt lat="47.27617" lon="-2.35176">
        <ele>29</ele>
        <time>2020-02-20T09:07:19.000Z</time>
      </trkpt>
      <trkpt lat="47.27634" lon="-2.35174">
        <ele>28.39999961853</ele>
        <time>2020-02-20T09:07:22.000Z</time>
      </trkpt>
      <trkpt lat="47.27641" lon="-2.35173">
        <ele>28</ele>
        <time>2020-02-20T09:07:23.000Z</time>
      </trkpt>
      <trkpt lat="47.27647" lon="-2.35172">
        <ele>27.39999961853</ele>
        <time>2020-02-20T09:07:24.000Z</time>
      </trkpt>
      <trkpt lat="47.27653" lon="-2.35171">
        <ele>26.39999961853</ele>
        <time>2020-02-20T09:07:25.000Z</time>
      </trkpt>
      <trkpt lat="47.27666" lon="-2.35172">
        <ele>26.39999961853</ele>
        <time>2020-02-20T09:07:27.000Z</time>
      </trkpt>
      <trkpt lat="47.27671" lon="-2.35175">
        <ele>26.39999961853</ele>
        <time>2020-02-20T09:07:28.000Z</time>
      </trkpt>
      <trkpt lat="47.27679" lon="-2.35193">
        <ele>26.39999961853</ele>
        <time>2020-02-20T09:07:31.000Z</time>
      </trkpt>
      <trkpt lat="47.27681" lon="-2.35213">
        <ele>26</ele>
        <time>2020-02-20T09:07:34.000Z</time>
      </trkpt>
      <trkpt lat="47.27684" lon="-2.35216">
        <ele>25.39999961853</ele>
        <time>2020-02-20T09:07:35.000Z</time>
      </trkpt>
      <trkpt lat="47.27687" lon="-2.35216">
        <ele>25</ele>
        <time>2020-02-20T09:07:36.000Z</time>
      </trkpt>
      <trkpt lat="47.27692" lon="-2.35215">
        <ele>24.39999961853</ele>
        <time>2020-02-20T09:07:37.000Z</time>
      </trkpt>
      <trkpt lat="47.27697" lon="-2.35213">
        <ele>24</ele>
        <time>2020-02-20T09:07:38.000Z</time>
      </trkpt>
      <trkpt lat="47.27731" lon="-2.35202">
        <ele>24</ele>
        <time>2020-02-20T09:07:44.000Z</time>
      </trkpt>
      <trkpt lat="47.27737" lon="-2.35202">
        <ele>23.60000038147</ele>
        <time>2020-02-20T09:07:45.000Z</time>
      </trkpt>
      <trkpt lat="47.27743" lon="-2.352">
        <ele>23.200000762939</ele>
        <time>2020-02-20T09:07:46.000Z</time>
      </trkpt>
      <trkpt lat="47.2775" lon="-2.35199">
        <ele>22.799999237061</ele>
        <time>2020-02-20T09:07:47.000Z</time>
      </trkpt>
      <trkpt lat="47.27757" lon="-2.35198">
        <ele>22.200000762939</ele>
        <time>2020-02-20T09:07:48.000Z</time>
      </trkpt>
      <trkpt lat="47.27762" lon="-2.35198">
        <ele>21.799999237061</ele>
        <time>2020-02-20T09:07:49.000Z</time>
      </trkpt>
      <trkpt lat="47.27774" lon="-2.352">
        <ele>21.39999961853</ele>
        <time>2020-02-20T09:07:52.000Z</time>
      </trkpt>
      <trkpt lat="47.27776" lon="-2.35204">
        <ele>21</ele>
        <time>2020-02-20T09:07:53.000Z</time>
      </trkpt>
      <trkpt lat="47.27777" lon="-2.35209">
        <ele>20.60000038147</ele>
        <time>2020-02-20T09:07:54.000Z</time>
      </trkpt>
      <trkpt lat="47.27778" lon="-2.35215">
        <ele>20.200000762939</ele>
        <time>2020-02-20T09:07:55.000Z</time>
      </trkpt>
      <trkpt lat="47.2778" lon="-2.3522">
        <ele>19.799999237061</ele>
        <time>2020-02-20T09:07:56.000Z</time>
      </trkpt>
      <trkpt lat="47.27781" lon="-2.35227">
        <ele>19.799999237061</ele>
        <time>2020-02-20T09:07:57.000Z</time>
      </trkpt>
      <trkpt lat="47.27783" lon="-2.35234">
        <ele>19.799999237061</ele>
        <time>2020-02-20T09:07:58.000Z</time>
      </trkpt>
      <trkpt lat="47.27785" lon="-2.35261">
        <ele>19.799999237061</ele>
        <time>2020-02-20T09:08:01.000Z</time>
      </trkpt>
      <trkpt lat="47.27794" lon="-2.35303">
        <ele>19.799999237061</ele>
        <time>2020-02-20T09:08:06.000Z</time>
      </trkpt>
      <trkpt lat="47.27805" lon="-2.35353">
        <ele>19.799999237061</ele>
        <time>2020-02-20T09:08:12.000Z</time>
      </trkpt>
      <trkpt lat="47.27817" lon="-2.35364">
        <ele>19.799999237061</ele>
        <time>2020-02-20T09:08:15.000Z</time>
      </trkpt>
      <trkpt lat="47.27827" lon="-2.35363">
        <ele>19.799999237061</ele>
        <time>2020-02-20T09:08:17.000Z</time>
      </trkpt>
      <trkpt lat="47.27843" lon="-2.35362">
        <ele>19.799999237061</ele>
        <time>2020-02-20T09:08:20.000Z</time>
      </trkpt>
      <trkpt lat="47.2787" lon="-2.35362">
        <ele>19.799999237061</ele>
        <time>2020-02-20T09:08:25.000Z</time>
      </trkpt>
      <trkpt lat="47.2788" lon="-2.35368">
        <ele>19.799999237061</ele>
        <time>2020-02-20T09:08:27.000Z</time>
      </trkpt>
      <trkpt lat="47.27885" lon="-2.35373">
        <ele>20.200000762939</ele>
        <time>2020-02-20T09:08:28.000Z</time>
      </trkpt>
      <trkpt lat="47.27889" lon="-2.35378">
        <ele>20.799999237061</ele>
        <time>2020-02-20T09:08:29.000Z</time>
      </trkpt>
      <trkpt lat="47.27893" lon="-2.35383">
        <ele>21.200000762939</ele>
        <time>2020-02-20T09:08:30.000Z</time>
      </trkpt>
      <trkpt lat="47.27897" lon="-2.35389">
        <ele>21.60000038147</ele>
        <time>2020-02-20T09:08:31.000Z</time>
      </trkpt>
      <trkpt lat="47.27901" lon="-2.35394">
        <ele>22.200000762939</ele>
        <time>2020-02-20T09:08:32.000Z</time>
      </trkpt>
      <trkpt lat="47.27905" lon="-2.354">
        <ele>22.200000762939</ele>
        <time>2020-02-20T09:08:33.000Z</time>
      </trkpt>
      <trkpt lat="47.27936" lon="-2.35441">
        <ele>22.200000762939</ele>
        <time>2020-02-20T09:08:41.000Z</time>
      </trkpt>
      <trkpt lat="47.2794" lon="-2.35446">
        <ele>22.200000762939</ele>
        <time>2020-02-20T09:08:42.000Z</time>
      </trkpt>
      <trkpt lat="47.27955" lon="-2.35458">
        <ele>22.200000762939</ele>
        <time>2020-02-20T09:08:45.000Z</time>
      </trkpt>
      <trkpt lat="47.2796" lon="-2.35461">
        <ele>22.200000762939</ele>
        <time>2020-02-20T09:08:46.000Z</time>
      </trkpt>
      <trkpt lat="47.27974" lon="-2.3547">
        <ele>22.200000762939</ele>
        <time>2020-02-20T09:08:49.000Z</time>
      </trkpt>
      <trkpt lat="47.27982" lon="-2.35481">
        <ele>22.200000762939</ele>
        <time>2020-02-20T09:08:51.000Z</time>
      </trkpt>
      <trkpt lat="47.27987" lon="-2.35495">
        <ele>22.200000762939</ele>
        <time>2020-02-20T09:08:53.000Z</time>
      </trkpt>
      <trkpt lat="47.27991" lon="-2.35516">
        <ele>22.200000762939</ele>
        <time>2020-02-20T09:08:56.000Z</time>
      </trkpt>
      <trkpt lat="47.27994" lon="-2.35528">
        <ele>22.200000762939</ele>
        <time>2020-02-20T09:08:58.000Z</time>
      </trkpt>
      <trkpt lat="47.27998" lon="-2.35543">
        <ele>22.200000762939</ele>
        <time>2020-02-20T09:09:01.000Z</time>
      </trkpt>
      <trkpt lat="47.2801" lon="-2.35557">
        <ele>22.200000762939</ele>
        <time>2020-02-20T09:09:05.000Z</time>
      </trkpt>
      <trkpt lat="47.28018" lon="-2.35556">
        <ele>22.60000038147</ele>
        <time>2020-02-20T09:09:07.000Z</time>
      </trkpt>
      <trkpt lat="47.28023" lon="-2.35555">
        <ele>23</ele>
        <time>2020-02-20T09:09:08.000Z</time>
      </trkpt>
      <trkpt lat="47.28028" lon="-2.35556">
        <ele>23.39999961853</ele>
        <time>2020-02-20T09:09:09.000Z</time>
      </trkpt>
      <trkpt lat="47.28032" lon="-2.35558">
        <ele>23.799999237061</ele>
        <time>2020-02-20T09:09:10.000Z</time>
      </trkpt>
      <trkpt lat="47.28034" lon="-2.35562">
        <ele>24.200000762939</ele>
        <time>2020-02-20T09:09:11.000Z</time>
      </trkpt>
      <trkpt lat="47.28045" lon="-2.35576">
        <ele>24.200000762939</ele>
        <time>2020-02-20T09:09:15.000Z</time>
      </trkpt>
      <trkpt lat="47.28058" lon="-2.35584">
        <ele>24.200000762939</ele>
        <time>2020-02-20T09:09:19.000Z</time>
      </trkpt>
      <trkpt lat="47.28058" lon="-2.35587">
        <ele>24.60000038147</ele>
        <time>2020-02-20T09:09:20.000Z</time>
      </trkpt>
      <trkpt lat="47.28059" lon="-2.3559">
        <ele>25</ele>
        <time>2020-02-20T09:09:21.000Z</time>
      </trkpt>
      <trkpt lat="47.2806" lon="-2.35593">
        <ele>25.60000038147</ele>
        <time>2020-02-20T09:09:22.000Z</time>
      </trkpt>
      <trkpt lat="47.28062" lon="-2.35596">
        <ele>26</ele>
        <time>2020-02-20T09:09:23.000Z</time>
      </trkpt>
      <trkpt lat="47.28065" lon="-2.35598">
        <ele>26.39999961853</ele>
        <time>2020-02-20T09:09:24.000Z</time>
      </trkpt>
      <trkpt lat="47.2807" lon="-2.35606">
        <ele>26.39999961853</ele>
        <time>2020-02-20T09:09:26.000Z</time>
      </trkpt>
      <trkpt lat="47.28075" lon="-2.35617">
        <ele>26.39999961853</ele>
        <time>2020-02-20T09:09:28.000Z</time>
      </trkpt>
      <trkpt lat="47.28077" lon="-2.35634">
        <ele>26.39999961853</ele>
        <time>2020-02-20T09:09:31.000Z</time>
      </trkpt>
      <trkpt lat="47.28078" lon="-2.35644">
        <ele>27</ele>
        <time>2020-02-20T09:09:33.000Z</time>
      </trkpt>
      <trkpt lat="47.28079" lon="-2.35649">
        <ele>27.39999961853</ele>
        <time>2020-02-20T09:09:34.000Z</time>
      </trkpt>
      <trkpt lat="47.2808" lon="-2.35653">
        <ele>28</ele>
        <time>2020-02-20T09:09:35.000Z</time>
      </trkpt>
      <trkpt lat="47.28081" lon="-2.35656">
        <ele>28.39999961853</ele>
        <time>2020-02-20T09:09:36.000Z</time>
      </trkpt>
      <trkpt lat="47.28082" lon="-2.35661">
        <ele>29</ele>
        <time>2020-02-20T09:09:37.000Z</time>
      </trkpt>
      <trkpt lat="47.28083" lon="-2.35665">
        <ele>29.39999961853</ele>
        <time>2020-02-20T09:09:38.000Z</time>
      </trkpt>
      <trkpt lat="47.28084" lon="-2.35669">
        <ele>29.799999237061</ele>
        <time>2020-02-20T09:09:39.000Z</time>
      </trkpt>
      <trkpt lat="47.28086" lon="-2.35673">
        <ele>30.200000762939</ele>
        <time>2020-02-20T09:09:40.000Z</time>
      </trkpt>
      <trkpt lat="47.28087" lon="-2.35678">
        <ele>30.60000038147</ele>
        <time>2020-02-20T09:09:41.000Z</time>
      </trkpt>
      <trkpt lat="47.28088" lon="-2.35683">
        <ele>31</ele>
        <time>2020-02-20T09:09:42.000Z</time>
      </trkpt>
      <trkpt lat="47.28092" lon="-2.35702">
        <ele>31.39999961853</ele>
        <time>2020-02-20T09:09:47.000Z</time>
      </trkpt>
      <trkpt lat="47.28093" lon="-2.35706">
        <ele>31.799999237061</ele>
        <time>2020-02-20T09:09:48.000Z</time>
      </trkpt>
      <trkpt lat="47.28093" lon="-2.35709">
        <ele>32.200000762939</ele>
        <time>2020-02-20T09:09:49.000Z</time>
      </trkpt>
      <trkpt lat="47.28092" lon="-2.35713">
        <ele>32.599998474121</ele>
        <time>2020-02-20T09:09:50.000Z</time>
      </trkpt>
      <trkpt lat="47.28092" lon="-2.35717">
        <ele>33.200000762939</ele>
        <time>2020-02-20T09:09:51.000Z</time>
      </trkpt>
      <trkpt lat="47.28089" lon="-2.35726">
        <ele>33.200000762939</ele>
        <time>2020-02-20T09:09:53.000Z</time>
      </trkpt>
      <trkpt lat="47.28088" lon="-2.35737">
        <ele>33.200000762939</ele>
        <time>2020-02-20T09:09:55.000Z</time>
      </trkpt>
      <trkpt lat="47.28087" lon="-2.35755">
        <ele>33.200000762939</ele>
        <time>2020-02-20T09:09:57.000Z</time>
      </trkpt>
      <trkpt lat="47.28079" lon="-2.35787">
        <ele>32.599998474121</ele>
        <time>2020-02-20T09:10:01.000Z</time>
      </trkpt>
      <trkpt lat="47.2808" lon="-2.35792">
        <ele>32.200000762939</ele>
        <time>2020-02-20T09:10:02.000Z</time>
      </trkpt>
      <trkpt lat="47.28081" lon="-2.35798">
        <ele>31.799999237061</ele>
        <time>2020-02-20T09:10:03.000Z</time>
      </trkpt>
      <trkpt lat="47.28083" lon="-2.35803">
        <ele>31.200000762939</ele>
        <time>2020-02-20T09:10:04.000Z</time>
      </trkpt>
      <trkpt lat="47.28086" lon="-2.35809">
        <ele>30.60000038147</ele>
        <time>2020-02-20T09:10:05.000Z</time>
      </trkpt>
      <trkpt lat="47.28089" lon="-2.35815">
        <ele>30.200000762939</ele>
        <time>2020-02-20T09:10:06.000Z</time>
      </trkpt>
      <trkpt lat="47.28092" lon="-2.35822">
        <ele>29.60000038147</ele>
        <time>2020-02-20T09:10:07.000Z</time>
      </trkpt>
      <trkpt lat="47.28096" lon="-2.35829">
        <ele>29</ele>
        <time>2020-02-20T09:10:08.000Z</time>
      </trkpt>
      <trkpt lat="47.28108" lon="-2.35852">
        <ele>29</ele>
        <time>2020-02-20T09:10:12.000Z</time>
      </trkpt>
      <trkpt lat="47.28113" lon="-2.35863">
        <ele>29</ele>
        <time>2020-02-20T09:10:14.000Z</time>
      </trkpt>
      <trkpt lat="47.28121" lon="-2.35873">
        <ele>29</ele>
        <time>2020-02-20T09:10:16.000Z</time>
      </trkpt>
      <trkpt lat="47.28137" lon="-2.35894">
        <ele>29</ele>
        <time>2020-02-20T09:10:21.000Z</time>
      </trkpt>
      <trkpt lat="47.28153" lon="-2.35922">
        <ele>29</ele>
        <time>2020-02-20T09:10:26.000Z</time>
      </trkpt>
      <trkpt lat="47.28157" lon="-2.35927">
        <ele>29</ele>
        <time>2020-02-20T09:10:27.000Z</time>
      </trkpt>
      <trkpt lat="47.28169" lon="-2.35945">
        <ele>29</ele>
        <time>2020-02-20T09:10:30.000Z</time>
      </trkpt>
      <trkpt lat="47.28172" lon="-2.35952">
        <ele>29</ele>
        <time>2020-02-20T09:10:31.000Z</time>
      </trkpt>
      <trkpt lat="47.28178" lon="-2.35967">
        <ele>29</ele>
        <time>2020-02-20T09:10:33.000Z</time>
      </trkpt>
      <trkpt lat="47.28185" lon="-2.35982">
        <ele>29</ele>
        <time>2020-02-20T09:10:35.000Z</time>
      </trkpt>
      <trkpt lat="47.28202" lon="-2.36024">
        <ele>29</ele>
        <time>2020-02-20T09:10:41.000Z</time>
      </trkpt>
      <trkpt lat="47.28212" lon="-2.36054">
        <ele>29</ele>
        <time>2020-02-20T09:10:46.000Z</time>
      </trkpt>
      <trkpt lat="47.28223" lon="-2.36086">
        <ele>29</ele>
        <time>2020-02-20T09:10:51.000Z</time>
      </trkpt>
      <trkpt lat="47.28229" lon="-2.361">
        <ele>29</ele>
        <time>2020-02-20T09:10:55.000Z</time>
      </trkpt>
      <trkpt lat="47.28237" lon="-2.36116">
        <ele>29</ele>
        <time>2020-02-20T09:10:59.000Z</time>
      </trkpt>
      <trkpt lat="47.28249" lon="-2.36155">
        <ele>29</ele>
        <time>2020-02-20T09:11:05.000Z</time>
      </trkpt>
      <trkpt lat="47.28265" lon="-2.36193">
        <ele>28.60000038147</ele>
        <time>2020-02-20T09:11:11.000Z</time>
      </trkpt>
      <trkpt lat="47.28269" lon="-2.36201">
        <ele>28.200000762939</ele>
        <time>2020-02-20T09:11:12.000Z</time>
      </trkpt>
      <trkpt lat="47.28274" lon="-2.3621">
        <ele>27.799999237061</ele>
        <time>2020-02-20T09:11:13.000Z</time>
      </trkpt>
      <trkpt lat="47.28278" lon="-2.36216">
        <ele>27.39999961853</ele>
        <time>2020-02-20T09:11:14.000Z</time>
      </trkpt>
      <trkpt lat="47.28282" lon="-2.36222">
        <ele>27</ele>
        <time>2020-02-20T09:11:15.000Z</time>
      </trkpt>
      <trkpt lat="47.28286" lon="-2.36227">
        <ele>27</ele>
        <time>2020-02-20T09:11:16.000Z</time>
      </trkpt>
      <trkpt lat="47.28302" lon="-2.36244">
        <ele>27</ele>
        <time>2020-02-20T09:11:21.000Z</time>
      </trkpt>
      <trkpt lat="47.28315" lon="-2.36262">
        <ele>27</ele>
        <time>2020-02-20T09:11:26.000Z</time>
      </trkpt>
      <trkpt lat="47.28324" lon="-2.36273">
        <ele>27</ele>
        <time>2020-02-20T09:11:31.000Z</time>
      </trkpt>
      <trkpt lat="47.28327" lon="-2.36277">
        <ele>27.39999961853</ele>
        <time>2020-02-20T09:11:33.000Z</time>
      </trkpt>
      <trkpt lat="47.28329" lon="-2.36279">
        <ele>27.799999237061</ele>
        <time>2020-02-20T09:11:34.000Z</time>
      </trkpt>
      <trkpt lat="47.2833" lon="-2.36281">
        <ele>28.200000762939</ele>
        <time>2020-02-20T09:11:35.000Z</time>
      </trkpt>
      <trkpt lat="47.28332" lon="-2.36283">
        <ele>28.799999237061</ele>
        <time>2020-02-20T09:11:36.000Z</time>
      </trkpt>
      <trkpt lat="47.28334" lon="-2.36285">
        <ele>29.200000762939</ele>
        <time>2020-02-20T09:11:37.000Z</time>
      </trkpt>
      <trkpt lat="47.28337" lon="-2.36289">
        <ele>29.200000762939</ele>
        <time>2020-02-20T09:11:39.000Z</time>
      </trkpt>
      <trkpt lat="47.28351" lon="-2.36307">
        <ele>29.60000038147</ele>
        <time>2020-02-20T09:11:44.000Z</time>
      </trkpt>
      <trkpt lat="47.28353" lon="-2.36309">
        <ele>30</ele>
        <time>2020-02-20T09:11:45.000Z</time>
      </trkpt>
      <trkpt lat="47.28354" lon="-2.36311">
        <ele>30.39999961853</ele>
        <time>2020-02-20T09:11:46.000Z</time>
      </trkpt>
      <trkpt lat="47.28355" lon="-2.36313">
        <ele>30.799999237061</ele>
        <time>2020-02-20T09:11:47.000Z</time>
      </trkpt>
      <trkpt lat="47.28357" lon="-2.36314">
        <ele>31.200000762939</ele>
        <time>2020-02-20T09:11:48.000Z</time>
      </trkpt>
      <trkpt lat="47.28363" lon="-2.36319">
        <ele>31.200000762939</ele>
        <time>2020-02-20T09:11:51.000Z</time>
      </trkpt>
      <trkpt lat="47.28373" lon="-2.36325">
        <ele>31.60000038147</ele>
        <time>2020-02-20T09:11:55.000Z</time>
      </trkpt>
      <trkpt lat="47.28376" lon="-2.36329">
        <ele>32.599998474121</ele>
        <time>2020-02-20T09:11:56.000Z</time>
      </trkpt>
      <trkpt lat="47.2838" lon="-2.36334">
        <ele>33</ele>
        <time>2020-02-20T09:11:57.000Z</time>
      </trkpt>
      <trkpt lat="47.28384" lon="-2.36338">
        <ele>33.400001525879</ele>
        <time>2020-02-20T09:11:58.000Z</time>
      </trkpt>
      <trkpt lat="47.28401" lon="-2.36359">
        <ele>33.400001525879</ele>
        <time>2020-02-20T09:12:03.000Z</time>
      </trkpt>
      <trkpt lat="47.28416" lon="-2.36372">
        <ele>33.400001525879</ele>
        <time>2020-02-20T09:12:08.000Z</time>
      </trkpt>
      <trkpt lat="47.28429" lon="-2.36383">
        <ele>33.400001525879</ele>
        <time>2020-02-20T09:12:13.000Z</time>
      </trkpt>
      <trkpt lat="47.28431" lon="-2.36385">
        <ele>33.400001525879</ele>
        <time>2020-02-20T09:12:14.000Z</time>
      </trkpt>
      <trkpt lat="47.28434" lon="-2.36389">
        <ele>33.799999237061</ele>
        <time>2020-02-20T09:12:16.000Z</time>
      </trkpt>
      <trkpt lat="47.28437" lon="-2.36391">
        <ele>34.200000762939</ele>
        <time>2020-02-20T09:12:17.000Z</time>
      </trkpt>
      <trkpt lat="47.2844" lon="-2.36393">
        <ele>34.599998474121</ele>
        <time>2020-02-20T09:12:18.000Z</time>
      </trkpt>
      <trkpt lat="47.28441" lon="-2.36396">
        <ele>35.200000762939</ele>
        <time>2020-02-20T09:12:19.000Z</time>
      </trkpt>
      <trkpt lat="47.28444" lon="-2.36399">
        <ele>35.599998474121</ele>
        <time>2020-02-20T09:12:20.000Z</time>
      </trkpt>
      <trkpt lat="47.28449" lon="-2.36406">
        <ele>35.599998474121</ele>
        <time>2020-02-20T09:12:22.000Z</time>
      </trkpt>
      <trkpt lat="47.28463" lon="-2.36415">
        <ele>35.599998474121</ele>
        <time>2020-02-20T09:12:27.000Z</time>
      </trkpt>
      <trkpt lat="47.28466" lon="-2.36418">
        <ele>36</ele>
        <time>2020-02-20T09:12:29.000Z</time>
      </trkpt>
      <trkpt lat="47.28468" lon="-2.36419">
        <ele>36.400001525879</ele>
        <time>2020-02-20T09:12:30.000Z</time>
      </trkpt>
      <trkpt lat="47.28469" lon="-2.3642">
        <ele>36.799999237061</ele>
        <time>2020-02-20T09:12:31.000Z</time>
      </trkpt>
      <trkpt lat="47.28471" lon="-2.36423">
        <ele>37.200000762939</ele>
        <time>2020-02-20T09:12:32.000Z</time>
      </trkpt>
      <trkpt lat="47.28474" lon="-2.36426">
        <ele>37.599998474121</ele>
        <time>2020-02-20T09:12:33.000Z</time>
      </trkpt>
      <trkpt lat="47.28495" lon="-2.36444">
        <ele>37.599998474121</ele>
        <time>2020-02-20T09:12:39.000Z</time>
      </trkpt>
      <trkpt lat="47.2851" lon="-2.36462">
        <ele>37.599998474121</ele>
        <time>2020-02-20T09:12:43.000Z</time>
      </trkpt>
      <trkpt lat="47.28516" lon="-2.36488">
        <ele>37.599998474121</ele>
        <time>2020-02-20T09:12:48.000Z</time>
      </trkpt>
      <trkpt lat="47.28516" lon="-2.36499">
        <ele>37.599998474121</ele>
        <time>2020-02-20T09:12:50.000Z</time>
      </trkpt>
      <trkpt lat="47.28511" lon="-2.36507">
        <ele>37.599998474121</ele>
        <time>2020-02-20T09:12:52.000Z</time>
      </trkpt>
      <trkpt lat="47.28505" lon="-2.36513">
        <ele>37.200000762939</ele>
        <time>2020-02-20T09:12:54.000Z</time>
      </trkpt>
      <trkpt lat="47.28502" lon="-2.36516">
        <ele>36.799999237061</ele>
        <time>2020-02-20T09:12:55.000Z</time>
      </trkpt>
      <trkpt lat="47.28499" lon="-2.36517">
        <ele>36.400001525879</ele>
        <time>2020-02-20T09:12:56.000Z</time>
      </trkpt>
      <trkpt lat="47.28497" lon="-2.3652">
        <ele>36</ele>
        <time>2020-02-20T09:12:57.000Z</time>
      </trkpt>
      <trkpt lat="47.28494" lon="-2.36524">
        <ele>35.599998474121</ele>
        <time>2020-02-20T09:12:58.000Z</time>
      </trkpt>
      <trkpt lat="47.28474" lon="-2.36553">
        <ele>35.599998474121</ele>
        <time>2020-02-20T09:13:05.000Z</time>
      </trkpt>
      <trkpt lat="47.28472" lon="-2.36558">
        <ele>35.599998474121</ele>
        <time>2020-02-20T09:13:06.000Z</time>
      </trkpt>
      <trkpt lat="47.28469" lon="-2.3657">
        <ele>35.200000762939</ele>
        <time>2020-02-20T09:13:08.000Z</time>
      </trkpt>
      <trkpt lat="47.2847" lon="-2.36578">
        <ele>34.799999237061</ele>
        <time>2020-02-20T09:13:09.000Z</time>
      </trkpt>
      <trkpt lat="47.28472" lon="-2.36584">
        <ele>33.799999237061</ele>
        <time>2020-02-20T09:13:10.000Z</time>
      </trkpt>
      <trkpt lat="47.28474" lon="-2.36591">
        <ele>33.400001525879</ele>
        <time>2020-02-20T09:13:11.000Z</time>
      </trkpt>
      <trkpt lat="47.28476" lon="-2.36597">
        <ele>33.400001525879</ele>
        <time>2020-02-20T09:13:12.000Z</time>
      </trkpt>
      <trkpt lat="47.28477" lon="-2.36603">
        <ele>33.400001525879</ele>
        <time>2020-02-20T09:13:13.000Z</time>
      </trkpt>
      <trkpt lat="47.28488" lon="-2.36641">
        <ele>33.400001525879</ele>
        <time>2020-02-20T09:13:20.000Z</time>
      </trkpt>
      <trkpt lat="47.28498" lon="-2.3667">
        <ele>33.400001525879</ele>
        <time>2020-02-20T09:13:26.000Z</time>
      </trkpt>
      <trkpt lat="47.28511" lon="-2.36687">
        <ele>33.400001525879</ele>
        <time>2020-02-20T09:13:31.000Z</time>
      </trkpt>
      <trkpt lat="47.28516" lon="-2.36697">
        <ele>33.400001525879</ele>
        <time>2020-02-20T09:13:33.000Z</time>
      </trkpt>
      <trkpt lat="47.28524" lon="-2.3671">
        <ele>33</ele>
        <time>2020-02-20T09:13:35.000Z</time>
      </trkpt>
      <trkpt lat="47.28528" lon="-2.36717">
        <ele>32.599998474121</ele>
        <time>2020-02-20T09:13:36.000Z</time>
      </trkpt>
      <trkpt lat="47.28532" lon="-2.36725">
        <ele>32.200000762939</ele>
        <time>2020-02-20T09:13:37.000Z</time>
      </trkpt>
      <trkpt lat="47.28537" lon="-2.36734">
        <ele>31.799999237061</ele>
        <time>2020-02-20T09:13:38.000Z</time>
      </trkpt>
      <trkpt lat="47.28541" lon="-2.36742">
        <ele>31.39999961853</ele>
        <time>2020-02-20T09:13:39.000Z</time>
      </trkpt>
      <trkpt lat="47.28546" lon="-2.36751">
        <ele>31.39999961853</ele>
        <time>2020-02-20T09:13:40.000Z</time>
      </trkpt>
      <trkpt lat="47.28556" lon="-2.36769">
        <ele>31</ele>
        <time>2020-02-20T09:13:42.000Z</time>
      </trkpt>
      <trkpt lat="47.28561" lon="-2.36779">
        <ele>30.60000038147</ele>
        <time>2020-02-20T09:13:43.000Z</time>
      </trkpt>
      <trkpt lat="47.28566" lon="-2.36788">
        <ele>30.200000762939</ele>
        <time>2020-02-20T09:13:44.000Z</time>
      </trkpt>
      <trkpt lat="47.28571" lon="-2.36796">
        <ele>29.799999237061</ele>
        <time>2020-02-20T09:13:45.000Z</time>
      </trkpt>
      <trkpt lat="47.28576" lon="-2.36805">
        <ele>29.39999961853</ele>
        <time>2020-02-20T09:13:46.000Z</time>
      </trkpt>
      <trkpt lat="47.28581" lon="-2.36813">
        <ele>29.39999961853</ele>
        <time>2020-02-20T09:13:47.000Z</time>
      </trkpt>
      <trkpt lat="47.28597" lon="-2.36841">
        <ele>28.799999237061</ele>
        <time>2020-02-20T09:13:51.000Z</time>
      </trkpt>
      <trkpt lat="47.28601" lon="-2.36844">
        <ele>28.39999961853</ele>
        <time>2020-02-20T09:13:52.000Z</time>
      </trkpt>
      <trkpt lat="47.28605" lon="-2.36847">
        <ele>28</ele>
        <time>2020-02-20T09:13:53.000Z</time>
      </trkpt>
      <trkpt lat="47.28609" lon="-2.36849">
        <ele>27.60000038147</ele>
        <time>2020-02-20T09:13:54.000Z</time>
      </trkpt>
      <trkpt lat="47.28614" lon="-2.36846">
        <ele>27</ele>
        <time>2020-02-20T09:13:55.000Z</time>
      </trkpt>
      <trkpt lat="47.28627" lon="-2.36831">
        <ele>27</ele>
        <time>2020-02-20T09:13:58.000Z</time>
      </trkpt>
      <trkpt lat="47.2863" lon="-2.36826">
        <ele>27</ele>
        <time>2020-02-20T09:13:59.000Z</time>
      </trkpt>
      <trkpt lat="47.28654" lon="-2.36799">
        <ele>27</ele>
        <time>2020-02-20T09:14:06.000Z</time>
      </trkpt>
      <trkpt lat="47.28662" lon="-2.36796">
        <ele>27</ele>
        <time>2020-02-20T09:14:08.000Z</time>
      </trkpt>
      <trkpt lat="47.28667" lon="-2.36798">
        <ele>27</ele>
        <time>2020-02-20T09:14:10.000Z</time>
      </trkpt>
      <trkpt lat="47.28675" lon="-2.36813">
        <ele>27</ele>
        <time>2020-02-20T09:14:15.000Z</time>
      </trkpt>
      <trkpt lat="47.28687" lon="-2.36836">
        <ele>27</ele>
        <time>2020-02-20T09:14:20.000Z</time>
      </trkpt>
      <trkpt lat="47.28696" lon="-2.36853">
        <ele>27</ele>
        <time>2020-02-20T09:14:23.000Z</time>
      </trkpt>
      <trkpt lat="47.28701" lon="-2.36863">
        <ele>27</ele>
        <time>2020-02-20T09:14:25.000Z</time>
      </trkpt>
      <trkpt lat="47.28705" lon="-2.36869">
        <ele>27</ele>
        <time>2020-02-20T09:14:26.000Z</time>
      </trkpt>
      <trkpt lat="47.28719" lon="-2.36895">
        <ele>27</ele>
        <time>2020-02-20T09:14:30.000Z</time>
      </trkpt>
      <trkpt lat="47.28725" lon="-2.369">
        <ele>26.60000038147</ele>
        <time>2020-02-20T09:14:31.000Z</time>
      </trkpt>
      <trkpt lat="47.2873" lon="-2.36905">
        <ele>26.200000762939</ele>
        <time>2020-02-20T09:14:32.000Z</time>
      </trkpt>
      <trkpt lat="47.28735" lon="-2.3691">
        <ele>25.799999237061</ele>
        <time>2020-02-20T09:14:33.000Z</time>
      </trkpt>
      <trkpt lat="47.28738" lon="-2.36916">
        <ele>25.39999961853</ele>
        <time>2020-02-20T09:14:34.000Z</time>
      </trkpt>
      <trkpt lat="47.2874" lon="-2.3692">
        <ele>25</ele>
        <time>2020-02-20T09:14:35.000Z</time>
      </trkpt>
      <trkpt lat="47.28745" lon="-2.36931">
        <ele>25</ele>
        <time>2020-02-20T09:14:38.000Z</time>
      </trkpt>
      <trkpt lat="47.2875" lon="-2.36942">
        <ele>25</ele>
        <time>2020-02-20T09:14:42.000Z</time>
      </trkpt>
      <trkpt lat="47.28751" lon="-2.36946">
        <ele>25.39999961853</ele>
        <time>2020-02-20T09:14:44.000Z</time>
      </trkpt>
      <trkpt lat="47.28751" lon="-2.36949">
        <ele>26</ele>
        <time>2020-02-20T09:14:45.000Z</time>
      </trkpt>
      <trkpt lat="47.28751" lon="-2.36951">
        <ele>26.39999961853</ele>
        <time>2020-02-20T09:14:46.000Z</time>
      </trkpt>
      <trkpt lat="47.28752" lon="-2.36954">
        <ele>26.799999237061</ele>
        <time>2020-02-20T09:14:47.000Z</time>
      </trkpt>
      <trkpt lat="47.28752" lon="-2.36957">
        <ele>27.200000762939</ele>
        <time>2020-02-20T09:14:48.000Z</time>
      </trkpt>
      <trkpt lat="47.28754" lon="-2.3696">
        <ele>27.60000038147</ele>
        <time>2020-02-20T09:14:49.000Z</time>
      </trkpt>
      <trkpt lat="47.28755" lon="-2.36964">
        <ele>28</ele>
        <time>2020-02-20T09:14:50.000Z</time>
      </trkpt>
      <trkpt lat="47.28757" lon="-2.36968">
        <ele>28.39999961853</ele>
        <time>2020-02-20T09:14:51.000Z</time>
      </trkpt>
      <trkpt lat="47.28759" lon="-2.36973">
        <ele>28.799999237061</ele>
        <time>2020-02-20T09:14:52.000Z</time>
      </trkpt>
      <trkpt lat="47.28761" lon="-2.36977">
        <ele>29.39999961853</ele>
        <time>2020-02-20T09:14:53.000Z</time>
      </trkpt>
      <trkpt lat="47.28769" lon="-2.36988">
        <ele>29.39999961853</ele>
        <time>2020-02-20T09:14:56.000Z</time>
      </trkpt>
      <trkpt lat="47.28773" lon="-2.36999">
        <ele>29.39999961853</ele>
        <time>2020-02-20T09:14:58.000Z</time>
      </trkpt>
      <trkpt lat="47.28777" lon="-2.37009">
        <ele>29.39999961853</ele>
        <time>2020-02-20T09:15:00.000Z</time>
      </trkpt>
      <trkpt lat="47.28787" lon="-2.37039">
        <ele>29.39999961853</ele>
        <time>2020-02-20T09:15:05.000Z</time>
      </trkpt>
      <trkpt lat="47.2879" lon="-2.37055">
        <ele>29.39999961853</ele>
        <time>2020-02-20T09:15:07.000Z</time>
      </trkpt>
      <trkpt lat="47.28792" lon="-2.37073">
        <ele>28.799999237061</ele>
        <time>2020-02-20T09:15:09.000Z</time>
      </trkpt>
      <trkpt lat="47.28794" lon="-2.3708">
        <ele>28.39999961853</ele>
        <time>2020-02-20T09:15:10.000Z</time>
      </trkpt>
      <trkpt lat="47.28796" lon="-2.37086">
        <ele>27.799999237061</ele>
        <time>2020-02-20T09:15:11.000Z</time>
      </trkpt>
      <trkpt lat="47.28798" lon="-2.37091">
        <ele>27.200000762939</ele>
        <time>2020-02-20T09:15:12.000Z</time>
      </trkpt>
      <trkpt lat="47.28801" lon="-2.37093">
        <ele>25.799999237061</ele>
        <time>2020-02-20T09:15:13.000Z</time>
      </trkpt>
      <trkpt lat="47.28805" lon="-2.37094">
        <ele>25</ele>
        <time>2020-02-20T09:15:14.000Z</time>
      </trkpt>
      <trkpt lat="47.28808" lon="-2.37094">
        <ele>24.39999961853</ele>
        <time>2020-02-20T09:15:15.000Z</time>
      </trkpt>
      <trkpt lat="47.28811" lon="-2.37092">
        <ele>23.799999237061</ele>
        <time>2020-02-20T09:15:16.000Z</time>
      </trkpt>
      <trkpt lat="47.28815" lon="-2.37091">
        <ele>23.200000762939</ele>
        <time>2020-02-20T09:15:17.000Z</time>
      </trkpt>
      <trkpt lat="47.28818" lon="-2.3709">
        <ele>22.60000038147</ele>
        <time>2020-02-20T09:15:18.000Z</time>
      </trkpt>
      <trkpt lat="47.2882" lon="-2.37092">
        <ele>21.799999237061</ele>
        <time>2020-02-20T09:15:19.000Z</time>
      </trkpt>
      <trkpt lat="47.28823" lon="-2.37095">
        <ele>21.200000762939</ele>
        <time>2020-02-20T09:15:20.000Z</time>
      </trkpt>
      <trkpt lat="47.28826" lon="-2.37098">
        <ele>20.39999961853</ele>
        <time>2020-02-20T09:15:21.000Z</time>
      </trkpt>
      <trkpt lat="47.28828" lon="-2.37103">
        <ele>19.799999237061</ele>
        <time>2020-02-20T09:15:22.000Z</time>
      </trkpt>
      <trkpt lat="47.28828" lon="-2.37108">
        <ele>19.39999961853</ele>
        <time>2020-02-20T09:15:23.000Z</time>
      </trkpt>
      <trkpt lat="47.28829" lon="-2.37115">
        <ele>19</ele>
        <time>2020-02-20T09:15:24.000Z</time>
      </trkpt>
      <trkpt lat="47.28829" lon="-2.37122">
        <ele>18.60000038147</ele>
        <time>2020-02-20T09:15:25.000Z</time>
      </trkpt>
      <trkpt lat="47.28829" lon="-2.37131">
        <ele>18.200000762939</ele>
        <time>2020-02-20T09:15:26.000Z</time>
      </trkpt>
      <trkpt lat="47.2883" lon="-2.37138">
        <ele>17.60000038147</ele>
        <time>2020-02-20T09:15:27.000Z</time>
      </trkpt>
      <trkpt lat="47.2884" lon="-2.37204">
        <ele>17.60000038147</ele>
        <time>2020-02-20T09:15:35.000Z</time>
      </trkpt>
      <trkpt lat="47.28845" lon="-2.37235">
        <ele>17.60000038147</ele>
        <time>2020-02-20T09:15:39.000Z</time>
      </trkpt>
      <trkpt lat="47.2885" lon="-2.37248">
        <ele>17.60000038147</ele>
        <time>2020-02-20T09:15:41.000Z</time>
      </trkpt>
      <trkpt lat="47.28855" lon="-2.37285">
        <ele>17.60000038147</ele>
        <time>2020-02-20T09:15:46.000Z</time>
      </trkpt>
      <trkpt lat="47.28858" lon="-2.37307">
        <ele>17.60000038147</ele>
        <time>2020-02-20T09:15:49.000Z</time>
      </trkpt>
      <trkpt lat="47.2886" lon="-2.37326">
        <ele>17.60000038147</ele>
        <time>2020-02-20T09:15:52.000Z</time>
      </trkpt>
      <trkpt lat="47.2886" lon="-2.37333">
        <ele>17.200000762939</ele>
        <time>2020-02-20T09:15:53.000Z</time>
      </trkpt>
      <trkpt lat="47.2886" lon="-2.37341">
        <ele>16.799999237061</ele>
        <time>2020-02-20T09:15:54.000Z</time>
      </trkpt>
      <trkpt lat="47.28861" lon="-2.37347">
        <ele>16.39999961853</ele>
        <time>2020-02-20T09:15:55.000Z</time>
      </trkpt>
      <trkpt lat="47.28861" lon="-2.37353">
        <ele>16</ele>
        <time>2020-02-20T09:15:56.000Z</time>
      </trkpt>
      <trkpt lat="47.28862" lon="-2.3736">
        <ele>15.60000038147</ele>
        <time>2020-02-20T09:15:57.000Z</time>
      </trkpt>
      <trkpt lat="47.28863" lon="-2.37366">
        <ele>15.60000038147</ele>
        <time>2020-02-20T09:15:58.000Z</time>
      </trkpt>
      <trkpt lat="47.28868" lon="-2.37407">
        <ele>15.60000038147</ele>
        <time>2020-02-20T09:16:05.000Z</time>
      </trkpt>
      <trkpt lat="47.28874" lon="-2.37453">
        <ele>15.60000038147</ele>
        <time>2020-02-20T09:16:12.000Z</time>
      </trkpt>
      <trkpt lat="47.28879" lon="-2.37496">
        <ele>15.60000038147</ele>
        <time>2020-02-20T09:16:18.000Z</time>
      </trkpt>
      <trkpt lat="47.28882" lon="-2.37509">
        <ele>15.60000038147</ele>
        <time>2020-02-20T09:16:20.000Z</time>
      </trkpt>
      <trkpt lat="47.28884" lon="-2.37523">
        <ele>15.60000038147</ele>
        <time>2020-02-20T09:16:23.000Z</time>
      </trkpt>
      <trkpt lat="47.28885" lon="-2.37525">
        <ele>15.60000038147</ele>
        <time>2020-02-20T09:16:25.000Z</time>
      </trkpt>
      <trkpt lat="47.28886" lon="-2.37529">
        <ele>15.60000038147</ele>
        <time>2020-02-20T09:16:33.000Z</time>
      </trkpt>
      <trkpt lat="47.28887" lon="-2.37532">
        <ele>15.60000038147</ele>
        <time>2020-02-20T09:16:34.000Z</time>
      </trkpt>
      <trkpt lat="47.28893" lon="-2.37553">
        <ele>15.60000038147</ele>
        <time>2020-02-20T09:16:38.000Z</time>
      </trkpt>
      <trkpt lat="47.28902" lon="-2.3759">
        <ele>15.60000038147</ele>
        <time>2020-02-20T09:16:43.000Z</time>
      </trkpt>
      <trkpt lat="47.28903" lon="-2.37605">
        <ele>15.60000038147</ele>
        <time>2020-02-20T09:16:45.000Z</time>
      </trkpt>
      <trkpt lat="47.28904" lon="-2.37612">
        <ele>15.60000038147</ele>
        <time>2020-02-20T09:16:46.000Z</time>
      </trkpt>
      <trkpt lat="47.28906" lon="-2.37638">
        <ele>15.60000038147</ele>
        <time>2020-02-20T09:16:50.000Z</time>
      </trkpt>
      <trkpt lat="47.28914" lon="-2.37648">
        <ele>15.60000038147</ele>
        <time>2020-02-20T09:16:53.000Z</time>
      </trkpt>
      <trkpt lat="47.28921" lon="-2.37646">
        <ele>15.199999809265</ele>
        <time>2020-02-20T09:16:55.000Z</time>
      </trkpt>
      <trkpt lat="47.28924" lon="-2.37645">
        <ele>14.800000190735</ele>
        <time>2020-02-20T09:16:56.000Z</time>
      </trkpt>
      <trkpt lat="47.28927" lon="-2.37645">
        <ele>14.39999961853</ele>
        <time>2020-02-20T09:16:57.000Z</time>
      </trkpt>
      <trkpt lat="47.2893" lon="-2.37644">
        <ele>14</ele>
        <time>2020-02-20T09:16:58.000Z</time>
      </trkpt>
      <trkpt lat="47.28933" lon="-2.37645">
        <ele>13.60000038147</ele>
        <time>2020-02-20T09:16:59.000Z</time>
      </trkpt>
      <trkpt lat="47.28937" lon="-2.37648">
        <ele>13.60000038147</ele>
        <time>2020-02-20T09:17:01.000Z</time>
      </trkpt>
      <trkpt lat="47.28938" lon="-2.37669">
        <ele>13.60000038147</ele>
        <time>2020-02-20T09:17:05.000Z</time>
      </trkpt>
      <trkpt lat="47.28937" lon="-2.37683">
        <ele>13.60000038147</ele>
        <time>2020-02-20T09:17:07.000Z</time>
      </trkpt>
      <trkpt lat="47.28935" lon="-2.37714">
        <ele>13.60000038147</ele>
        <time>2020-02-20T09:17:11.000Z</time>
      </trkpt>
      <trkpt lat="47.28932" lon="-2.37767">
        <ele>13.60000038147</ele>
        <time>2020-02-20T09:17:18.000Z</time>
      </trkpt>
      <trkpt lat="47.28928" lon="-2.37821">
        <ele>13.60000038147</ele>
        <time>2020-02-20T09:17:25.000Z</time>
      </trkpt>
      <trkpt lat="47.28926" lon="-2.37845">
        <ele>13.60000038147</ele>
        <time>2020-02-20T09:17:28.000Z</time>
      </trkpt>
      <trkpt lat="47.28922" lon="-2.3787">
        <ele>13.60000038147</ele>
        <time>2020-02-20T09:17:31.000Z</time>
      </trkpt>
      <trkpt lat="47.28922" lon="-2.37878">
        <ele>13.60000038147</ele>
        <time>2020-02-20T09:17:32.000Z</time>
      </trkpt>
      <trkpt lat="47.28919" lon="-2.37918">
        <ele>13.60000038147</ele>
        <time>2020-02-20T09:17:37.000Z</time>
      </trkpt>
      <trkpt lat="47.28915" lon="-2.37976">
        <ele>13.60000038147</ele>
        <time>2020-02-20T09:17:44.000Z</time>
      </trkpt>
      <trkpt lat="47.28911" lon="-2.38048">
        <ele>13.60000038147</ele>
        <time>2020-02-20T09:17:53.000Z</time>
      </trkpt>
      <trkpt lat="47.28912" lon="-2.38056">
        <ele>13.60000038147</ele>
        <time>2020-02-20T09:17:54.000Z</time>
      </trkpt>
      <trkpt lat="47.28923" lon="-2.38088">
        <ele>13.60000038147</ele>
        <time>2020-02-20T09:17:58.000Z</time>
      </trkpt>
      <trkpt lat="47.2893" lon="-2.38125">
        <ele>13.60000038147</ele>
        <time>2020-02-20T09:18:03.000Z</time>
      </trkpt>
      <trkpt lat="47.28936" lon="-2.38173">
        <ele>13.60000038147</ele>
        <time>2020-02-20T09:18:09.000Z</time>
      </trkpt>
      <trkpt lat="47.28937" lon="-2.3818">
        <ele>13.60000038147</ele>
        <time>2020-02-20T09:18:10.000Z</time>
      </trkpt>
      <trkpt lat="47.28939" lon="-2.38234">
        <ele>13.60000038147</ele>
        <time>2020-02-20T09:18:16.000Z</time>
      </trkpt>
      <trkpt lat="47.28938" lon="-2.38285">
        <ele>13.60000038147</ele>
        <time>2020-02-20T09:18:22.000Z</time>
      </trkpt>
      <trkpt lat="47.28936" lon="-2.38341">
        <ele>13.60000038147</ele>
        <time>2020-02-20T09:18:29.000Z</time>
      </trkpt>
      <trkpt lat="47.2894" lon="-2.38397">
        <ele>13.60000038147</ele>
        <time>2020-02-20T09:18:36.000Z</time>
      </trkpt>
      <trkpt lat="47.28947" lon="-2.3847">
        <ele>13.60000038147</ele>
        <time>2020-02-20T09:18:45.000Z</time>
      </trkpt>
      <trkpt lat="47.28955" lon="-2.38553">
        <ele>13.60000038147</ele>
        <time>2020-02-20T09:18:55.000Z</time>
      </trkpt>
      <trkpt lat="47.28961" lon="-2.38629">
        <ele>13.60000038147</ele>
        <time>2020-02-20T09:19:04.000Z</time>
      </trkpt>
      <trkpt lat="47.28962" lon="-2.38687">
        <ele>13.60000038147</ele>
        <time>2020-02-20T09:19:11.000Z</time>
      </trkpt>
      <trkpt lat="47.28962" lon="-2.38744">
        <ele>13.60000038147</ele>
        <time>2020-02-20T09:19:18.000Z</time>
      </trkpt>
      <trkpt lat="47.28963" lon="-2.38809">
        <ele>13.60000038147</ele>
        <time>2020-02-20T09:19:26.000Z</time>
      </trkpt>
      <trkpt lat="47.28963" lon="-2.38858">
        <ele>13.60000038147</ele>
        <time>2020-02-20T09:19:32.000Z</time>
      </trkpt>
      <trkpt lat="47.28962" lon="-2.38867">
        <ele>13.60000038147</ele>
        <time>2020-02-20T09:19:33.000Z</time>
      </trkpt>
      <trkpt lat="47.28958" lon="-2.38925">
        <ele>13.60000038147</ele>
        <time>2020-02-20T09:19:40.000Z</time>
      </trkpt>
      <trkpt lat="47.28954" lon="-2.38992">
        <ele>13.60000038147</ele>
        <time>2020-02-20T09:19:48.000Z</time>
      </trkpt>
      <trkpt lat="47.28949" lon="-2.39072">
        <ele>13.60000038147</ele>
        <time>2020-02-20T09:19:58.000Z</time>
      </trkpt>
      <trkpt lat="47.28941" lon="-2.39121">
        <ele>13.60000038147</ele>
        <time>2020-02-20T09:20:04.000Z</time>
      </trkpt>
      <trkpt lat="47.28935" lon="-2.39177">
        <ele>13.60000038147</ele>
        <time>2020-02-20T09:20:11.000Z</time>
      </trkpt>
      <trkpt lat="47.28937" lon="-2.39234">
        <ele>13.60000038147</ele>
        <time>2020-02-20T09:20:18.000Z</time>
      </trkpt>
      <trkpt lat="47.28943" lon="-2.39284">
        <ele>13.60000038147</ele>
        <time>2020-02-20T09:20:24.000Z</time>
      </trkpt>
      <trkpt lat="47.28945" lon="-2.39291">
        <ele>13.60000038147</ele>
        <time>2020-02-20T09:20:25.000Z</time>
      </trkpt>
      <trkpt lat="47.28953" lon="-2.39306">
        <ele>13.60000038147</ele>
        <time>2020-02-20T09:20:27.000Z</time>
      </trkpt>
      <trkpt lat="47.28958" lon="-2.39311">
        <ele>13.60000038147</ele>
        <time>2020-02-20T09:20:28.000Z</time>
      </trkpt>
      <trkpt lat="47.28983" lon="-2.39322">
        <ele>13.60000038147</ele>
        <time>2020-02-20T09:20:32.000Z</time>
      </trkpt>
      <trkpt lat="47.29011" lon="-2.39329">
        <ele>13.199999809265</ele>
        <time>2020-02-20T09:20:36.000Z</time>
      </trkpt>
      <trkpt lat="47.29017" lon="-2.39332">
        <ele>12.800000190735</ele>
        <time>2020-02-20T09:20:37.000Z</time>
      </trkpt>
      <trkpt lat="47.29024" lon="-2.39334">
        <ele>12.39999961853</ele>
        <time>2020-02-20T09:20:38.000Z</time>
      </trkpt>
      <trkpt lat="47.29031" lon="-2.39337">
        <ele>12</ele>
        <time>2020-02-20T09:20:39.000Z</time>
      </trkpt>
      <trkpt lat="47.29037" lon="-2.3934">
        <ele>11.60000038147</ele>
        <time>2020-02-20T09:20:40.000Z</time>
      </trkpt>
      <trkpt lat="47.2906" lon="-2.3935">
        <ele>11.60000038147</ele>
        <time>2020-02-20T09:20:44.000Z</time>
      </trkpt>
      <trkpt lat="47.29079" lon="-2.39359">
        <ele>12</ele>
        <time>2020-02-20T09:20:48.000Z</time>
      </trkpt>
      <trkpt lat="47.29083" lon="-2.39362">
        <ele>12.39999961853</ele>
        <time>2020-02-20T09:20:49.000Z</time>
      </trkpt>
      <trkpt lat="47.29088" lon="-2.39365">
        <ele>12.800000190735</ele>
        <time>2020-02-20T09:20:50.000Z</time>
      </trkpt>
      <trkpt lat="47.29092" lon="-2.39369">
        <ele>13.199999809265</ele>
        <time>2020-02-20T09:20:51.000Z</time>
      </trkpt>
      <trkpt lat="47.29096" lon="-2.39372">
        <ele>13.60000038147</ele>
        <time>2020-02-20T09:20:52.000Z</time>
      </trkpt>
      <trkpt lat="47.29111" lon="-2.39372">
        <ele>13.60000038147</ele>
        <time>2020-02-20T09:20:55.000Z</time>
      </trkpt>
      <trkpt lat="47.29126" lon="-2.39358">
        <ele>13.60000038147</ele>
        <time>2020-02-20T09:20:58.000Z</time>
      </trkpt>
      <trkpt lat="47.29132" lon="-2.39353">
        <ele>13.60000038147</ele>
        <time>2020-02-20T09:20:59.000Z</time>
      </trkpt>
      <trkpt lat="47.29164" lon="-2.39329">
        <ele>13.199999809265</ele>
        <time>2020-02-20T09:21:04.000Z</time>
      </trkpt>
      <trkpt lat="47.29171" lon="-2.39326">
        <ele>12.800000190735</ele>
        <time>2020-02-20T09:21:05.000Z</time>
      </trkpt>
      <trkpt lat="47.29178" lon="-2.39324">
        <ele>12.39999961853</ele>
        <time>2020-02-20T09:21:06.000Z</time>
      </trkpt>
      <trkpt lat="47.29186" lon="-2.39322">
        <ele>12</ele>
        <time>2020-02-20T09:21:07.000Z</time>
      </trkpt>
      <trkpt lat="47.29192" lon="-2.39319">
        <ele>11.60000038147</ele>
        <time>2020-02-20T09:21:08.000Z</time>
      </trkpt>
      <trkpt lat="47.29206" lon="-2.39315">
        <ele>11.60000038147</ele>
        <time>2020-02-20T09:21:10.000Z</time>
      </trkpt>
      <trkpt lat="47.29231" lon="-2.39306">
        <ele>11.60000038147</ele>
        <time>2020-02-20T09:21:14.000Z</time>
      </trkpt>
      <trkpt lat="47.29243" lon="-2.39301">
        <ele>11.60000038147</ele>
        <time>2020-02-20T09:21:16.000Z</time>
      </trkpt>
      <trkpt lat="47.29248" lon="-2.39298">
        <ele>11.60000038147</ele>
        <time>2020-02-20T09:21:17.000Z</time>
      </trkpt>
      <trkpt lat="47.2927" lon="-2.39286">
        <ele>11.60000038147</ele>
        <time>2020-02-20T09:21:21.000Z</time>
      </trkpt>
      <trkpt lat="47.29275" lon="-2.39285">
        <ele>11.60000038147</ele>
        <time>2020-02-20T09:21:22.000Z</time>
      </trkpt>
      <trkpt lat="47.29286" lon="-2.39287">
        <ele>11.60000038147</ele>
        <time>2020-02-20T09:21:24.000Z</time>
      </trkpt>
      <trkpt lat="47.29303" lon="-2.39296">
        <ele>11.60000038147</ele>
        <time>2020-02-20T09:21:27.000Z</time>
      </trkpt>
      <trkpt lat="47.29313" lon="-2.39303">
        <ele>11.60000038147</ele>
        <time>2020-02-20T09:21:29.000Z</time>
      </trkpt>
      <trkpt lat="47.29338" lon="-2.39318">
        <ele>11.60000038147</ele>
        <time>2020-02-20T09:21:34.000Z</time>
      </trkpt>
      <trkpt lat="47.29342" lon="-2.39318">
        <ele>11.60000038147</ele>
        <time>2020-02-20T09:21:35.000Z</time>
      </trkpt>
      <trkpt lat="47.29355" lon="-2.39325">
        <ele>11.60000038147</ele>
        <time>2020-02-20T09:21:38.000Z</time>
      </trkpt>
      <trkpt lat="47.29354" lon="-2.39345">
        <ele>11.60000038147</ele>
        <time>2020-02-20T09:21:41.000Z</time>
      </trkpt>
      <trkpt lat="47.29354" lon="-2.39353">
        <ele>11.60000038147</ele>
        <time>2020-02-20T09:21:42.000Z</time>
      </trkpt>
      <trkpt lat="47.29353" lon="-2.39386">
        <ele>11.60000038147</ele>
        <time>2020-02-20T09:21:46.000Z</time>
      </trkpt>
      <trkpt lat="47.29353" lon="-2.39402">
        <ele>12</ele>
        <time>2020-02-20T09:21:48.000Z</time>
      </trkpt>
      <trkpt lat="47.29354" lon="-2.3941">
        <ele>12.800000190735</ele>
        <time>2020-02-20T09:21:49.000Z</time>
      </trkpt>
      <trkpt lat="47.29354" lon="-2.39418">
        <ele>13.199999809265</ele>
        <time>2020-02-20T09:21:50.000Z</time>
      </trkpt>
      <trkpt lat="47.29355" lon="-2.39425">
        <ele>13.60000038147</ele>
        <time>2020-02-20T09:21:51.000Z</time>
      </trkpt>
      <trkpt lat="47.29356" lon="-2.39432">
        <ele>13.60000038147</ele>
        <time>2020-02-20T09:21:52.000Z</time>
      </trkpt>
      <trkpt lat="47.2936" lon="-2.39447">
        <ele>13.60000038147</ele>
        <time>2020-02-20T09:21:54.000Z</time>
      </trkpt>
      <trkpt lat="47.29366" lon="-2.39459">
        <ele>13.60000038147</ele>
        <time>2020-02-20T09:21:56.000Z</time>
      </trkpt>
      <trkpt lat="47.29382" lon="-2.39464">
        <ele>13.60000038147</ele>
        <time>2020-02-20T09:21:59.000Z</time>
      </trkpt>
      <trkpt lat="47.29405" lon="-2.39463">
        <ele>13.60000038147</ele>
        <time>2020-02-20T09:22:03.000Z</time>
      </trkpt>
      <trkpt lat="47.29411" lon="-2.39463">
        <ele>13.60000038147</ele>
        <time>2020-02-20T09:22:04.000Z</time>
      </trkpt>
      <trkpt lat="47.29451" lon="-2.39466">
        <ele>13.60000038147</ele>
        <time>2020-02-20T09:22:11.000Z</time>
      </trkpt>
      <trkpt lat="47.29488" lon="-2.39469">
        <ele>13.60000038147</ele>
        <time>2020-02-20T09:22:18.000Z</time>
      </trkpt>
      <trkpt lat="47.29492" lon="-2.39469">
        <ele>13.60000038147</ele>
        <time>2020-02-20T09:22:19.000Z</time>
      </trkpt>
      <trkpt lat="47.29505" lon="-2.39466">
        <ele>13.199999809265</ele>
        <time>2020-02-20T09:22:22.000Z</time>
      </trkpt>
      <trkpt lat="47.2951" lon="-2.39467">
        <ele>12.800000190735</ele>
        <time>2020-02-20T09:22:23.000Z</time>
      </trkpt>
      <trkpt lat="47.29515" lon="-2.39468">
        <ele>12.39999961853</ele>
        <time>2020-02-20T09:22:24.000Z</time>
      </trkpt>
      <trkpt lat="47.2952" lon="-2.39469">
        <ele>12</ele>
        <time>2020-02-20T09:22:25.000Z</time>
      </trkpt>
      <trkpt lat="47.29526" lon="-2.3947">
        <ele>11.60000038147</ele>
        <time>2020-02-20T09:22:26.000Z</time>
      </trkpt>
      <trkpt lat="47.29531" lon="-2.39472">
        <ele>11.60000038147</ele>
        <time>2020-02-20T09:22:27.000Z</time>
      </trkpt>
      <trkpt lat="47.29547" lon="-2.39477">
        <ele>11.60000038147</ele>
        <time>2020-02-20T09:22:30.000Z</time>
      </trkpt>
      <trkpt lat="47.29563" lon="-2.39487">
        <ele>11.60000038147</ele>
        <time>2020-02-20T09:22:34.000Z</time>
      </trkpt>
      <trkpt lat="47.29561" lon="-2.39497">
        <ele>11.60000038147</ele>
        <time>2020-02-20T09:22:36.000Z</time>
      </trkpt>
      <trkpt lat="47.29557" lon="-2.39511">
        <ele>11.60000038147</ele>
        <time>2020-02-20T09:22:39.000Z</time>
      </trkpt>
      <trkpt lat="47.29557" lon="-2.39528">
        <ele>12</ele>
        <time>2020-02-20T09:22:42.000Z</time>
      </trkpt>
      <trkpt lat="47.29557" lon="-2.39531">
        <ele>12.39999961853</ele>
        <time>2020-02-20T09:22:43.000Z</time>
      </trkpt>
      <trkpt lat="47.29557" lon="-2.39535">
        <ele>12.800000190735</ele>
        <time>2020-02-20T09:22:44.000Z</time>
      </trkpt>
      <trkpt lat="47.29557" lon="-2.3954">
        <ele>13.199999809265</ele>
        <time>2020-02-20T09:22:45.000Z</time>
      </trkpt>
      <trkpt lat="47.29557" lon="-2.39544">
        <ele>13.60000038147</ele>
        <time>2020-02-20T09:22:46.000Z</time>
      </trkpt>
      <trkpt lat="47.29559" lon="-2.39547">
        <ele>13.60000038147</ele>
        <time>2020-02-20T09:22:47.000Z</time>
      </trkpt>
      <trkpt lat="47.29563" lon="-2.39546">
        <ele>14</ele>
        <time>2020-02-20T09:22:48.000Z</time>
      </trkpt>
      <trkpt lat="47.29566" lon="-2.39545">
        <ele>14.39999961853</ele>
        <time>2020-02-20T09:22:49.000Z</time>
      </trkpt>
      <trkpt lat="47.29569" lon="-2.39546">
        <ele>14.800000190735</ele>
        <time>2020-02-20T09:22:50.000Z</time>
      </trkpt>
      <trkpt lat="47.29573" lon="-2.39546">
        <ele>15.199999809265</ele>
        <time>2020-02-20T09:22:51.000Z</time>
      </trkpt>
      <trkpt lat="47.29576" lon="-2.39547">
        <ele>15.60000038147</ele>
        <time>2020-02-20T09:22:52.000Z</time>
      </trkpt>
      <trkpt lat="47.29583" lon="-2.39547">
        <ele>16</ele>
        <time>2020-02-20T09:22:54.000Z</time>
      </trkpt>
      <trkpt lat="47.29586" lon="-2.39548">
        <ele>16.39999961853</ele>
        <time>2020-02-20T09:22:55.000Z</time>
      </trkpt>
      <trkpt lat="47.29589" lon="-2.39548">
        <ele>16.799999237061</ele>
        <time>2020-02-20T09:22:56.000Z</time>
      </trkpt>
      <trkpt lat="47.29593" lon="-2.39548">
        <ele>17.200000762939</ele>
        <time>2020-02-20T09:22:57.000Z</time>
      </trkpt>
      <trkpt lat="47.29597" lon="-2.39549">
        <ele>17.60000038147</ele>
        <time>2020-02-20T09:22:58.000Z</time>
      </trkpt>
      <trkpt lat="47.29601" lon="-2.39549">
        <ele>17.60000038147</ele>
        <time>2020-02-20T09:22:59.000Z</time>
      </trkpt>
      <trkpt lat="47.29619" lon="-2.39551">
        <ele>17.60000038147</ele>
        <time>2020-02-20T09:23:02.000Z</time>
      </trkpt>
      <trkpt lat="47.29661" lon="-2.3956">
        <ele>17.60000038147</ele>
        <time>2020-02-20T09:23:08.000Z</time>
      </trkpt>
      <trkpt lat="47.29708" lon="-2.39571">
        <ele>17.60000038147</ele>
        <time>2020-02-20T09:23:16.000Z</time>
      </trkpt>
      <trkpt lat="47.29747" lon="-2.39579">
        <ele>17.60000038147</ele>
        <time>2020-02-20T09:23:23.000Z</time>
      </trkpt>
      <trkpt lat="47.29794" lon="-2.39588">
        <ele>17.60000038147</ele>
        <time>2020-02-20T09:23:32.000Z</time>
      </trkpt>
      <trkpt lat="47.29833" lon="-2.39595">
        <ele>17.60000038147</ele>
        <time>2020-02-20T09:23:40.000Z</time>
      </trkpt>
      <trkpt lat="47.29843" lon="-2.39597">
        <ele>17.60000038147</ele>
        <time>2020-02-20T09:23:42.000Z</time>
      </trkpt>
      <trkpt lat="47.29863" lon="-2.39601">
        <ele>17.60000038147</ele>
        <time>2020-02-20T09:23:46.000Z</time>
      </trkpt>
      <trkpt lat="47.29893" lon="-2.39609">
        <ele>18</ele>
        <time>2020-02-20T09:23:52.000Z</time>
      </trkpt>
      <trkpt lat="47.29898" lon="-2.3961">
        <ele>18.799999237061</ele>
        <time>2020-02-20T09:23:53.000Z</time>
      </trkpt>
      <trkpt lat="47.29903" lon="-2.39611">
        <ele>19.200000762939</ele>
        <time>2020-02-20T09:23:54.000Z</time>
      </trkpt>
      <trkpt lat="47.29908" lon="-2.39612">
        <ele>19.60000038147</ele>
        <time>2020-02-20T09:23:55.000Z</time>
      </trkpt>
      <trkpt lat="47.29936" lon="-2.39618">
        <ele>19.60000038147</ele>
        <time>2020-02-20T09:24:01.000Z</time>
      </trkpt>
      <trkpt lat="47.29953" lon="-2.39619">
        <ele>19.60000038147</ele>
        <time>2020-02-20T09:24:06.000Z</time>
      </trkpt>
      <trkpt lat="47.29974" lon="-2.39624">
        <ele>19.60000038147</ele>
        <time>2020-02-20T09:24:12.000Z</time>
      </trkpt>
      <trkpt lat="47.29997" lon="-2.39627">
        <ele>19.60000038147</ele>
        <time>2020-02-20T09:24:17.000Z</time>
      </trkpt>
      <trkpt lat="47.30008" lon="-2.3963">
        <ele>20.200000762939</ele>
        <time>2020-02-20T09:24:19.000Z</time>
      </trkpt>
      <trkpt lat="47.30014" lon="-2.39631">
        <ele>20.60000038147</ele>
        <time>2020-02-20T09:24:20.000Z</time>
      </trkpt>
      <trkpt lat="47.30019" lon="-2.39632">
        <ele>21</ele>
        <time>2020-02-20T09:24:21.000Z</time>
      </trkpt>
      <trkpt lat="47.30025" lon="-2.39633">
        <ele>21.39999961853</ele>
        <time>2020-02-20T09:24:22.000Z</time>
      </trkpt>
      <trkpt lat="47.30031" lon="-2.39634">
        <ele>21.799999237061</ele>
        <time>2020-02-20T09:24:23.000Z</time>
      </trkpt>
      <trkpt lat="47.3007" lon="-2.39642">
        <ele>21.799999237061</ele>
        <time>2020-02-20T09:24:30.000Z</time>
      </trkpt>
      <trkpt lat="47.30109" lon="-2.3965">
        <ele>21.799999237061</ele>
        <time>2020-02-20T09:24:37.000Z</time>
      </trkpt>
      <trkpt lat="47.30121" lon="-2.39652">
        <ele>22.200000762939</ele>
        <time>2020-02-20T09:24:39.000Z</time>
      </trkpt>
      <trkpt lat="47.30126" lon="-2.39654">
        <ele>22.60000038147</ele>
        <time>2020-02-20T09:24:40.000Z</time>
      </trkpt>
      <trkpt lat="47.30132" lon="-2.39655">
        <ele>23</ele>
        <time>2020-02-20T09:24:41.000Z</time>
      </trkpt>
      <trkpt lat="47.30137" lon="-2.39656">
        <ele>23.799999237061</ele>
        <time>2020-02-20T09:24:42.000Z</time>
      </trkpt>
      <trkpt lat="47.30149" lon="-2.39658">
        <ele>23.799999237061</ele>
        <time>2020-02-20T09:24:44.000Z</time>
      </trkpt>
      <trkpt lat="47.30182" lon="-2.39664">
        <ele>23.799999237061</ele>
        <time>2020-02-20T09:24:50.000Z</time>
      </trkpt>
      <trkpt lat="47.30188" lon="-2.39665">
        <ele>23.799999237061</ele>
        <time>2020-02-20T09:24:51.000Z</time>
      </trkpt>
      <trkpt lat="47.30232" lon="-2.39673">
        <ele>23.799999237061</ele>
        <time>2020-02-20T09:24:59.000Z</time>
      </trkpt>
      <trkpt lat="47.30249" lon="-2.39678">
        <ele>24.200000762939</ele>
        <time>2020-02-20T09:25:02.000Z</time>
      </trkpt>
      <trkpt lat="47.30254" lon="-2.39679">
        <ele>24.60000038147</ele>
        <time>2020-02-20T09:25:03.000Z</time>
      </trkpt>
      <trkpt lat="47.3026" lon="-2.3968">
        <ele>25.200000762939</ele>
        <time>2020-02-20T09:25:04.000Z</time>
      </trkpt>
      <trkpt lat="47.30265" lon="-2.39681">
        <ele>25.60000038147</ele>
        <time>2020-02-20T09:25:05.000Z</time>
      </trkpt>
      <trkpt lat="47.30271" lon="-2.39681">
        <ele>26</ele>
        <time>2020-02-20T09:25:06.000Z</time>
      </trkpt>
      <trkpt lat="47.30276" lon="-2.39683">
        <ele>26</ele>
        <time>2020-02-20T09:25:07.000Z</time>
      </trkpt>
      <trkpt lat="47.30316" lon="-2.39694">
        <ele>26</ele>
        <time>2020-02-20T09:25:14.000Z</time>
      </trkpt>
      <trkpt lat="47.30344" lon="-2.39704">
        <ele>26</ele>
        <time>2020-02-20T09:25:19.000Z</time>
      </trkpt>
      <trkpt lat="47.30374" lon="-2.3972">
        <ele>26.39999961853</ele>
        <time>2020-02-20T09:25:25.000Z</time>
      </trkpt>
      <trkpt lat="47.30379" lon="-2.39723">
        <ele>26.799999237061</ele>
        <time>2020-02-20T09:25:26.000Z</time>
      </trkpt>
      <trkpt lat="47.30384" lon="-2.39727">
        <ele>27.200000762939</ele>
        <time>2020-02-20T09:25:27.000Z</time>
      </trkpt>
      <trkpt lat="47.30389" lon="-2.3973">
        <ele>27.799999237061</ele>
        <time>2020-02-20T09:25:28.000Z</time>
      </trkpt>
      <trkpt lat="47.30394" lon="-2.39733">
        <ele>28.200000762939</ele>
        <time>2020-02-20T09:25:29.000Z</time>
      </trkpt>
      <trkpt lat="47.30419" lon="-2.39751">
        <ele>28.200000762939</ele>
        <time>2020-02-20T09:25:34.000Z</time>
      </trkpt>
      <trkpt lat="47.30456" lon="-2.39783">
        <ele>28.200000762939</ele>
        <time>2020-02-20T09:25:42.000Z</time>
      </trkpt>
      <trkpt lat="47.30493" lon="-2.39822">
        <ele>28.200000762939</ele>
        <time>2020-02-20T09:25:50.000Z</time>
      </trkpt>
      <trkpt lat="47.30506" lon="-2.39837">
        <ele>28.60000038147</ele>
        <time>2020-02-20T09:25:53.000Z</time>
      </trkpt>
      <trkpt lat="47.3051" lon="-2.39842">
        <ele>29</ele>
        <time>2020-02-20T09:25:54.000Z</time>
      </trkpt>
      <trkpt lat="47.30515" lon="-2.39848">
        <ele>29.39999961853</ele>
        <time>2020-02-20T09:25:55.000Z</time>
      </trkpt>
      <trkpt lat="47.30519" lon="-2.39853">
        <ele>30.200000762939</ele>
        <time>2020-02-20T09:25:56.000Z</time>
      </trkpt>
      <trkpt lat="47.30528" lon="-2.39863">
        <ele>30.200000762939</ele>
        <time>2020-02-20T09:25:58.000Z</time>
      </trkpt>
      <trkpt lat="47.30566" lon="-2.39908">
        <ele>30.200000762939</ele>
        <time>2020-02-20T09:26:07.000Z</time>
      </trkpt>
      <trkpt lat="47.30575" lon="-2.39918">
        <ele>30.60000038147</ele>
        <time>2020-02-20T09:26:09.000Z</time>
      </trkpt>
      <trkpt lat="47.30579" lon="-2.39923">
        <ele>31.200000762939</ele>
        <time>2020-02-20T09:26:10.000Z</time>
      </trkpt>
      <trkpt lat="47.30584" lon="-2.39928">
        <ele>31.60000038147</ele>
        <time>2020-02-20T09:26:11.000Z</time>
      </trkpt>
      <trkpt lat="47.30588" lon="-2.39933">
        <ele>32</ele>
        <time>2020-02-20T09:26:12.000Z</time>
      </trkpt>
      <trkpt lat="47.30592" lon="-2.39938">
        <ele>32.400001525879</ele>
        <time>2020-02-20T09:26:13.000Z</time>
      </trkpt>
      <trkpt lat="47.30609" lon="-2.39958">
        <ele>32.400001525879</ele>
        <time>2020-02-20T09:26:17.000Z</time>
      </trkpt>
      <trkpt lat="47.30645" lon="-2.39998">
        <ele>32.400001525879</ele>
        <time>2020-02-20T09:26:25.000Z</time>
      </trkpt>
      <trkpt lat="47.30662" lon="-2.40017">
        <ele>32.799999237061</ele>
        <time>2020-02-20T09:26:29.000Z</time>
      </trkpt>
      <trkpt lat="47.30667" lon="-2.40021">
        <ele>33.200000762939</ele>
        <time>2020-02-20T09:26:30.000Z</time>
      </trkpt>
      <trkpt lat="47.30671" lon="-2.40025">
        <ele>33.599998474121</ele>
        <time>2020-02-20T09:26:31.000Z</time>
      </trkpt>
      <trkpt lat="47.30676" lon="-2.40029">
        <ele>34</ele>
        <time>2020-02-20T09:26:32.000Z</time>
      </trkpt>
      <trkpt lat="47.3068" lon="-2.40034">
        <ele>34.400001525879</ele>
        <time>2020-02-20T09:26:33.000Z</time>
      </trkpt>
      <trkpt lat="47.3071" lon="-2.40057">
        <ele>34.400001525879</ele>
        <time>2020-02-20T09:26:39.000Z</time>
      </trkpt>
      <trkpt lat="47.3074" lon="-2.40075">
        <ele>34.400001525879</ele>
        <time>2020-02-20T09:26:45.000Z</time>
      </trkpt>
      <trkpt lat="47.30775" lon="-2.40094">
        <ele>34.400001525879</ele>
        <time>2020-02-20T09:26:52.000Z</time>
      </trkpt>
      <trkpt lat="47.30794" lon="-2.40101">
        <ele>34.400001525879</ele>
        <time>2020-02-20T09:26:56.000Z</time>
      </trkpt>
      <trkpt lat="47.30805" lon="-2.40105">
        <ele>34.400001525879</ele>
        <time>2020-02-20T09:26:58.000Z</time>
      </trkpt>
      <trkpt lat="47.30815" lon="-2.40109">
        <ele>35</ele>
        <time>2020-02-20T09:27:00.000Z</time>
      </trkpt>
      <trkpt lat="47.30821" lon="-2.40111">
        <ele>35.400001525879</ele>
        <time>2020-02-20T09:27:01.000Z</time>
      </trkpt>
      <trkpt lat="47.30826" lon="-2.40112">
        <ele>35.799999237061</ele>
        <time>2020-02-20T09:27:02.000Z</time>
      </trkpt>
      <trkpt lat="47.30831" lon="-2.40113">
        <ele>36.200000762939</ele>
        <time>2020-02-20T09:27:03.000Z</time>
      </trkpt>
      <trkpt lat="47.30837" lon="-2.40114">
        <ele>36.599998474121</ele>
        <time>2020-02-20T09:27:04.000Z</time>
      </trkpt>
      <trkpt lat="47.30842" lon="-2.40116">
        <ele>36.599998474121</ele>
        <time>2020-02-20T09:27:05.000Z</time>
      </trkpt>
      <trkpt lat="47.30874" lon="-2.40121">
        <ele>36.599998474121</ele>
        <time>2020-02-20T09:27:11.000Z</time>
      </trkpt>
      <trkpt lat="47.30901" lon="-2.40122">
        <ele>37</ele>
        <time>2020-02-20T09:27:16.000Z</time>
      </trkpt>
      <trkpt lat="47.30907" lon="-2.40122">
        <ele>37.400001525879</ele>
        <time>2020-02-20T09:27:17.000Z</time>
      </trkpt>
      <trkpt lat="47.30912" lon="-2.40121">
        <ele>37.799999237061</ele>
        <time>2020-02-20T09:27:18.000Z</time>
      </trkpt>
      <trkpt lat="47.30917" lon="-2.40121">
        <ele>38.200000762939</ele>
        <time>2020-02-20T09:27:19.000Z</time>
      </trkpt>
      <trkpt lat="47.30923" lon="-2.40121">
        <ele>38.599998474121</ele>
        <time>2020-02-20T09:27:20.000Z</time>
      </trkpt>
      <trkpt lat="47.30946" lon="-2.40119">
        <ele>38.599998474121</ele>
        <time>2020-02-20T09:27:24.000Z</time>
      </trkpt>
      <trkpt lat="47.30964" lon="-2.40117">
        <ele>38.599998474121</ele>
        <time>2020-02-20T09:27:27.000Z</time>
      </trkpt>
      <trkpt lat="47.30981" lon="-2.40113">
        <ele>38.599998474121</ele>
        <time>2020-02-20T09:27:30.000Z</time>
      </trkpt>
      <trkpt lat="47.31028" lon="-2.40098">
        <ele>38.599998474121</ele>
        <time>2020-02-20T09:27:38.000Z</time>
      </trkpt>
      <trkpt lat="47.31044" lon="-2.40093">
        <ele>39.200000762939</ele>
        <time>2020-02-20T09:27:41.000Z</time>
      </trkpt>
      <trkpt lat="47.31049" lon="-2.40091">
        <ele>39.599998474121</ele>
        <time>2020-02-20T09:27:42.000Z</time>
      </trkpt>
      <trkpt lat="47.31054" lon="-2.40089">
        <ele>40.200000762939</ele>
        <time>2020-02-20T09:27:43.000Z</time>
      </trkpt>
      <trkpt lat="47.31059" lon="-2.40088">
        <ele>40.599998474121</ele>
        <time>2020-02-20T09:27:44.000Z</time>
      </trkpt>
      <trkpt lat="47.31064" lon="-2.40086">
        <ele>41.200000762939</ele>
        <time>2020-02-20T09:27:45.000Z</time>
      </trkpt>
      <trkpt lat="47.31093" lon="-2.40077">
        <ele>41.200000762939</ele>
        <time>2020-02-20T09:27:51.000Z</time>
      </trkpt>
      <trkpt lat="47.31107" lon="-2.40073">
        <ele>41.200000762939</ele>
        <time>2020-02-20T09:27:56.000Z</time>
      </trkpt>
      <trkpt lat="47.3112" lon="-2.40068">
        <ele>41.200000762939</ele>
        <time>2020-02-20T09:28:02.000Z</time>
      </trkpt>
      <trkpt lat="47.3113" lon="-2.40065">
        <ele>41.200000762939</ele>
        <time>2020-02-20T09:28:07.000Z</time>
      </trkpt>
      <trkpt lat="47.31143" lon="-2.40062">
        <ele>41.200000762939</ele>
        <time>2020-02-20T09:28:11.000Z</time>
      </trkpt>
      <trkpt lat="47.31146" lon="-2.40061">
        <ele>41.200000762939</ele>
        <time>2020-02-20T09:28:12.000Z</time>
      </trkpt>
      <trkpt lat="47.31159" lon="-2.40058">
        <ele>41.200000762939</ele>
        <time>2020-02-20T09:28:15.000Z</time>
      </trkpt>
      <trkpt lat="47.31163" lon="-2.40058">
        <ele>41.200000762939</ele>
        <time>2020-02-20T09:28:16.000Z</time>
      </trkpt>
      <trkpt lat="47.31168" lon="-2.40058">
        <ele>41.599998474121</ele>
        <time>2020-02-20T09:28:17.000Z</time>
      </trkpt>
      <trkpt lat="47.31173" lon="-2.40057">
        <ele>42</ele>
        <time>2020-02-20T09:28:18.000Z</time>
      </trkpt>
      <trkpt lat="47.31178" lon="-2.40057">
        <ele>42.400001525879</ele>
        <time>2020-02-20T09:28:19.000Z</time>
      </trkpt>
      <trkpt lat="47.31184" lon="-2.40056">
        <ele>42.799999237061</ele>
        <time>2020-02-20T09:28:20.000Z</time>
      </trkpt>
      <trkpt lat="47.3119" lon="-2.40057">
        <ele>43.200000762939</ele>
        <time>2020-02-20T09:28:21.000Z</time>
      </trkpt>
      <trkpt lat="47.31196" lon="-2.4006">
        <ele>43.200000762939</ele>
        <time>2020-02-20T09:28:22.000Z</time>
      </trkpt>
      <trkpt lat="47.31209" lon="-2.40077">
        <ele>43.200000762939</ele>
        <time>2020-02-20T09:28:25.000Z</time>
      </trkpt>
      <trkpt lat="47.31221" lon="-2.40112">
        <ele>43.200000762939</ele>
        <time>2020-02-20T09:28:29.000Z</time>
      </trkpt>
      <trkpt lat="47.31241" lon="-2.40181">
        <ele>43.200000762939</ele>
        <time>2020-02-20T09:28:37.000Z</time>
      </trkpt>
      <trkpt lat="47.31259" lon="-2.40235">
        <ele>43.200000762939</ele>
        <time>2020-02-20T09:28:44.000Z</time>
      </trkpt>
      <trkpt lat="47.31263" lon="-2.4025">
        <ele>43.599998474121</ele>
        <time>2020-02-20T09:28:46.000Z</time>
      </trkpt>
      <trkpt lat="47.31266" lon="-2.40257">
        <ele>44.200000762939</ele>
        <time>2020-02-20T09:28:47.000Z</time>
      </trkpt>
      <trkpt lat="47.31268" lon="-2.40265">
        <ele>44.599998474121</ele>
        <time>2020-02-20T09:28:48.000Z</time>
      </trkpt>
      <trkpt lat="47.31271" lon="-2.40272">
        <ele>45.599998474121</ele>
        <time>2020-02-20T09:28:49.000Z</time>
      </trkpt>
      <trkpt lat="47.31277" lon="-2.40293">
        <ele>45.599998474121</ele>
        <time>2020-02-20T09:28:52.000Z</time>
      </trkpt>
      <trkpt lat="47.3128" lon="-2.403">
        <ele>45.599998474121</ele>
        <time>2020-02-20T09:28:53.000Z</time>
      </trkpt>
      <trkpt lat="47.31298" lon="-2.40354">
        <ele>46</ele>
        <time>2020-02-20T09:29:01.000Z</time>
      </trkpt>
      <trkpt lat="47.31301" lon="-2.40361">
        <ele>46.400001525879</ele>
        <time>2020-02-20T09:29:02.000Z</time>
      </trkpt>
      <trkpt lat="47.31303" lon="-2.40367">
        <ele>46.799999237061</ele>
        <time>2020-02-20T09:29:03.000Z</time>
      </trkpt>
      <trkpt lat="47.31306" lon="-2.40374">
        <ele>47.200000762939</ele>
        <time>2020-02-20T09:29:04.000Z</time>
      </trkpt>
      <trkpt lat="47.31308" lon="-2.4038">
        <ele>47.599998474121</ele>
        <time>2020-02-20T09:29:05.000Z</time>
      </trkpt>
      <trkpt lat="47.31318" lon="-2.40414">
        <ele>47.599998474121</ele>
        <time>2020-02-20T09:29:10.000Z</time>
      </trkpt>
      <trkpt lat="47.3132" lon="-2.40422">
        <ele>48.200000762939</ele>
        <time>2020-02-20T09:29:11.000Z</time>
      </trkpt>
      <trkpt lat="47.31322" lon="-2.40429">
        <ele>48.599998474121</ele>
        <time>2020-02-20T09:29:12.000Z</time>
      </trkpt>
      <trkpt lat="47.31324" lon="-2.40437">
        <ele>49</ele>
        <time>2020-02-20T09:29:13.000Z</time>
      </trkpt>
      <trkpt lat="47.31326" lon="-2.40445">
        <ele>49.799999237061</ele>
        <time>2020-02-20T09:29:14.000Z</time>
      </trkpt>
      <trkpt lat="47.31331" lon="-2.40471">
        <ele>49.799999237061</ele>
        <time>2020-02-20T09:29:17.000Z</time>
      </trkpt>
      <trkpt lat="47.31341" lon="-2.40513">
        <ele>49.400001525879</ele>
        <time>2020-02-20T09:29:22.000Z</time>
      </trkpt>
      <trkpt lat="47.31344" lon="-2.4052">
        <ele>48.799999237061</ele>
        <time>2020-02-20T09:29:23.000Z</time>
      </trkpt>
      <trkpt lat="47.31349" lon="-2.40523">
        <ele>48.400001525879</ele>
        <time>2020-02-20T09:29:24.000Z</time>
      </trkpt>
      <trkpt lat="47.31354" lon="-2.40523">
        <ele>47.799999237061</ele>
        <time>2020-02-20T09:29:25.000Z</time>
      </trkpt>
      <trkpt lat="47.3136" lon="-2.40521">
        <ele>47</ele>
        <time>2020-02-20T09:29:26.000Z</time>
      </trkpt>
      <trkpt lat="47.31365" lon="-2.40519">
        <ele>46.400001525879</ele>
        <time>2020-02-20T09:29:27.000Z</time>
      </trkpt>
      <trkpt lat="47.31371" lon="-2.40516">
        <ele>45.799999237061</ele>
        <time>2020-02-20T09:29:28.000Z</time>
      </trkpt>
      <trkpt lat="47.31377" lon="-2.40514">
        <ele>45.200000762939</ele>
        <time>2020-02-20T09:29:29.000Z</time>
      </trkpt>
      <trkpt lat="47.31388" lon="-2.4051">
        <ele>45.200000762939</ele>
        <time>2020-02-20T09:29:31.000Z</time>
      </trkpt>
      <trkpt lat="47.31406" lon="-2.40502">
        <ele>45.200000762939</ele>
        <time>2020-02-20T09:29:34.000Z</time>
      </trkpt>
      <trkpt lat="47.31419" lon="-2.40495">
        <ele>45.200000762939</ele>
        <time>2020-02-20T09:29:36.000Z</time>
      </trkpt>
      <trkpt lat="47.31446" lon="-2.40475">
        <ele>45.200000762939</ele>
        <time>2020-02-20T09:29:42.000Z</time>
      </trkpt>
      <trkpt lat="47.31455" lon="-2.40467">
        <ele>45.200000762939</ele>
        <time>2020-02-20T09:29:44.000Z</time>
      </trkpt>
      <trkpt lat="47.31466" lon="-2.40455">
        <ele>45.599998474121</ele>
        <time>2020-02-20T09:29:47.000Z</time>
      </trkpt>
      <trkpt lat="47.3147" lon="-2.4045">
        <ele>46</ele>
        <time>2020-02-20T09:29:48.000Z</time>
      </trkpt>
      <trkpt lat="47.31473" lon="-2.40446">
        <ele>46.599998474121</ele>
        <time>2020-02-20T09:29:49.000Z</time>
      </trkpt>
      <trkpt lat="47.31477" lon="-2.40442">
        <ele>47</ele>
        <time>2020-02-20T09:29:50.000Z</time>
      </trkpt>
      <trkpt lat="47.3148" lon="-2.40437">
        <ele>47.400001525879</ele>
        <time>2020-02-20T09:29:51.000Z</time>
      </trkpt>
      <trkpt lat="47.31483" lon="-2.40433">
        <ele>47.799999237061</ele>
        <time>2020-02-20T09:29:52.000Z</time>
      </trkpt>
      <trkpt lat="47.31487" lon="-2.4043">
        <ele>48.400001525879</ele>
        <time>2020-02-20T09:29:53.000Z</time>
      </trkpt>
      <trkpt lat="47.31491" lon="-2.40426">
        <ele>48.799999237061</ele>
        <time>2020-02-20T09:29:54.000Z</time>
      </trkpt>
      <trkpt lat="47.31494" lon="-2.40422">
        <ele>49.200000762939</ele>
        <time>2020-02-20T09:29:55.000Z</time>
      </trkpt>
      <trkpt lat="47.31498" lon="-2.40419">
        <ele>49.599998474121</ele>
        <time>2020-02-20T09:29:56.000Z</time>
      </trkpt>
      <trkpt lat="47.31513" lon="-2.40404">
        <ele>50</ele>
        <time>2020-02-20T09:30:00.000Z</time>
      </trkpt>
      <trkpt lat="47.31518" lon="-2.404">
        <ele>50.400001525879</ele>
        <time>2020-02-20T09:30:01.000Z</time>
      </trkpt>
      <trkpt lat="47.31523" lon="-2.40396">
        <ele>50.799999237061</ele>
        <time>2020-02-20T09:30:02.000Z</time>
      </trkpt>
      <trkpt lat="47.31527" lon="-2.40393">
        <ele>51.799999237061</ele>
        <time>2020-02-20T09:30:03.000Z</time>
      </trkpt>
      <trkpt lat="47.31546" lon="-2.40383">
        <ele>52.200000762939</ele>
        <time>2020-02-20T09:30:07.000Z</time>
      </trkpt>
      <trkpt lat="47.31551" lon="-2.4038">
        <ele>52.599998474121</ele>
        <time>2020-02-20T09:30:08.000Z</time>
      </trkpt>
      <trkpt lat="47.31556" lon="-2.40378">
        <ele>53</ele>
        <time>2020-02-20T09:30:09.000Z</time>
      </trkpt>
      <trkpt lat="47.31561" lon="-2.40375">
        <ele>53.400001525879</ele>
        <time>2020-02-20T09:30:10.000Z</time>
      </trkpt>
      <trkpt lat="47.31566" lon="-2.40372">
        <ele>53.799999237061</ele>
        <time>2020-02-20T09:30:11.000Z</time>
      </trkpt>
      <trkpt lat="47.31589" lon="-2.40362">
        <ele>53.799999237061</ele>
        <time>2020-02-20T09:30:16.000Z</time>
      </trkpt>
      <trkpt lat="47.31598" lon="-2.40359">
        <ele>53.799999237061</ele>
        <time>2020-02-20T09:30:18.000Z</time>
      </trkpt>
      <trkpt lat="47.31618" lon="-2.40352">
        <ele>53.799999237061</ele>
        <time>2020-02-20T09:30:22.000Z</time>
      </trkpt>
      <trkpt lat="47.31639" lon="-2.40341">
        <ele>53.799999237061</ele>
        <time>2020-02-20T09:30:27.000Z</time>
      </trkpt>
      <trkpt lat="47.31659" lon="-2.40333">
        <ele>53.799999237061</ele>
        <time>2020-02-20T09:30:32.000Z</time>
      </trkpt>
      <trkpt lat="47.31675" lon="-2.40331">
        <ele>53.799999237061</ele>
        <time>2020-02-20T09:30:35.000Z</time>
      </trkpt>
      <trkpt lat="47.31689" lon="-2.40338">
        <ele>53.799999237061</ele>
        <time>2020-02-20T09:30:37.000Z</time>
      </trkpt>
      <trkpt lat="47.31702" lon="-2.40346">
        <ele>53.799999237061</ele>
        <time>2020-02-20T09:30:39.000Z</time>
      </trkpt>
      <trkpt lat="47.31725" lon="-2.40363">
        <ele>53.799999237061</ele>
        <time>2020-02-20T09:30:43.000Z</time>
      </trkpt>
      <trkpt lat="47.31771" lon="-2.404">
        <ele>53.799999237061</ele>
        <time>2020-02-20T09:30:52.000Z</time>
      </trkpt>
      <trkpt lat="47.31808" lon="-2.40426">
        <ele>53.799999237061</ele>
        <time>2020-02-20T09:30:59.000Z</time>
      </trkpt>
      <trkpt lat="47.31833" lon="-2.40443">
        <ele>54.200000762939</ele>
        <time>2020-02-20T09:31:04.000Z</time>
      </trkpt>
      <trkpt lat="47.31839" lon="-2.40446">
        <ele>54.599998474121</ele>
        <time>2020-02-20T09:31:05.000Z</time>
      </trkpt>
      <trkpt lat="47.31844" lon="-2.4045">
        <ele>55</ele>
        <time>2020-02-20T09:31:06.000Z</time>
      </trkpt>
      <trkpt lat="47.31849" lon="-2.40453">
        <ele>55.400001525879</ele>
        <time>2020-02-20T09:31:07.000Z</time>
      </trkpt>
      <trkpt lat="47.31853" lon="-2.40457">
        <ele>55.799999237061</ele>
        <time>2020-02-20T09:31:08.000Z</time>
      </trkpt>
      <trkpt lat="47.31879" lon="-2.40477">
        <ele>55.799999237061</ele>
        <time>2020-02-20T09:31:13.000Z</time>
      </trkpt>
      <trkpt lat="47.31884" lon="-2.40481">
        <ele>55.799999237061</ele>
        <time>2020-02-20T09:31:14.000Z</time>
      </trkpt>
      <trkpt lat="47.31927" lon="-2.40514">
        <ele>55.799999237061</ele>
        <time>2020-02-20T09:31:22.000Z</time>
      </trkpt>
      <trkpt lat="47.31951" lon="-2.4053">
        <ele>55.799999237061</ele>
        <time>2020-02-20T09:31:27.000Z</time>
      </trkpt>
      <trkpt lat="47.31957" lon="-2.40534">
        <ele>56.200000762939</ele>
        <time>2020-02-20T09:31:28.000Z</time>
      </trkpt>
      <trkpt lat="47.31962" lon="-2.40538">
        <ele>56.599998474121</ele>
        <time>2020-02-20T09:31:29.000Z</time>
      </trkpt>
      <trkpt lat="47.31967" lon="-2.40542">
        <ele>57</ele>
        <time>2020-02-20T09:31:30.000Z</time>
      </trkpt>
      <trkpt lat="47.31972" lon="-2.40547">
        <ele>57.400001525879</ele>
        <time>2020-02-20T09:31:31.000Z</time>
      </trkpt>
      <trkpt lat="47.31977" lon="-2.40551">
        <ele>57.799999237061</ele>
        <time>2020-02-20T09:31:32.000Z</time>
      </trkpt>
      <trkpt lat="47.31982" lon="-2.40554">
        <ele>57.799999237061</ele>
        <time>2020-02-20T09:31:33.000Z</time>
      </trkpt>
      <trkpt lat="47.31997" lon="-2.40567">
        <ele>57.799999237061</ele>
        <time>2020-02-20T09:31:36.000Z</time>
      </trkpt>
      <trkpt lat="47.32012" lon="-2.4058">
        <ele>57.799999237061</ele>
        <time>2020-02-20T09:31:39.000Z</time>
      </trkpt>
      <trkpt lat="47.32042" lon="-2.40603">
        <ele>57.799999237061</ele>
        <time>2020-02-20T09:31:45.000Z</time>
      </trkpt>
      <trkpt lat="47.3207" lon="-2.40629">
        <ele>57.799999237061</ele>
        <time>2020-02-20T09:31:51.000Z</time>
      </trkpt>
      <trkpt lat="47.3209" lon="-2.4065">
        <ele>58.200000762939</ele>
        <time>2020-02-20T09:31:55.000Z</time>
      </trkpt>
      <trkpt lat="47.32095" lon="-2.40656">
        <ele>58.799999237061</ele>
        <time>2020-02-20T09:31:56.000Z</time>
      </trkpt>
      <trkpt lat="47.321" lon="-2.40661">
        <ele>59.200000762939</ele>
        <time>2020-02-20T09:31:57.000Z</time>
      </trkpt>
      <trkpt lat="47.32104" lon="-2.40665">
        <ele>59.599998474121</ele>
        <time>2020-02-20T09:31:58.000Z</time>
      </trkpt>
      <trkpt lat="47.3211" lon="-2.40671">
        <ele>60</ele>
        <time>2020-02-20T09:31:59.000Z</time>
      </trkpt>
      <trkpt lat="47.32139" lon="-2.40705">
        <ele>60</ele>
        <time>2020-02-20T09:32:05.000Z</time>
      </trkpt>
      <trkpt lat="47.32148" lon="-2.40715">
        <ele>60.799999237061</ele>
        <time>2020-02-20T09:32:07.000Z</time>
      </trkpt>
      <trkpt lat="47.32153" lon="-2.4072">
        <ele>61.200000762939</ele>
        <time>2020-02-20T09:32:08.000Z</time>
      </trkpt>
      <trkpt lat="47.32157" lon="-2.40725">
        <ele>61.599998474121</ele>
        <time>2020-02-20T09:32:09.000Z</time>
      </trkpt>
      <trkpt lat="47.32162" lon="-2.40731">
        <ele>62</ele>
        <time>2020-02-20T09:32:10.000Z</time>
      </trkpt>
      <trkpt lat="47.32171" lon="-2.40742">
        <ele>62</ele>
        <time>2020-02-20T09:32:12.000Z</time>
      </trkpt>
      <trkpt lat="47.3219" lon="-2.40767">
        <ele>62</ele>
        <time>2020-02-20T09:32:17.000Z</time>
      </trkpt>
      <trkpt lat="47.32193" lon="-2.40771">
        <ele>62</ele>
        <time>2020-02-20T09:32:18.000Z</time>
      </trkpt>
      <trkpt lat="47.322" lon="-2.40783">
        <ele>62</ele>
        <time>2020-02-20T09:32:22.000Z</time>
      </trkpt>
      <trkpt lat="47.32202" lon="-2.40785">
        <ele>62</ele>
        <time>2020-02-20T09:32:23.000Z</time>
      </trkpt>
      <trkpt lat="47.32214" lon="-2.40804">
        <ele>62</ele>
        <time>2020-02-20T09:32:28.000Z</time>
      </trkpt>
      <trkpt lat="47.32224" lon="-2.40816">
        <ele>62</ele>
        <time>2020-02-20T09:32:31.000Z</time>
      </trkpt>
      <trkpt lat="47.3223" lon="-2.40826">
        <ele>62</ele>
        <time>2020-02-20T09:32:33.000Z</time>
      </trkpt>
      <trkpt lat="47.32241" lon="-2.40841">
        <ele>62</ele>
        <time>2020-02-20T09:32:36.000Z</time>
      </trkpt>
      <trkpt lat="47.32265" lon="-2.40885">
        <ele>62</ele>
        <time>2020-02-20T09:32:43.000Z</time>
      </trkpt>
      <trkpt lat="47.32293" lon="-2.40935">
        <ele>62</ele>
        <time>2020-02-20T09:32:51.000Z</time>
      </trkpt>
      <trkpt lat="47.3231" lon="-2.40967">
        <ele>62.400001525879</ele>
        <time>2020-02-20T09:32:56.000Z</time>
      </trkpt>
      <trkpt lat="47.32313" lon="-2.40973">
        <ele>63</ele>
        <time>2020-02-20T09:32:57.000Z</time>
      </trkpt>
      <trkpt lat="47.32317" lon="-2.40979">
        <ele>63.400001525879</ele>
        <time>2020-02-20T09:32:58.000Z</time>
      </trkpt>
      <trkpt lat="47.3232" lon="-2.40985">
        <ele>63.799999237061</ele>
        <time>2020-02-20T09:32:59.000Z</time>
      </trkpt>
      <trkpt lat="47.32323" lon="-2.40992">
        <ele>64.199996948242</ele>
        <time>2020-02-20T09:33:00.000Z</time>
      </trkpt>
      <trkpt lat="47.32349" lon="-2.41041">
        <ele>64.199996948242</ele>
        <time>2020-02-20T09:33:08.000Z</time>
      </trkpt>
      <trkpt lat="47.32362" lon="-2.41066">
        <ele>64.199996948242</ele>
        <time>2020-02-20T09:33:12.000Z</time>
      </trkpt>
      <trkpt lat="47.32368" lon="-2.41075">
        <ele>64.199996948242</ele>
        <time>2020-02-20T09:33:14.000Z</time>
      </trkpt>
      <trkpt lat="47.32374" lon="-2.41088">
        <ele>64.199996948242</ele>
        <time>2020-02-20T09:33:17.000Z</time>
      </trkpt>
      <trkpt lat="47.32376" lon="-2.41093">
        <ele>64.199996948242</ele>
        <time>2020-02-20T09:33:18.000Z</time>
      </trkpt>
      <trkpt lat="47.32392" lon="-2.41126">
        <ele>64.800003051758</ele>
        <time>2020-02-20T09:33:24.000Z</time>
      </trkpt>
      <trkpt lat="47.32395" lon="-2.41131">
        <ele>65.199996948242</ele>
        <time>2020-02-20T09:33:25.000Z</time>
      </trkpt>
      <trkpt lat="47.32397" lon="-2.41136">
        <ele>65.599998474121</ele>
        <time>2020-02-20T09:33:26.000Z</time>
      </trkpt>
      <trkpt lat="47.324" lon="-2.41141">
        <ele>66.199996948242</ele>
        <time>2020-02-20T09:33:27.000Z</time>
      </trkpt>
      <trkpt lat="47.32402" lon="-2.41147">
        <ele>66.599998474121</ele>
        <time>2020-02-20T09:33:28.000Z</time>
      </trkpt>
      <trkpt lat="47.32409" lon="-2.4116">
        <ele>66.599998474121</ele>
        <time>2020-02-20T09:33:31.000Z</time>
      </trkpt>
      <trkpt lat="47.32415" lon="-2.41171">
        <ele>66.199996948242</ele>
        <time>2020-02-20T09:33:34.000Z</time>
      </trkpt>
      <trkpt lat="47.32417" lon="-2.41176">
        <ele>65.800003051758</ele>
        <time>2020-02-20T09:33:35.000Z</time>
      </trkpt>
      <trkpt lat="47.32419" lon="-2.41181">
        <ele>65.199996948242</ele>
        <time>2020-02-20T09:33:36.000Z</time>
      </trkpt>
      <trkpt lat="47.32421" lon="-2.41185">
        <ele>64.800003051758</ele>
        <time>2020-02-20T09:33:37.000Z</time>
      </trkpt>
      <trkpt lat="47.32423" lon="-2.4119">
        <ele>64.400001525879</ele>
        <time>2020-02-20T09:33:38.000Z</time>
      </trkpt>
      <trkpt lat="47.32426" lon="-2.41194">
        <ele>64.400001525879</ele>
        <time>2020-02-20T09:33:39.000Z</time>
      </trkpt>
      <trkpt lat="47.32432" lon="-2.41202">
        <ele>64.400001525879</ele>
        <time>2020-02-20T09:33:41.000Z</time>
      </trkpt>
      <trkpt lat="47.32448" lon="-2.41233">
        <ele>64.400001525879</ele>
        <time>2020-02-20T09:33:46.000Z</time>
      </trkpt>
      <trkpt lat="47.32473" lon="-2.41279">
        <ele>64.400001525879</ele>
        <time>2020-02-20T09:33:53.000Z</time>
      </trkpt>
      <trkpt lat="47.32499" lon="-2.41328">
        <ele>64.400001525879</ele>
        <time>2020-02-20T09:34:00.000Z</time>
      </trkpt>
      <trkpt lat="47.32535" lon="-2.41398">
        <ele>64.400001525879</ele>
        <time>2020-02-20T09:34:10.000Z</time>
      </trkpt>
      <trkpt lat="47.32554" lon="-2.41435">
        <ele>64.400001525879</ele>
        <time>2020-02-20T09:34:16.000Z</time>
      </trkpt>
      <trkpt lat="47.32563" lon="-2.41454">
        <ele>64.400001525879</ele>
        <time>2020-02-20T09:34:20.000Z</time>
      </trkpt>
      <trkpt lat="47.32569" lon="-2.41462">
        <ele>64.400001525879</ele>
        <time>2020-02-20T09:34:22.000Z</time>
      </trkpt>
      <trkpt lat="47.32573" lon="-2.41482">
        <ele>64.400001525879</ele>
        <time>2020-02-20T09:34:26.000Z</time>
      </trkpt>
      <trkpt lat="47.32579" lon="-2.41514">
        <ele>64.400001525879</ele>
        <time>2020-02-20T09:34:32.000Z</time>
      </trkpt>
      <trkpt lat="47.32582" lon="-2.41517">
        <ele>64.400001525879</ele>
        <time>2020-02-20T09:34:33.000Z</time>
      </trkpt>
      <trkpt lat="47.32591" lon="-2.4152">
        <ele>63.599998474121</ele>
        <time>2020-02-20T09:34:35.000Z</time>
      </trkpt>
      <trkpt lat="47.32595" lon="-2.4152">
        <ele>63</ele>
        <time>2020-02-20T09:34:36.000Z</time>
      </trkpt>
      <trkpt lat="47.326" lon="-2.4152">
        <ele>62.599998474121</ele>
        <time>2020-02-20T09:34:37.000Z</time>
      </trkpt>
      <trkpt lat="47.32605" lon="-2.41521">
        <ele>62.200000762939</ele>
        <time>2020-02-20T09:34:38.000Z</time>
      </trkpt>
      <trkpt lat="47.32619" lon="-2.41523">
        <ele>62.200000762939</ele>
        <time>2020-02-20T09:34:41.000Z</time>
      </trkpt>
      <trkpt lat="47.32624" lon="-2.41524">
        <ele>62.200000762939</ele>
        <time>2020-02-20T09:34:42.000Z</time>
      </trkpt>
      <trkpt lat="47.32653" lon="-2.41531">
        <ele>62.200000762939</ele>
        <time>2020-02-20T09:34:48.000Z</time>
      </trkpt>
      <trkpt lat="47.32673" lon="-2.41535">
        <ele>61.799999237061</ele>
        <time>2020-02-20T09:34:52.000Z</time>
      </trkpt>
      <trkpt lat="47.32677" lon="-2.41536">
        <ele>61.400001525879</ele>
        <time>2020-02-20T09:34:53.000Z</time>
      </trkpt>
      <trkpt lat="47.32682" lon="-2.41536">
        <ele>61</ele>
        <time>2020-02-20T09:34:54.000Z</time>
      </trkpt>
      <trkpt lat="47.32687" lon="-2.41537">
        <ele>60.400001525879</ele>
        <time>2020-02-20T09:34:55.000Z</time>
      </trkpt>
      <trkpt lat="47.32692" lon="-2.41538">
        <ele>60</ele>
        <time>2020-02-20T09:34:56.000Z</time>
      </trkpt>
      <trkpt lat="47.327" lon="-2.41542">
        <ele>60</ele>
        <time>2020-02-20T09:34:58.000Z</time>
      </trkpt>
      <trkpt lat="47.32703" lon="-2.41547">
        <ele>60</ele>
        <time>2020-02-20T09:34:59.000Z</time>
      </trkpt>
      <trkpt lat="47.32703" lon="-2.41563">
        <ele>60</ele>
        <time>2020-02-20T09:35:02.000Z</time>
      </trkpt>
      <trkpt lat="47.32703" lon="-2.41576">
        <ele>60</ele>
        <time>2020-02-20T09:35:06.000Z</time>
      </trkpt>
      <trkpt lat="47.32703" lon="-2.41578">
        <ele>60</ele>
        <time>2020-02-20T09:35:07.000Z</time>
      </trkpt>
      <trkpt lat="47.32706" lon="-2.4159">
        <ele>60</ele>
        <time>2020-02-20T09:35:10.000Z</time>
      </trkpt>
      <trkpt lat="47.32713" lon="-2.41612">
        <ele>60</ele>
        <time>2020-02-20T09:35:14.000Z</time>
      </trkpt>
      <trkpt lat="47.32717" lon="-2.41622">
        <ele>60</ele>
        <time>2020-02-20T09:35:17.000Z</time>
      </trkpt>
      <trkpt lat="47.32713" lon="-2.41625">
        <ele>59.599998474121</ele>
        <time>2020-02-20T09:35:20.000Z</time>
      </trkpt>
      <trkpt lat="47.32711" lon="-2.41625">
        <ele>59.200000762939</ele>
        <time>2020-02-20T09:35:21.000Z</time>
      </trkpt>
      <trkpt lat="47.32708" lon="-2.41625">
        <ele>58.799999237061</ele>
        <time>2020-02-20T09:35:22.000Z</time>
      </trkpt>
      <trkpt lat="47.32705" lon="-2.41625">
        <ele>58.200000762939</ele>
        <time>2020-02-20T09:35:23.000Z</time>
      </trkpt>
      <trkpt lat="47.32702" lon="-2.41626">
        <ele>57.799999237061</ele>
        <time>2020-02-20T09:35:24.000Z</time>
      </trkpt>
      <trkpt lat="47.32698" lon="-2.41626">
        <ele>57.799999237061</ele>
        <time>2020-02-20T09:35:25.000Z</time>
      </trkpt>
      <trkpt lat="47.32685" lon="-2.41627">
        <ele>57.799999237061</ele>
        <time>2020-02-20T09:35:28.000Z</time>
      </trkpt>
      <trkpt lat="47.32676" lon="-2.41624">
        <ele>57.799999237061</ele>
        <time>2020-02-20T09:35:30.000Z</time>
      </trkpt>
      <trkpt lat="47.32661" lon="-2.41619">
        <ele>58.200000762939</ele>
        <time>2020-02-20T09:35:33.000Z</time>
      </trkpt>
      <trkpt lat="47.32656" lon="-2.41618">
        <ele>58.599998474121</ele>
        <time>2020-02-20T09:35:34.000Z</time>
      </trkpt>
      <trkpt lat="47.32651" lon="-2.41616">
        <ele>59.200000762939</ele>
        <time>2020-02-20T09:35:35.000Z</time>
      </trkpt>
      <trkpt lat="47.32646" lon="-2.41614">
        <ele>59.599998474121</ele>
        <time>2020-02-20T09:35:36.000Z</time>
      </trkpt>
      <trkpt lat="47.32642" lon="-2.41613">
        <ele>60</ele>
        <time>2020-02-20T09:35:37.000Z</time>
      </trkpt>
      <trkpt lat="47.32632" lon="-2.41609">
        <ele>60</ele>
        <time>2020-02-20T09:35:39.000Z</time>
      </trkpt>
      <trkpt lat="47.32623" lon="-2.41604">
        <ele>60</ele>
        <time>2020-02-20T09:35:41.000Z</time>
      </trkpt>
      <trkpt lat="47.32619" lon="-2.41603">
        <ele>60.400001525879</ele>
        <time>2020-02-20T09:35:42.000Z</time>
      </trkpt>
      <trkpt lat="47.32614" lon="-2.41603">
        <ele>60.799999237061</ele>
        <time>2020-02-20T09:35:43.000Z</time>
      </trkpt>
      <trkpt lat="47.32609" lon="-2.41603">
        <ele>61.400001525879</ele>
        <time>2020-02-20T09:35:44.000Z</time>
      </trkpt>
      <trkpt lat="47.32605" lon="-2.41604">
        <ele>61.799999237061</ele>
        <time>2020-02-20T09:35:45.000Z</time>
      </trkpt>
      <trkpt lat="47.32599" lon="-2.41604">
        <ele>62.400001525879</ele>
        <time>2020-02-20T09:35:46.000Z</time>
      </trkpt>
      <trkpt lat="47.32589" lon="-2.41603">
        <ele>62.400001525879</ele>
        <time>2020-02-20T09:35:48.000Z</time>
      </trkpt>
      <trkpt lat="47.32569" lon="-2.41589">
        <ele>62.400001525879</ele>
        <time>2020-02-20T09:35:52.000Z</time>
      </trkpt>
      <trkpt lat="47.32554" lon="-2.41577">
        <ele>62.400001525879</ele>
        <time>2020-02-20T09:35:55.000Z</time>
      </trkpt>
      <trkpt lat="47.32545" lon="-2.41576">
        <ele>62.400001525879</ele>
        <time>2020-02-20T09:35:57.000Z</time>
      </trkpt>
      <trkpt lat="47.32524" lon="-2.41582">
        <ele>62.400001525879</ele>
        <time>2020-02-20T09:36:01.000Z</time>
      </trkpt>
      <trkpt lat="47.32519" lon="-2.41585">
        <ele>62.400001525879</ele>
        <time>2020-02-20T09:36:02.000Z</time>
      </trkpt>
      <trkpt lat="47.32508" lon="-2.41587">
        <ele>62.400001525879</ele>
        <time>2020-02-20T09:36:04.000Z</time>
      </trkpt>
      <trkpt lat="47.32496" lon="-2.41586">
        <ele>62.400001525879</ele>
        <time>2020-02-20T09:36:06.000Z</time>
      </trkpt>
      <trkpt lat="47.32484" lon="-2.41582">
        <ele>62.400001525879</ele>
        <time>2020-02-20T09:36:08.000Z</time>
      </trkpt>
      <trkpt lat="47.32468" lon="-2.41574">
        <ele>62.400001525879</ele>
        <time>2020-02-20T09:36:11.000Z</time>
      </trkpt>
      <trkpt lat="47.32462" lon="-2.41572">
        <ele>62.400001525879</ele>
        <time>2020-02-20T09:36:12.000Z</time>
      </trkpt>
      <trkpt lat="47.32441" lon="-2.41566">
        <ele>62.400001525879</ele>
        <time>2020-02-20T09:36:16.000Z</time>
      </trkpt>
      <trkpt lat="47.32408" lon="-2.41565">
        <ele>62.400001525879</ele>
        <time>2020-02-20T09:36:22.000Z</time>
      </trkpt>
      <trkpt lat="47.32396" lon="-2.41562">
        <ele>62.400001525879</ele>
        <time>2020-02-20T09:36:24.000Z</time>
      </trkpt>
      <trkpt lat="47.32364" lon="-2.41546">
        <ele>62.400001525879</ele>
        <time>2020-02-20T09:36:30.000Z</time>
      </trkpt>
      <trkpt lat="47.32359" lon="-2.41545">
        <ele>62.400001525879</ele>
        <time>2020-02-20T09:36:31.000Z</time>
      </trkpt>
      <trkpt lat="47.32344" lon="-2.41551">
        <ele>62.400001525879</ele>
        <time>2020-02-20T09:36:34.000Z</time>
      </trkpt>
      <trkpt lat="47.3234" lon="-2.41555">
        <ele>62.400001525879</ele>
        <time>2020-02-20T09:36:35.000Z</time>
      </trkpt>
      <trkpt lat="47.32326" lon="-2.41574">
        <ele>62.400001525879</ele>
        <time>2020-02-20T09:36:40.000Z</time>
      </trkpt>
      <trkpt lat="47.32318" lon="-2.41593">
        <ele>62.400001525879</ele>
        <time>2020-02-20T09:36:44.000Z</time>
      </trkpt>
      <trkpt lat="47.32316" lon="-2.41599">
        <ele>62.400001525879</ele>
        <time>2020-02-20T09:36:45.000Z</time>
      </trkpt>
      <trkpt lat="47.32306" lon="-2.41635">
        <ele>62.400001525879</ele>
        <time>2020-02-20T09:36:52.000Z</time>
      </trkpt>
      <trkpt lat="47.32301" lon="-2.41651">
        <ele>62.400001525879</ele>
        <time>2020-02-20T09:36:55.000Z</time>
      </trkpt>
      <trkpt lat="47.32301" lon="-2.41665">
        <ele>62.400001525879</ele>
        <time>2020-02-20T09:36:57.000Z</time>
      </trkpt>
      <trkpt lat="47.323" lon="-2.41712">
        <ele>62.400001525879</ele>
        <time>2020-02-20T09:37:03.000Z</time>
      </trkpt>
      <trkpt lat="47.32299" lon="-2.4172">
        <ele>62.799999237061</ele>
        <time>2020-02-20T09:37:04.000Z</time>
      </trkpt>
      <trkpt lat="47.32297" lon="-2.41727">
        <ele>63.200000762939</ele>
        <time>2020-02-20T09:37:05.000Z</time>
      </trkpt>
      <trkpt lat="47.32294" lon="-2.41734">
        <ele>63.599998474121</ele>
        <time>2020-02-20T09:37:06.000Z</time>
      </trkpt>
      <trkpt lat="47.32291" lon="-2.4174">
        <ele>64</ele>
        <time>2020-02-20T09:37:07.000Z</time>
      </trkpt>
      <trkpt lat="47.32288" lon="-2.41745">
        <ele>63.799999237061</ele>
        <time>2020-02-20T09:37:08.000Z</time>
      </trkpt>
      <trkpt lat="47.32286" lon="-2.41751">
        <ele>63.400001525879</ele>
        <time>2020-02-20T09:37:09.000Z</time>
      </trkpt>
      <trkpt lat="47.32285" lon="-2.41756">
        <ele>63</ele>
        <time>2020-02-20T09:37:10.000Z</time>
      </trkpt>
      <trkpt lat="47.32285" lon="-2.41762">
        <ele>62.799999237061</ele>
        <time>2020-02-20T09:37:11.000Z</time>
      </trkpt>
      <trkpt lat="47.32285" lon="-2.41768">
        <ele>62.400001525879</ele>
        <time>2020-02-20T09:37:12.000Z</time>
      </trkpt>
      <trkpt lat="47.32292" lon="-2.41783">
        <ele>62.400001525879</ele>
        <time>2020-02-20T09:37:15.000Z</time>
      </trkpt>
      <trkpt lat="47.32294" lon="-2.41787">
        <ele>62</ele>
        <time>2020-02-20T09:37:16.000Z</time>
      </trkpt>
      <trkpt lat="47.32296" lon="-2.41792">
        <ele>61.599998474121</ele>
        <time>2020-02-20T09:37:17.000Z</time>
      </trkpt>
      <trkpt lat="47.32298" lon="-2.41797">
        <ele>61.200000762939</ele>
        <time>2020-02-20T09:37:18.000Z</time>
      </trkpt>
      <trkpt lat="47.323" lon="-2.41802">
        <ele>60.799999237061</ele>
        <time>2020-02-20T09:37:19.000Z</time>
      </trkpt>
      <trkpt lat="47.32302" lon="-2.41807">
        <ele>60.400001525879</ele>
        <time>2020-02-20T09:37:20.000Z</time>
      </trkpt>
      <trkpt lat="47.32302" lon="-2.41812">
        <ele>60.400001525879</ele>
        <time>2020-02-20T09:37:21.000Z</time>
      </trkpt>
      <trkpt lat="47.32296" lon="-2.41825">
        <ele>60.400001525879</ele>
        <time>2020-02-20T09:37:24.000Z</time>
      </trkpt>
      <trkpt lat="47.32283" lon="-2.41844">
        <ele>60.400001525879</ele>
        <time>2020-02-20T09:37:28.000Z</time>
      </trkpt>
      <trkpt lat="47.32275" lon="-2.41853">
        <ele>60.400001525879</ele>
        <time>2020-02-20T09:37:30.000Z</time>
      </trkpt>
      <trkpt lat="47.32258" lon="-2.41877">
        <ele>60.400001525879</ele>
        <time>2020-02-20T09:37:36.000Z</time>
      </trkpt>
      <trkpt lat="47.32257" lon="-2.41882">
        <ele>60.400001525879</ele>
        <time>2020-02-20T09:37:37.000Z</time>
      </trkpt>
      <trkpt lat="47.3226" lon="-2.41891">
        <ele>60.400001525879</ele>
        <time>2020-02-20T09:37:39.000Z</time>
      </trkpt>
      <trkpt lat="47.32265" lon="-2.41899">
        <ele>60.400001525879</ele>
        <time>2020-02-20T09:37:41.000Z</time>
      </trkpt>
      <trkpt lat="47.32271" lon="-2.41908">
        <ele>60.400001525879</ele>
        <time>2020-02-20T09:37:43.000Z</time>
      </trkpt>
      <trkpt lat="47.32274" lon="-2.41911">
        <ele>60.400001525879</ele>
        <time>2020-02-20T09:37:44.000Z</time>
      </trkpt>
      <trkpt lat="47.32287" lon="-2.41933">
        <ele>60.400001525879</ele>
        <time>2020-02-20T09:37:50.000Z</time>
      </trkpt>
      <trkpt lat="47.3229" lon="-2.4194">
        <ele>60.400001525879</ele>
        <time>2020-02-20T09:37:52.000Z</time>
      </trkpt>
      <trkpt lat="47.3229" lon="-2.41947">
        <ele>60.400001525879</ele>
        <time>2020-02-20T09:37:54.000Z</time>
      </trkpt>
      <trkpt lat="47.32295" lon="-2.41958">
        <ele>60.400001525879</ele>
        <time>2020-02-20T09:37:58.000Z</time>
      </trkpt>
      <trkpt lat="47.32303" lon="-2.41964">
        <ele>60.400001525879</ele>
        <time>2020-02-20T09:38:01.000Z</time>
      </trkpt>
      <trkpt lat="47.3231" lon="-2.41971">
        <ele>60.400001525879</ele>
        <time>2020-02-20T09:38:03.000Z</time>
      </trkpt>
      <trkpt lat="47.32325" lon="-2.41983">
        <ele>60.400001525879</ele>
        <time>2020-02-20T09:38:07.000Z</time>
      </trkpt>
      <trkpt lat="47.32334" lon="-2.41989">
        <ele>60.400001525879</ele>
        <time>2020-02-20T09:38:09.000Z</time>
      </trkpt>
      <trkpt lat="47.32345" lon="-2.41999">
        <ele>60.400001525879</ele>
        <time>2020-02-20T09:38:12.000Z</time>
      </trkpt>
      <trkpt lat="47.32356" lon="-2.4201">
        <ele>60.400001525879</ele>
        <time>2020-02-20T09:38:15.000Z</time>
      </trkpt>
      <trkpt lat="47.32381" lon="-2.42041">
        <ele>60.400001525879</ele>
        <time>2020-02-20T09:38:23.000Z</time>
      </trkpt>
      <trkpt lat="47.32394" lon="-2.42056">
        <ele>60.799999237061</ele>
        <time>2020-02-20T09:38:27.000Z</time>
      </trkpt>
      <trkpt lat="47.32397" lon="-2.4206">
        <ele>61.400001525879</ele>
        <time>2020-02-20T09:38:28.000Z</time>
      </trkpt>
      <trkpt lat="47.32401" lon="-2.42063">
        <ele>61.799999237061</ele>
        <time>2020-02-20T09:38:29.000Z</time>
      </trkpt>
      <trkpt lat="47.32404" lon="-2.42067">
        <ele>62.400001525879</ele>
        <time>2020-02-20T09:38:30.000Z</time>
      </trkpt>
      <trkpt lat="47.32407" lon="-2.42071">
        <ele>62.799999237061</ele>
        <time>2020-02-20T09:38:31.000Z</time>
      </trkpt>
      <trkpt lat="47.32416" lon="-2.42082">
        <ele>62.799999237061</ele>
        <time>2020-02-20T09:38:34.000Z</time>
      </trkpt>
      <trkpt lat="47.32441" lon="-2.42112">
        <ele>62.799999237061</ele>
        <time>2020-02-20T09:38:42.000Z</time>
      </trkpt>
      <trkpt lat="47.32445" lon="-2.42115">
        <ele>63.200000762939</ele>
        <time>2020-02-20T09:38:43.000Z</time>
      </trkpt>
      <trkpt lat="47.32449" lon="-2.42117">
        <ele>63.599998474121</ele>
        <time>2020-02-20T09:38:44.000Z</time>
      </trkpt>
      <trkpt lat="47.32453" lon="-2.4212">
        <ele>64.199996948242</ele>
        <time>2020-02-20T09:38:45.000Z</time>
      </trkpt>
      <trkpt lat="47.32457" lon="-2.42123">
        <ele>64.599998474121</ele>
        <time>2020-02-20T09:38:46.000Z</time>
      </trkpt>
      <trkpt lat="47.32461" lon="-2.42126">
        <ele>65</ele>
        <time>2020-02-20T09:38:47.000Z</time>
      </trkpt>
      <trkpt lat="47.32472" lon="-2.42135">
        <ele>65</ele>
        <time>2020-02-20T09:38:50.000Z</time>
      </trkpt>
      <trkpt lat="47.32483" lon="-2.42145">
        <ele>65</ele>
        <time>2020-02-20T09:38:53.000Z</time>
      </trkpt>
      <trkpt lat="47.32496" lon="-2.42164">
        <ele>65</ele>
        <time>2020-02-20T09:38:57.000Z</time>
      </trkpt>
      <trkpt lat="47.32499" lon="-2.42171">
        <ele>65</ele>
        <time>2020-02-20T09:38:58.000Z</time>
      </trkpt>
      <trkpt lat="47.32509" lon="-2.42193">
        <ele>65</ele>
        <time>2020-02-20T09:39:01.000Z</time>
      </trkpt>
      <trkpt lat="47.32513" lon="-2.42201">
        <ele>65</ele>
        <time>2020-02-20T09:39:02.000Z</time>
      </trkpt>
      <trkpt lat="47.32542" lon="-2.42255">
        <ele>65</ele>
        <time>2020-02-20T09:39:09.000Z</time>
      </trkpt>
      <trkpt lat="47.32563" lon="-2.42296">
        <ele>64.400001525879</ele>
        <time>2020-02-20T09:39:15.000Z</time>
      </trkpt>
      <trkpt lat="47.32567" lon="-2.42301">
        <ele>64</ele>
        <time>2020-02-20T09:39:16.000Z</time>
      </trkpt>
      <trkpt lat="47.3257" lon="-2.42307">
        <ele>63.400001525879</ele>
        <time>2020-02-20T09:39:17.000Z</time>
      </trkpt>
      <trkpt lat="47.32573" lon="-2.42312">
        <ele>62.799999237061</ele>
        <time>2020-02-20T09:39:18.000Z</time>
      </trkpt>
      <trkpt lat="47.32576" lon="-2.42318">
        <ele>62.400001525879</ele>
        <time>2020-02-20T09:39:19.000Z</time>
      </trkpt>
      <trkpt lat="47.3258" lon="-2.42324">
        <ele>61.799999237061</ele>
        <time>2020-02-20T09:39:20.000Z</time>
      </trkpt>
      <trkpt lat="47.32583" lon="-2.42331">
        <ele>61.200000762939</ele>
        <time>2020-02-20T09:39:21.000Z</time>
      </trkpt>
      <trkpt lat="47.32586" lon="-2.42338">
        <ele>60.599998474121</ele>
        <time>2020-02-20T09:39:22.000Z</time>
      </trkpt>
      <trkpt lat="47.3259" lon="-2.42344">
        <ele>60</ele>
        <time>2020-02-20T09:39:23.000Z</time>
      </trkpt>
      <trkpt lat="47.32607" lon="-2.42376">
        <ele>60</ele>
        <time>2020-02-20T09:39:28.000Z</time>
      </trkpt>
      <trkpt lat="47.3263" lon="-2.42427">
        <ele>60</ele>
        <time>2020-02-20T09:39:35.000Z</time>
      </trkpt>
      <trkpt lat="47.32652" lon="-2.42487">
        <ele>60</ele>
        <time>2020-02-20T09:39:43.000Z</time>
      </trkpt>
      <trkpt lat="47.3267" lon="-2.42539">
        <ele>60</ele>
        <time>2020-02-20T09:39:50.000Z</time>
      </trkpt>
      <trkpt lat="47.32683" lon="-2.42581">
        <ele>60</ele>
        <time>2020-02-20T09:39:56.000Z</time>
      </trkpt>
      <trkpt lat="47.327" lon="-2.42633">
        <ele>60</ele>
        <time>2020-02-20T09:40:04.000Z</time>
      </trkpt>
      <trkpt lat="47.32715" lon="-2.42673">
        <ele>60</ele>
        <time>2020-02-20T09:40:11.000Z</time>
      </trkpt>
      <trkpt lat="47.32725" lon="-2.42679">
        <ele>60</ele>
        <time>2020-02-20T09:40:14.000Z</time>
      </trkpt>
      <trkpt lat="47.32728" lon="-2.42682">
        <ele>60</ele>
        <time>2020-02-20T09:40:16.000Z</time>
      </trkpt>
      <trkpt lat="47.32728" lon="-2.42689">
        <ele>60</ele>
        <time>2020-02-20T09:40:18.000Z</time>
      </trkpt>
      <trkpt lat="47.32721" lon="-2.42695">
        <ele>60</ele>
        <time>2020-02-20T09:40:21.000Z</time>
      </trkpt>
      <trkpt lat="47.32713" lon="-2.42703">
        <ele>60</ele>
        <time>2020-02-20T09:40:24.000Z</time>
      </trkpt>
      <trkpt lat="47.3271" lon="-2.42707">
        <ele>60</ele>
        <time>2020-02-20T09:40:25.000Z</time>
      </trkpt>
      <trkpt lat="47.32694" lon="-2.4273">
        <ele>60</ele>
        <time>2020-02-20T09:40:30.000Z</time>
      </trkpt>
      <trkpt lat="47.32691" lon="-2.42735">
        <ele>60</ele>
        <time>2020-02-20T09:40:31.000Z</time>
      </trkpt>
      <trkpt lat="47.3267" lon="-2.42779">
        <ele>60</ele>
        <time>2020-02-20T09:40:39.000Z</time>
      </trkpt>
      <trkpt lat="47.32656" lon="-2.4281">
        <ele>60</ele>
        <time>2020-02-20T09:40:44.000Z</time>
      </trkpt>
      <trkpt lat="47.32655" lon="-2.42817">
        <ele>60</ele>
        <time>2020-02-20T09:40:45.000Z</time>
      </trkpt>
      <trkpt lat="47.32642" lon="-2.42864">
        <ele>60</ele>
        <time>2020-02-20T09:40:52.000Z</time>
      </trkpt>
      <trkpt lat="47.32638" lon="-2.42884">
        <ele>60</ele>
        <time>2020-02-20T09:40:55.000Z</time>
      </trkpt>
      <trkpt lat="47.32633" lon="-2.42911">
        <ele>60</ele>
        <time>2020-02-20T09:40:59.000Z</time>
      </trkpt>
      <trkpt lat="47.3263" lon="-2.42937">
        <ele>60</ele>
        <time>2020-02-20T09:41:03.000Z</time>
      </trkpt>
      <trkpt lat="47.32626" lon="-2.4295">
        <ele>60</ele>
        <time>2020-02-20T09:41:05.000Z</time>
      </trkpt>
      <trkpt lat="47.32622" lon="-2.4298">
        <ele>60</ele>
        <time>2020-02-20T09:41:09.000Z</time>
      </trkpt>
      <trkpt lat="47.32623" lon="-2.43015">
        <ele>60</ele>
        <time>2020-02-20T09:41:14.000Z</time>
      </trkpt>
      <trkpt lat="47.32623" lon="-2.43022">
        <ele>60</ele>
        <time>2020-02-20T09:41:15.000Z</time>
      </trkpt>
      <trkpt lat="47.32626" lon="-2.43061">
        <ele>60</ele>
        <time>2020-02-20T09:41:21.000Z</time>
      </trkpt>
      <trkpt lat="47.32619" lon="-2.43076">
        <ele>59.599998474121</ele>
        <time>2020-02-20T09:41:24.000Z</time>
      </trkpt>
      <trkpt lat="47.32615" lon="-2.43078">
        <ele>59.200000762939</ele>
        <time>2020-02-20T09:41:25.000Z</time>
      </trkpt>
      <trkpt lat="47.3261" lon="-2.43078">
        <ele>58.799999237061</ele>
        <time>2020-02-20T09:41:26.000Z</time>
      </trkpt>
      <trkpt lat="47.32606" lon="-2.43078">
        <ele>58.200000762939</ele>
        <time>2020-02-20T09:41:27.000Z</time>
      </trkpt>
      <trkpt lat="47.32601" lon="-2.43079">
        <ele>57.799999237061</ele>
        <time>2020-02-20T09:41:28.000Z</time>
      </trkpt>
      <trkpt lat="47.32596" lon="-2.4308">
        <ele>57.799999237061</ele>
        <time>2020-02-20T09:41:29.000Z</time>
      </trkpt>
      <trkpt lat="47.32575" lon="-2.43085">
        <ele>57.799999237061</ele>
        <time>2020-02-20T09:41:33.000Z</time>
      </trkpt>
      <trkpt lat="47.32539" lon="-2.43085">
        <ele>57.799999237061</ele>
        <time>2020-02-20T09:41:39.000Z</time>
      </trkpt>
      <trkpt lat="47.325" lon="-2.43084">
        <ele>57.400001525879</ele>
        <time>2020-02-20T09:41:45.000Z</time>
      </trkpt>
      <trkpt lat="47.32493" lon="-2.43084">
        <ele>56.799999237061</ele>
        <time>2020-02-20T09:41:46.000Z</time>
      </trkpt>
      <trkpt lat="47.32486" lon="-2.43083">
        <ele>56.400001525879</ele>
        <time>2020-02-20T09:41:47.000Z</time>
      </trkpt>
      <trkpt lat="47.32478" lon="-2.43083">
        <ele>55.799999237061</ele>
        <time>2020-02-20T09:41:48.000Z</time>
      </trkpt>
      <trkpt lat="47.32471" lon="-2.43083">
        <ele>55.400001525879</ele>
        <time>2020-02-20T09:41:49.000Z</time>
      </trkpt>
      <trkpt lat="47.32455" lon="-2.43081">
        <ele>55.400001525879</ele>
        <time>2020-02-20T09:41:51.000Z</time>
      </trkpt>
      <trkpt lat="47.32439" lon="-2.43079">
        <ele>55</ele>
        <time>2020-02-20T09:41:53.000Z</time>
      </trkpt>
      <trkpt lat="47.32431" lon="-2.43077">
        <ele>54.400001525879</ele>
        <time>2020-02-20T09:41:54.000Z</time>
      </trkpt>
      <trkpt lat="47.32423" lon="-2.43076">
        <ele>54</ele>
        <time>2020-02-20T09:41:55.000Z</time>
      </trkpt>
      <trkpt lat="47.32414" lon="-2.43074">
        <ele>53.599998474121</ele>
        <time>2020-02-20T09:41:56.000Z</time>
      </trkpt>
      <trkpt lat="47.32406" lon="-2.43072">
        <ele>53</ele>
        <time>2020-02-20T09:41:57.000Z</time>
      </trkpt>
      <trkpt lat="47.32396" lon="-2.43072">
        <ele>52.599998474121</ele>
        <time>2020-02-20T09:41:58.000Z</time>
      </trkpt>
      <trkpt lat="47.32387" lon="-2.43073">
        <ele>51.200000762939</ele>
        <time>2020-02-20T09:41:59.000Z</time>
      </trkpt>
      <trkpt lat="47.32378" lon="-2.43076">
        <ele>50.599998474121</ele>
        <time>2020-02-20T09:42:00.000Z</time>
      </trkpt>
      <trkpt lat="47.32369" lon="-2.43079">
        <ele>49.799999237061</ele>
        <time>2020-02-20T09:42:01.000Z</time>
      </trkpt>
      <trkpt lat="47.3236" lon="-2.43081">
        <ele>49</ele>
        <time>2020-02-20T09:42:02.000Z</time>
      </trkpt>
      <trkpt lat="47.3235" lon="-2.43085">
        <ele>48.400001525879</ele>
        <time>2020-02-20T09:42:03.000Z</time>
      </trkpt>
      <trkpt lat="47.32341" lon="-2.43088">
        <ele>47.799999237061</ele>
        <time>2020-02-20T09:42:04.000Z</time>
      </trkpt>
      <trkpt lat="47.32332" lon="-2.43092">
        <ele>47.200000762939</ele>
        <time>2020-02-20T09:42:05.000Z</time>
      </trkpt>
      <trkpt lat="47.32324" lon="-2.43097">
        <ele>46.599998474121</ele>
        <time>2020-02-20T09:42:06.000Z</time>
      </trkpt>
      <trkpt lat="47.32315" lon="-2.43103">
        <ele>46</ele>
        <time>2020-02-20T09:42:07.000Z</time>
      </trkpt>
      <trkpt lat="47.32265" lon="-2.43128">
        <ele>46</ele>
        <time>2020-02-20T09:42:13.000Z</time>
      </trkpt>
      <trkpt lat="47.32213" lon="-2.43151">
        <ele>46</ele>
        <time>2020-02-20T09:42:20.000Z</time>
      </trkpt>
      <trkpt lat="47.32206" lon="-2.43154">
        <ele>45.599998474121</ele>
        <time>2020-02-20T09:42:21.000Z</time>
      </trkpt>
      <trkpt lat="47.32198" lon="-2.43158">
        <ele>45.200000762939</ele>
        <time>2020-02-20T09:42:22.000Z</time>
      </trkpt>
      <trkpt lat="47.32191" lon="-2.43161">
        <ele>44.799999237061</ele>
        <time>2020-02-20T09:42:23.000Z</time>
      </trkpt>
      <trkpt lat="47.32185" lon="-2.43165">
        <ele>44</ele>
        <time>2020-02-20T09:42:24.000Z</time>
      </trkpt>
      <trkpt lat="47.32171" lon="-2.43171">
        <ele>43.599998474121</ele>
        <time>2020-02-20T09:42:26.000Z</time>
      </trkpt>
      <trkpt lat="47.32165" lon="-2.43174">
        <ele>43</ele>
        <time>2020-02-20T09:42:27.000Z</time>
      </trkpt>
      <trkpt lat="47.32159" lon="-2.43177">
        <ele>42.599998474121</ele>
        <time>2020-02-20T09:42:28.000Z</time>
      </trkpt>
      <trkpt lat="47.32152" lon="-2.4318">
        <ele>42.200000762939</ele>
        <time>2020-02-20T09:42:29.000Z</time>
      </trkpt>
      <trkpt lat="47.32146" lon="-2.43183">
        <ele>41.599998474121</ele>
        <time>2020-02-20T09:42:30.000Z</time>
      </trkpt>
      <trkpt lat="47.32129" lon="-2.43189">
        <ele>41.200000762939</ele>
        <time>2020-02-20T09:42:33.000Z</time>
      </trkpt>
      <trkpt lat="47.32123" lon="-2.43191">
        <ele>40.799999237061</ele>
        <time>2020-02-20T09:42:34.000Z</time>
      </trkpt>
      <trkpt lat="47.32117" lon="-2.43194">
        <ele>40.400001525879</ele>
        <time>2020-02-20T09:42:35.000Z</time>
      </trkpt>
      <trkpt lat="47.32112" lon="-2.43197">
        <ele>40</ele>
        <time>2020-02-20T09:42:36.000Z</time>
      </trkpt>
      <trkpt lat="47.32107" lon="-2.432">
        <ele>39.400001525879</ele>
        <time>2020-02-20T09:42:37.000Z</time>
      </trkpt>
      <trkpt lat="47.32091" lon="-2.43207">
        <ele>39.400001525879</ele>
        <time>2020-02-20T09:42:40.000Z</time>
      </trkpt>
      <trkpt lat="47.32086" lon="-2.4321">
        <ele>39.400001525879</ele>
        <time>2020-02-20T09:42:41.000Z</time>
      </trkpt>
      <trkpt lat="47.32071" lon="-2.43217">
        <ele>39.400001525879</ele>
        <time>2020-02-20T09:42:44.000Z</time>
      </trkpt>
      <trkpt lat="47.32066" lon="-2.4322">
        <ele>39</ele>
        <time>2020-02-20T09:42:45.000Z</time>
      </trkpt>
      <trkpt lat="47.32061" lon="-2.43223">
        <ele>38.599998474121</ele>
        <time>2020-02-20T09:42:46.000Z</time>
      </trkpt>
      <trkpt lat="47.32056" lon="-2.43226">
        <ele>38.200000762939</ele>
        <time>2020-02-20T09:42:47.000Z</time>
      </trkpt>
      <trkpt lat="47.32051" lon="-2.4323">
        <ele>37.799999237061</ele>
        <time>2020-02-20T09:42:48.000Z</time>
      </trkpt>
      <trkpt lat="47.32045" lon="-2.43234">
        <ele>37.400001525879</ele>
        <time>2020-02-20T09:42:49.000Z</time>
      </trkpt>
      <trkpt lat="47.32011" lon="-2.43259">
        <ele>37.400001525879</ele>
        <time>2020-02-20T09:42:55.000Z</time>
      </trkpt>
      <trkpt lat="47.31994" lon="-2.4327">
        <ele>37</ele>
        <time>2020-02-20T09:42:58.000Z</time>
      </trkpt>
      <trkpt lat="47.3199" lon="-2.43273">
        <ele>36.400001525879</ele>
        <time>2020-02-20T09:42:59.000Z</time>
      </trkpt>
      <trkpt lat="47.31986" lon="-2.43275">
        <ele>36</ele>
        <time>2020-02-20T09:43:00.000Z</time>
      </trkpt>
      <trkpt lat="47.31982" lon="-2.43279">
        <ele>35.400001525879</ele>
        <time>2020-02-20T09:43:01.000Z</time>
      </trkpt>
      <trkpt lat="47.3198" lon="-2.43284">
        <ele>34.799999237061</ele>
        <time>2020-02-20T09:43:02.000Z</time>
      </trkpt>
      <trkpt lat="47.31979" lon="-2.4329">
        <ele>34.400001525879</ele>
        <time>2020-02-20T09:43:03.000Z</time>
      </trkpt>
      <trkpt lat="47.31978" lon="-2.43296">
        <ele>33.799999237061</ele>
        <time>2020-02-20T09:43:04.000Z</time>
      </trkpt>
      <trkpt lat="47.31977" lon="-2.43303">
        <ele>33.200000762939</ele>
        <time>2020-02-20T09:43:05.000Z</time>
      </trkpt>
      <trkpt lat="47.31977" lon="-2.43311">
        <ele>32.799999237061</ele>
        <time>2020-02-20T09:43:06.000Z</time>
      </trkpt>
      <trkpt lat="47.31977" lon="-2.43319">
        <ele>32.799999237061</ele>
        <time>2020-02-20T09:43:07.000Z</time>
      </trkpt>
      <trkpt lat="47.31972" lon="-2.43344">
        <ele>32.799999237061</ele>
        <time>2020-02-20T09:43:10.000Z</time>
      </trkpt>
      <trkpt lat="47.31968" lon="-2.43361">
        <ele>32.799999237061</ele>
        <time>2020-02-20T09:43:12.000Z</time>
      </trkpt>
      <trkpt lat="47.31962" lon="-2.43386">
        <ele>32.400001525879</ele>
        <time>2020-02-20T09:43:15.000Z</time>
      </trkpt>
      <trkpt lat="47.31959" lon="-2.43395">
        <ele>31.799999237061</ele>
        <time>2020-02-20T09:43:16.000Z</time>
      </trkpt>
      <trkpt lat="47.31957" lon="-2.43403">
        <ele>31.39999961853</ele>
        <time>2020-02-20T09:43:17.000Z</time>
      </trkpt>
      <trkpt lat="47.31954" lon="-2.43411">
        <ele>31</ele>
        <time>2020-02-20T09:43:18.000Z</time>
      </trkpt>
      <trkpt lat="47.31951" lon="-2.43419">
        <ele>30.60000038147</ele>
        <time>2020-02-20T09:43:19.000Z</time>
      </trkpt>
      <trkpt lat="47.31942" lon="-2.43445">
        <ele>30.200000762939</ele>
        <time>2020-02-20T09:43:22.000Z</time>
      </trkpt>
      <trkpt lat="47.31939" lon="-2.43454">
        <ele>29.799999237061</ele>
        <time>2020-02-20T09:43:23.000Z</time>
      </trkpt>
      <trkpt lat="47.31936" lon="-2.43463">
        <ele>29.39999961853</ele>
        <time>2020-02-20T09:43:24.000Z</time>
      </trkpt>
      <trkpt lat="47.31934" lon="-2.43473">
        <ele>29</ele>
        <time>2020-02-20T09:43:25.000Z</time>
      </trkpt>
      <trkpt lat="47.31932" lon="-2.43483">
        <ele>28.39999961853</ele>
        <time>2020-02-20T09:43:26.000Z</time>
      </trkpt>
      <trkpt lat="47.31928" lon="-2.43513">
        <ele>28</ele>
        <time>2020-02-20T09:43:29.000Z</time>
      </trkpt>
      <trkpt lat="47.31928" lon="-2.43522">
        <ele>27.60000038147</ele>
        <time>2020-02-20T09:43:30.000Z</time>
      </trkpt>
      <trkpt lat="47.31928" lon="-2.43532">
        <ele>27.200000762939</ele>
        <time>2020-02-20T09:43:31.000Z</time>
      </trkpt>
      <trkpt lat="47.31928" lon="-2.43541">
        <ele>26.799999237061</ele>
        <time>2020-02-20T09:43:32.000Z</time>
      </trkpt>
      <trkpt lat="47.31929" lon="-2.4355">
        <ele>26.200000762939</ele>
        <time>2020-02-20T09:43:33.000Z</time>
      </trkpt>
      <trkpt lat="47.31929" lon="-2.43579">
        <ele>26.200000762939</ele>
        <time>2020-02-20T09:43:36.000Z</time>
      </trkpt>
      <trkpt lat="47.31928" lon="-2.43588">
        <ele>25.799999237061</ele>
        <time>2020-02-20T09:43:37.000Z</time>
      </trkpt>
      <trkpt lat="47.31924" lon="-2.43596">
        <ele>25</ele>
        <time>2020-02-20T09:43:38.000Z</time>
      </trkpt>
      <trkpt lat="47.3192" lon="-2.43603">
        <ele>24.60000038147</ele>
        <time>2020-02-20T09:43:39.000Z</time>
      </trkpt>
      <trkpt lat="47.31914" lon="-2.43609">
        <ele>24.200000762939</ele>
        <time>2020-02-20T09:43:40.000Z</time>
      </trkpt>
      <trkpt lat="47.31903" lon="-2.43617">
        <ele>23.799999237061</ele>
        <time>2020-02-20T09:43:42.000Z</time>
      </trkpt>
      <trkpt lat="47.31898" lon="-2.43622">
        <ele>23.39999961853</ele>
        <time>2020-02-20T09:43:43.000Z</time>
      </trkpt>
      <trkpt lat="47.31893" lon="-2.43628">
        <ele>23</ele>
        <time>2020-02-20T09:43:44.000Z</time>
      </trkpt>
      <trkpt lat="47.31891" lon="-2.43635">
        <ele>22.60000038147</ele>
        <time>2020-02-20T09:43:45.000Z</time>
      </trkpt>
      <trkpt lat="47.3189" lon="-2.43644">
        <ele>22</ele>
        <time>2020-02-20T09:43:46.000Z</time>
      </trkpt>
      <trkpt lat="47.31892" lon="-2.43652">
        <ele>21.60000038147</ele>
        <time>2020-02-20T09:43:47.000Z</time>
      </trkpt>
      <trkpt lat="47.31895" lon="-2.43658">
        <ele>21</ele>
        <time>2020-02-20T09:43:48.000Z</time>
      </trkpt>
      <trkpt lat="47.31898" lon="-2.43665">
        <ele>20.39999961853</ele>
        <time>2020-02-20T09:43:49.000Z</time>
      </trkpt>
      <trkpt lat="47.31902" lon="-2.43672">
        <ele>19.799999237061</ele>
        <time>2020-02-20T09:43:50.000Z</time>
      </trkpt>
      <trkpt lat="47.31921" lon="-2.43714">
        <ele>19.799999237061</ele>
        <time>2020-02-20T09:43:56.000Z</time>
      </trkpt>
      <trkpt lat="47.3194" lon="-2.43764">
        <ele>19.799999237061</ele>
        <time>2020-02-20T09:44:03.000Z</time>
      </trkpt>
      <trkpt lat="47.31955" lon="-2.43801">
        <ele>19.799999237061</ele>
        <time>2020-02-20T09:44:09.000Z</time>
      </trkpt>
      <trkpt lat="47.31973" lon="-2.43831">
        <ele>19.799999237061</ele>
        <time>2020-02-20T09:44:15.000Z</time>
      </trkpt>
      <trkpt lat="47.31976" lon="-2.43835">
        <ele>19.799999237061</ele>
        <time>2020-02-20T09:44:16.000Z</time>
      </trkpt>
      <trkpt lat="47.31988" lon="-2.43837">
        <ele>19.799999237061</ele>
        <time>2020-02-20T09:44:19.000Z</time>
      </trkpt>
      <trkpt lat="47.32001" lon="-2.43824">
        <ele>19.799999237061</ele>
        <time>2020-02-20T09:44:23.000Z</time>
      </trkpt>
      <trkpt lat="47.32004" lon="-2.4382">
        <ele>20.200000762939</ele>
        <time>2020-02-20T09:44:24.000Z</time>
      </trkpt>
      <trkpt lat="47.32007" lon="-2.43817">
        <ele>21.200000762939</ele>
        <time>2020-02-20T09:44:25.000Z</time>
      </trkpt>
      <trkpt lat="47.3201" lon="-2.43814">
        <ele>21.60000038147</ele>
        <time>2020-02-20T09:44:26.000Z</time>
      </trkpt>
      <trkpt lat="47.32013" lon="-2.43811">
        <ele>22</ele>
        <time>2020-02-20T09:44:27.000Z</time>
      </trkpt>
      <trkpt lat="47.32022" lon="-2.43804">
        <ele>22.39999961853</ele>
        <time>2020-02-20T09:44:30.000Z</time>
      </trkpt>
      <trkpt lat="47.32025" lon="-2.43802">
        <ele>22.799999237061</ele>
        <time>2020-02-20T09:44:31.000Z</time>
      </trkpt>
      <trkpt lat="47.32028" lon="-2.43801">
        <ele>23.39999961853</ele>
        <time>2020-02-20T09:44:32.000Z</time>
      </trkpt>
      <trkpt lat="47.32031" lon="-2.438">
        <ele>23.799999237061</ele>
        <time>2020-02-20T09:44:33.000Z</time>
      </trkpt>
      <trkpt lat="47.32035" lon="-2.43801">
        <ele>24.200000762939</ele>
        <time>2020-02-20T09:44:34.000Z</time>
      </trkpt>
      <trkpt lat="47.32038" lon="-2.43803">
        <ele>24.60000038147</ele>
        <time>2020-02-20T09:44:35.000Z</time>
      </trkpt>
      <trkpt lat="47.3204" lon="-2.43808">
        <ele>25.200000762939</ele>
        <time>2020-02-20T09:44:36.000Z</time>
      </trkpt>
      <trkpt lat="47.32042" lon="-2.43812">
        <ele>25.60000038147</ele>
        <time>2020-02-20T09:44:37.000Z</time>
      </trkpt>
      <trkpt lat="47.32044" lon="-2.43817">
        <ele>26</ele>
        <time>2020-02-20T09:44:38.000Z</time>
      </trkpt>
      <trkpt lat="47.32046" lon="-2.43821">
        <ele>26.60000038147</ele>
        <time>2020-02-20T09:44:39.000Z</time>
      </trkpt>
      <trkpt lat="47.32048" lon="-2.43825">
        <ele>27</ele>
        <time>2020-02-20T09:44:40.000Z</time>
      </trkpt>
      <trkpt lat="47.3205" lon="-2.4383">
        <ele>27.60000038147</ele>
        <time>2020-02-20T09:44:41.000Z</time>
      </trkpt>
      <trkpt lat="47.32053" lon="-2.43834">
        <ele>28</ele>
        <time>2020-02-20T09:44:42.000Z</time>
      </trkpt>
      <trkpt lat="47.32055" lon="-2.43839">
        <ele>28.60000038147</ele>
        <time>2020-02-20T09:44:43.000Z</time>
      </trkpt>
      <trkpt lat="47.32062" lon="-2.4385">
        <ele>28.60000038147</ele>
        <time>2020-02-20T09:44:45.000Z</time>
      </trkpt>
      <trkpt lat="47.32081" lon="-2.43886">
        <ele>28.60000038147</ele>
        <time>2020-02-20T09:44:51.000Z</time>
      </trkpt>
      <trkpt lat="47.32089" lon="-2.43896">
        <ele>28.60000038147</ele>
        <time>2020-02-20T09:44:53.000Z</time>
      </trkpt>
      <trkpt lat="47.32103" lon="-2.43903">
        <ele>28.60000038147</ele>
        <time>2020-02-20T09:44:56.000Z</time>
      </trkpt>
      <trkpt lat="47.32107" lon="-2.43905">
        <ele>28.60000038147</ele>
        <time>2020-02-20T09:44:57.000Z</time>
      </trkpt>
      <trkpt lat="47.32111" lon="-2.43907">
        <ele>28.60000038147</ele>
        <time>2020-02-20T09:44:58.000Z</time>
      </trkpt>
      <trkpt lat="47.32124" lon="-2.43915">
        <ele>29</ele>
        <time>2020-02-20T09:45:01.000Z</time>
      </trkpt>
      <trkpt lat="47.32128" lon="-2.43919">
        <ele>29.60000038147</ele>
        <time>2020-02-20T09:45:02.000Z</time>
      </trkpt>
      <trkpt lat="47.32132" lon="-2.43922">
        <ele>30</ele>
        <time>2020-02-20T09:45:03.000Z</time>
      </trkpt>
      <trkpt lat="47.32136" lon="-2.43926">
        <ele>30.60000038147</ele>
        <time>2020-02-20T09:45:04.000Z</time>
      </trkpt>
      <trkpt lat="47.32139" lon="-2.4393">
        <ele>31</ele>
        <time>2020-02-20T09:45:05.000Z</time>
      </trkpt>
      <trkpt lat="47.32144" lon="-2.43936">
        <ele>31</ele>
        <time>2020-02-20T09:45:07.000Z</time>
      </trkpt>
      <trkpt lat="47.32146" lon="-2.43939">
        <ele>31.39999961853</ele>
        <time>2020-02-20T09:45:08.000Z</time>
      </trkpt>
      <trkpt lat="47.32147" lon="-2.43942">
        <ele>32</ele>
        <time>2020-02-20T09:45:09.000Z</time>
      </trkpt>
      <trkpt lat="47.32148" lon="-2.43945">
        <ele>32.400001525879</ele>
        <time>2020-02-20T09:45:10.000Z</time>
      </trkpt>
      <trkpt lat="47.32149" lon="-2.43947">
        <ele>32.799999237061</ele>
        <time>2020-02-20T09:45:11.000Z</time>
      </trkpt>
      <trkpt lat="47.32151" lon="-2.43948">
        <ele>33.200000762939</ele>
        <time>2020-02-20T09:45:12.000Z</time>
      </trkpt>
      <trkpt lat="47.32151" lon="-2.4395">
        <ele>33.200000762939</ele>
        <time>2020-02-20T09:45:13.000Z</time>
      </trkpt>
      <trkpt lat="47.32154" lon="-2.43957">
        <ele>33.799999237061</ele>
        <time>2020-02-20T09:45:17.000Z</time>
      </trkpt>
      <trkpt lat="47.32155" lon="-2.43959">
        <ele>34.200000762939</ele>
        <time>2020-02-20T09:45:18.000Z</time>
      </trkpt>
      <trkpt lat="47.32156" lon="-2.43961">
        <ele>34.599998474121</ele>
        <time>2020-02-20T09:45:19.000Z</time>
      </trkpt>
      <trkpt lat="47.32157" lon="-2.43963">
        <ele>35</ele>
        <time>2020-02-20T09:45:20.000Z</time>
      </trkpt>
      <trkpt lat="47.32159" lon="-2.43965">
        <ele>35.400001525879</ele>
        <time>2020-02-20T09:45:21.000Z</time>
      </trkpt>
      <trkpt lat="47.32168" lon="-2.43976">
        <ele>35.400001525879</ele>
        <time>2020-02-20T09:45:25.000Z</time>
      </trkpt>
      <trkpt lat="47.32187" lon="-2.44002">
        <ele>35.400001525879</ele>
        <time>2020-02-20T09:45:31.000Z</time>
      </trkpt>
      <trkpt lat="47.32211" lon="-2.44031">
        <ele>35.400001525879</ele>
        <time>2020-02-20T09:45:38.000Z</time>
      </trkpt>
      <trkpt lat="47.32223" lon="-2.44044">
        <ele>36</ele>
        <time>2020-02-20T09:45:41.000Z</time>
      </trkpt>
      <trkpt lat="47.32227" lon="-2.44046">
        <ele>36.400001525879</ele>
        <time>2020-02-20T09:45:42.000Z</time>
      </trkpt>
      <trkpt lat="47.32231" lon="-2.44047">
        <ele>36.799999237061</ele>
        <time>2020-02-20T09:45:43.000Z</time>
      </trkpt>
      <trkpt lat="47.32236" lon="-2.44048">
        <ele>37.200000762939</ele>
        <time>2020-02-20T09:45:44.000Z</time>
      </trkpt>
      <trkpt lat="47.3224" lon="-2.44048">
        <ele>37.599998474121</ele>
        <time>2020-02-20T09:45:45.000Z</time>
      </trkpt>
      <trkpt lat="47.32264" lon="-2.44049">
        <ele>37.599998474121</ele>
        <time>2020-02-20T09:45:50.000Z</time>
      </trkpt>
      <trkpt lat="47.32299" lon="-2.44056">
        <ele>37.599998474121</ele>
        <time>2020-02-20T09:45:58.000Z</time>
      </trkpt>
      <trkpt lat="47.32307" lon="-2.44059">
        <ele>38</ele>
        <time>2020-02-20T09:46:00.000Z</time>
      </trkpt>
      <trkpt lat="47.32312" lon="-2.44061">
        <ele>38.400001525879</ele>
        <time>2020-02-20T09:46:01.000Z</time>
      </trkpt>
      <trkpt lat="47.32316" lon="-2.44062">
        <ele>39</ele>
        <time>2020-02-20T09:46:02.000Z</time>
      </trkpt>
      <trkpt lat="47.32321" lon="-2.44063">
        <ele>39.400001525879</ele>
        <time>2020-02-20T09:46:03.000Z</time>
      </trkpt>
      <trkpt lat="47.32325" lon="-2.44064">
        <ele>39.799999237061</ele>
        <time>2020-02-20T09:46:04.000Z</time>
      </trkpt>
      <trkpt lat="47.32346" lon="-2.44068">
        <ele>39.799999237061</ele>
        <time>2020-02-20T09:46:09.000Z</time>
      </trkpt>
      <trkpt lat="47.32351" lon="-2.44068">
        <ele>40.200000762939</ele>
        <time>2020-02-20T09:46:10.000Z</time>
      </trkpt>
      <trkpt lat="47.32355" lon="-2.44068">
        <ele>40.599998474121</ele>
        <time>2020-02-20T09:46:11.000Z</time>
      </trkpt>
      <trkpt lat="47.32359" lon="-2.44068">
        <ele>41</ele>
        <time>2020-02-20T09:46:12.000Z</time>
      </trkpt>
      <trkpt lat="47.32364" lon="-2.44066">
        <ele>41.400001525879</ele>
        <time>2020-02-20T09:46:13.000Z</time>
      </trkpt>
      <trkpt lat="47.32368" lon="-2.44065">
        <ele>41.799999237061</ele>
        <time>2020-02-20T09:46:14.000Z</time>
      </trkpt>
      <trkpt lat="47.32381" lon="-2.4406">
        <ele>41.799999237061</ele>
        <time>2020-02-20T09:46:17.000Z</time>
      </trkpt>
      <trkpt lat="47.32397" lon="-2.44052">
        <ele>41.799999237061</ele>
        <time>2020-02-20T09:46:21.000Z</time>
      </trkpt>
      <trkpt lat="47.32409" lon="-2.44046">
        <ele>42.200000762939</ele>
        <time>2020-02-20T09:46:24.000Z</time>
      </trkpt>
      <trkpt lat="47.32413" lon="-2.44043">
        <ele>42.599998474121</ele>
        <time>2020-02-20T09:46:25.000Z</time>
      </trkpt>
      <trkpt lat="47.32417" lon="-2.44041">
        <ele>43</ele>
        <time>2020-02-20T09:46:26.000Z</time>
      </trkpt>
      <trkpt lat="47.32421" lon="-2.44038">
        <ele>43.599998474121</ele>
        <time>2020-02-20T09:46:27.000Z</time>
      </trkpt>
      <trkpt lat="47.32425" lon="-2.44035">
        <ele>44</ele>
        <time>2020-02-20T09:46:28.000Z</time>
      </trkpt>
      <trkpt lat="47.3244" lon="-2.44024">
        <ele>44</ele>
        <time>2020-02-20T09:46:32.000Z</time>
      </trkpt>
      <trkpt lat="47.32448" lon="-2.44019">
        <ele>44</ele>
        <time>2020-02-20T09:46:34.000Z</time>
      </trkpt>
      <trkpt lat="47.32452" lon="-2.44017">
        <ele>44.400001525879</ele>
        <time>2020-02-20T09:46:35.000Z</time>
      </trkpt>
      <trkpt lat="47.32457" lon="-2.44015">
        <ele>44.799999237061</ele>
        <time>2020-02-20T09:46:36.000Z</time>
      </trkpt>
      <trkpt lat="47.32461" lon="-2.44012">
        <ele>45.200000762939</ele>
        <time>2020-02-20T09:46:37.000Z</time>
      </trkpt>
      <trkpt lat="47.32465" lon="-2.44009">
        <ele>45.599998474121</ele>
        <time>2020-02-20T09:46:38.000Z</time>
      </trkpt>
      <trkpt lat="47.32469" lon="-2.44007">
        <ele>46</ele>
        <time>2020-02-20T09:46:39.000Z</time>
      </trkpt>
      <trkpt lat="47.32496" lon="-2.4399">
        <ele>46</ele>
        <time>2020-02-20T09:46:46.000Z</time>
      </trkpt>
      <trkpt lat="47.325" lon="-2.43988">
        <ele>46</ele>
        <time>2020-02-20T09:46:47.000Z</time>
      </trkpt>
      <trkpt lat="47.3251" lon="-2.43989">
        <ele>46</ele>
        <time>2020-02-20T09:46:50.000Z</time>
      </trkpt>
      <trkpt lat="47.3252" lon="-2.44002">
        <ele>46</ele>
        <time>2020-02-20T09:46:53.000Z</time>
      </trkpt>
      <trkpt lat="47.32534" lon="-2.44017">
        <ele>46</ele>
        <time>2020-02-20T09:46:56.000Z</time>
      </trkpt>
      <trkpt lat="47.32539" lon="-2.44021">
        <ele>46</ele>
        <time>2020-02-20T09:46:57.000Z</time>
      </trkpt>
      <trkpt lat="47.32543" lon="-2.44025">
        <ele>46</ele>
        <time>2020-02-20T09:46:58.000Z</time>
      </trkpt>
      <trkpt lat="47.32563" lon="-2.44036">
        <ele>46.400001525879</ele>
        <time>2020-02-20T09:47:02.000Z</time>
      </trkpt>
      <trkpt lat="47.32568" lon="-2.44038">
        <ele>47</ele>
        <time>2020-02-20T09:47:03.000Z</time>
      </trkpt>
      <trkpt lat="47.32571" lon="-2.44042">
        <ele>47.400001525879</ele>
        <time>2020-02-20T09:47:04.000Z</time>
      </trkpt>
      <trkpt lat="47.32572" lon="-2.44046">
        <ele>47.799999237061</ele>
        <time>2020-02-20T09:47:05.000Z</time>
      </trkpt>
      <trkpt lat="47.32572" lon="-2.44048">
        <ele>48.200000762939</ele>
        <time>2020-02-20T09:47:06.000Z</time>
      </trkpt>
      <trkpt lat="47.3257" lon="-2.44052">
        <ele>48.200000762939</ele>
        <time>2020-02-20T09:47:07.000Z</time>
      </trkpt>
      <trkpt lat="47.32568" lon="-2.44055">
        <ele>48.200000762939</ele>
        <time>2020-02-20T09:47:08.000Z</time>
      </trkpt>
      <trkpt lat="47.32558" lon="-2.44075">
        <ele>48.200000762939</ele>
        <time>2020-02-20T09:47:12.000Z</time>
      </trkpt>
      <trkpt lat="47.32556" lon="-2.44081">
        <ele>48.200000762939</ele>
        <time>2020-02-20T09:47:13.000Z</time>
      </trkpt>
      <trkpt lat="47.32544" lon="-2.44127">
        <ele>48.200000762939</ele>
        <time>2020-02-20T09:47:19.000Z</time>
      </trkpt>
      <trkpt lat="47.32542" lon="-2.44135">
        <ele>48.200000762939</ele>
        <time>2020-02-20T09:47:20.000Z</time>
      </trkpt>
      <trkpt lat="47.3253" lon="-2.44173">
        <ele>48.200000762939</ele>
        <time>2020-02-20T09:47:25.000Z</time>
      </trkpt>
      <trkpt lat="47.32528" lon="-2.4418">
        <ele>48.200000762939</ele>
        <time>2020-02-20T09:47:26.000Z</time>
      </trkpt>
      <trkpt lat="47.32527" lon="-2.44196">
        <ele>48.200000762939</ele>
        <time>2020-02-20T09:47:28.000Z</time>
      </trkpt>
      <trkpt lat="47.32528" lon="-2.44202">
        <ele>48.200000762939</ele>
        <time>2020-02-20T09:47:29.000Z</time>
      </trkpt>
      <trkpt lat="47.32539" lon="-2.44225">
        <ele>48.200000762939</ele>
        <time>2020-02-20T09:47:33.000Z</time>
      </trkpt>
      <trkpt lat="47.32556" lon="-2.44258">
        <ele>48.200000762939</ele>
        <time>2020-02-20T09:47:39.000Z</time>
      </trkpt>
      <trkpt lat="47.32558" lon="-2.44265">
        <ele>48.200000762939</ele>
        <time>2020-02-20T09:47:40.000Z</time>
      </trkpt>
      <trkpt lat="47.32563" lon="-2.44298">
        <ele>48.200000762939</ele>
        <time>2020-02-20T09:47:44.000Z</time>
      </trkpt>
      <trkpt lat="47.32566" lon="-2.44305">
        <ele>48.200000762939</ele>
        <time>2020-02-20T09:47:45.000Z</time>
      </trkpt>
      <trkpt lat="47.32574" lon="-2.44326">
        <ele>48.200000762939</ele>
        <time>2020-02-20T09:47:48.000Z</time>
      </trkpt>
      <trkpt lat="47.32589" lon="-2.4436">
        <ele>48.200000762939</ele>
        <time>2020-02-20T09:47:54.000Z</time>
      </trkpt>
      <trkpt lat="47.32601" lon="-2.44374">
        <ele>47.799999237061</ele>
        <time>2020-02-20T09:47:57.000Z</time>
      </trkpt>
      <trkpt lat="47.32605" lon="-2.44378">
        <ele>47.400001525879</ele>
        <time>2020-02-20T09:47:58.000Z</time>
      </trkpt>
      <trkpt lat="47.32609" lon="-2.44381">
        <ele>47</ele>
        <time>2020-02-20T09:47:59.000Z</time>
      </trkpt>
      <trkpt lat="47.32612" lon="-2.44385">
        <ele>46.599998474121</ele>
        <time>2020-02-20T09:48:00.000Z</time>
      </trkpt>
      <trkpt lat="47.32615" lon="-2.44389">
        <ele>46.200000762939</ele>
        <time>2020-02-20T09:48:01.000Z</time>
      </trkpt>
      <trkpt lat="47.32618" lon="-2.44394">
        <ele>46.599998474121</ele>
        <time>2020-02-20T09:48:02.000Z</time>
      </trkpt>
      <trkpt lat="47.3262" lon="-2.444">
        <ele>47</ele>
        <time>2020-02-20T09:48:03.000Z</time>
      </trkpt>
      <trkpt lat="47.32624" lon="-2.44407">
        <ele>47.400001525879</ele>
        <time>2020-02-20T09:48:04.000Z</time>
      </trkpt>
      <trkpt lat="47.32627" lon="-2.44414">
        <ele>47.799999237061</ele>
        <time>2020-02-20T09:48:05.000Z</time>
      </trkpt>
      <trkpt lat="47.32631" lon="-2.44421">
        <ele>48.200000762939</ele>
        <time>2020-02-20T09:48:06.000Z</time>
      </trkpt>
      <trkpt lat="47.32634" lon="-2.44428">
        <ele>48.200000762939</ele>
        <time>2020-02-20T09:48:07.000Z</time>
      </trkpt>
      <trkpt lat="47.3264" lon="-2.44442">
        <ele>48.200000762939</ele>
        <time>2020-02-20T09:48:09.000Z</time>
      </trkpt>
      <trkpt lat="47.32647" lon="-2.44465">
        <ele>48.599998474121</ele>
        <time>2020-02-20T09:48:12.000Z</time>
      </trkpt>
      <trkpt lat="47.3265" lon="-2.44473">
        <ele>49</ele>
        <time>2020-02-20T09:48:13.000Z</time>
      </trkpt>
      <trkpt lat="47.32653" lon="-2.4448">
        <ele>49.400001525879</ele>
        <time>2020-02-20T09:48:14.000Z</time>
      </trkpt>
      <trkpt lat="47.32657" lon="-2.44485">
        <ele>49.799999237061</ele>
        <time>2020-02-20T09:48:15.000Z</time>
      </trkpt>
      <trkpt lat="47.32662" lon="-2.44489">
        <ele>50.200000762939</ele>
        <time>2020-02-20T09:48:16.000Z</time>
      </trkpt>
      <trkpt lat="47.32668" lon="-2.44502">
        <ele>50.200000762939</ele>
        <time>2020-02-20T09:48:19.000Z</time>
      </trkpt>
      <trkpt lat="47.32665" lon="-2.4451">
        <ele>50.200000762939</ele>
        <time>2020-02-20T09:48:21.000Z</time>
      </trkpt>
      <trkpt lat="47.32663" lon="-2.44515">
        <ele>50.200000762939</ele>
        <time>2020-02-20T09:48:22.000Z</time>
      </trkpt>
      <trkpt lat="47.3266" lon="-2.44521">
        <ele>50.200000762939</ele>
        <time>2020-02-20T09:48:23.000Z</time>
      </trkpt>
      <trkpt lat="47.32648" lon="-2.44543">
        <ele>50.200000762939</ele>
        <time>2020-02-20T09:48:27.000Z</time>
      </trkpt>
      <trkpt lat="47.32644" lon="-2.44549">
        <ele>50.200000762939</ele>
        <time>2020-02-20T09:48:28.000Z</time>
      </trkpt>
      <trkpt lat="47.32631" lon="-2.44573">
        <ele>50.200000762939</ele>
        <time>2020-02-20T09:48:32.000Z</time>
      </trkpt>
      <trkpt lat="47.32614" lon="-2.44603">
        <ele>49.799999237061</ele>
        <time>2020-02-20T09:48:37.000Z</time>
      </trkpt>
      <trkpt lat="47.32611" lon="-2.4461">
        <ele>49.400001525879</ele>
        <time>2020-02-20T09:48:38.000Z</time>
      </trkpt>
      <trkpt lat="47.32608" lon="-2.44616">
        <ele>49</ele>
        <time>2020-02-20T09:48:39.000Z</time>
      </trkpt>
      <trkpt lat="47.32604" lon="-2.44622">
        <ele>48.599998474121</ele>
        <time>2020-02-20T09:48:40.000Z</time>
      </trkpt>
      <trkpt lat="47.326" lon="-2.44628">
        <ele>48.200000762939</ele>
        <time>2020-02-20T09:48:41.000Z</time>
      </trkpt>
      <trkpt lat="47.32596" lon="-2.44631">
        <ele>47.799999237061</ele>
        <time>2020-02-20T09:48:42.000Z</time>
      </trkpt>
      <trkpt lat="47.32591" lon="-2.44635">
        <ele>47.400001525879</ele>
        <time>2020-02-20T09:48:43.000Z</time>
      </trkpt>
      <trkpt lat="47.32588" lon="-2.44639">
        <ele>47</ele>
        <time>2020-02-20T09:48:44.000Z</time>
      </trkpt>
      <trkpt lat="47.32585" lon="-2.44644">
        <ele>46.599998474121</ele>
        <time>2020-02-20T09:48:45.000Z</time>
      </trkpt>
      <trkpt lat="47.32582" lon="-2.44647">
        <ele>46.200000762939</ele>
        <time>2020-02-20T09:48:46.000Z</time>
      </trkpt>
      <trkpt lat="47.32576" lon="-2.44655">
        <ele>46.200000762939</ele>
        <time>2020-02-20T09:48:48.000Z</time>
      </trkpt>
      <trkpt lat="47.32568" lon="-2.44666">
        <ele>46.200000762939</ele>
        <time>2020-02-20T09:48:50.000Z</time>
      </trkpt>
      <trkpt lat="47.3256" lon="-2.44678">
        <ele>46.200000762939</ele>
        <time>2020-02-20T09:48:52.000Z</time>
      </trkpt>
      <trkpt lat="47.32555" lon="-2.44684">
        <ele>45.799999237061</ele>
        <time>2020-02-20T09:48:53.000Z</time>
      </trkpt>
      <trkpt lat="47.32551" lon="-2.44691">
        <ele>45.400001525879</ele>
        <time>2020-02-20T09:48:54.000Z</time>
      </trkpt>
      <trkpt lat="47.32546" lon="-2.44697">
        <ele>45</ele>
        <time>2020-02-20T09:48:55.000Z</time>
      </trkpt>
      <trkpt lat="47.32542" lon="-2.44703">
        <ele>44.400001525879</ele>
        <time>2020-02-20T09:48:56.000Z</time>
      </trkpt>
      <trkpt lat="47.32538" lon="-2.44709">
        <ele>44</ele>
        <time>2020-02-20T09:48:57.000Z</time>
      </trkpt>
      <trkpt lat="47.32535" lon="-2.44715">
        <ele>43.599998474121</ele>
        <time>2020-02-20T09:48:58.000Z</time>
      </trkpt>
      <trkpt lat="47.32533" lon="-2.44721">
        <ele>43</ele>
        <time>2020-02-20T09:48:59.000Z</time>
      </trkpt>
      <trkpt lat="47.32532" lon="-2.44725">
        <ele>42.599998474121</ele>
        <time>2020-02-20T09:49:00.000Z</time>
      </trkpt>
      <trkpt lat="47.32529" lon="-2.44729">
        <ele>42.200000762939</ele>
        <time>2020-02-20T09:49:01.000Z</time>
      </trkpt>
      <trkpt lat="47.32528" lon="-2.44733">
        <ele>41.599998474121</ele>
        <time>2020-02-20T09:49:02.000Z</time>
      </trkpt>
      <trkpt lat="47.32525" lon="-2.44736">
        <ele>41.599998474121</ele>
        <time>2020-02-20T09:49:03.000Z</time>
      </trkpt>
      <trkpt lat="47.32519" lon="-2.4474">
        <ele>41.599998474121</ele>
        <time>2020-02-20T09:49:04.000Z</time>
      </trkpt>
      <trkpt lat="47.3249" lon="-2.4476">
        <ele>41.599998474121</ele>
        <time>2020-02-20T09:49:09.000Z</time>
      </trkpt>
      <trkpt lat="47.32484" lon="-2.44765">
        <ele>41.200000762939</ele>
        <time>2020-02-20T09:49:10.000Z</time>
      </trkpt>
      <trkpt lat="47.32477" lon="-2.4477">
        <ele>40.799999237061</ele>
        <time>2020-02-20T09:49:11.000Z</time>
      </trkpt>
      <trkpt lat="47.32469" lon="-2.44776">
        <ele>40.200000762939</ele>
        <time>2020-02-20T09:49:12.000Z</time>
      </trkpt>
      <trkpt lat="47.32461" lon="-2.44782">
        <ele>39.799999237061</ele>
        <time>2020-02-20T09:49:13.000Z</time>
      </trkpt>
      <trkpt lat="47.32452" lon="-2.44788">
        <ele>39.400001525879</ele>
        <time>2020-02-20T09:49:14.000Z</time>
      </trkpt>
      <trkpt lat="47.32411" lon="-2.44818">
        <ele>38.799999237061</ele>
        <time>2020-02-20T09:49:19.000Z</time>
      </trkpt>
      <trkpt lat="47.32403" lon="-2.44824">
        <ele>38.400001525879</ele>
        <time>2020-02-20T09:49:20.000Z</time>
      </trkpt>
      <trkpt lat="47.32394" lon="-2.4483">
        <ele>37.799999237061</ele>
        <time>2020-02-20T09:49:21.000Z</time>
      </trkpt>
      <trkpt lat="47.32387" lon="-2.44835">
        <ele>37.200000762939</ele>
        <time>2020-02-20T09:49:22.000Z</time>
      </trkpt>
      <trkpt lat="47.3238" lon="-2.44841">
        <ele>36</ele>
        <time>2020-02-20T09:49:23.000Z</time>
      </trkpt>
      <trkpt lat="47.32373" lon="-2.44847">
        <ele>35.400001525879</ele>
        <time>2020-02-20T09:49:24.000Z</time>
      </trkpt>
      <trkpt lat="47.32366" lon="-2.44853">
        <ele>34.799999237061</ele>
        <time>2020-02-20T09:49:25.000Z</time>
      </trkpt>
      <trkpt lat="47.32353" lon="-2.44866">
        <ele>34.799999237061</ele>
        <time>2020-02-20T09:49:27.000Z</time>
      </trkpt>
      <trkpt lat="47.32342" lon="-2.44881">
        <ele>34.799999237061</ele>
        <time>2020-02-20T09:49:29.000Z</time>
      </trkpt>
      <trkpt lat="47.32331" lon="-2.44897">
        <ele>34.799999237061</ele>
        <time>2020-02-20T09:49:31.000Z</time>
      </trkpt>
      <trkpt lat="47.32296" lon="-2.44942">
        <ele>34.799999237061</ele>
        <time>2020-02-20T09:49:37.000Z</time>
      </trkpt>
      <trkpt lat="47.32278" lon="-2.44962">
        <ele>34.400001525879</ele>
        <time>2020-02-20T09:49:40.000Z</time>
      </trkpt>
      <trkpt lat="47.32271" lon="-2.4497">
        <ele>34</ele>
        <time>2020-02-20T09:49:41.000Z</time>
      </trkpt>
      <trkpt lat="47.32264" lon="-2.44976">
        <ele>33.599998474121</ele>
        <time>2020-02-20T09:49:42.000Z</time>
      </trkpt>
      <trkpt lat="47.32258" lon="-2.44983">
        <ele>33.200000762939</ele>
        <time>2020-02-20T09:49:43.000Z</time>
      </trkpt>
      <trkpt lat="47.32251" lon="-2.44991">
        <ele>32.599998474121</ele>
        <time>2020-02-20T09:49:44.000Z</time>
      </trkpt>
      <trkpt lat="47.32232" lon="-2.45013">
        <ele>31.60000038147</ele>
        <time>2020-02-20T09:49:47.000Z</time>
      </trkpt>
      <trkpt lat="47.32226" lon="-2.4502">
        <ele>30.799999237061</ele>
        <time>2020-02-20T09:49:48.000Z</time>
      </trkpt>
      <trkpt lat="47.32221" lon="-2.45026">
        <ele>30</ele>
        <time>2020-02-20T09:49:49.000Z</time>
      </trkpt>
      <trkpt lat="47.32218" lon="-2.45031">
        <ele>28.799999237061</ele>
        <time>2020-02-20T09:49:50.000Z</time>
      </trkpt>
      <trkpt lat="47.32217" lon="-2.45036">
        <ele>27.60000038147</ele>
        <time>2020-02-20T09:49:51.000Z</time>
      </trkpt>
      <trkpt lat="47.32219" lon="-2.45043">
        <ele>26.39999961853</ele>
        <time>2020-02-20T09:49:52.000Z</time>
      </trkpt>
      <trkpt lat="47.32221" lon="-2.45049">
        <ele>25.200000762939</ele>
        <time>2020-02-20T09:49:53.000Z</time>
      </trkpt>
      <trkpt lat="47.32224" lon="-2.45054">
        <ele>23.799999237061</ele>
        <time>2020-02-20T09:49:54.000Z</time>
      </trkpt>
      <trkpt lat="47.32227" lon="-2.4506">
        <ele>23.799999237061</ele>
        <time>2020-02-20T09:49:55.000Z</time>
      </trkpt>
      <trkpt lat="47.3223" lon="-2.45066">
        <ele>23.799999237061</ele>
        <time>2020-02-20T09:49:56.000Z</time>
      </trkpt>
      <trkpt lat="47.3225" lon="-2.4511">
        <ele>23.799999237061</ele>
        <time>2020-02-20T09:50:02.000Z</time>
      </trkpt>
      <trkpt lat="47.32259" lon="-2.45135">
        <ele>23.39999961853</ele>
        <time>2020-02-20T09:50:05.000Z</time>
      </trkpt>
      <trkpt lat="47.32261" lon="-2.45145">
        <ele>23</ele>
        <time>2020-02-20T09:50:06.000Z</time>
      </trkpt>
      <trkpt lat="47.32263" lon="-2.45154">
        <ele>22.60000038147</ele>
        <time>2020-02-20T09:50:07.000Z</time>
      </trkpt>
      <trkpt lat="47.32265" lon="-2.45163">
        <ele>22.200000762939</ele>
        <time>2020-02-20T09:50:08.000Z</time>
      </trkpt>
      <trkpt lat="47.32266" lon="-2.45174">
        <ele>21.799999237061</ele>
        <time>2020-02-20T09:50:09.000Z</time>
      </trkpt>
      <trkpt lat="47.32269" lon="-2.45183">
        <ele>21.799999237061</ele>
        <time>2020-02-20T09:50:10.000Z</time>
      </trkpt>
      <trkpt lat="47.32276" lon="-2.45203">
        <ele>21.39999961853</ele>
        <time>2020-02-20T09:50:12.000Z</time>
      </trkpt>
      <trkpt lat="47.3228" lon="-2.45213">
        <ele>20.799999237061</ele>
        <time>2020-02-20T09:50:13.000Z</time>
      </trkpt>
      <trkpt lat="47.32285" lon="-2.45223">
        <ele>20.39999961853</ele>
        <time>2020-02-20T09:50:14.000Z</time>
      </trkpt>
      <trkpt lat="47.32289" lon="-2.45231">
        <ele>19.799999237061</ele>
        <time>2020-02-20T09:50:15.000Z</time>
      </trkpt>
      <trkpt lat="47.32293" lon="-2.45238">
        <ele>19.39999961853</ele>
        <time>2020-02-20T09:50:16.000Z</time>
      </trkpt>
      <trkpt lat="47.32296" lon="-2.45245">
        <ele>19.39999961853</ele>
        <time>2020-02-20T09:50:17.000Z</time>
      </trkpt>
      <trkpt lat="47.32302" lon="-2.4526">
        <ele>19.39999961853</ele>
        <time>2020-02-20T09:50:19.000Z</time>
      </trkpt>
      <trkpt lat="47.32309" lon="-2.45281">
        <ele>19.39999961853</ele>
        <time>2020-02-20T09:50:22.000Z</time>
      </trkpt>
      <trkpt lat="47.32317" lon="-2.45313">
        <ele>19.39999961853</ele>
        <time>2020-02-20T09:50:27.000Z</time>
      </trkpt>
      <trkpt lat="47.32317" lon="-2.45319">
        <ele>19.39999961853</ele>
        <time>2020-02-20T09:50:28.000Z</time>
      </trkpt>
      <trkpt lat="47.32317" lon="-2.45352">
        <ele>19.39999961853</ele>
        <time>2020-02-20T09:50:32.000Z</time>
      </trkpt>
      <trkpt lat="47.32319" lon="-2.45369">
        <ele>19.39999961853</ele>
        <time>2020-02-20T09:50:34.000Z</time>
      </trkpt>
      <trkpt lat="47.32321" lon="-2.45388">
        <ele>19.39999961853</ele>
        <time>2020-02-20T09:50:37.000Z</time>
      </trkpt>
      <trkpt lat="47.32321" lon="-2.45391">
        <ele>19</ele>
        <time>2020-02-20T09:50:38.000Z</time>
      </trkpt>
      <trkpt lat="47.32321" lon="-2.45394">
        <ele>18.60000038147</ele>
        <time>2020-02-20T09:50:39.000Z</time>
      </trkpt>
      <trkpt lat="47.3232" lon="-2.45398">
        <ele>18.200000762939</ele>
        <time>2020-02-20T09:50:40.000Z</time>
      </trkpt>
      <trkpt lat="47.32319" lon="-2.45402">
        <ele>17.799999237061</ele>
        <time>2020-02-20T09:50:41.000Z</time>
      </trkpt>
      <trkpt lat="47.32317" lon="-2.45406">
        <ele>17.39999961853</ele>
        <time>2020-02-20T09:50:42.000Z</time>
      </trkpt>
      <trkpt lat="47.32313" lon="-2.45419">
        <ele>17</ele>
        <time>2020-02-20T09:50:45.000Z</time>
      </trkpt>
      <trkpt lat="47.32314" lon="-2.45423">
        <ele>16.39999961853</ele>
        <time>2020-02-20T09:50:46.000Z</time>
      </trkpt>
      <trkpt lat="47.32315" lon="-2.45426">
        <ele>16</ele>
        <time>2020-02-20T09:50:47.000Z</time>
      </trkpt>
      <trkpt lat="47.32317" lon="-2.45429">
        <ele>15.60000038147</ele>
        <time>2020-02-20T09:50:48.000Z</time>
      </trkpt>
      <trkpt lat="47.32319" lon="-2.45431">
        <ele>15</ele>
        <time>2020-02-20T09:50:49.000Z</time>
      </trkpt>
      <trkpt lat="47.32322" lon="-2.45435">
        <ele>15</ele>
        <time>2020-02-20T09:50:51.000Z</time>
      </trkpt>
      <trkpt lat="47.32329" lon="-2.45448">
        <ele>15</ele>
        <time>2020-02-20T09:50:56.000Z</time>
      </trkpt>
      <trkpt lat="47.32343" lon="-2.4547">
        <ele>15</ele>
        <time>2020-02-20T09:51:05.000Z</time>
      </trkpt>
      <trkpt lat="47.32354" lon="-2.45486">
        <ele>15</ele>
        <time>2020-02-20T09:51:11.000Z</time>
      </trkpt>
      <trkpt lat="47.32365" lon="-2.45501">
        <ele>15</ele>
        <time>2020-02-20T09:51:17.000Z</time>
      </trkpt>
      <trkpt lat="47.32373" lon="-2.45516">
        <ele>15</ele>
        <time>2020-02-20T09:51:23.000Z</time>
      </trkpt>
      <trkpt lat="47.32381" lon="-2.45532">
        <ele>15</ele>
        <time>2020-02-20T09:51:29.000Z</time>
      </trkpt>
      <trkpt lat="47.3239" lon="-2.45551">
        <ele>15</ele>
        <time>2020-02-20T09:51:36.000Z</time>
      </trkpt>
      <trkpt lat="47.324" lon="-2.45568">
        <ele>15</ele>
        <time>2020-02-20T09:51:43.000Z</time>
      </trkpt>
      <trkpt lat="47.32406" lon="-2.45579">
        <ele>15</ele>
        <time>2020-02-20T09:51:48.000Z</time>
      </trkpt>
      <trkpt lat="47.32415" lon="-2.45595">
        <ele>15</ele>
        <time>2020-02-20T09:51:55.000Z</time>
      </trkpt>
      <trkpt lat="47.32422" lon="-2.45611">
        <ele>15</ele>
        <time>2020-02-20T09:52:03.000Z</time>
      </trkpt>
      <trkpt lat="47.32429" lon="-2.45625">
        <ele>15</ele>
        <time>2020-02-20T09:52:10.000Z</time>
      </trkpt>
      <trkpt lat="47.3244" lon="-2.45643">
        <ele>15</ele>
        <time>2020-02-20T09:52:19.000Z</time>
      </trkpt>
      <trkpt lat="47.32444" lon="-2.45651">
        <ele>15</ele>
        <time>2020-02-20T09:52:24.000Z</time>
      </trkpt>
      <trkpt lat="47.32445" lon="-2.45655">
        <ele>15</ele>
        <time>2020-02-20T09:52:26.000Z</time>
      </trkpt>
      <trkpt lat="47.32456" lon="-2.45669">
        <ele>15</ele>
        <time>2020-02-20T09:52:34.000Z</time>
      </trkpt>
      <trkpt lat="47.32468" lon="-2.45687">
        <ele>15</ele>
        <time>2020-02-20T09:52:42.000Z</time>
      </trkpt>
      <trkpt lat="47.32476" lon="-2.45701">
        <ele>15</ele>
        <time>2020-02-20T09:52:49.000Z</time>
      </trkpt>
      <trkpt lat="47.32485" lon="-2.45715">
        <ele>15</ele>
        <time>2020-02-20T09:52:56.000Z</time>
      </trkpt>
      <trkpt lat="47.32494" lon="-2.45731">
        <ele>15</ele>
        <time>2020-02-20T09:53:03.000Z</time>
      </trkpt>
      <trkpt lat="47.32504" lon="-2.45748">
        <ele>15</ele>
        <time>2020-02-20T09:53:11.000Z</time>
      </trkpt>
      <trkpt lat="47.32511" lon="-2.4576">
        <ele>15</ele>
        <time>2020-02-20T09:53:17.000Z</time>
      </trkpt>
      <trkpt lat="47.32517" lon="-2.45773">
        <ele>15</ele>
        <time>2020-02-20T09:53:23.000Z</time>
      </trkpt>
      <trkpt lat="47.32527" lon="-2.4579">
        <ele>15</ele>
        <time>2020-02-20T09:53:31.000Z</time>
      </trkpt>
      <trkpt lat="47.32534" lon="-2.45805">
        <ele>15</ele>
        <time>2020-02-20T09:53:38.000Z</time>
      </trkpt>
      <trkpt lat="47.32543" lon="-2.45817">
        <ele>15</ele>
        <time>2020-02-20T09:53:45.000Z</time>
      </trkpt>
      <trkpt lat="47.32554" lon="-2.45832">
        <ele>15</ele>
        <time>2020-02-20T09:53:53.000Z</time>
      </trkpt>
      <trkpt lat="47.32563" lon="-2.45847">
        <ele>15</ele>
        <time>2020-02-20T09:53:59.000Z</time>
      </trkpt>
      <trkpt lat="47.32571" lon="-2.45863">
        <ele>15.39999961853</ele>
        <time>2020-02-20T09:54:06.000Z</time>
      </trkpt>
      <trkpt lat="47.32572" lon="-2.45866">
        <ele>16</ele>
        <time>2020-02-20T09:54:07.000Z</time>
      </trkpt>
      <trkpt lat="47.32574" lon="-2.45868">
        <ele>16.39999961853</ele>
        <time>2020-02-20T09:54:08.000Z</time>
      </trkpt>
      <trkpt lat="47.32575" lon="-2.4587">
        <ele>16.799999237061</ele>
        <time>2020-02-20T09:54:09.000Z</time>
      </trkpt>
      <trkpt lat="47.32576" lon="-2.45871">
        <ele>17.200000762939</ele>
        <time>2020-02-20T09:54:10.000Z</time>
      </trkpt>
      <trkpt lat="47.32582" lon="-2.45879">
        <ele>17.200000762939</ele>
        <time>2020-02-20T09:54:14.000Z</time>
      </trkpt>
      <trkpt lat="47.3259" lon="-2.4589">
        <ele>17.200000762939</ele>
        <time>2020-02-20T09:54:19.000Z</time>
      </trkpt>
      <trkpt lat="47.32601" lon="-2.45904">
        <ele>17.200000762939</ele>
        <time>2020-02-20T09:54:25.000Z</time>
      </trkpt>
      <trkpt lat="47.32611" lon="-2.45919">
        <ele>17.200000762939</ele>
        <time>2020-02-20T09:54:31.000Z</time>
      </trkpt>
      <trkpt lat="47.32624" lon="-2.45939">
        <ele>17.200000762939</ele>
        <time>2020-02-20T09:54:39.000Z</time>
      </trkpt>
      <trkpt lat="47.32639" lon="-2.4596">
        <ele>17.200000762939</ele>
        <time>2020-02-20T09:54:47.000Z</time>
      </trkpt>
      <trkpt lat="47.32653" lon="-2.45972">
        <ele>17.200000762939</ele>
        <time>2020-02-20T09:54:53.000Z</time>
      </trkpt>
      <trkpt lat="47.32663" lon="-2.45983">
        <ele>17.200000762939</ele>
        <time>2020-02-20T09:54:59.000Z</time>
      </trkpt>
      <trkpt lat="47.3267" lon="-2.45989">
        <ele>17.200000762939</ele>
        <time>2020-02-20T09:55:05.000Z</time>
      </trkpt>
      <trkpt lat="47.32677" lon="-2.45999">
        <ele>17.200000762939</ele>
        <time>2020-02-20T09:55:12.000Z</time>
      </trkpt>
      <trkpt lat="47.32682" lon="-2.46005">
        <ele>17.200000762939</ele>
        <time>2020-02-20T09:55:17.000Z</time>
      </trkpt>
      <trkpt lat="47.32684" lon="-2.46007">
        <ele>17.200000762939</ele>
        <time>2020-02-20T09:55:19.000Z</time>
      </trkpt>
      <trkpt lat="47.32689" lon="-2.46019">
        <ele>17.200000762939</ele>
        <time>2020-02-20T09:55:24.000Z</time>
      </trkpt>
      <trkpt lat="47.327" lon="-2.46034">
        <ele>17.200000762939</ele>
        <time>2020-02-20T09:55:30.000Z</time>
      </trkpt>
      <trkpt lat="47.32708" lon="-2.46044">
        <ele>17.200000762939</ele>
        <time>2020-02-20T09:55:35.000Z</time>
      </trkpt>
      <trkpt lat="47.32717" lon="-2.46053">
        <ele>17.200000762939</ele>
        <time>2020-02-20T09:55:42.000Z</time>
      </trkpt>
      <trkpt lat="47.32727" lon="-2.46065">
        <ele>17.200000762939</ele>
        <time>2020-02-20T09:55:49.000Z</time>
      </trkpt>
      <trkpt lat="47.32731" lon="-2.46071">
        <ele>17.200000762939</ele>
        <time>2020-02-20T09:55:53.000Z</time>
      </trkpt>
      <trkpt lat="47.32735" lon="-2.46075">
        <ele>17.200000762939</ele>
        <time>2020-02-20T09:55:56.000Z</time>
      </trkpt>
      <trkpt lat="47.32736" lon="-2.46076">
        <ele>17.60000038147</ele>
        <time>2020-02-20T09:55:57.000Z</time>
      </trkpt>
      <trkpt lat="47.32737" lon="-2.46077">
        <ele>18</ele>
        <time>2020-02-20T09:55:58.000Z</time>
      </trkpt>
      <trkpt lat="47.32739" lon="-2.46078">
        <ele>18.39999961853</ele>
        <time>2020-02-20T09:55:59.000Z</time>
      </trkpt>
      <trkpt lat="47.3274" lon="-2.4608">
        <ele>18.799999237061</ele>
        <time>2020-02-20T09:56:00.000Z</time>
      </trkpt>
      <trkpt lat="47.32741" lon="-2.46082">
        <ele>19.200000762939</ele>
        <time>2020-02-20T09:56:01.000Z</time>
      </trkpt>
      <trkpt lat="47.32751" lon="-2.46095">
        <ele>19.200000762939</ele>
        <time>2020-02-20T09:56:07.000Z</time>
      </trkpt>
      <trkpt lat="47.32756" lon="-2.46103">
        <ele>19.200000762939</ele>
        <time>2020-02-20T09:56:11.000Z</time>
      </trkpt>
      <trkpt lat="47.32758" lon="-2.46107">
        <ele>19.200000762939</ele>
        <time>2020-02-20T09:56:13.000Z</time>
      </trkpt>
      <trkpt lat="47.32762" lon="-2.46123">
        <ele>19.200000762939</ele>
        <time>2020-02-20T09:56:18.000Z</time>
      </trkpt>
      <trkpt lat="47.32764" lon="-2.46128">
        <ele>19.60000038147</ele>
        <time>2020-02-20T09:56:20.000Z</time>
      </trkpt>
      <trkpt lat="47.32765" lon="-2.46131">
        <ele>20</ele>
        <time>2020-02-20T09:56:21.000Z</time>
      </trkpt>
      <trkpt lat="47.32766" lon="-2.46134">
        <ele>20.799999237061</ele>
        <time>2020-02-20T09:56:22.000Z</time>
      </trkpt>
      <trkpt lat="47.32767" lon="-2.46137">
        <ele>21.200000762939</ele>
        <time>2020-02-20T09:56:23.000Z</time>
      </trkpt>
      <trkpt lat="47.32768" lon="-2.4614">
        <ele>21.200000762939</ele>
        <time>2020-02-20T09:56:24.000Z</time>
      </trkpt>
      <trkpt lat="47.32776" lon="-2.46155">
        <ele>21.200000762939</ele>
        <time>2020-02-20T09:56:30.000Z</time>
      </trkpt>
      <trkpt lat="47.3279" lon="-2.46171">
        <ele>21.200000762939</ele>
        <time>2020-02-20T09:56:38.000Z</time>
      </trkpt>
      <trkpt lat="47.32803" lon="-2.46183">
        <ele>21.200000762939</ele>
        <time>2020-02-20T09:56:46.000Z</time>
      </trkpt>
      <trkpt lat="47.3281" lon="-2.46189">
        <ele>21.60000038147</ele>
        <time>2020-02-20T09:56:50.000Z</time>
      </trkpt>
      <trkpt lat="47.32811" lon="-2.4619">
        <ele>22</ele>
        <time>2020-02-20T09:56:51.000Z</time>
      </trkpt>
      <trkpt lat="47.32813" lon="-2.46191">
        <ele>22.39999961853</ele>
        <time>2020-02-20T09:56:52.000Z</time>
      </trkpt>
      <trkpt lat="47.32814" lon="-2.46191">
        <ele>23</ele>
        <time>2020-02-20T09:56:53.000Z</time>
      </trkpt>
      <trkpt lat="47.32815" lon="-2.46192">
        <ele>23.39999961853</ele>
        <time>2020-02-20T09:56:54.000Z</time>
      </trkpt>
      <trkpt lat="47.32825" lon="-2.46189">
        <ele>23.39999961853</ele>
        <time>2020-02-20T09:57:00.000Z</time>
      </trkpt>
      <trkpt lat="47.32839" lon="-2.4618">
        <ele>23.799999237061</ele>
        <time>2020-02-20T09:57:06.000Z</time>
      </trkpt>
      <trkpt lat="47.32841" lon="-2.46179">
        <ele>24.200000762939</ele>
        <time>2020-02-20T09:57:07.000Z</time>
      </trkpt>
      <trkpt lat="47.32843" lon="-2.46179">
        <ele>24.60000038147</ele>
        <time>2020-02-20T09:57:08.000Z</time>
      </trkpt>
      <trkpt lat="47.32845" lon="-2.46178">
        <ele>25</ele>
        <time>2020-02-20T09:57:09.000Z</time>
      </trkpt>
      <trkpt lat="47.32847" lon="-2.46176">
        <ele>25.39999961853</ele>
        <time>2020-02-20T09:57:10.000Z</time>
      </trkpt>
      <trkpt lat="47.32853" lon="-2.46172">
        <ele>25.39999961853</ele>
        <time>2020-02-20T09:57:13.000Z</time>
      </trkpt>
      <trkpt lat="47.32859" lon="-2.46169">
        <ele>25.799999237061</ele>
        <time>2020-02-20T09:57:16.000Z</time>
      </trkpt>
      <trkpt lat="47.32861" lon="-2.46167">
        <ele>26.200000762939</ele>
        <time>2020-02-20T09:57:17.000Z</time>
      </trkpt>
      <trkpt lat="47.32863" lon="-2.46166">
        <ele>26.60000038147</ele>
        <time>2020-02-20T09:57:18.000Z</time>
      </trkpt>
      <trkpt lat="47.32866" lon="-2.46165">
        <ele>27</ele>
        <time>2020-02-20T09:57:19.000Z</time>
      </trkpt>
      <trkpt lat="47.32868" lon="-2.46164">
        <ele>27.39999961853</ele>
        <time>2020-02-20T09:57:20.000Z</time>
      </trkpt>
      <trkpt lat="47.32882" lon="-2.46155">
        <ele>27.39999961853</ele>
        <time>2020-02-20T09:57:26.000Z</time>
      </trkpt>
      <trkpt lat="47.32887" lon="-2.46152">
        <ele>28</ele>
        <time>2020-02-20T09:57:28.000Z</time>
      </trkpt>
      <trkpt lat="47.32889" lon="-2.46151">
        <ele>28.39999961853</ele>
        <time>2020-02-20T09:57:29.000Z</time>
      </trkpt>
      <trkpt lat="47.32891" lon="-2.46151">
        <ele>28.799999237061</ele>
        <time>2020-02-20T09:57:30.000Z</time>
      </trkpt>
      <trkpt lat="47.32893" lon="-2.4615">
        <ele>29.200000762939</ele>
        <time>2020-02-20T09:57:31.000Z</time>
      </trkpt>
      <trkpt lat="47.32895" lon="-2.4615">
        <ele>29.60000038147</ele>
        <time>2020-02-20T09:57:32.000Z</time>
      </trkpt>
      <trkpt lat="47.32897" lon="-2.46149">
        <ele>29.60000038147</ele>
        <time>2020-02-20T09:57:33.000Z</time>
      </trkpt>
      <trkpt lat="47.32901" lon="-2.46148">
        <ele>29.60000038147</ele>
        <time>2020-02-20T09:57:37.000Z</time>
      </trkpt>
      <trkpt lat="47.32892" lon="-2.46153">
        <ele>29.60000038147</ele>
        <time>2020-02-20T10:01:22.000Z</time>
      </trkpt>
      <trkpt lat="47.32875" lon="-2.46164">
        <ele>29.60000038147</ele>
        <time>2020-02-20T10:01:28.000Z</time>
      </trkpt>
      <trkpt lat="47.3285" lon="-2.46179">
        <ele>29.60000038147</ele>
        <time>2020-02-20T10:01:33.000Z</time>
      </trkpt>
      <trkpt lat="47.32845" lon="-2.46182">
        <ele>29.200000762939</ele>
        <time>2020-02-20T10:01:34.000Z</time>
      </trkpt>
      <trkpt lat="47.32839" lon="-2.46184">
        <ele>28.799999237061</ele>
        <time>2020-02-20T10:01:35.000Z</time>
      </trkpt>
      <trkpt lat="47.32834" lon="-2.46187">
        <ele>28.39999961853</ele>
        <time>2020-02-20T10:01:36.000Z</time>
      </trkpt>
      <trkpt lat="47.3283" lon="-2.4619">
        <ele>28</ele>
        <time>2020-02-20T10:01:37.000Z</time>
      </trkpt>
      <trkpt lat="47.32825" lon="-2.46192">
        <ele>27.39999961853</ele>
        <time>2020-02-20T10:01:38.000Z</time>
      </trkpt>
      <trkpt lat="47.32821" lon="-2.46194">
        <ele>27</ele>
        <time>2020-02-20T10:01:39.000Z</time>
      </trkpt>
      <trkpt lat="47.32818" lon="-2.46194">
        <ele>26.39999961853</ele>
        <time>2020-02-20T10:01:40.000Z</time>
      </trkpt>
      <trkpt lat="47.32815" lon="-2.46195">
        <ele>26</ele>
        <time>2020-02-20T10:01:41.000Z</time>
      </trkpt>
      <trkpt lat="47.32812" lon="-2.46195">
        <ele>25.39999961853</ele>
        <time>2020-02-20T10:01:42.000Z</time>
      </trkpt>
      <trkpt lat="47.32811" lon="-2.46196">
        <ele>25.39999961853</ele>
        <time>2020-02-20T10:01:43.000Z</time>
      </trkpt>
      <trkpt lat="47.3281" lon="-2.46196">
        <ele>25</ele>
        <time>2020-02-20T10:01:44.000Z</time>
      </trkpt>
      <trkpt lat="47.32811" lon="-2.46196">
        <ele>24.60000038147</ele>
        <time>2020-02-20T10:01:45.000Z</time>
      </trkpt>
      <trkpt lat="47.3281" lon="-2.46196">
        <ele>24.200000762939</ele>
        <time>2020-02-20T10:01:46.000Z</time>
      </trkpt>
      <trkpt lat="47.32803" lon="-2.46189">
        <ele>23.39999961853</ele>
        <time>2020-02-20T10:05:06.000Z</time>
      </trkpt>
      <trkpt lat="47.32799" lon="-2.46186">
        <ele>23.39999961853</ele>
        <time>2020-02-20T10:05:07.000Z</time>
      </trkpt>
      <trkpt lat="47.32788" lon="-2.46178">
        <ele>23</ele>
        <time>2020-02-20T10:05:11.000Z</time>
      </trkpt>
      <trkpt lat="47.32785" lon="-2.46174">
        <ele>22.60000038147</ele>
        <time>2020-02-20T10:05:12.000Z</time>
      </trkpt>
      <trkpt lat="47.32782" lon="-2.46171">
        <ele>22.200000762939</ele>
        <time>2020-02-20T10:05:13.000Z</time>
      </trkpt>
      <trkpt lat="47.32779" lon="-2.46167">
        <ele>21.799999237061</ele>
        <time>2020-02-20T10:05:14.000Z</time>
      </trkpt>
      <trkpt lat="47.32776" lon="-2.46163">
        <ele>21.39999961853</ele>
        <time>2020-02-20T10:05:15.000Z</time>
      </trkpt>
      <trkpt lat="47.32767" lon="-2.46153">
        <ele>21.39999961853</ele>
        <time>2020-02-20T10:05:20.000Z</time>
      </trkpt>
      <trkpt lat="47.32767" lon="-2.46153">
        <ele>21.39999961853</ele>
        <time>2020-02-20T10:05:21.000Z</time>
      </trkpt>
      <trkpt lat="47.32771" lon="-2.46157">
        <ele>21.39999961853</ele>
        <time>2020-02-20T10:05:52.000Z</time>
      </trkpt>
      <trkpt lat="47.32774" lon="-2.46161">
        <ele>21.39999961853</ele>
        <time>2020-02-20T10:05:54.000Z</time>
      </trkpt>
      <trkpt lat="47.32786" lon="-2.46174">
        <ele>21.39999961853</ele>
        <time>2020-02-20T10:06:01.000Z</time>
      </trkpt>
      <trkpt lat="47.32798" lon="-2.46182">
        <ele>21.39999961853</ele>
        <time>2020-02-20T10:06:06.000Z</time>
      </trkpt>
      <trkpt lat="47.32819" lon="-2.46195">
        <ele>21.39999961853</ele>
        <time>2020-02-20T10:06:13.000Z</time>
      </trkpt>
      <trkpt lat="47.32822" lon="-2.46195">
        <ele>22.200000762939</ele>
        <time>2020-02-20T10:06:14.000Z</time>
      </trkpt>
      <trkpt lat="47.32825" lon="-2.46193">
        <ele>22.60000038147</ele>
        <time>2020-02-20T10:06:15.000Z</time>
      </trkpt>
      <trkpt lat="47.32829" lon="-2.4619">
        <ele>23</ele>
        <time>2020-02-20T10:06:16.000Z</time>
      </trkpt>
      <trkpt lat="47.32831" lon="-2.46188">
        <ele>23.39999961853</ele>
        <time>2020-02-20T10:06:17.000Z</time>
      </trkpt>
      <trkpt lat="47.32852" lon="-2.46175">
        <ele>23.39999961853</ele>
        <time>2020-02-20T10:06:24.000Z</time>
      </trkpt>
      <trkpt lat="47.32858" lon="-2.46172">
        <ele>23.799999237061</ele>
        <time>2020-02-20T10:06:26.000Z</time>
      </trkpt>
      <trkpt lat="47.32861" lon="-2.4617">
        <ele>24.200000762939</ele>
        <time>2020-02-20T10:06:27.000Z</time>
      </trkpt>
      <trkpt lat="47.32864" lon="-2.46168">
        <ele>24.799999237061</ele>
        <time>2020-02-20T10:06:28.000Z</time>
      </trkpt>
      <trkpt lat="47.32867" lon="-2.46166">
        <ele>25.200000762939</ele>
        <time>2020-02-20T10:06:29.000Z</time>
      </trkpt>
      <trkpt lat="47.32869" lon="-2.46164">
        <ele>25.60000038147</ele>
        <time>2020-02-20T10:06:30.000Z</time>
      </trkpt>
      <trkpt lat="47.32873" lon="-2.46162">
        <ele>25.60000038147</ele>
        <time>2020-02-20T10:06:31.000Z</time>
      </trkpt>
      <trkpt lat="47.32881" lon="-2.46157">
        <ele>26.200000762939</ele>
        <time>2020-02-20T10:06:34.000Z</time>
      </trkpt>
      <trkpt lat="47.32884" lon="-2.46155">
        <ele>26.60000038147</ele>
        <time>2020-02-20T10:06:35.000Z</time>
      </trkpt>
      <trkpt lat="47.32887" lon="-2.46153">
        <ele>27</ele>
        <time>2020-02-20T10:06:36.000Z</time>
      </trkpt>
      <trkpt lat="47.3289" lon="-2.46152">
        <ele>27.39999961853</ele>
        <time>2020-02-20T10:06:37.000Z</time>
      </trkpt>
      <trkpt lat="47.32892" lon="-2.46151">
        <ele>27.799999237061</ele>
        <time>2020-02-20T10:06:38.000Z</time>
      </trkpt>
      <trkpt lat="47.32894" lon="-2.4615">
        <ele>27.799999237061</ele>
        <time>2020-02-20T10:06:39.000Z</time>
      </trkpt>
      <trkpt lat="47.32902" lon="-2.46154">
        <ele>27.799999237061</ele>
        <time>2020-02-20T10:06:43.000Z</time>
      </trkpt>
      <trkpt lat="47.32904" lon="-2.46158">
        <ele>28.200000762939</ele>
        <time>2020-02-20T10:06:44.000Z</time>
      </trkpt>
      <trkpt lat="47.32906" lon="-2.46162">
        <ele>28.60000038147</ele>
        <time>2020-02-20T10:06:45.000Z</time>
      </trkpt>
      <trkpt lat="47.32908" lon="-2.46167">
        <ele>29</ele>
        <time>2020-02-20T10:06:46.000Z</time>
      </trkpt>
      <trkpt lat="47.3291" lon="-2.46172">
        <ele>29.39999961853</ele>
        <time>2020-02-20T10:06:47.000Z</time>
      </trkpt>
      <trkpt lat="47.32912" lon="-2.46178">
        <ele>29.799999237061</ele>
        <time>2020-02-20T10:06:48.000Z</time>
      </trkpt>
      <trkpt lat="47.32923" lon="-2.46215">
        <ele>29.799999237061</ele>
        <time>2020-02-20T10:06:54.000Z</time>
      </trkpt>
      <trkpt lat="47.32941" lon="-2.46274">
        <ele>29.799999237061</ele>
        <time>2020-02-20T10:07:02.000Z</time>
      </trkpt>
      <trkpt lat="47.32957" lon="-2.46339">
        <ele>29.799999237061</ele>
        <time>2020-02-20T10:07:10.000Z</time>
      </trkpt>
      <trkpt lat="47.32967" lon="-2.46394">
        <ele>29.799999237061</ele>
        <time>2020-02-20T10:07:15.000Z</time>
      </trkpt>
      <trkpt lat="47.32969" lon="-2.46406">
        <ele>29.39999961853</ele>
        <time>2020-02-20T10:07:16.000Z</time>
      </trkpt>
      <trkpt lat="47.3297" lon="-2.46419">
        <ele>29</ele>
        <time>2020-02-20T10:07:17.000Z</time>
      </trkpt>
      <trkpt lat="47.32971" lon="-2.46434">
        <ele>28.39999961853</ele>
        <time>2020-02-20T10:07:18.000Z</time>
      </trkpt>
      <trkpt lat="47.32971" lon="-2.46448">
        <ele>27.60000038147</ele>
        <time>2020-02-20T10:07:19.000Z</time>
      </trkpt>
      <trkpt lat="47.32971" lon="-2.46463">
        <ele>27</ele>
        <time>2020-02-20T10:07:20.000Z</time>
      </trkpt>
      <trkpt lat="47.32971" lon="-2.46478">
        <ele>26.200000762939</ele>
        <time>2020-02-20T10:07:21.000Z</time>
      </trkpt>
      <trkpt lat="47.32971" lon="-2.46493">
        <ele>25.60000038147</ele>
        <time>2020-02-20T10:07:22.000Z</time>
      </trkpt>
      <trkpt lat="47.3297" lon="-2.46507">
        <ele>24.799999237061</ele>
        <time>2020-02-20T10:07:23.000Z</time>
      </trkpt>
      <trkpt lat="47.32969" lon="-2.4652">
        <ele>24.200000762939</ele>
        <time>2020-02-20T10:07:24.000Z</time>
      </trkpt>
      <trkpt lat="47.32968" lon="-2.46531">
        <ele>23.39999961853</ele>
        <time>2020-02-20T10:07:25.000Z</time>
      </trkpt>
      <trkpt lat="47.32966" lon="-2.46541">
        <ele>22.39999961853</ele>
        <time>2020-02-20T10:07:26.000Z</time>
      </trkpt>
      <trkpt lat="47.32966" lon="-2.46549">
        <ele>20.39999961853</ele>
        <time>2020-02-20T10:07:27.000Z</time>
      </trkpt>
      <trkpt lat="47.32965" lon="-2.46556">
        <ele>19.39999961853</ele>
        <time>2020-02-20T10:07:28.000Z</time>
      </trkpt>
      <trkpt lat="47.32965" lon="-2.46561">
        <ele>18.200000762939</ele>
        <time>2020-02-20T10:07:29.000Z</time>
      </trkpt>
      <trkpt lat="47.32965" lon="-2.46564">
        <ele>17.200000762939</ele>
        <time>2020-02-20T10:07:30.000Z</time>
      </trkpt>
      <trkpt lat="47.32965" lon="-2.46566">
        <ele>16.200000762939</ele>
        <time>2020-02-20T10:07:31.000Z</time>
      </trkpt>
      <trkpt lat="47.32964" lon="-2.46567">
        <ele>16.200000762939</ele>
        <time>2020-02-20T10:07:32.000Z</time>
      </trkpt>
      <trkpt lat="47.32962" lon="-2.46569">
        <ele>15.800000190735</ele>
        <time>2020-02-20T10:07:33.000Z</time>
      </trkpt>
      <trkpt lat="47.32961" lon="-2.46571">
        <ele>15.199999809265</ele>
        <time>2020-02-20T10:07:34.000Z</time>
      </trkpt>
      <trkpt lat="47.32959" lon="-2.46574">
        <ele>14.800000190735</ele>
        <time>2020-02-20T10:07:35.000Z</time>
      </trkpt>
      <trkpt lat="47.32957" lon="-2.46577">
        <ele>14.39999961853</ele>
        <time>2020-02-20T10:07:36.000Z</time>
      </trkpt>
      <trkpt lat="47.32956" lon="-2.46581">
        <ele>14</ele>
        <time>2020-02-20T10:07:37.000Z</time>
      </trkpt>
      <trkpt lat="47.32954" lon="-2.46597">
        <ele>14</ele>
        <time>2020-02-20T10:07:40.000Z</time>
      </trkpt>
      <trkpt lat="47.32953" lon="-2.46644">
        <ele>14</ele>
        <time>2020-02-20T10:07:47.000Z</time>
      </trkpt>
      <trkpt lat="47.32957" lon="-2.46681">
        <ele>14</ele>
        <time>2020-02-20T10:07:53.000Z</time>
      </trkpt>
      <trkpt lat="47.32968" lon="-2.46728">
        <ele>14</ele>
        <time>2020-02-20T10:08:00.000Z</time>
      </trkpt>
      <trkpt lat="47.32972" lon="-2.46778">
        <ele>14</ele>
        <time>2020-02-20T10:08:07.000Z</time>
      </trkpt>
      <trkpt lat="47.32969" lon="-2.46827">
        <ele>14</ele>
        <time>2020-02-20T10:08:14.000Z</time>
      </trkpt>
      <trkpt lat="47.32968" lon="-2.46838">
        <ele>14</ele>
        <time>2020-02-20T10:08:19.000Z</time>
      </trkpt>
      <trkpt lat="47.3297" lon="-2.46841">
        <ele>14</ele>
        <time>2020-02-20T10:08:21.000Z</time>
      </trkpt>
      <trkpt lat="47.32974" lon="-2.4684">
        <ele>14</ele>
        <time>2020-02-20T10:08:23.000Z</time>
      </trkpt>
      <trkpt lat="47.32981" lon="-2.46835">
        <ele>14</ele>
        <time>2020-02-20T10:08:26.000Z</time>
      </trkpt>
      <trkpt lat="47.32989" lon="-2.4683">
        <ele>14</ele>
        <time>2020-02-20T10:08:29.000Z</time>
      </trkpt>
      <trkpt lat="47.33008" lon="-2.46817">
        <ele>14</ele>
        <time>2020-02-20T10:08:36.000Z</time>
      </trkpt>
      <trkpt lat="47.33029" lon="-2.46797">
        <ele>14</ele>
        <time>2020-02-20T10:08:44.000Z</time>
      </trkpt>
      <trkpt lat="47.33036" lon="-2.46789">
        <ele>14</ele>
        <time>2020-02-20T10:08:49.000Z</time>
      </trkpt>
      <trkpt lat="47.33039" lon="-2.46786">
        <ele>14.39999961853</ele>
        <time>2020-02-20T10:08:52.000Z</time>
      </trkpt>
      <trkpt lat="47.33041" lon="-2.46785">
        <ele>15</ele>
        <time>2020-02-20T10:08:53.000Z</time>
      </trkpt>
      <trkpt lat="47.33042" lon="-2.46785">
        <ele>15.39999961853</ele>
        <time>2020-02-20T10:08:54.000Z</time>
      </trkpt>
      <trkpt lat="47.33043" lon="-2.46785">
        <ele>15.800000190735</ele>
        <time>2020-02-20T10:08:55.000Z</time>
      </trkpt>
      <trkpt lat="47.33044" lon="-2.46785">
        <ele>16.200000762939</ele>
        <time>2020-02-20T10:08:56.000Z</time>
      </trkpt>
      <trkpt lat="47.33045" lon="-2.46785">
        <ele>16.200000762939</ele>
        <time>2020-02-20T10:08:57.000Z</time>
      </trkpt>
      <trkpt lat="47.33046" lon="-2.46786">
        <ele>16.200000762939</ele>
        <time>2020-02-20T10:08:58.000Z</time>
      </trkpt>
      <trkpt lat="47.33048" lon="-2.46795">
        <ele>16.200000762939</ele>
        <time>2020-02-20T10:09:02.000Z</time>
      </trkpt>
      <trkpt lat="47.33051" lon="-2.46803">
        <ele>16.200000762939</ele>
        <time>2020-02-20T10:09:05.000Z</time>
      </trkpt>
      <trkpt lat="47.33054" lon="-2.4681">
        <ele>16.200000762939</ele>
        <time>2020-02-20T10:09:07.000Z</time>
      </trkpt>
      <trkpt lat="47.33057" lon="-2.46817">
        <ele>16.60000038147</ele>
        <time>2020-02-20T10:09:09.000Z</time>
      </trkpt>
      <trkpt lat="47.33058" lon="-2.46821">
        <ele>17</ele>
        <time>2020-02-20T10:09:10.000Z</time>
      </trkpt>
      <trkpt lat="47.33059" lon="-2.46824">
        <ele>17.39999961853</ele>
        <time>2020-02-20T10:09:11.000Z</time>
      </trkpt>
      <trkpt lat="47.3306" lon="-2.46828">
        <ele>17.799999237061</ele>
        <time>2020-02-20T10:09:12.000Z</time>
      </trkpt>
      <trkpt lat="47.33061" lon="-2.46831">
        <ele>18.200000762939</ele>
        <time>2020-02-20T10:09:13.000Z</time>
      </trkpt>
      <trkpt lat="47.33062" lon="-2.46835">
        <ele>18.200000762939</ele>
        <time>2020-02-20T10:09:14.000Z</time>
      </trkpt>
      <trkpt lat="47.33069" lon="-2.46855">
        <ele>18.200000762939</ele>
        <time>2020-02-20T10:09:20.000Z</time>
      </trkpt>
      <trkpt lat="47.33075" lon="-2.46868">
        <ele>18.200000762939</ele>
        <time>2020-02-20T10:09:26.000Z</time>
      </trkpt>
      <trkpt lat="47.33082" lon="-2.46884">
        <ele>18.200000762939</ele>
        <time>2020-02-20T10:09:34.000Z</time>
      </trkpt>
      <trkpt lat="47.33088" lon="-2.46902">
        <ele>18.200000762939</ele>
        <time>2020-02-20T10:09:42.000Z</time>
      </trkpt>
      <trkpt lat="47.33092" lon="-2.46916">
        <ele>18.200000762939</ele>
        <time>2020-02-20T10:09:48.000Z</time>
      </trkpt>
      <trkpt lat="47.33097" lon="-2.46934">
        <ele>18.200000762939</ele>
        <time>2020-02-20T10:09:55.000Z</time>
      </trkpt>
      <trkpt lat="47.33099" lon="-2.46945">
        <ele>18.200000762939</ele>
        <time>2020-02-20T10:10:01.000Z</time>
      </trkpt>
      <trkpt lat="47.33095" lon="-2.46929">
        <ele>16.200000762939</ele>
        <time>2020-02-20T10:11:25.000Z</time>
      </trkpt>
      <trkpt lat="47.33094" lon="-2.46927">
        <ele>16.200000762939</ele>
        <time>2020-02-20T10:11:26.000Z</time>
      </trkpt>
      <trkpt lat="47.33092" lon="-2.46919">
        <ele>16.200000762939</ele>
        <time>2020-02-20T10:11:29.000Z</time>
      </trkpt>
      <trkpt lat="47.33088" lon="-2.46906">
        <ele>16.200000762939</ele>
        <time>2020-02-20T10:11:33.000Z</time>
      </trkpt>
      <trkpt lat="47.33082" lon="-2.46881">
        <ele>16.200000762939</ele>
        <time>2020-02-20T10:11:40.000Z</time>
      </trkpt>
      <trkpt lat="47.33075" lon="-2.46862">
        <ele>16.200000762939</ele>
        <time>2020-02-20T10:11:46.000Z</time>
      </trkpt>
      <trkpt lat="47.33066" lon="-2.4684">
        <ele>16.200000762939</ele>
        <time>2020-02-20T10:11:53.000Z</time>
      </trkpt>
      <trkpt lat="47.33057" lon="-2.46812">
        <ele>16.200000762939</ele>
        <time>2020-02-20T10:12:01.000Z</time>
      </trkpt>
      <trkpt lat="47.33049" lon="-2.4679">
        <ele>16.200000762939</ele>
        <time>2020-02-20T10:12:08.000Z</time>
      </trkpt>
      <trkpt lat="47.33045" lon="-2.46786">
        <ele>16.200000762939</ele>
        <time>2020-02-20T10:12:10.000Z</time>
      </trkpt>
      <trkpt lat="47.3304" lon="-2.46787">
        <ele>16.200000762939</ele>
        <time>2020-02-20T10:12:12.000Z</time>
      </trkpt>
      <trkpt lat="47.33024" lon="-2.46801">
        <ele>16.200000762939</ele>
        <time>2020-02-20T10:12:18.000Z</time>
      </trkpt>
      <trkpt lat="47.32999" lon="-2.46821">
        <ele>16.200000762939</ele>
        <time>2020-02-20T10:12:25.000Z</time>
      </trkpt>
      <trkpt lat="47.3297" lon="-2.46836">
        <ele>15.800000190735</ele>
        <time>2020-02-20T10:12:33.000Z</time>
      </trkpt>
      <trkpt lat="47.32967" lon="-2.46838">
        <ele>15.39999961853</ele>
        <time>2020-02-20T10:12:34.000Z</time>
      </trkpt>
      <trkpt lat="47.32965" lon="-2.46842">
        <ele>14.800000190735</ele>
        <time>2020-02-20T10:12:35.000Z</time>
      </trkpt>
      <trkpt lat="47.32964" lon="-2.46847">
        <ele>14.39999961853</ele>
        <time>2020-02-20T10:12:36.000Z</time>
      </trkpt>
      <trkpt lat="47.32964" lon="-2.46852">
        <ele>14</ele>
        <time>2020-02-20T10:12:37.000Z</time>
      </trkpt>
      <trkpt lat="47.3296" lon="-2.46892">
        <ele>14</ele>
        <time>2020-02-20T10:12:43.000Z</time>
      </trkpt>
      <trkpt lat="47.32949" lon="-2.46958">
        <ele>14</ele>
        <time>2020-02-20T10:12:52.000Z</time>
      </trkpt>
      <trkpt lat="47.32943" lon="-2.47012">
        <ele>14</ele>
        <time>2020-02-20T10:12:59.000Z</time>
      </trkpt>
      <trkpt lat="47.32943" lon="-2.47061">
        <ele>13.60000038147</ele>
        <time>2020-02-20T10:13:06.000Z</time>
      </trkpt>
      <trkpt lat="47.32944" lon="-2.47067">
        <ele>13.199999809265</ele>
        <time>2020-02-20T10:13:07.000Z</time>
      </trkpt>
      <trkpt lat="47.32944" lon="-2.47073">
        <ele>12.800000190735</ele>
        <time>2020-02-20T10:13:08.000Z</time>
      </trkpt>
      <trkpt lat="47.32945" lon="-2.47078">
        <ele>12</ele>
        <time>2020-02-20T10:13:09.000Z</time>
      </trkpt>
      <trkpt lat="47.32948" lon="-2.471">
        <ele>12</ele>
        <time>2020-02-20T10:13:13.000Z</time>
      </trkpt>
      <trkpt lat="47.32958" lon="-2.47133">
        <ele>12</ele>
        <time>2020-02-20T10:13:20.000Z</time>
      </trkpt>
      <trkpt lat="47.32968" lon="-2.47172">
        <ele>12</ele>
        <time>2020-02-20T10:13:27.000Z</time>
      </trkpt>
      <trkpt lat="47.32974" lon="-2.47214">
        <ele>11.199999809265</ele>
        <time>2020-02-20T10:13:34.000Z</time>
      </trkpt>
      <trkpt lat="47.32975" lon="-2.4722">
        <ele>10.800000190735</ele>
        <time>2020-02-20T10:13:35.000Z</time>
      </trkpt>
      <trkpt lat="47.32976" lon="-2.47225">
        <ele>10.39999961853</ele>
        <time>2020-02-20T10:13:36.000Z</time>
      </trkpt>
      <trkpt lat="47.32977" lon="-2.4723">
        <ele>10</ele>
        <time>2020-02-20T10:13:37.000Z</time>
      </trkpt>
      <trkpt lat="47.32988" lon="-2.47254">
        <ele>10</ele>
        <time>2020-02-20T10:13:43.000Z</time>
      </trkpt>
      <trkpt lat="47.32992" lon="-2.47258">
        <ele>10</ele>
        <time>2020-02-20T10:13:47.000Z</time>
      </trkpt>
      <trkpt lat="47.32998" lon="-2.4727">
        <ele>10</ele>
        <time>2020-02-20T10:13:53.000Z</time>
      </trkpt>
      <trkpt lat="47.33007" lon="-2.47292">
        <ele>10</ele>
        <time>2020-02-20T10:13:59.000Z</time>
      </trkpt>
      <trkpt lat="47.33016" lon="-2.47317">
        <ele>10</ele>
        <time>2020-02-20T10:14:05.000Z</time>
      </trkpt>
      <trkpt lat="47.33024" lon="-2.47336">
        <ele>10</ele>
        <time>2020-02-20T10:14:11.000Z</time>
      </trkpt>
      <trkpt lat="47.33033" lon="-2.47352">
        <ele>10</ele>
        <time>2020-02-20T10:14:16.000Z</time>
      </trkpt>
      <trkpt lat="47.3304" lon="-2.47356">
        <ele>10</ele>
        <time>2020-02-20T10:14:19.000Z</time>
      </trkpt>
      <trkpt lat="47.33044" lon="-2.47354">
        <ele>10</ele>
        <time>2020-02-20T10:14:20.000Z</time>
      </trkpt>
      <trkpt lat="47.33061" lon="-2.47336">
        <ele>10</ele>
        <time>2020-02-20T10:14:25.000Z</time>
      </trkpt>
      <trkpt lat="47.33079" lon="-2.47318">
        <ele>10</ele>
        <time>2020-02-20T10:14:31.000Z</time>
      </trkpt>
      <trkpt lat="47.33096" lon="-2.47314">
        <ele>10</ele>
        <time>2020-02-20T10:14:36.000Z</time>
      </trkpt>
      <trkpt lat="47.33104" lon="-2.47315">
        <ele>10</ele>
        <time>2020-02-20T10:14:42.000Z</time>
      </trkpt>
      <trkpt lat="47.33103" lon="-2.47316">
        <ele>10</ele>
        <time>2020-02-20T10:14:43.000Z</time>
      </trkpt>
      <trkpt lat="47.33103" lon="-2.47325">
        <ele>10</ele>
        <time>2020-02-20T10:14:53.000Z</time>
      </trkpt>
      <trkpt lat="47.33103" lon="-2.4733">
        <ele>10</ele>
        <time>2020-02-20T10:14:55.000Z</time>
      </trkpt>
      <trkpt lat="47.33104" lon="-2.47333">
        <ele>10</ele>
        <time>2020-02-20T10:14:57.000Z</time>
      </trkpt>
      <trkpt lat="47.33107" lon="-2.47337">
        <ele>10</ele>
        <time>2020-02-20T10:15:01.000Z</time>
      </trkpt>
      <trkpt lat="47.33104" lon="-2.47333">
        <ele>10</ele>
        <time>2020-02-20T10:15:11.000Z</time>
      </trkpt>
      <trkpt lat="47.33103" lon="-2.4733">
        <ele>10</ele>
        <time>2020-02-20T10:15:13.000Z</time>
      </trkpt>
      <trkpt lat="47.33098" lon="-2.4732">
        <ele>10</ele>
        <time>2020-02-20T10:15:19.000Z</time>
      </trkpt>
      <trkpt lat="47.33097" lon="-2.47319">
        <ele>10</ele>
        <time>2020-02-20T10:15:20.000Z</time>
      </trkpt>
      <trkpt lat="47.33089" lon="-2.47319">
        <ele>10</ele>
        <time>2020-02-20T10:15:24.000Z</time>
      </trkpt>
      <trkpt lat="47.33086" lon="-2.47319">
        <ele>10</ele>
        <time>2020-02-20T10:15:25.000Z</time>
      </trkpt>
      <trkpt lat="47.33078" lon="-2.47319">
        <ele>10</ele>
        <time>2020-02-20T10:15:28.000Z</time>
      </trkpt>
      <trkpt lat="47.33075" lon="-2.47321">
        <ele>10</ele>
        <time>2020-02-20T10:15:29.000Z</time>
      </trkpt>
      <trkpt lat="47.33056" lon="-2.47338">
        <ele>10</ele>
        <time>2020-02-20T10:15:35.000Z</time>
      </trkpt>
      <trkpt lat="47.33042" lon="-2.47352">
        <ele>10</ele>
        <time>2020-02-20T10:15:39.000Z</time>
      </trkpt>
      <trkpt lat="47.33034" lon="-2.47352">
        <ele>10</ele>
        <time>2020-02-20T10:15:41.000Z</time>
      </trkpt>
      <trkpt lat="47.33025" lon="-2.47339">
        <ele>10</ele>
        <time>2020-02-20T10:15:44.000Z</time>
      </trkpt>
      <trkpt lat="47.33023" lon="-2.47334">
        <ele>10</ele>
        <time>2020-02-20T10:15:45.000Z</time>
      </trkpt>
      <trkpt lat="47.33005" lon="-2.4729">
        <ele>10</ele>
        <time>2020-02-20T10:15:53.000Z</time>
      </trkpt>
      <trkpt lat="47.32989" lon="-2.47261">
        <ele>10</ele>
        <time>2020-02-20T10:16:00.000Z</time>
      </trkpt>
      <trkpt lat="47.32982" lon="-2.47269">
        <ele>10</ele>
        <time>2020-02-20T10:16:03.000Z</time>
      </trkpt>
      <trkpt lat="47.32976" lon="-2.47277">
        <ele>10</ele>
        <time>2020-02-20T10:16:05.000Z</time>
      </trkpt>
      <trkpt lat="47.32959" lon="-2.47299">
        <ele>10</ele>
        <time>2020-02-20T10:16:10.000Z</time>
      </trkpt>
      <trkpt lat="47.32923" lon="-2.47339">
        <ele>10</ele>
        <time>2020-02-20T10:16:20.000Z</time>
      </trkpt>
      <trkpt lat="47.32907" lon="-2.47355">
        <ele>10</ele>
        <time>2020-02-20T10:16:26.000Z</time>
      </trkpt>
      <trkpt lat="47.32896" lon="-2.47359">
        <ele>10</ele>
        <time>2020-02-20T10:16:32.000Z</time>
      </trkpt>
      <trkpt lat="47.32893" lon="-2.47357">
        <ele>10</ele>
        <time>2020-02-20T10:16:34.000Z</time>
      </trkpt>
      <trkpt lat="47.3289" lon="-2.47351">
        <ele>10</ele>
        <time>2020-02-20T10:16:36.000Z</time>
      </trkpt>
      <trkpt lat="47.32887" lon="-2.4733">
        <ele>10</ele>
        <time>2020-02-20T10:16:40.000Z</time>
      </trkpt>
      <trkpt lat="47.32886" lon="-2.47324">
        <ele>10</ele>
        <time>2020-02-20T10:16:41.000Z</time>
      </trkpt>
      <trkpt lat="47.32881" lon="-2.47291">
        <ele>10</ele>
        <time>2020-02-20T10:16:46.000Z</time>
      </trkpt>
      <trkpt lat="47.3288" lon="-2.47284">
        <ele>10</ele>
        <time>2020-02-20T10:16:47.000Z</time>
      </trkpt>
      <trkpt lat="47.32873" lon="-2.47238">
        <ele>10</ele>
        <time>2020-02-20T10:16:54.000Z</time>
      </trkpt>
      <trkpt lat="47.32863" lon="-2.47182">
        <ele>10</ele>
        <time>2020-02-20T10:17:02.000Z</time>
      </trkpt>
      <trkpt lat="47.32853" lon="-2.47122">
        <ele>10</ele>
        <time>2020-02-20T10:17:10.000Z</time>
      </trkpt>
      <trkpt lat="47.32839" lon="-2.47054">
        <ele>10</ele>
        <time>2020-02-20T10:17:19.000Z</time>
      </trkpt>
      <trkpt lat="47.32824" lon="-2.47011">
        <ele>10</ele>
        <time>2020-02-20T10:17:26.000Z</time>
      </trkpt>
      <trkpt lat="47.32804" lon="-2.46966">
        <ele>10</ele>
        <time>2020-02-20T10:17:33.000Z</time>
      </trkpt>
      <trkpt lat="47.32783" lon="-2.46904">
        <ele>10</ele>
        <time>2020-02-20T10:17:42.000Z</time>
      </trkpt>
      <trkpt lat="47.32772" lon="-2.46851">
        <ele>10</ele>
        <time>2020-02-20T10:17:49.000Z</time>
      </trkpt>
      <trkpt lat="47.32758" lon="-2.46808">
        <ele>10</ele>
        <time>2020-02-20T10:17:55.000Z</time>
      </trkpt>
      <trkpt lat="47.32727" lon="-2.4675">
        <ele>10</ele>
        <time>2020-02-20T10:18:04.000Z</time>
      </trkpt>
      <trkpt lat="47.32724" lon="-2.46743">
        <ele>9.3999996185303</ele>
        <time>2020-02-20T10:18:05.000Z</time>
      </trkpt>
      <trkpt lat="47.3272" lon="-2.46738">
        <ele>9</ele>
        <time>2020-02-20T10:18:06.000Z</time>
      </trkpt>
      <trkpt lat="47.32716" lon="-2.46732">
        <ele>8.6000003814697</ele>
        <time>2020-02-20T10:18:07.000Z</time>
      </trkpt>
      <trkpt lat="47.32712" lon="-2.46727">
        <ele>7.8000001907349</ele>
        <time>2020-02-20T10:18:08.000Z</time>
      </trkpt>
      <trkpt lat="47.32703" lon="-2.46717">
        <ele>7.8000001907349</ele>
        <time>2020-02-20T10:18:10.000Z</time>
      </trkpt>
      <trkpt lat="47.32668" lon="-2.46688">
        <ele>7.8000001907349</ele>
        <time>2020-02-20T10:18:17.000Z</time>
      </trkpt>
      <trkpt lat="47.32643" lon="-2.4667">
        <ele>7.8000001907349</ele>
        <time>2020-02-20T10:18:22.000Z</time>
      </trkpt>
      <trkpt lat="47.32634" lon="-2.46662">
        <ele>7.8000001907349</ele>
        <time>2020-02-20T10:18:24.000Z</time>
      </trkpt>
      <trkpt lat="47.32612" lon="-2.46637">
        <ele>7.8000001907349</ele>
        <time>2020-02-20T10:18:29.000Z</time>
      </trkpt>
      <trkpt lat="47.32608" lon="-2.46631">
        <ele>7.8000001907349</ele>
        <time>2020-02-20T10:18:30.000Z</time>
      </trkpt>
      <trkpt lat="47.32576" lon="-2.46577">
        <ele>7.8000001907349</ele>
        <time>2020-02-20T10:18:38.000Z</time>
      </trkpt>
      <trkpt lat="47.32546" lon="-2.46539">
        <ele>7.8000001907349</ele>
        <time>2020-02-20T10:18:45.000Z</time>
      </trkpt>
      <trkpt lat="47.32538" lon="-2.46527">
        <ele>7.8000001907349</ele>
        <time>2020-02-20T10:18:47.000Z</time>
      </trkpt>
      <trkpt lat="47.32528" lon="-2.46504">
        <ele>7.8000001907349</ele>
        <time>2020-02-20T10:18:50.000Z</time>
      </trkpt>
      <trkpt lat="47.32502" lon="-2.46442">
        <ele>7.8000001907349</ele>
        <time>2020-02-20T10:18:58.000Z</time>
      </trkpt>
      <trkpt lat="47.32475" lon="-2.46403">
        <ele>7.8000001907349</ele>
        <time>2020-02-20T10:19:04.000Z</time>
      </trkpt>
      <trkpt lat="47.32444" lon="-2.46353">
        <ele>7.8000001907349</ele>
        <time>2020-02-20T10:19:12.000Z</time>
      </trkpt>
      <trkpt lat="47.32424" lon="-2.46296">
        <ele>7.8000001907349</ele>
        <time>2020-02-20T10:19:19.000Z</time>
      </trkpt>
      <trkpt lat="47.32421" lon="-2.46288">
        <ele>7.8000001907349</ele>
        <time>2020-02-20T10:19:20.000Z</time>
      </trkpt>
      <trkpt lat="47.32405" lon="-2.46257">
        <ele>7.8000001907349</ele>
        <time>2020-02-20T10:19:24.000Z</time>
      </trkpt>
      <trkpt lat="47.32369" lon="-2.4619">
        <ele>7.8000001907349</ele>
        <time>2020-02-20T10:19:33.000Z</time>
      </trkpt>
      <trkpt lat="47.32333" lon="-2.46136">
        <ele>7.8000001907349</ele>
        <time>2020-02-20T10:19:41.000Z</time>
      </trkpt>
      <trkpt lat="47.32299" lon="-2.46079">
        <ele>7.8000001907349</ele>
        <time>2020-02-20T10:19:49.000Z</time>
      </trkpt>
      <trkpt lat="47.32273" lon="-2.46025">
        <ele>7.8000001907349</ele>
        <time>2020-02-20T10:19:56.000Z</time>
      </trkpt>
      <trkpt lat="47.32259" lon="-2.45994">
        <ele>7.8000001907349</ele>
        <time>2020-02-20T10:20:00.000Z</time>
      </trkpt>
      <trkpt lat="47.3225" lon="-2.45982">
        <ele>7.8000001907349</ele>
        <time>2020-02-20T10:20:02.000Z</time>
      </trkpt>
      <trkpt lat="47.3224" lon="-2.45972">
        <ele>7.8000001907349</ele>
        <time>2020-02-20T10:20:04.000Z</time>
      </trkpt>
      <trkpt lat="47.32227" lon="-2.45954">
        <ele>7.8000001907349</ele>
        <time>2020-02-20T10:20:07.000Z</time>
      </trkpt>
      <trkpt lat="47.32208" lon="-2.45914">
        <ele>7.8000001907349</ele>
        <time>2020-02-20T10:20:12.000Z</time>
      </trkpt>
      <trkpt lat="47.32177" lon="-2.45838">
        <ele>7.8000001907349</ele>
        <time>2020-02-20T10:20:21.000Z</time>
      </trkpt>
      <trkpt lat="47.32146" lon="-2.4578">
        <ele>7.8000001907349</ele>
        <time>2020-02-20T10:20:29.000Z</time>
      </trkpt>
      <trkpt lat="47.32142" lon="-2.45774">
        <ele>7.8000001907349</ele>
        <time>2020-02-20T10:20:30.000Z</time>
      </trkpt>
      <trkpt lat="47.32132" lon="-2.45763">
        <ele>7.8000001907349</ele>
        <time>2020-02-20T10:20:32.000Z</time>
      </trkpt>
      <trkpt lat="47.3212" lon="-2.45754">
        <ele>7.8000001907349</ele>
        <time>2020-02-20T10:20:34.000Z</time>
      </trkpt>
      <trkpt lat="47.32097" lon="-2.45744">
        <ele>7.8000001907349</ele>
        <time>2020-02-20T10:20:38.000Z</time>
      </trkpt>
      <trkpt lat="47.32091" lon="-2.45743">
        <ele>7.8000001907349</ele>
        <time>2020-02-20T10:20:39.000Z</time>
      </trkpt>
      <trkpt lat="47.32074" lon="-2.45736">
        <ele>7.8000001907349</ele>
        <time>2020-02-20T10:20:42.000Z</time>
      </trkpt>
      <trkpt lat="47.32058" lon="-2.45725">
        <ele>7.8000001907349</ele>
        <time>2020-02-20T10:20:45.000Z</time>
      </trkpt>
      <trkpt lat="47.32009" lon="-2.45688">
        <ele>7.8000001907349</ele>
        <time>2020-02-20T10:20:54.000Z</time>
      </trkpt>
      <trkpt lat="47.31993" lon="-2.45672">
        <ele>7.8000001907349</ele>
        <time>2020-02-20T10:20:57.000Z</time>
      </trkpt>
      <trkpt lat="47.31979" lon="-2.45654">
        <ele>7.8000001907349</ele>
        <time>2020-02-20T10:21:00.000Z</time>
      </trkpt>
      <trkpt lat="47.31953" lon="-2.45603">
        <ele>7.8000001907349</ele>
        <time>2020-02-20T10:21:07.000Z</time>
      </trkpt>
      <trkpt lat="47.31931" lon="-2.45546">
        <ele>7.8000001907349</ele>
        <time>2020-02-20T10:21:14.000Z</time>
      </trkpt>
      <trkpt lat="47.31927" lon="-2.45539">
        <ele>7.8000001907349</ele>
        <time>2020-02-20T10:21:15.000Z</time>
      </trkpt>
      <trkpt lat="47.3191" lon="-2.45515">
        <ele>7.8000001907349</ele>
        <time>2020-02-20T10:21:19.000Z</time>
      </trkpt>
      <trkpt lat="47.31873" lon="-2.45465">
        <ele>7.8000001907349</ele>
        <time>2020-02-20T10:21:27.000Z</time>
      </trkpt>
      <trkpt lat="47.31835" lon="-2.45407">
        <ele>7.8000001907349</ele>
        <time>2020-02-20T10:21:36.000Z</time>
      </trkpt>
      <trkpt lat="47.31801" lon="-2.45358">
        <ele>7.8000001907349</ele>
        <time>2020-02-20T10:21:44.000Z</time>
      </trkpt>
      <trkpt lat="47.31779" lon="-2.45341">
        <ele>7.8000001907349</ele>
        <time>2020-02-20T10:21:49.000Z</time>
      </trkpt>
      <trkpt lat="47.31772" lon="-2.45334">
        <ele>7.8000001907349</ele>
        <time>2020-02-20T10:21:51.000Z</time>
      </trkpt>
      <trkpt lat="47.31768" lon="-2.45322">
        <ele>7.8000001907349</ele>
        <time>2020-02-20T10:21:53.000Z</time>
      </trkpt>
      <trkpt lat="47.3177" lon="-2.45302">
        <ele>7.8000001907349</ele>
        <time>2020-02-20T10:21:56.000Z</time>
      </trkpt>
      <trkpt lat="47.31784" lon="-2.45278">
        <ele>7.8000001907349</ele>
        <time>2020-02-20T10:22:00.000Z</time>
      </trkpt>
      <trkpt lat="47.31789" lon="-2.45272">
        <ele>7.8000001907349</ele>
        <time>2020-02-20T10:22:01.000Z</time>
      </trkpt>
      <trkpt lat="47.31825" lon="-2.45228">
        <ele>7.8000001907349</ele>
        <time>2020-02-20T10:22:09.000Z</time>
      </trkpt>
      <trkpt lat="47.31853" lon="-2.45195">
        <ele>7.8000001907349</ele>
        <time>2020-02-20T10:22:16.000Z</time>
      </trkpt>
      <trkpt lat="47.31857" lon="-2.45174">
        <ele>7.8000001907349</ele>
        <time>2020-02-20T10:22:19.000Z</time>
      </trkpt>
      <trkpt lat="47.31854" lon="-2.45149">
        <ele>7.8000001907349</ele>
        <time>2020-02-20T10:22:22.000Z</time>
      </trkpt>
      <trkpt lat="47.31853" lon="-2.45141">
        <ele>7.8000001907349</ele>
        <time>2020-02-20T10:22:23.000Z</time>
      </trkpt>
      <trkpt lat="47.31839" lon="-2.45092">
        <ele>7.8000001907349</ele>
        <time>2020-02-20T10:22:29.000Z</time>
      </trkpt>
      <trkpt lat="47.31819" lon="-2.45028">
        <ele>7.8000001907349</ele>
        <time>2020-02-20T10:22:37.000Z</time>
      </trkpt>
      <trkpt lat="47.31807" lon="-2.44997">
        <ele>7.8000001907349</ele>
        <time>2020-02-20T10:22:41.000Z</time>
      </trkpt>
      <trkpt lat="47.31801" lon="-2.44984">
        <ele>7.8000001907349</ele>
        <time>2020-02-20T10:22:43.000Z</time>
      </trkpt>
      <trkpt lat="47.31779" lon="-2.44931">
        <ele>7.8000001907349</ele>
        <time>2020-02-20T10:22:50.000Z</time>
      </trkpt>
      <trkpt lat="47.31752" lon="-2.44872">
        <ele>7.8000001907349</ele>
        <time>2020-02-20T10:22:58.000Z</time>
      </trkpt>
      <trkpt lat="47.31737" lon="-2.44826">
        <ele>7.8000001907349</ele>
        <time>2020-02-20T10:23:04.000Z</time>
      </trkpt>
      <trkpt lat="47.31726" lon="-2.44793">
        <ele>8.1999998092651</ele>
        <time>2020-02-20T10:23:08.000Z</time>
      </trkpt>
      <trkpt lat="47.31723" lon="-2.44785">
        <ele>8.6000003814697</ele>
        <time>2020-02-20T10:23:09.000Z</time>
      </trkpt>
      <trkpt lat="47.31719" lon="-2.44777">
        <ele>9</ele>
        <time>2020-02-20T10:23:10.000Z</time>
      </trkpt>
      <trkpt lat="47.31716" lon="-2.44769">
        <ele>9.3999996185303</ele>
        <time>2020-02-20T10:23:11.000Z</time>
      </trkpt>
      <trkpt lat="47.31713" lon="-2.4476">
        <ele>9.8000001907349</ele>
        <time>2020-02-20T10:23:12.000Z</time>
      </trkpt>
      <trkpt lat="47.31689" lon="-2.44704">
        <ele>9.8000001907349</ele>
        <time>2020-02-20T10:23:19.000Z</time>
      </trkpt>
      <trkpt lat="47.31662" lon="-2.4464">
        <ele>9.8000001907349</ele>
        <time>2020-02-20T10:23:27.000Z</time>
      </trkpt>
      <trkpt lat="47.31627" lon="-2.44571">
        <ele>9.8000001907349</ele>
        <time>2020-02-20T10:23:36.000Z</time>
      </trkpt>
      <trkpt lat="47.31596" lon="-2.44518">
        <ele>9.8000001907349</ele>
        <time>2020-02-20T10:23:43.000Z</time>
      </trkpt>
      <trkpt lat="47.31589" lon="-2.445">
        <ele>9.8000001907349</ele>
        <time>2020-02-20T10:23:45.000Z</time>
      </trkpt>
      <trkpt lat="47.31583" lon="-2.44481">
        <ele>9.8000001907349</ele>
        <time>2020-02-20T10:23:47.000Z</time>
      </trkpt>
      <trkpt lat="47.31577" lon="-2.4445">
        <ele>9.8000001907349</ele>
        <time>2020-02-20T10:23:50.000Z</time>
      </trkpt>
      <trkpt lat="47.31576" lon="-2.4444">
        <ele>9.3999996185303</ele>
        <time>2020-02-20T10:23:51.000Z</time>
      </trkpt>
      <trkpt lat="47.31574" lon="-2.4443">
        <ele>9</ele>
        <time>2020-02-20T10:23:52.000Z</time>
      </trkpt>
      <trkpt lat="47.31573" lon="-2.4442">
        <ele>8.1999998092651</ele>
        <time>2020-02-20T10:23:53.000Z</time>
      </trkpt>
      <trkpt lat="47.31572" lon="-2.4441">
        <ele>7.8000001907349</ele>
        <time>2020-02-20T10:23:54.000Z</time>
      </trkpt>
      <trkpt lat="47.31563" lon="-2.44352">
        <ele>7.8000001907349</ele>
        <time>2020-02-20T10:24:00.000Z</time>
      </trkpt>
      <trkpt lat="47.31555" lon="-2.44294">
        <ele>7.8000001907349</ele>
        <time>2020-02-20T10:24:06.000Z</time>
      </trkpt>
      <trkpt lat="47.31543" lon="-2.4422">
        <ele>7.8000001907349</ele>
        <time>2020-02-20T10:24:14.000Z</time>
      </trkpt>
      <trkpt lat="47.31527" lon="-2.44171">
        <ele>7.8000001907349</ele>
        <time>2020-02-20T10:24:20.000Z</time>
      </trkpt>
      <trkpt lat="47.31515" lon="-2.4415">
        <ele>8.1999998092651</ele>
        <time>2020-02-20T10:24:23.000Z</time>
      </trkpt>
      <trkpt lat="47.31511" lon="-2.44143">
        <ele>8.8000001907349</ele>
        <time>2020-02-20T10:24:24.000Z</time>
      </trkpt>
      <trkpt lat="47.31506" lon="-2.44136">
        <ele>9.1999998092651</ele>
        <time>2020-02-20T10:24:25.000Z</time>
      </trkpt>
      <trkpt lat="47.31501" lon="-2.4413">
        <ele>9.6000003814697</ele>
        <time>2020-02-20T10:24:26.000Z</time>
      </trkpt>
      <trkpt lat="47.31496" lon="-2.44123">
        <ele>10.199999809265</ele>
        <time>2020-02-20T10:24:27.000Z</time>
      </trkpt>
      <trkpt lat="47.31476" lon="-2.44097">
        <ele>10.199999809265</ele>
        <time>2020-02-20T10:24:31.000Z</time>
      </trkpt>
      <trkpt lat="47.3144" lon="-2.44053">
        <ele>10.199999809265</ele>
        <time>2020-02-20T10:24:38.000Z</time>
      </trkpt>
      <trkpt lat="47.31402" lon="-2.44003">
        <ele>10.199999809265</ele>
        <time>2020-02-20T10:24:46.000Z</time>
      </trkpt>
      <trkpt lat="47.31369" lon="-2.4396">
        <ele>10.199999809265</ele>
        <time>2020-02-20T10:24:53.000Z</time>
      </trkpt>
      <trkpt lat="47.31363" lon="-2.43945">
        <ele>10.199999809265</ele>
        <time>2020-02-20T10:24:55.000Z</time>
      </trkpt>
      <trkpt lat="47.31357" lon="-2.43929">
        <ele>10.199999809265</ele>
        <time>2020-02-20T10:24:57.000Z</time>
      </trkpt>
      <trkpt lat="47.31339" lon="-2.43882">
        <ele>10.199999809265</ele>
        <time>2020-02-20T10:25:03.000Z</time>
      </trkpt>
      <trkpt lat="47.31317" lon="-2.43831">
        <ele>10.199999809265</ele>
        <time>2020-02-20T10:25:09.000Z</time>
      </trkpt>
      <trkpt lat="47.31311" lon="-2.43824">
        <ele>10.199999809265</ele>
        <time>2020-02-20T10:25:10.000Z</time>
      </trkpt>
      <trkpt lat="47.31296" lon="-2.43803">
        <ele>10.199999809265</ele>
        <time>2020-02-20T10:25:13.000Z</time>
      </trkpt>
      <trkpt lat="47.31283" lon="-2.43777">
        <ele>10.199999809265</ele>
        <time>2020-02-20T10:25:16.000Z</time>
      </trkpt>
      <trkpt lat="47.3128" lon="-2.43768">
        <ele>10.199999809265</ele>
        <time>2020-02-20T10:25:17.000Z</time>
      </trkpt>
      <trkpt lat="47.31257" lon="-2.43708">
        <ele>10.199999809265</ele>
        <time>2020-02-20T10:25:24.000Z</time>
      </trkpt>
      <trkpt lat="47.31239" lon="-2.43646">
        <ele>10.199999809265</ele>
        <time>2020-02-20T10:25:31.000Z</time>
      </trkpt>
      <trkpt lat="47.31228" lon="-2.43571">
        <ele>10.199999809265</ele>
        <time>2020-02-20T10:25:39.000Z</time>
      </trkpt>
      <trkpt lat="47.31217" lon="-2.43497">
        <ele>10.199999809265</ele>
        <time>2020-02-20T10:25:46.000Z</time>
      </trkpt>
      <trkpt lat="47.31205" lon="-2.43418">
        <ele>10.199999809265</ele>
        <time>2020-02-20T10:25:54.000Z</time>
      </trkpt>
      <trkpt lat="47.31202" lon="-2.43398">
        <ele>10.199999809265</ele>
        <time>2020-02-20T10:25:56.000Z</time>
      </trkpt>
      <trkpt lat="47.31187" lon="-2.43322">
        <ele>10.199999809265</ele>
        <time>2020-02-20T10:26:04.000Z</time>
      </trkpt>
      <trkpt lat="47.31177" lon="-2.43296">
        <ele>10.199999809265</ele>
        <time>2020-02-20T10:26:07.000Z</time>
      </trkpt>
      <trkpt lat="47.31169" lon="-2.43282">
        <ele>10.199999809265</ele>
        <time>2020-02-20T10:26:09.000Z</time>
      </trkpt>
      <trkpt lat="47.31133" lon="-2.43226">
        <ele>10.199999809265</ele>
        <time>2020-02-20T10:26:17.000Z</time>
      </trkpt>
      <trkpt lat="47.31108" lon="-2.43191">
        <ele>10.199999809265</ele>
        <time>2020-02-20T10:26:23.000Z</time>
      </trkpt>
      <trkpt lat="47.31094" lon="-2.43195">
        <ele>10.199999809265</ele>
        <time>2020-02-20T10:26:26.000Z</time>
      </trkpt>
      <trkpt lat="47.31085" lon="-2.43203">
        <ele>10.199999809265</ele>
        <time>2020-02-20T10:26:28.000Z</time>
      </trkpt>
      <trkpt lat="47.31071" lon="-2.43215">
        <ele>10.199999809265</ele>
        <time>2020-02-20T10:26:31.000Z</time>
      </trkpt>
      <trkpt lat="47.31043" lon="-2.43246">
        <ele>10.199999809265</ele>
        <time>2020-02-20T10:26:37.000Z</time>
      </trkpt>
      <trkpt lat="47.31026" lon="-2.43271">
        <ele>10.199999809265</ele>
        <time>2020-02-20T10:26:41.000Z</time>
      </trkpt>
      <trkpt lat="47.31017" lon="-2.43282">
        <ele>10.199999809265</ele>
        <time>2020-02-20T10:26:43.000Z</time>
      </trkpt>
      <trkpt lat="47.30998" lon="-2.43304">
        <ele>10.199999809265</ele>
        <time>2020-02-20T10:26:47.000Z</time>
      </trkpt>
      <trkpt lat="47.30988" lon="-2.43311">
        <ele>10.199999809265</ele>
        <time>2020-02-20T10:26:49.000Z</time>
      </trkpt>
      <trkpt lat="47.30982" lon="-2.43314">
        <ele>10.199999809265</ele>
        <time>2020-02-20T10:26:50.000Z</time>
      </trkpt>
      <trkpt lat="47.3097" lon="-2.4332">
        <ele>10.199999809265</ele>
        <time>2020-02-20T10:26:52.000Z</time>
      </trkpt>
      <trkpt lat="47.30957" lon="-2.43325">
        <ele>10.199999809265</ele>
        <time>2020-02-20T10:26:54.000Z</time>
      </trkpt>
      <trkpt lat="47.30927" lon="-2.43338">
        <ele>9.8000001907349</ele>
        <time>2020-02-20T10:26:59.000Z</time>
      </trkpt>
      <trkpt lat="47.3092" lon="-2.43341">
        <ele>9.1999998092651</ele>
        <time>2020-02-20T10:27:00.000Z</time>
      </trkpt>
      <trkpt lat="47.30914" lon="-2.43344">
        <ele>8.8000001907349</ele>
        <time>2020-02-20T10:27:01.000Z</time>
      </trkpt>
      <trkpt lat="47.30908" lon="-2.43346">
        <ele>8.3999996185303</ele>
        <time>2020-02-20T10:27:02.000Z</time>
      </trkpt>
      <trkpt lat="47.30902" lon="-2.43349">
        <ele>8</ele>
        <time>2020-02-20T10:27:03.000Z</time>
      </trkpt>
      <trkpt lat="47.30864" lon="-2.43366">
        <ele>8</ele>
        <time>2020-02-20T10:27:09.000Z</time>
      </trkpt>
      <trkpt lat="47.30821" lon="-2.43384">
        <ele>8</ele>
        <time>2020-02-20T10:27:16.000Z</time>
      </trkpt>
      <trkpt lat="47.30808" lon="-2.43388">
        <ele>8</ele>
        <time>2020-02-20T10:27:18.000Z</time>
      </trkpt>
      <trkpt lat="47.30789" lon="-2.43392">
        <ele>8</ele>
        <time>2020-02-20T10:27:21.000Z</time>
      </trkpt>
      <trkpt lat="47.30756" lon="-2.4339">
        <ele>8</ele>
        <time>2020-02-20T10:27:26.000Z</time>
      </trkpt>
      <trkpt lat="47.307" lon="-2.43393">
        <ele>8</ele>
        <time>2020-02-20T10:27:34.000Z</time>
      </trkpt>
      <trkpt lat="47.30693" lon="-2.43395">
        <ele>8</ele>
        <time>2020-02-20T10:27:35.000Z</time>
      </trkpt>
      <trkpt lat="47.30664" lon="-2.434">
        <ele>8</ele>
        <time>2020-02-20T10:27:39.000Z</time>
      </trkpt>
      <trkpt lat="47.30616" lon="-2.43409">
        <ele>8</ele>
        <time>2020-02-20T10:27:46.000Z</time>
      </trkpt>
      <trkpt lat="47.30569" lon="-2.43421">
        <ele>8</ele>
        <time>2020-02-20T10:27:53.000Z</time>
      </trkpt>
      <trkpt lat="47.3053" lon="-2.43421">
        <ele>8</ele>
        <time>2020-02-20T10:27:59.000Z</time>
      </trkpt>
      <trkpt lat="47.30484" lon="-2.43416">
        <ele>8</ele>
        <time>2020-02-20T10:28:06.000Z</time>
      </trkpt>
      <trkpt lat="47.30466" lon="-2.43415">
        <ele>8</ele>
        <time>2020-02-20T10:28:09.000Z</time>
      </trkpt>
      <trkpt lat="47.30454" lon="-2.43419">
        <ele>8</ele>
        <time>2020-02-20T10:28:11.000Z</time>
      </trkpt>
      <trkpt lat="47.30442" lon="-2.43423">
        <ele>8</ele>
        <time>2020-02-20T10:28:13.000Z</time>
      </trkpt>
      <trkpt lat="47.3043" lon="-2.43419">
        <ele>8</ele>
        <time>2020-02-20T10:28:15.000Z</time>
      </trkpt>
      <trkpt lat="47.30421" lon="-2.43396">
        <ele>8</ele>
        <time>2020-02-20T10:28:18.000Z</time>
      </trkpt>
      <trkpt lat="47.30419" lon="-2.43387">
        <ele>8</ele>
        <time>2020-02-20T10:28:19.000Z</time>
      </trkpt>
      <trkpt lat="47.30412" lon="-2.43336">
        <ele>8</ele>
        <time>2020-02-20T10:28:24.000Z</time>
      </trkpt>
      <trkpt lat="47.30394" lon="-2.43261">
        <ele>8</ele>
        <time>2020-02-20T10:28:32.000Z</time>
      </trkpt>
      <trkpt lat="47.30391" lon="-2.43253">
        <ele>8</ele>
        <time>2020-02-20T10:28:33.000Z</time>
      </trkpt>
      <trkpt lat="47.30379" lon="-2.43237">
        <ele>8</ele>
        <time>2020-02-20T10:28:36.000Z</time>
      </trkpt>
      <trkpt lat="47.30366" lon="-2.43232">
        <ele>8</ele>
        <time>2020-02-20T10:28:38.000Z</time>
      </trkpt>
      <trkpt lat="47.3036" lon="-2.43229">
        <ele>8</ele>
        <time>2020-02-20T10:28:39.000Z</time>
      </trkpt>
      <trkpt lat="47.30354" lon="-2.43224">
        <ele>8</ele>
        <time>2020-02-20T10:28:40.000Z</time>
      </trkpt>
      <trkpt lat="47.30339" lon="-2.43205">
        <ele>8</ele>
        <time>2020-02-20T10:28:43.000Z</time>
      </trkpt>
      <trkpt lat="47.30335" lon="-2.43198">
        <ele>8</ele>
        <time>2020-02-20T10:28:44.000Z</time>
      </trkpt>
      <trkpt lat="47.30317" lon="-2.43171">
        <ele>8</ele>
        <time>2020-02-20T10:28:48.000Z</time>
      </trkpt>
      <trkpt lat="47.30312" lon="-2.43166">
        <ele>8</ele>
        <time>2020-02-20T10:28:49.000Z</time>
      </trkpt>
      <trkpt lat="47.30285" lon="-2.43152">
        <ele>8</ele>
        <time>2020-02-20T10:28:54.000Z</time>
      </trkpt>
      <trkpt lat="47.3028" lon="-2.43151">
        <ele>8</ele>
        <time>2020-02-20T10:28:55.000Z</time>
      </trkpt>
      <trkpt lat="47.30276" lon="-2.43149">
        <ele>8</ele>
        <time>2020-02-20T10:28:56.000Z</time>
      </trkpt>
      <trkpt lat="47.30269" lon="-2.43141">
        <ele>8</ele>
        <time>2020-02-20T10:28:58.000Z</time>
      </trkpt>
      <trkpt lat="47.30261" lon="-2.43122">
        <ele>8</ele>
        <time>2020-02-20T10:29:02.000Z</time>
      </trkpt>
      <trkpt lat="47.3026" lon="-2.43117">
        <ele>8</ele>
        <time>2020-02-20T10:29:03.000Z</time>
      </trkpt>
      <trkpt lat="47.30259" lon="-2.43102">
        <ele>8</ele>
        <time>2020-02-20T10:29:06.000Z</time>
      </trkpt>
      <trkpt lat="47.30261" lon="-2.43097">
        <ele>8</ele>
        <time>2020-02-20T10:29:07.000Z</time>
      </trkpt>
      <trkpt lat="47.30268" lon="-2.4308">
        <ele>8</ele>
        <time>2020-02-20T10:29:10.000Z</time>
      </trkpt>
      <trkpt lat="47.30276" lon="-2.43074">
        <ele>8</ele>
        <time>2020-02-20T10:29:12.000Z</time>
      </trkpt>
      <trkpt lat="47.30292" lon="-2.43076">
        <ele>8</ele>
        <time>2020-02-20T10:29:15.000Z</time>
      </trkpt>
      <trkpt lat="47.30304" lon="-2.43076">
        <ele>8</ele>
        <time>2020-02-20T10:29:17.000Z</time>
      </trkpt>
      <trkpt lat="47.30322" lon="-2.43073">
        <ele>8</ele>
        <time>2020-02-20T10:29:20.000Z</time>
      </trkpt>
      <trkpt lat="47.30347" lon="-2.4307">
        <ele>8</ele>
        <time>2020-02-20T10:29:24.000Z</time>
      </trkpt>
      <trkpt lat="47.30385" lon="-2.43061">
        <ele>8</ele>
        <time>2020-02-20T10:29:30.000Z</time>
      </trkpt>
      <trkpt lat="47.30428" lon="-2.43046">
        <ele>8</ele>
        <time>2020-02-20T10:29:36.000Z</time>
      </trkpt>
      <trkpt lat="47.30436" lon="-2.4304">
        <ele>8</ele>
        <time>2020-02-20T10:29:37.000Z</time>
      </trkpt>
      <trkpt lat="47.30457" lon="-2.43021">
        <ele>8</ele>
        <time>2020-02-20T10:29:40.000Z</time>
      </trkpt>
      <trkpt lat="47.30499" lon="-2.42986">
        <ele>8</ele>
        <time>2020-02-20T10:29:46.000Z</time>
      </trkpt>
      <trkpt lat="47.30541" lon="-2.42952">
        <ele>8</ele>
        <time>2020-02-20T10:29:52.000Z</time>
      </trkpt>
      <trkpt lat="47.30589" lon="-2.42912">
        <ele>8</ele>
        <time>2020-02-20T10:29:59.000Z</time>
      </trkpt>
      <trkpt lat="47.30638" lon="-2.42872">
        <ele>8</ele>
        <time>2020-02-20T10:30:06.000Z</time>
      </trkpt>
      <trkpt lat="47.30652" lon="-2.42861">
        <ele>8</ele>
        <time>2020-02-20T10:30:08.000Z</time>
      </trkpt>
      <trkpt lat="47.30699" lon="-2.42821">
        <ele>8</ele>
        <time>2020-02-20T10:30:15.000Z</time>
      </trkpt>
      <trkpt lat="47.30712" lon="-2.4281">
        <ele>8</ele>
        <time>2020-02-20T10:30:17.000Z</time>
      </trkpt>
      <trkpt lat="47.30734" lon="-2.42795">
        <ele>8</ele>
        <time>2020-02-20T10:30:20.000Z</time>
      </trkpt>
      <trkpt lat="47.3075" lon="-2.42791">
        <ele>8</ele>
        <time>2020-02-20T10:30:22.000Z</time>
      </trkpt>
      <trkpt lat="47.30798" lon="-2.42785">
        <ele>8</ele>
        <time>2020-02-20T10:30:28.000Z</time>
      </trkpt>
      <trkpt lat="47.30806" lon="-2.42783">
        <ele>8</ele>
        <time>2020-02-20T10:30:29.000Z</time>
      </trkpt>
      <trkpt lat="47.3083" lon="-2.42779">
        <ele>8</ele>
        <time>2020-02-20T10:30:32.000Z</time>
      </trkpt>
      <trkpt lat="47.30877" lon="-2.42773">
        <ele>8</ele>
        <time>2020-02-20T10:30:38.000Z</time>
      </trkpt>
      <trkpt lat="47.30914" lon="-2.42768">
        <ele>8.3999996185303</ele>
        <time>2020-02-20T10:30:43.000Z</time>
      </trkpt>
      <trkpt lat="47.30922" lon="-2.42767">
        <ele>8.8000001907349</ele>
        <time>2020-02-20T10:30:44.000Z</time>
      </trkpt>
      <trkpt lat="47.30929" lon="-2.42766">
        <ele>9.1999998092651</ele>
        <time>2020-02-20T10:30:45.000Z</time>
      </trkpt>
      <trkpt lat="47.30936" lon="-2.42765">
        <ele>9.6000003814697</ele>
        <time>2020-02-20T10:30:46.000Z</time>
      </trkpt>
      <trkpt lat="47.30944" lon="-2.42764">
        <ele>10</ele>
        <time>2020-02-20T10:30:47.000Z</time>
      </trkpt>
      <trkpt lat="47.3099" lon="-2.42759">
        <ele>10</ele>
        <time>2020-02-20T10:30:53.000Z</time>
      </trkpt>
      <trkpt lat="47.31032" lon="-2.42749">
        <ele>10</ele>
        <time>2020-02-20T10:30:59.000Z</time>
      </trkpt>
      <trkpt lat="47.31047" lon="-2.4273">
        <ele>10</ele>
        <time>2020-02-20T10:31:02.000Z</time>
      </trkpt>
      <trkpt lat="47.3105" lon="-2.427">
        <ele>10</ele>
        <time>2020-02-20T10:31:05.000Z</time>
      </trkpt>
      <trkpt lat="47.31039" lon="-2.42659">
        <ele>10</ele>
        <time>2020-02-20T10:31:09.000Z</time>
      </trkpt>
      <trkpt lat="47.31035" lon="-2.42649">
        <ele>10</ele>
        <time>2020-02-20T10:31:10.000Z</time>
      </trkpt>
      <trkpt lat="47.31015" lon="-2.42578">
        <ele>10</ele>
        <time>2020-02-20T10:31:17.000Z</time>
      </trkpt>
      <trkpt lat="47.31" lon="-2.42515">
        <ele>10</ele>
        <time>2020-02-20T10:31:23.000Z</time>
      </trkpt>
      <trkpt lat="47.3098" lon="-2.42438">
        <ele>10</ele>
        <time>2020-02-20T10:31:30.000Z</time>
      </trkpt>
      <trkpt lat="47.30975" lon="-2.42416">
        <ele>10</ele>
        <time>2020-02-20T10:31:32.000Z</time>
      </trkpt>
      <trkpt lat="47.30957" lon="-2.42339">
        <ele>10</ele>
        <time>2020-02-20T10:31:39.000Z</time>
      </trkpt>
      <trkpt lat="47.30952" lon="-2.42317">
        <ele>10</ele>
        <time>2020-02-20T10:31:41.000Z</time>
      </trkpt>
      <trkpt lat="47.30943" lon="-2.42276">
        <ele>10</ele>
        <time>2020-02-20T10:31:45.000Z</time>
      </trkpt>
      <trkpt lat="47.30934" lon="-2.42261">
        <ele>10</ele>
        <time>2020-02-20T10:31:47.000Z</time>
      </trkpt>
      <trkpt lat="47.30916" lon="-2.42248">
        <ele>10</ele>
        <time>2020-02-20T10:31:50.000Z</time>
      </trkpt>
      <trkpt lat="47.30909" lon="-2.42244">
        <ele>10</ele>
        <time>2020-02-20T10:31:51.000Z</time>
      </trkpt>
      <trkpt lat="47.30897" lon="-2.42235">
        <ele>10</ele>
        <time>2020-02-20T10:31:53.000Z</time>
      </trkpt>
      <trkpt lat="47.30886" lon="-2.42223">
        <ele>9.6000003814697</ele>
        <time>2020-02-20T10:31:55.000Z</time>
      </trkpt>
      <trkpt lat="47.3088" lon="-2.42216">
        <ele>9.1999998092651</ele>
        <time>2020-02-20T10:31:56.000Z</time>
      </trkpt>
      <trkpt lat="47.30876" lon="-2.42209">
        <ele>8.8000001907349</ele>
        <time>2020-02-20T10:31:57.000Z</time>
      </trkpt>
      <trkpt lat="47.30871" lon="-2.42204">
        <ele>8.3999996185303</ele>
        <time>2020-02-20T10:31:58.000Z</time>
      </trkpt>
      <trkpt lat="47.30866" lon="-2.422">
        <ele>8</ele>
        <time>2020-02-20T10:31:59.000Z</time>
      </trkpt>
      <trkpt lat="47.30849" lon="-2.42203">
        <ele>8</ele>
        <time>2020-02-20T10:32:02.000Z</time>
      </trkpt>
      <trkpt lat="47.30843" lon="-2.42205">
        <ele>8</ele>
        <time>2020-02-20T10:32:03.000Z</time>
      </trkpt>
      <trkpt lat="47.30823" lon="-2.42203">
        <ele>8</ele>
        <time>2020-02-20T10:32:06.000Z</time>
      </trkpt>
      <trkpt lat="47.30816" lon="-2.422">
        <ele>8</ele>
        <time>2020-02-20T10:32:07.000Z</time>
      </trkpt>
      <trkpt lat="47.30804" lon="-2.4219">
        <ele>8</ele>
        <time>2020-02-20T10:32:09.000Z</time>
      </trkpt>
      <trkpt lat="47.30789" lon="-2.42166">
        <ele>8</ele>
        <time>2020-02-20T10:32:12.000Z</time>
      </trkpt>
      <trkpt lat="47.30785" lon="-2.42158">
        <ele>8</ele>
        <time>2020-02-20T10:32:13.000Z</time>
      </trkpt>
      <trkpt lat="47.30756" lon="-2.42102">
        <ele>8</ele>
        <time>2020-02-20T10:32:20.000Z</time>
      </trkpt>
      <trkpt lat="47.30743" lon="-2.42077">
        <ele>8</ele>
        <time>2020-02-20T10:32:23.000Z</time>
      </trkpt>
      <trkpt lat="47.30726" lon="-2.42057">
        <ele>8</ele>
        <time>2020-02-20T10:32:26.000Z</time>
      </trkpt>
      <trkpt lat="47.30701" lon="-2.42034">
        <ele>8</ele>
        <time>2020-02-20T10:32:30.000Z</time>
      </trkpt>
      <trkpt lat="47.30696" lon="-2.42027">
        <ele>8</ele>
        <time>2020-02-20T10:32:31.000Z</time>
      </trkpt>
      <trkpt lat="47.30663" lon="-2.41984">
        <ele>8</ele>
        <time>2020-02-20T10:32:37.000Z</time>
      </trkpt>
      <trkpt lat="47.30654" lon="-2.41968">
        <ele>8</ele>
        <time>2020-02-20T10:32:39.000Z</time>
      </trkpt>
      <trkpt lat="47.30646" lon="-2.4195">
        <ele>8</ele>
        <time>2020-02-20T10:32:41.000Z</time>
      </trkpt>
      <trkpt lat="47.30643" lon="-2.4194">
        <ele>8</ele>
        <time>2020-02-20T10:32:42.000Z</time>
      </trkpt>
      <trkpt lat="47.30629" lon="-2.41889">
        <ele>8</ele>
        <time>2020-02-20T10:32:47.000Z</time>
      </trkpt>
      <trkpt lat="47.30602" lon="-2.41824">
        <ele>8</ele>
        <time>2020-02-20T10:32:55.000Z</time>
      </trkpt>
      <trkpt lat="47.30575" lon="-2.41759">
        <ele>8</ele>
        <time>2020-02-20T10:33:02.000Z</time>
      </trkpt>
      <trkpt lat="47.30547" lon="-2.4171">
        <ele>8</ele>
        <time>2020-02-20T10:33:08.000Z</time>
      </trkpt>
      <trkpt lat="47.30516" lon="-2.41666">
        <ele>8</ele>
        <time>2020-02-20T10:33:14.000Z</time>
      </trkpt>
      <trkpt lat="47.30512" lon="-2.41657">
        <ele>8</ele>
        <time>2020-02-20T10:33:15.000Z</time>
      </trkpt>
      <trkpt lat="47.30503" lon="-2.41627">
        <ele>8</ele>
        <time>2020-02-20T10:33:18.000Z</time>
      </trkpt>
      <trkpt lat="47.30499" lon="-2.41595">
        <ele>8</ele>
        <time>2020-02-20T10:33:21.000Z</time>
      </trkpt>
      <trkpt lat="47.30497" lon="-2.41574">
        <ele>8</ele>
        <time>2020-02-20T10:33:23.000Z</time>
      </trkpt>
      <trkpt lat="47.30493" lon="-2.41554">
        <ele>8</ele>
        <time>2020-02-20T10:33:25.000Z</time>
      </trkpt>
      <trkpt lat="47.30487" lon="-2.41537">
        <ele>8</ele>
        <time>2020-02-20T10:33:27.000Z</time>
      </trkpt>
      <trkpt lat="47.30481" lon="-2.41518">
        <ele>8</ele>
        <time>2020-02-20T10:33:29.000Z</time>
      </trkpt>
      <trkpt lat="47.30479" lon="-2.41508">
        <ele>8</ele>
        <time>2020-02-20T10:33:30.000Z</time>
      </trkpt>
      <trkpt lat="47.3048" lon="-2.41499">
        <ele>8</ele>
        <time>2020-02-20T10:33:31.000Z</time>
      </trkpt>
      <trkpt lat="47.3049" lon="-2.41464">
        <ele>8</ele>
        <time>2020-02-20T10:33:35.000Z</time>
      </trkpt>
      <trkpt lat="47.30493" lon="-2.41454">
        <ele>8</ele>
        <time>2020-02-20T10:33:36.000Z</time>
      </trkpt>
      <trkpt lat="47.30495" lon="-2.41432">
        <ele>8</ele>
        <time>2020-02-20T10:33:38.000Z</time>
      </trkpt>
      <trkpt lat="47.30494" lon="-2.41411">
        <ele>8</ele>
        <time>2020-02-20T10:33:40.000Z</time>
      </trkpt>
      <trkpt lat="47.30492" lon="-2.414">
        <ele>8</ele>
        <time>2020-02-20T10:33:41.000Z</time>
      </trkpt>
      <trkpt lat="47.3048" lon="-2.41336">
        <ele>8</ele>
        <time>2020-02-20T10:33:47.000Z</time>
      </trkpt>
      <trkpt lat="47.30464" lon="-2.41262">
        <ele>8</ele>
        <time>2020-02-20T10:33:54.000Z</time>
      </trkpt>
      <trkpt lat="47.30452" lon="-2.41187">
        <ele>8</ele>
        <time>2020-02-20T10:34:01.000Z</time>
      </trkpt>
      <trkpt lat="47.30447" lon="-2.41167">
        <ele>8</ele>
        <time>2020-02-20T10:34:03.000Z</time>
      </trkpt>
      <trkpt lat="47.3044" lon="-2.41154">
        <ele>8</ele>
        <time>2020-02-20T10:34:05.000Z</time>
      </trkpt>
      <trkpt lat="47.30423" lon="-2.41147">
        <ele>8</ele>
        <time>2020-02-20T10:34:08.000Z</time>
      </trkpt>
      <trkpt lat="47.30408" lon="-2.41149">
        <ele>8</ele>
        <time>2020-02-20T10:34:10.000Z</time>
      </trkpt>
      <trkpt lat="47.30391" lon="-2.41152">
        <ele>8</ele>
        <time>2020-02-20T10:34:12.000Z</time>
      </trkpt>
      <trkpt lat="47.30352" lon="-2.41145">
        <ele>8</ele>
        <time>2020-02-20T10:34:17.000Z</time>
      </trkpt>
      <trkpt lat="47.30304" lon="-2.41126">
        <ele>8</ele>
        <time>2020-02-20T10:34:24.000Z</time>
      </trkpt>
      <trkpt lat="47.30298" lon="-2.41122">
        <ele>8</ele>
        <time>2020-02-20T10:34:25.000Z</time>
      </trkpt>
      <trkpt lat="47.30283" lon="-2.41104">
        <ele>8</ele>
        <time>2020-02-20T10:34:28.000Z</time>
      </trkpt>
      <trkpt lat="47.30272" lon="-2.41074">
        <ele>8</ele>
        <time>2020-02-20T10:34:32.000Z</time>
      </trkpt>
      <trkpt lat="47.30271" lon="-2.41048">
        <ele>8</ele>
        <time>2020-02-20T10:34:35.000Z</time>
      </trkpt>
      <trkpt lat="47.3027" lon="-2.41032">
        <ele>8</ele>
        <time>2020-02-20T10:34:37.000Z</time>
      </trkpt>
      <trkpt lat="47.30269" lon="-2.41025">
        <ele>8</ele>
        <time>2020-02-20T10:34:38.000Z</time>
      </trkpt>
      <trkpt lat="47.3026" lon="-2.41007">
        <ele>8</ele>
        <time>2020-02-20T10:34:41.000Z</time>
      </trkpt>
      <trkpt lat="47.30251" lon="-2.40997">
        <ele>8</ele>
        <time>2020-02-20T10:34:43.000Z</time>
      </trkpt>
      <trkpt lat="47.30238" lon="-2.40983">
        <ele>8.3999996185303</ele>
        <time>2020-02-20T10:34:46.000Z</time>
      </trkpt>
      <trkpt lat="47.30234" lon="-2.40979">
        <ele>8.8000001907349</ele>
        <time>2020-02-20T10:34:47.000Z</time>
      </trkpt>
      <trkpt lat="47.30231" lon="-2.40975">
        <ele>9.6000003814697</ele>
        <time>2020-02-20T10:34:48.000Z</time>
      </trkpt>
      <trkpt lat="47.30228" lon="-2.4097">
        <ele>10</ele>
        <time>2020-02-20T10:34:49.000Z</time>
      </trkpt>
      <trkpt lat="47.30224" lon="-2.40957">
        <ele>10</ele>
        <time>2020-02-20T10:34:52.000Z</time>
      </trkpt>
      <trkpt lat="47.3023" lon="-2.40945">
        <ele>10</ele>
        <time>2020-02-20T10:34:56.000Z</time>
      </trkpt>
      <trkpt lat="47.30232" lon="-2.40945">
        <ele>10</ele>
        <time>2020-02-20T10:34:58.000Z</time>
      </trkpt>
      <trkpt lat="47.30232" lon="-2.40944">
        <ele>10</ele>
        <time>2020-02-20T10:34:59.000Z</time>
      </trkpt>
      <trkpt lat="47.30235" lon="-2.4094">
        <ele>10</ele>
        <time>2020-02-20T10:35:06.000Z</time>
      </trkpt>
      <trkpt lat="47.30245" lon="-2.40931">
        <ele>10</ele>
        <time>2020-02-20T10:35:10.000Z</time>
      </trkpt>
      <trkpt lat="47.30268" lon="-2.40932">
        <ele>10</ele>
        <time>2020-02-20T10:35:16.000Z</time>
      </trkpt>
      <trkpt lat="47.30282" lon="-2.40932">
        <ele>10</ele>
        <time>2020-02-20T10:35:21.000Z</time>
      </trkpt>
      <trkpt lat="47.30299" lon="-2.4093">
        <ele>10</ele>
        <time>2020-02-20T10:35:28.000Z</time>
      </trkpt>
      <trkpt lat="47.30321" lon="-2.40925">
        <ele>10</ele>
        <time>2020-02-20T10:35:34.000Z</time>
      </trkpt>
      <trkpt lat="47.30347" lon="-2.40916">
        <ele>10</ele>
        <time>2020-02-20T10:35:40.000Z</time>
      </trkpt>
      <trkpt lat="47.30352" lon="-2.40914">
        <ele>10</ele>
        <time>2020-02-20T10:35:41.000Z</time>
      </trkpt>
      <trkpt lat="47.30381" lon="-2.40904">
        <ele>10</ele>
        <time>2020-02-20T10:35:47.000Z</time>
      </trkpt>
      <trkpt lat="47.30423" lon="-2.40889">
        <ele>10</ele>
        <time>2020-02-20T10:35:54.000Z</time>
      </trkpt>
      <trkpt lat="47.30469" lon="-2.40874">
        <ele>10</ele>
        <time>2020-02-20T10:36:02.000Z</time>
      </trkpt>
      <trkpt lat="47.30501" lon="-2.40863">
        <ele>10</ele>
        <time>2020-02-20T10:36:08.000Z</time>
      </trkpt>
      <trkpt lat="47.30512" lon="-2.40858">
        <ele>10</ele>
        <time>2020-02-20T10:36:10.000Z</time>
      </trkpt>
      <trkpt lat="47.30522" lon="-2.40854">
        <ele>10</ele>
        <time>2020-02-20T10:36:12.000Z</time>
      </trkpt>
      <trkpt lat="47.30532" lon="-2.40851">
        <ele>10</ele>
        <time>2020-02-20T10:36:14.000Z</time>
      </trkpt>
      <trkpt lat="47.30552" lon="-2.40846">
        <ele>10.60000038147</ele>
        <time>2020-02-20T10:36:18.000Z</time>
      </trkpt>
      <trkpt lat="47.30556" lon="-2.40844">
        <ele>11</ele>
        <time>2020-02-20T10:36:19.000Z</time>
      </trkpt>
      <trkpt lat="47.30561" lon="-2.40843">
        <ele>11.39999961853</ele>
        <time>2020-02-20T10:36:20.000Z</time>
      </trkpt>
      <trkpt lat="47.30565" lon="-2.40842">
        <ele>11.800000190735</ele>
        <time>2020-02-20T10:36:21.000Z</time>
      </trkpt>
      <trkpt lat="47.3057" lon="-2.40841">
        <ele>12.39999961853</ele>
        <time>2020-02-20T10:36:22.000Z</time>
      </trkpt>
      <trkpt lat="47.30582" lon="-2.40839">
        <ele>12.39999961853</ele>
        <time>2020-02-20T10:36:25.000Z</time>
      </trkpt>
      <trkpt lat="47.3059" lon="-2.40838">
        <ele>12.39999961853</ele>
        <time>2020-02-20T10:36:27.000Z</time>
      </trkpt>
      <trkpt lat="47.30593" lon="-2.40837">
        <ele>12.800000190735</ele>
        <time>2020-02-20T10:36:28.000Z</time>
      </trkpt>
      <trkpt lat="47.30596" lon="-2.40834">
        <ele>13.199999809265</ele>
        <time>2020-02-20T10:36:29.000Z</time>
      </trkpt>
      <trkpt lat="47.30598" lon="-2.4083">
        <ele>13.60000038147</ele>
        <time>2020-02-20T10:36:30.000Z</time>
      </trkpt>
      <trkpt lat="47.30599" lon="-2.40826">
        <ele>14</ele>
        <time>2020-02-20T10:36:31.000Z</time>
      </trkpt>
      <trkpt lat="47.30599" lon="-2.40822">
        <ele>14.39999961853</ele>
        <time>2020-02-20T10:36:32.000Z</time>
      </trkpt>
      <trkpt lat="47.30596" lon="-2.4081">
        <ele>14.39999961853</ele>
        <time>2020-02-20T10:36:35.000Z</time>
      </trkpt>
      <trkpt lat="47.30584" lon="-2.40788">
        <ele>14.39999961853</ele>
        <time>2020-02-20T10:36:41.000Z</time>
      </trkpt>
      <trkpt lat="47.30571" lon="-2.40757">
        <ele>14.39999961853</ele>
        <time>2020-02-20T10:36:49.000Z</time>
      </trkpt>
      <trkpt lat="47.30556" lon="-2.40718">
        <ele>14.39999961853</ele>
        <time>2020-02-20T10:36:57.000Z</time>
      </trkpt>
      <trkpt lat="47.30543" lon="-2.4068">
        <ele>14.39999961853</ele>
        <time>2020-02-20T10:37:04.000Z</time>
      </trkpt>
      <trkpt lat="47.30528" lon="-2.40643">
        <ele>14</ele>
        <time>2020-02-20T10:37:11.000Z</time>
      </trkpt>
      <trkpt lat="47.30527" lon="-2.40638">
        <ele>13.60000038147</ele>
        <time>2020-02-20T10:37:12.000Z</time>
      </trkpt>
      <trkpt lat="47.30525" lon="-2.40633">
        <ele>13.199999809265</ele>
        <time>2020-02-20T10:37:13.000Z</time>
      </trkpt>
      <trkpt lat="47.30523" lon="-2.40627">
        <ele>12.800000190735</ele>
        <time>2020-02-20T10:37:14.000Z</time>
      </trkpt>
      <trkpt lat="47.30521" lon="-2.40622">
        <ele>12.39999961853</ele>
        <time>2020-02-20T10:37:15.000Z</time>
      </trkpt>
      <trkpt lat="47.30514" lon="-2.40593">
        <ele>12.39999961853</ele>
        <time>2020-02-20T10:37:20.000Z</time>
      </trkpt>
      <trkpt lat="47.30506" lon="-2.40575">
        <ele>12.39999961853</ele>
        <time>2020-02-20T10:37:23.000Z</time>
      </trkpt>
      <trkpt lat="47.30499" lon="-2.40561">
        <ele>12.39999961853</ele>
        <time>2020-02-20T10:37:25.000Z</time>
      </trkpt>
      <trkpt lat="47.30488" lon="-2.40527">
        <ele>12.39999961853</ele>
        <time>2020-02-20T10:37:30.000Z</time>
      </trkpt>
      <trkpt lat="47.30485" lon="-2.40521">
        <ele>12.39999961853</ele>
        <time>2020-02-20T10:37:31.000Z</time>
      </trkpt>
      <trkpt lat="47.30483" lon="-2.40515">
        <ele>12.39999961853</ele>
        <time>2020-02-20T10:37:32.000Z</time>
      </trkpt>
      <trkpt lat="47.30472" lon="-2.40477">
        <ele>12.39999961853</ele>
        <time>2020-02-20T10:37:38.000Z</time>
      </trkpt>
      <trkpt lat="47.30467" lon="-2.40466">
        <ele>12.39999961853</ele>
        <time>2020-02-20T10:37:40.000Z</time>
      </trkpt>
      <trkpt lat="47.3046" lon="-2.40448">
        <ele>12.39999961853</ele>
        <time>2020-02-20T10:37:43.000Z</time>
      </trkpt>
      <trkpt lat="47.30443" lon="-2.40408">
        <ele>12.800000190735</ele>
        <time>2020-02-20T10:37:50.000Z</time>
      </trkpt>
      <trkpt lat="47.3044" lon="-2.40402">
        <ele>13.39999961853</ele>
        <time>2020-02-20T10:37:51.000Z</time>
      </trkpt>
      <trkpt lat="47.30437" lon="-2.40396">
        <ele>13.800000190735</ele>
        <time>2020-02-20T10:37:52.000Z</time>
      </trkpt>
      <trkpt lat="47.30434" lon="-2.4039">
        <ele>14.199999809265</ele>
        <time>2020-02-20T10:37:53.000Z</time>
      </trkpt>
      <trkpt lat="47.30431" lon="-2.40385">
        <ele>14.60000038147</ele>
        <time>2020-02-20T10:37:54.000Z</time>
      </trkpt>
      <trkpt lat="47.30426" lon="-2.40374">
        <ele>14.60000038147</ele>
        <time>2020-02-20T10:37:56.000Z</time>
      </trkpt>
      <trkpt lat="47.30412" lon="-2.40335">
        <ele>15</ele>
        <time>2020-02-20T10:38:03.000Z</time>
      </trkpt>
      <trkpt lat="47.3041" lon="-2.4033">
        <ele>15.39999961853</ele>
        <time>2020-02-20T10:38:04.000Z</time>
      </trkpt>
      <trkpt lat="47.30408" lon="-2.40325">
        <ele>16.39999961853</ele>
        <time>2020-02-20T10:38:05.000Z</time>
      </trkpt>
      <trkpt lat="47.30405" lon="-2.40319">
        <ele>16.799999237061</ele>
        <time>2020-02-20T10:38:06.000Z</time>
      </trkpt>
      <trkpt lat="47.30393" lon="-2.40293">
        <ele>16.799999237061</ele>
        <time>2020-02-20T10:38:11.000Z</time>
      </trkpt>
      <trkpt lat="47.30373" lon="-2.40243">
        <ele>16.799999237061</ele>
        <time>2020-02-20T10:38:19.000Z</time>
      </trkpt>
      <trkpt lat="47.30359" lon="-2.40203">
        <ele>16.799999237061</ele>
        <time>2020-02-20T10:38:25.000Z</time>
      </trkpt>
      <trkpt lat="47.30351" lon="-2.40193">
        <ele>16.799999237061</ele>
        <time>2020-02-20T10:38:27.000Z</time>
      </trkpt>
      <trkpt lat="47.30343" lon="-2.40183">
        <ele>16.799999237061</ele>
        <time>2020-02-20T10:38:29.000Z</time>
      </trkpt>
      <trkpt lat="47.30335" lon="-2.40162">
        <ele>16.799999237061</ele>
        <time>2020-02-20T10:38:32.000Z</time>
      </trkpt>
      <trkpt lat="47.30333" lon="-2.40154">
        <ele>16.799999237061</ele>
        <time>2020-02-20T10:38:33.000Z</time>
      </trkpt>
      <trkpt lat="47.3032" lon="-2.40102">
        <ele>16.799999237061</ele>
        <time>2020-02-20T10:38:40.000Z</time>
      </trkpt>
      <trkpt lat="47.30299" lon="-2.40038">
        <ele>16.799999237061</ele>
        <time>2020-02-20T10:38:49.000Z</time>
      </trkpt>
      <trkpt lat="47.30283" lon="-2.39987">
        <ele>16.799999237061</ele>
        <time>2020-02-20T10:38:56.000Z</time>
      </trkpt>
      <trkpt lat="47.30269" lon="-2.39936">
        <ele>16.799999237061</ele>
        <time>2020-02-20T10:39:03.000Z</time>
      </trkpt>
      <trkpt lat="47.30256" lon="-2.39896">
        <ele>16.799999237061</ele>
        <time>2020-02-20T10:39:09.000Z</time>
      </trkpt>
      <trkpt lat="47.30237" lon="-2.39836">
        <ele>16.799999237061</ele>
        <time>2020-02-20T10:39:18.000Z</time>
      </trkpt>
      <trkpt lat="47.30217" lon="-2.39778">
        <ele>16.799999237061</ele>
        <time>2020-02-20T10:39:27.000Z</time>
      </trkpt>
      <trkpt lat="47.30209" lon="-2.39753">
        <ele>16.799999237061</ele>
        <time>2020-02-20T10:39:31.000Z</time>
      </trkpt>
      <trkpt lat="47.30205" lon="-2.3974">
        <ele>17.200000762939</ele>
        <time>2020-02-20T10:39:33.000Z</time>
      </trkpt>
      <trkpt lat="47.30203" lon="-2.39734">
        <ele>17.60000038147</ele>
        <time>2020-02-20T10:39:34.000Z</time>
      </trkpt>
      <trkpt lat="47.30201" lon="-2.39728">
        <ele>18</ele>
        <time>2020-02-20T10:39:35.000Z</time>
      </trkpt>
      <trkpt lat="47.30199" lon="-2.39722">
        <ele>18.39999961853</ele>
        <time>2020-02-20T10:39:36.000Z</time>
      </trkpt>
      <trkpt lat="47.30197" lon="-2.39716">
        <ele>18.799999237061</ele>
        <time>2020-02-20T10:39:37.000Z</time>
      </trkpt>
      <trkpt lat="47.30193" lon="-2.39704">
        <ele>18.799999237061</ele>
        <time>2020-02-20T10:39:39.000Z</time>
      </trkpt>
      <trkpt lat="47.30186" lon="-2.39685">
        <ele>18.799999237061</ele>
        <time>2020-02-20T10:39:42.000Z</time>
      </trkpt>
      <trkpt lat="47.30172" lon="-2.39676">
        <ele>18.799999237061</ele>
        <time>2020-02-20T10:39:45.000Z</time>
      </trkpt>
      <trkpt lat="47.30153" lon="-2.39673">
        <ele>18.799999237061</ele>
        <time>2020-02-20T10:39:49.000Z</time>
      </trkpt>
      <trkpt lat="47.30144" lon="-2.39671">
        <ele>18.799999237061</ele>
        <time>2020-02-20T10:39:51.000Z</time>
      </trkpt>
      <trkpt lat="47.30114" lon="-2.39664">
        <ele>18.799999237061</ele>
        <time>2020-02-20T10:39:58.000Z</time>
      </trkpt>
      <trkpt lat="47.30089" lon="-2.39659">
        <ele>18.799999237061</ele>
        <time>2020-02-20T10:40:04.000Z</time>
      </trkpt>
      <trkpt lat="47.30054" lon="-2.39652">
        <ele>18.799999237061</ele>
        <time>2020-02-20T10:40:12.000Z</time>
      </trkpt>
      <trkpt lat="47.30005" lon="-2.39639">
        <ele>18.799999237061</ele>
        <time>2020-02-20T10:40:22.000Z</time>
      </trkpt>
      <trkpt lat="47.2997" lon="-2.39635">
        <ele>18.799999237061</ele>
        <time>2020-02-20T10:40:29.000Z</time>
      </trkpt>
      <trkpt lat="47.29964" lon="-2.39636">
        <ele>18.799999237061</ele>
        <time>2020-02-20T10:40:30.000Z</time>
      </trkpt>
      <trkpt lat="47.2996" lon="-2.39635">
        <ele>18.799999237061</ele>
        <time>2020-02-20T10:40:31.000Z</time>
      </trkpt>
      <trkpt lat="47.29953" lon="-2.3963">
        <ele>18.799999237061</ele>
        <time>2020-02-20T10:40:33.000Z</time>
      </trkpt>
      <trkpt lat="47.29947" lon="-2.39618">
        <ele>18.799999237061</ele>
        <time>2020-02-20T10:40:36.000Z</time>
      </trkpt>
      <trkpt lat="47.29936" lon="-2.39618">
        <ele>18.799999237061</ele>
        <time>2020-02-20T10:40:39.000Z</time>
      </trkpt>
      <trkpt lat="47.29933" lon="-2.39618">
        <ele>18.799999237061</ele>
        <time>2020-02-20T10:40:40.000Z</time>
      </trkpt>
      <trkpt lat="47.29923" lon="-2.39616">
        <ele>18.39999961853</ele>
        <time>2020-02-20T10:40:42.000Z</time>
      </trkpt>
      <trkpt lat="47.29917" lon="-2.39615">
        <ele>18</ele>
        <time>2020-02-20T10:40:43.000Z</time>
      </trkpt>
      <trkpt lat="47.29912" lon="-2.39614">
        <ele>17.60000038147</ele>
        <time>2020-02-20T10:40:44.000Z</time>
      </trkpt>
      <trkpt lat="47.29907" lon="-2.39613">
        <ele>17.200000762939</ele>
        <time>2020-02-20T10:40:45.000Z</time>
      </trkpt>
      <trkpt lat="47.29902" lon="-2.39611">
        <ele>16.799999237061</ele>
        <time>2020-02-20T10:40:46.000Z</time>
      </trkpt>
      <trkpt lat="47.29866" lon="-2.39603">
        <ele>16.799999237061</ele>
        <time>2020-02-20T10:40:53.000Z</time>
      </trkpt>
      <trkpt lat="47.29831" lon="-2.39597">
        <ele>16.799999237061</ele>
        <time>2020-02-20T10:40:59.000Z</time>
      </trkpt>
      <trkpt lat="47.29773" lon="-2.39585">
        <ele>16.799999237061</ele>
        <time>2020-02-20T10:41:08.000Z</time>
      </trkpt>
      <trkpt lat="47.29752" lon="-2.39581">
        <ele>16.39999961853</ele>
        <time>2020-02-20T10:41:11.000Z</time>
      </trkpt>
      <trkpt lat="47.29745" lon="-2.3958">
        <ele>16</ele>
        <time>2020-02-20T10:41:12.000Z</time>
      </trkpt>
      <trkpt lat="47.29739" lon="-2.39578">
        <ele>15.60000038147</ele>
        <time>2020-02-20T10:41:13.000Z</time>
      </trkpt>
      <trkpt lat="47.29732" lon="-2.39577">
        <ele>15</ele>
        <time>2020-02-20T10:41:14.000Z</time>
      </trkpt>
      <trkpt lat="47.29725" lon="-2.39576">
        <ele>14.60000038147</ele>
        <time>2020-02-20T10:41:15.000Z</time>
      </trkpt>
      <trkpt lat="47.29705" lon="-2.39572">
        <ele>14.60000038147</ele>
        <time>2020-02-20T10:41:18.000Z</time>
      </trkpt>
      <trkpt lat="47.29656" lon="-2.39562">
        <ele>14.60000038147</ele>
        <time>2020-02-20T10:41:25.000Z</time>
      </trkpt>
      <trkpt lat="47.29601" lon="-2.39552">
        <ele>14.60000038147</ele>
        <time>2020-02-20T10:41:33.000Z</time>
      </trkpt>
      <trkpt lat="47.29577" lon="-2.39547">
        <ele>14.60000038147</ele>
        <time>2020-02-20T10:41:38.000Z</time>
      </trkpt>
      <trkpt lat="47.29545" lon="-2.39541">
        <ele>14.60000038147</ele>
        <time>2020-02-20T10:41:43.000Z</time>
      </trkpt>
      <trkpt lat="47.29521" lon="-2.39536">
        <ele>14.199999809265</ele>
        <time>2020-02-20T10:41:46.000Z</time>
      </trkpt>
      <trkpt lat="47.29513" lon="-2.39535">
        <ele>13.199999809265</ele>
        <time>2020-02-20T10:41:47.000Z</time>
      </trkpt>
      <trkpt lat="47.29505" lon="-2.39533">
        <ele>12.800000190735</ele>
        <time>2020-02-20T10:41:48.000Z</time>
      </trkpt>
      <trkpt lat="47.29497" lon="-2.39531">
        <ele>12.199999809265</ele>
        <time>2020-02-20T10:41:49.000Z</time>
      </trkpt>
      <trkpt lat="47.29488" lon="-2.3953">
        <ele>12.199999809265</ele>
        <time>2020-02-20T10:41:50.000Z</time>
      </trkpt>
      <trkpt lat="47.29472" lon="-2.39527">
        <ele>11.800000190735</ele>
        <time>2020-02-20T10:41:52.000Z</time>
      </trkpt>
      <trkpt lat="47.29463" lon="-2.39525">
        <ele>11.39999961853</ele>
        <time>2020-02-20T10:41:53.000Z</time>
      </trkpt>
      <trkpt lat="47.29456" lon="-2.39524">
        <ele>11</ele>
        <time>2020-02-20T10:41:54.000Z</time>
      </trkpt>
      <trkpt lat="47.29448" lon="-2.39522">
        <ele>10.60000038147</ele>
        <time>2020-02-20T10:41:55.000Z</time>
      </trkpt>
      <trkpt lat="47.2944" lon="-2.3952">
        <ele>10.199999809265</ele>
        <time>2020-02-20T10:41:56.000Z</time>
      </trkpt>
      <trkpt lat="47.29425" lon="-2.39518">
        <ele>10.199999809265</ele>
        <time>2020-02-20T10:41:58.000Z</time>
      </trkpt>
      <trkpt lat="47.29379" lon="-2.3951">
        <ele>10.199999809265</ele>
        <time>2020-02-20T10:42:05.000Z</time>
      </trkpt>
      <trkpt lat="47.2936" lon="-2.39506">
        <ele>9.8000001907349</ele>
        <time>2020-02-20T10:42:08.000Z</time>
      </trkpt>
      <trkpt lat="47.29354" lon="-2.39504">
        <ele>9.3999996185303</ele>
        <time>2020-02-20T10:42:09.000Z</time>
      </trkpt>
      <trkpt lat="47.29348" lon="-2.39502">
        <ele>9</ele>
        <time>2020-02-20T10:42:10.000Z</time>
      </trkpt>
      <trkpt lat="47.29342" lon="-2.39501">
        <ele>8.6000003814697</ele>
        <time>2020-02-20T10:42:11.000Z</time>
      </trkpt>
      <trkpt lat="47.29336" lon="-2.395">
        <ele>8</ele>
        <time>2020-02-20T10:42:12.000Z</time>
      </trkpt>
      <trkpt lat="47.29291" lon="-2.39492">
        <ele>8</ele>
        <time>2020-02-20T10:42:20.000Z</time>
      </trkpt>
      <trkpt lat="47.29259" lon="-2.39485">
        <ele>8</ele>
        <time>2020-02-20T10:42:26.000Z</time>
      </trkpt>
      <trkpt lat="47.29212" lon="-2.39477">
        <ele>8</ele>
        <time>2020-02-20T10:42:35.000Z</time>
      </trkpt>
      <trkpt lat="47.29176" lon="-2.39473">
        <ele>8</ele>
        <time>2020-02-20T10:42:42.000Z</time>
      </trkpt>
      <trkpt lat="47.29155" lon="-2.3947">
        <ele>8</ele>
        <time>2020-02-20T10:42:47.000Z</time>
      </trkpt>
      <trkpt lat="47.29145" lon="-2.39468">
        <ele>8</ele>
        <time>2020-02-20T10:42:53.000Z</time>
      </trkpt>
      <trkpt lat="47.2914" lon="-2.39467">
        <ele>8</ele>
        <time>2020-02-20T10:42:59.000Z</time>
      </trkpt>
      <trkpt lat="47.29138" lon="-2.39463">
        <ele>8</ele>
        <time>2020-02-20T10:43:30.000Z</time>
      </trkpt>
      <trkpt lat="47.29136" lon="-2.39454">
        <ele>8</ele>
        <time>2020-02-20T10:43:32.000Z</time>
      </trkpt>
      <trkpt lat="47.29136" lon="-2.3944">
        <ele>8</ele>
        <time>2020-02-20T10:43:34.000Z</time>
      </trkpt>
      <trkpt lat="47.29136" lon="-2.39425">
        <ele>8</ele>
        <time>2020-02-20T10:43:36.000Z</time>
      </trkpt>
      <trkpt lat="47.29134" lon="-2.3938">
        <ele>8</ele>
        <time>2020-02-20T10:43:42.000Z</time>
      </trkpt>
      <trkpt lat="47.29132" lon="-2.39375">
        <ele>8</ele>
        <time>2020-02-20T10:43:43.000Z</time>
      </trkpt>
      <trkpt lat="47.29119" lon="-2.39373">
        <ele>8</ele>
        <time>2020-02-20T10:43:46.000Z</time>
      </trkpt>
      <trkpt lat="47.29106" lon="-2.39381">
        <ele>8</ele>
        <time>2020-02-20T10:43:49.000Z</time>
      </trkpt>
      <trkpt lat="47.29103" lon="-2.39383">
        <ele>8</ele>
        <time>2020-02-20T10:43:50.000Z</time>
      </trkpt>
      <trkpt lat="47.29095" lon="-2.39383">
        <ele>8</ele>
        <time>2020-02-20T10:43:52.000Z</time>
      </trkpt>
      <trkpt lat="47.2909" lon="-2.39379">
        <ele>8</ele>
        <time>2020-02-20T10:43:53.000Z</time>
      </trkpt>
      <trkpt lat="47.29087" lon="-2.39375">
        <ele>8.6000003814697</ele>
        <time>2020-02-20T10:43:54.000Z</time>
      </trkpt>
      <trkpt lat="47.29083" lon="-2.39369">
        <ele>9</ele>
        <time>2020-02-20T10:43:55.000Z</time>
      </trkpt>
      <trkpt lat="47.29078" lon="-2.39364">
        <ele>9.3999996185303</ele>
        <time>2020-02-20T10:43:56.000Z</time>
      </trkpt>
      <trkpt lat="47.29073" lon="-2.3936">
        <ele>9.8000001907349</ele>
        <time>2020-02-20T10:43:57.000Z</time>
      </trkpt>
      <trkpt lat="47.29067" lon="-2.39356">
        <ele>10.199999809265</ele>
        <time>2020-02-20T10:43:58.000Z</time>
      </trkpt>
      <trkpt lat="47.29054" lon="-2.39348">
        <ele>10.199999809265</ele>
        <time>2020-02-20T10:44:00.000Z</time>
      </trkpt>
      <trkpt lat="47.2904" lon="-2.39341">
        <ele>10.199999809265</ele>
        <time>2020-02-20T10:44:02.000Z</time>
      </trkpt>
      <trkpt lat="47.29026" lon="-2.39334">
        <ele>9.8000001907349</ele>
        <time>2020-02-20T10:44:04.000Z</time>
      </trkpt>
      <trkpt lat="47.2902" lon="-2.39331">
        <ele>9.3999996185303</ele>
        <time>2020-02-20T10:44:05.000Z</time>
      </trkpt>
      <trkpt lat="47.29014" lon="-2.3933">
        <ele>9</ele>
        <time>2020-02-20T10:44:06.000Z</time>
      </trkpt>
      <trkpt lat="47.29008" lon="-2.39327">
        <ele>8.6000003814697</ele>
        <time>2020-02-20T10:44:07.000Z</time>
      </trkpt>
      <trkpt lat="47.29002" lon="-2.39324">
        <ele>8.1999998092651</ele>
        <time>2020-02-20T10:44:08.000Z</time>
      </trkpt>
      <trkpt lat="47.28976" lon="-2.39317">
        <ele>8.1999998092651</ele>
        <time>2020-02-20T10:44:13.000Z</time>
      </trkpt>
      <trkpt lat="47.28972" lon="-2.39315">
        <ele>8.1999998092651</ele>
        <time>2020-02-20T10:44:14.000Z</time>
      </trkpt>
      <trkpt lat="47.28956" lon="-2.39311">
        <ele>8.1999998092651</ele>
        <time>2020-02-20T10:44:18.000Z</time>
      </trkpt>
      <trkpt lat="47.28946" lon="-2.39303">
        <ele>8.1999998092651</ele>
        <time>2020-02-20T10:44:21.000Z</time>
      </trkpt>
      <trkpt lat="47.28939" lon="-2.39293">
        <ele>8.1999998092651</ele>
        <time>2020-02-20T10:44:23.000Z</time>
      </trkpt>
      <trkpt lat="47.28932" lon="-2.39261">
        <ele>8.1999998092651</ele>
        <time>2020-02-20T10:44:27.000Z</time>
      </trkpt>
      <trkpt lat="47.28932" lon="-2.39253">
        <ele>8.1999998092651</ele>
        <time>2020-02-20T10:44:28.000Z</time>
      </trkpt>
      <trkpt lat="47.28931" lon="-2.39209">
        <ele>8.1999998092651</ele>
        <time>2020-02-20T10:44:33.000Z</time>
      </trkpt>
      <trkpt lat="47.28934" lon="-2.39147">
        <ele>8.1999998092651</ele>
        <time>2020-02-20T10:44:40.000Z</time>
      </trkpt>
      <trkpt lat="47.28945" lon="-2.39066">
        <ele>8.1999998092651</ele>
        <time>2020-02-20T10:44:49.000Z</time>
      </trkpt>
      <trkpt lat="47.28947" lon="-2.39057">
        <ele>8.1999998092651</ele>
        <time>2020-02-20T10:44:50.000Z</time>
      </trkpt>
      <trkpt lat="47.28948" lon="-2.39048">
        <ele>8.1999998092651</ele>
        <time>2020-02-20T10:44:51.000Z</time>
      </trkpt>
      <trkpt lat="47.2895" lon="-2.39">
        <ele>8.1999998092651</ele>
        <time>2020-02-20T10:44:56.000Z</time>
      </trkpt>
      <trkpt lat="47.28954" lon="-2.38922">
        <ele>8.1999998092651</ele>
        <time>2020-02-20T10:45:04.000Z</time>
      </trkpt>
      <trkpt lat="47.2896" lon="-2.38846">
        <ele>8.1999998092651</ele>
        <time>2020-02-20T10:45:12.000Z</time>
      </trkpt>
      <trkpt lat="47.28961" lon="-2.38789">
        <ele>8.1999998092651</ele>
        <time>2020-02-20T10:45:18.000Z</time>
      </trkpt>
      <trkpt lat="47.28959" lon="-2.38726">
        <ele>8.6000003814697</ele>
        <time>2020-02-20T10:45:25.000Z</time>
      </trkpt>
      <trkpt lat="47.28958" lon="-2.38718">
        <ele>9</ele>
        <time>2020-02-20T10:45:26.000Z</time>
      </trkpt>
      <trkpt lat="47.28958" lon="-2.38708">
        <ele>9.3999996185303</ele>
        <time>2020-02-20T10:45:27.000Z</time>
      </trkpt>
      <trkpt lat="47.28958" lon="-2.38699">
        <ele>9.8000001907349</ele>
        <time>2020-02-20T10:45:28.000Z</time>
      </trkpt>
      <trkpt lat="47.28958" lon="-2.3869">
        <ele>10.199999809265</ele>
        <time>2020-02-20T10:45:29.000Z</time>
      </trkpt>
      <trkpt lat="47.28958" lon="-2.38661">
        <ele>10.199999809265</ele>
        <time>2020-02-20T10:45:32.000Z</time>
      </trkpt>
      <trkpt lat="47.28956" lon="-2.38583">
        <ele>10.199999809265</ele>
        <time>2020-02-20T10:45:40.000Z</time>
      </trkpt>
      <trkpt lat="47.2895" lon="-2.38517">
        <ele>10.199999809265</ele>
        <time>2020-02-20T10:45:47.000Z</time>
      </trkpt>
      <trkpt lat="47.28943" lon="-2.38445">
        <ele>10.199999809265</ele>
        <time>2020-02-20T10:45:55.000Z</time>
      </trkpt>
      <trkpt lat="47.28938" lon="-2.38362">
        <ele>10.199999809265</ele>
        <time>2020-02-20T10:46:04.000Z</time>
      </trkpt>
      <trkpt lat="47.28936" lon="-2.38292">
        <ele>10.199999809265</ele>
        <time>2020-02-20T10:46:12.000Z</time>
      </trkpt>
      <trkpt lat="47.28939" lon="-2.38259">
        <ele>9.8000001907349</ele>
        <time>2020-02-20T10:46:16.000Z</time>
      </trkpt>
      <trkpt lat="47.28939" lon="-2.38251">
        <ele>9.3999996185303</ele>
        <time>2020-02-20T10:46:17.000Z</time>
      </trkpt>
      <trkpt lat="47.28939" lon="-2.38243">
        <ele>8.6000003814697</ele>
        <time>2020-02-20T10:46:18.000Z</time>
      </trkpt>
      <trkpt lat="47.28939" lon="-2.38236">
        <ele>8.1999998092651</ele>
        <time>2020-02-20T10:46:19.000Z</time>
      </trkpt>
      <trkpt lat="47.28935" lon="-2.38225">
        <ele>8.1999998092651</ele>
        <time>2020-02-20T10:46:21.000Z</time>
      </trkpt>
      <trkpt lat="47.28932" lon="-2.38221">
        <ele>8.1999998092651</ele>
        <time>2020-02-20T10:46:22.000Z</time>
      </trkpt>
      <trkpt lat="47.2892" lon="-2.3821">
        <ele>8.1999998092651</ele>
        <time>2020-02-20T10:46:25.000Z</time>
      </trkpt>
      <trkpt lat="47.28915" lon="-2.38207">
        <ele>8.1999998092651</ele>
        <time>2020-02-20T10:46:26.000Z</time>
      </trkpt>
      <trkpt lat="47.28908" lon="-2.38199">
        <ele>8.1999998092651</ele>
        <time>2020-02-20T10:46:28.000Z</time>
      </trkpt>
      <trkpt lat="47.28904" lon="-2.38186">
        <ele>8.1999998092651</ele>
        <time>2020-02-20T10:46:30.000Z</time>
      </trkpt>
      <trkpt lat="47.28906" lon="-2.38161">
        <ele>8.1999998092651</ele>
        <time>2020-02-20T10:46:33.000Z</time>
      </trkpt>
      <trkpt lat="47.28906" lon="-2.38152">
        <ele>8.1999998092651</ele>
        <time>2020-02-20T10:46:34.000Z</time>
      </trkpt>
      <trkpt lat="47.28908" lon="-2.38111">
        <ele>8.1999998092651</ele>
        <time>2020-02-20T10:46:39.000Z</time>
      </trkpt>
      <trkpt lat="47.2891" lon="-2.38052">
        <ele>8.1999998092651</ele>
        <time>2020-02-20T10:46:46.000Z</time>
      </trkpt>
      <trkpt lat="47.28912" lon="-2.37992">
        <ele>8.1999998092651</ele>
        <time>2020-02-20T10:46:53.000Z</time>
      </trkpt>
      <trkpt lat="47.28917" lon="-2.37913">
        <ele>8.1999998092651</ele>
        <time>2020-02-20T10:47:02.000Z</time>
      </trkpt>
      <trkpt lat="47.28924" lon="-2.37834">
        <ele>8.1999998092651</ele>
        <time>2020-02-20T10:47:11.000Z</time>
      </trkpt>
      <trkpt lat="47.28927" lon="-2.37787">
        <ele>8.1999998092651</ele>
        <time>2020-02-20T10:47:16.000Z</time>
      </trkpt>
      <trkpt lat="47.28928" lon="-2.37769">
        <ele>8.1999998092651</ele>
        <time>2020-02-20T10:47:18.000Z</time>
      </trkpt>
      <trkpt lat="47.28933" lon="-2.37715">
        <ele>8.1999998092651</ele>
        <time>2020-02-20T10:47:25.000Z</time>
      </trkpt>
      <trkpt lat="47.28938" lon="-2.37663">
        <ele>8.1999998092651</ele>
        <time>2020-02-20T10:47:32.000Z</time>
      </trkpt>
      <trkpt lat="47.28939" lon="-2.37641">
        <ele>8.6000003814697</ele>
        <time>2020-02-20T10:47:35.000Z</time>
      </trkpt>
      <trkpt lat="47.2894" lon="-2.37634">
        <ele>9</ele>
        <time>2020-02-20T10:47:36.000Z</time>
      </trkpt>
      <trkpt lat="47.28942" lon="-2.37626">
        <ele>9.3999996185303</ele>
        <time>2020-02-20T10:47:37.000Z</time>
      </trkpt>
      <trkpt lat="47.28942" lon="-2.37618">
        <ele>9.8000001907349</ele>
        <time>2020-02-20T10:47:38.000Z</time>
      </trkpt>
      <trkpt lat="47.28942" lon="-2.3761">
        <ele>10.199999809265</ele>
        <time>2020-02-20T10:47:39.000Z</time>
      </trkpt>
      <trkpt lat="47.28942" lon="-2.37601">
        <ele>10.199999809265</ele>
        <time>2020-02-20T10:47:40.000Z</time>
      </trkpt>
      <trkpt lat="47.28942" lon="-2.37593">
        <ele>10.199999809265</ele>
        <time>2020-02-20T10:47:41.000Z</time>
      </trkpt>
      <trkpt lat="47.28946" lon="-2.37538">
        <ele>10.199999809265</ele>
        <time>2020-02-20T10:47:48.000Z</time>
      </trkpt>
      <trkpt lat="47.28949" lon="-2.37481">
        <ele>10.199999809265</ele>
        <time>2020-02-20T10:47:55.000Z</time>
      </trkpt>
      <trkpt lat="47.28952" lon="-2.37434">
        <ele>10.199999809265</ele>
        <time>2020-02-20T10:48:02.000Z</time>
      </trkpt>
      <trkpt lat="47.28949" lon="-2.37421">
        <ele>10.199999809265</ele>
        <time>2020-02-20T10:48:05.000Z</time>
      </trkpt>
      <trkpt lat="47.28947" lon="-2.3742">
        <ele>10.199999809265</ele>
        <time>2020-02-20T10:48:06.000Z</time>
      </trkpt>
      <trkpt lat="47.2894" lon="-2.37417">
        <ele>10.199999809265</ele>
        <time>2020-02-20T10:48:11.000Z</time>
      </trkpt>
      <trkpt lat="47.28939" lon="-2.37401">
        <ele>10.199999809265</ele>
        <time>2020-02-20T10:48:15.000Z</time>
      </trkpt>
      <trkpt lat="47.28943" lon="-2.37387">
        <ele>10.199999809265</ele>
        <time>2020-02-20T10:48:18.000Z</time>
      </trkpt>
      <trkpt lat="47.28945" lon="-2.37375">
        <ele>10.199999809265</ele>
        <time>2020-02-20T10:48:20.000Z</time>
      </trkpt>
      <trkpt lat="47.28946" lon="-2.3737">
        <ele>11</ele>
        <time>2020-02-20T10:48:21.000Z</time>
      </trkpt>
      <trkpt lat="47.28947" lon="-2.37364">
        <ele>11.60000038147</ele>
        <time>2020-02-20T10:48:22.000Z</time>
      </trkpt>
      <trkpt lat="47.28948" lon="-2.37358">
        <ele>12</ele>
        <time>2020-02-20T10:48:23.000Z</time>
      </trkpt>
      <trkpt lat="47.28949" lon="-2.37352">
        <ele>12.39999961853</ele>
        <time>2020-02-20T10:48:24.000Z</time>
      </trkpt>
      <trkpt lat="47.28953" lon="-2.37334">
        <ele>12.39999961853</ele>
        <time>2020-02-20T10:48:27.000Z</time>
      </trkpt>
      <trkpt lat="47.28959" lon="-2.37285">
        <ele>12.39999961853</ele>
        <time>2020-02-20T10:48:35.000Z</time>
      </trkpt>
      <trkpt lat="47.28961" lon="-2.3725">
        <ele>12.800000190735</ele>
        <time>2020-02-20T10:48:41.000Z</time>
      </trkpt>
      <trkpt lat="47.28961" lon="-2.37243">
        <ele>13.199999809265</ele>
        <time>2020-02-20T10:48:42.000Z</time>
      </trkpt>
      <trkpt lat="47.28961" lon="-2.37238">
        <ele>13.60000038147</ele>
        <time>2020-02-20T10:48:43.000Z</time>
      </trkpt>
      <trkpt lat="47.28961" lon="-2.37233">
        <ele>14</ele>
        <time>2020-02-20T10:48:44.000Z</time>
      </trkpt>
      <trkpt lat="47.28961" lon="-2.37228">
        <ele>14.39999961853</ele>
        <time>2020-02-20T10:48:45.000Z</time>
      </trkpt>
      <trkpt lat="47.28961" lon="-2.37223">
        <ele>14.39999961853</ele>
        <time>2020-02-20T10:48:46.000Z</time>
      </trkpt>
      <trkpt lat="47.28959" lon="-2.37204">
        <ele>14.39999961853</ele>
        <time>2020-02-20T10:48:51.000Z</time>
      </trkpt>
      <trkpt lat="47.28958" lon="-2.37203">
        <ele>14.39999961853</ele>
        <time>2020-02-20T10:48:52.000Z</time>
      </trkpt>
      <trkpt lat="47.28952" lon="-2.37202">
        <ele>14.39999961853</ele>
        <time>2020-02-20T10:48:55.000Z</time>
      </trkpt>
      <trkpt lat="47.28946" lon="-2.37205">
        <ele>14.39999961853</ele>
        <time>2020-02-20T10:48:57.000Z</time>
      </trkpt>
      <trkpt lat="47.28936" lon="-2.37209">
        <ele>14.39999961853</ele>
        <time>2020-02-20T10:49:01.000Z</time>
      </trkpt>
      <trkpt lat="47.28919" lon="-2.37217">
        <ele>14.39999961853</ele>
        <time>2020-02-20T10:49:06.000Z</time>
      </trkpt>
      <trkpt lat="47.28891" lon="-2.3723">
        <ele>14.39999961853</ele>
        <time>2020-02-20T10:49:13.000Z</time>
      </trkpt>
      <trkpt lat="47.28863" lon="-2.37241">
        <ele>14.39999961853</ele>
        <time>2020-02-20T10:49:20.000Z</time>
      </trkpt>
      <trkpt lat="47.28855" lon="-2.37248">
        <ele>14.39999961853</ele>
        <time>2020-02-20T10:49:24.000Z</time>
      </trkpt>
      <trkpt lat="47.2885" lon="-2.3725">
        <ele>14</ele>
        <time>2020-02-20T10:49:27.000Z</time>
      </trkpt>
      <trkpt lat="47.28849" lon="-2.37249">
        <ele>13.60000038147</ele>
        <time>2020-02-20T10:49:28.000Z</time>
      </trkpt>
      <trkpt lat="47.28848" lon="-2.37249">
        <ele>13.199999809265</ele>
        <time>2020-02-20T10:49:29.000Z</time>
      </trkpt>
      <trkpt lat="47.28848" lon="-2.37248">
        <ele>12.800000190735</ele>
        <time>2020-02-20T10:49:30.000Z</time>
      </trkpt>
      <trkpt lat="47.28847" lon="-2.37247">
        <ele>12.39999961853</ele>
        <time>2020-02-20T10:49:31.000Z</time>
      </trkpt>
      <trkpt lat="47.28847" lon="-2.37247">
        <ele>12.39999961853</ele>
        <time>2020-02-20T10:49:34.000Z</time>
      </trkpt>
      <trkpt lat="47.28845" lon="-2.37241">
        <ele>12.39999961853</ele>
        <time>2020-02-20T10:51:16.000Z</time>
      </trkpt>
      <trkpt lat="47.28844" lon="-2.37235">
        <ele>12.39999961853</ele>
        <time>2020-02-20T10:51:18.000Z</time>
      </trkpt>
      <trkpt lat="47.28841" lon="-2.37214">
        <ele>12.39999961853</ele>
        <time>2020-02-20T10:51:23.000Z</time>
      </trkpt>
      <trkpt lat="47.28839" lon="-2.37196">
        <ele>12.39999961853</ele>
        <time>2020-02-20T10:51:26.000Z</time>
      </trkpt>
      <trkpt lat="47.28837" lon="-2.37183">
        <ele>12.39999961853</ele>
        <time>2020-02-20T10:51:28.000Z</time>
      </trkpt>
      <trkpt lat="47.28831" lon="-2.37149">
        <ele>12.39999961853</ele>
        <time>2020-02-20T10:51:34.000Z</time>
      </trkpt>
      <trkpt lat="47.2883" lon="-2.37145">
        <ele>12.800000190735</ele>
        <time>2020-02-20T10:51:35.000Z</time>
      </trkpt>
      <trkpt lat="47.2883" lon="-2.3714">
        <ele>13.199999809265</ele>
        <time>2020-02-20T10:51:36.000Z</time>
      </trkpt>
      <trkpt lat="47.28829" lon="-2.37136">
        <ele>13.60000038147</ele>
        <time>2020-02-20T10:51:37.000Z</time>
      </trkpt>
      <trkpt lat="47.28828" lon="-2.37133">
        <ele>14.39999961853</ele>
        <time>2020-02-20T10:51:38.000Z</time>
      </trkpt>
      <trkpt lat="47.28827" lon="-2.3713">
        <ele>14.39999961853</ele>
        <time>2020-02-20T10:51:39.000Z</time>
      </trkpt>
      <trkpt lat="47.28827" lon="-2.37119">
        <ele>14.39999961853</ele>
        <time>2020-02-20T10:51:45.000Z</time>
      </trkpt>
      <trkpt lat="47.28827" lon="-2.37117">
        <ele>14.39999961853</ele>
        <time>2020-02-20T10:51:46.000Z</time>
      </trkpt>
      <trkpt lat="47.28824" lon="-2.37115">
        <ele>14.39999961853</ele>
        <time>2020-02-20T10:51:49.000Z</time>
      </trkpt>
      <trkpt lat="47.28822" lon="-2.37117">
        <ele>14.39999961853</ele>
        <time>2020-02-20T10:51:50.000Z</time>
      </trkpt>
      <trkpt lat="47.28819" lon="-2.3712">
        <ele>14.800000190735</ele>
        <time>2020-02-20T10:51:53.000Z</time>
      </trkpt>
      <trkpt lat="47.28818" lon="-2.3712">
        <ele>15.39999961853</ele>
        <time>2020-02-20T10:51:54.000Z</time>
      </trkpt>
      <trkpt lat="47.28816" lon="-2.37121">
        <ele>15.800000190735</ele>
        <time>2020-02-20T10:51:55.000Z</time>
      </trkpt>
      <trkpt lat="47.28815" lon="-2.37121">
        <ele>16.200000762939</ele>
        <time>2020-02-20T10:51:56.000Z</time>
      </trkpt>
      <trkpt lat="47.28813" lon="-2.37121">
        <ele>16.799999237061</ele>
        <time>2020-02-20T10:51:57.000Z</time>
      </trkpt>
      <trkpt lat="47.28811" lon="-2.3712">
        <ele>16.799999237061</ele>
        <time>2020-02-20T10:51:58.000Z</time>
      </trkpt>
      <trkpt lat="47.28809" lon="-2.37119">
        <ele>17.200000762939</ele>
        <time>2020-02-20T10:51:59.000Z</time>
      </trkpt>
      <trkpt lat="47.28807" lon="-2.37119">
        <ele>17.60000038147</ele>
        <time>2020-02-20T10:52:00.000Z</time>
      </trkpt>
      <trkpt lat="47.28806" lon="-2.37119">
        <ele>18</ele>
        <time>2020-02-20T10:52:01.000Z</time>
      </trkpt>
      <trkpt lat="47.28806" lon="-2.37119">
        <ele>18.39999961853</ele>
        <time>2020-02-20T10:52:02.000Z</time>
      </trkpt>
      <trkpt lat="47.28805" lon="-2.37118">
        <ele>18.799999237061</ele>
        <time>2020-02-20T10:52:03.000Z</time>
      </trkpt>
      <trkpt lat="47.28804" lon="-2.37116">
        <ele>18.799999237061</ele>
        <time>2020-02-20T10:52:04.000Z</time>
      </trkpt>
      <trkpt lat="47.288" lon="-2.37108">
        <ele>18.799999237061</ele>
        <time>2020-02-20T10:52:07.000Z</time>
      </trkpt>
      <trkpt lat="47.28795" lon="-2.37098">
        <ele>19.200000762939</ele>
        <time>2020-02-20T10:52:11.000Z</time>
      </trkpt>
      <trkpt lat="47.28794" lon="-2.37095">
        <ele>19.60000038147</ele>
        <time>2020-02-20T10:52:12.000Z</time>
      </trkpt>
      <trkpt lat="47.28793" lon="-2.37092">
        <ele>20.200000762939</ele>
        <time>2020-02-20T10:52:13.000Z</time>
      </trkpt>
      <trkpt lat="47.28792" lon="-2.37088">
        <ele>20.60000038147</ele>
        <time>2020-02-20T10:52:14.000Z</time>
      </trkpt>
      <trkpt lat="47.28792" lon="-2.37084">
        <ele>21</ele>
        <time>2020-02-20T10:52:15.000Z</time>
      </trkpt>
      <trkpt lat="47.2879" lon="-2.37076">
        <ele>21.39999961853</ele>
        <time>2020-02-20T10:52:17.000Z</time>
      </trkpt>
      <trkpt lat="47.28789" lon="-2.37073">
        <ele>21.799999237061</ele>
        <time>2020-02-20T10:52:18.000Z</time>
      </trkpt>
      <trkpt lat="47.28787" lon="-2.37071">
        <ele>22.200000762939</ele>
        <time>2020-02-20T10:52:19.000Z</time>
      </trkpt>
      <trkpt lat="47.28786" lon="-2.37068">
        <ele>22.799999237061</ele>
        <time>2020-02-20T10:52:20.000Z</time>
      </trkpt>
      <trkpt lat="47.28785" lon="-2.37065">
        <ele>23.200000762939</ele>
        <time>2020-02-20T10:52:21.000Z</time>
      </trkpt>
      <trkpt lat="47.28777" lon="-2.37048">
        <ele>23.60000038147</ele>
        <time>2020-02-20T10:52:26.000Z</time>
      </trkpt>
      <trkpt lat="47.28775" lon="-2.37044">
        <ele>24.39999961853</ele>
        <time>2020-02-20T10:52:27.000Z</time>
      </trkpt>
      <trkpt lat="47.28773" lon="-2.3704">
        <ele>24.799999237061</ele>
        <time>2020-02-20T10:52:28.000Z</time>
      </trkpt>
      <trkpt lat="47.28773" lon="-2.37037">
        <ele>25.200000762939</ele>
        <time>2020-02-20T10:52:29.000Z</time>
      </trkpt>
      <trkpt lat="47.28769" lon="-2.37026">
        <ele>25.200000762939</ele>
        <time>2020-02-20T10:52:32.000Z</time>
      </trkpt>
      <trkpt lat="47.28761" lon="-2.37009">
        <ele>25.200000762939</ele>
        <time>2020-02-20T10:52:38.000Z</time>
      </trkpt>
      <trkpt lat="47.28756" lon="-2.36983">
        <ele>25.200000762939</ele>
        <time>2020-02-20T10:52:44.000Z</time>
      </trkpt>
      <trkpt lat="47.28751" lon="-2.3695">
        <ele>24.799999237061</ele>
        <time>2020-02-20T10:52:49.000Z</time>
      </trkpt>
      <trkpt lat="47.28751" lon="-2.36943">
        <ele>24.200000762939</ele>
        <time>2020-02-20T10:52:50.000Z</time>
      </trkpt>
      <trkpt lat="47.2875" lon="-2.36937">
        <ele>23.799999237061</ele>
        <time>2020-02-20T10:52:51.000Z</time>
      </trkpt>
      <trkpt lat="47.28749" lon="-2.3693">
        <ele>22.799999237061</ele>
        <time>2020-02-20T10:52:52.000Z</time>
      </trkpt>
      <trkpt lat="47.28746" lon="-2.36923">
        <ele>22.39999961853</ele>
        <time>2020-02-20T10:52:53.000Z</time>
      </trkpt>
      <trkpt lat="47.28742" lon="-2.36917">
        <ele>21.799999237061</ele>
        <time>2020-02-20T10:52:54.000Z</time>
      </trkpt>
      <trkpt lat="47.28738" lon="-2.36911">
        <ele>21.39999961853</ele>
        <time>2020-02-20T10:52:55.000Z</time>
      </trkpt>
      <trkpt lat="47.28735" lon="-2.36905">
        <ele>20.799999237061</ele>
        <time>2020-02-20T10:52:56.000Z</time>
      </trkpt>
      <trkpt lat="47.28729" lon="-2.36894">
        <ele>21.200000762939</ele>
        <time>2020-02-20T10:52:58.000Z</time>
      </trkpt>
      <trkpt lat="47.28726" lon="-2.36889">
        <ele>21.60000038147</ele>
        <time>2020-02-20T10:52:59.000Z</time>
      </trkpt>
      <trkpt lat="47.28723" lon="-2.36885">
        <ele>22.200000762939</ele>
        <time>2020-02-20T10:53:00.000Z</time>
      </trkpt>
      <trkpt lat="47.28721" lon="-2.36881">
        <ele>22.60000038147</ele>
        <time>2020-02-20T10:53:01.000Z</time>
      </trkpt>
      <trkpt lat="47.28717" lon="-2.36876">
        <ele>23</ele>
        <time>2020-02-20T10:53:02.000Z</time>
      </trkpt>
      <trkpt lat="47.28708" lon="-2.36862">
        <ele>23</ele>
        <time>2020-02-20T10:53:05.000Z</time>
      </trkpt>
      <trkpt lat="47.28707" lon="-2.36857">
        <ele>23.39999961853</ele>
        <time>2020-02-20T10:53:06.000Z</time>
      </trkpt>
      <trkpt lat="47.28705" lon="-2.36853">
        <ele>23.799999237061</ele>
        <time>2020-02-20T10:53:07.000Z</time>
      </trkpt>
      <trkpt lat="47.28704" lon="-2.3685">
        <ele>24.200000762939</ele>
        <time>2020-02-20T10:53:08.000Z</time>
      </trkpt>
      <trkpt lat="47.28702" lon="-2.36846">
        <ele>24.60000038147</ele>
        <time>2020-02-20T10:53:09.000Z</time>
      </trkpt>
      <trkpt lat="47.287" lon="-2.36841">
        <ele>25</ele>
        <time>2020-02-20T10:53:10.000Z</time>
      </trkpt>
      <trkpt lat="47.28691" lon="-2.36826">
        <ele>25</ele>
        <time>2020-02-20T10:53:14.000Z</time>
      </trkpt>
      <trkpt lat="47.28687" lon="-2.36817">
        <ele>25.39999961853</ele>
        <time>2020-02-20T10:53:17.000Z</time>
      </trkpt>
      <trkpt lat="47.28685" lon="-2.36816">
        <ele>26</ele>
        <time>2020-02-20T10:53:18.000Z</time>
      </trkpt>
      <trkpt lat="47.28683" lon="-2.36813">
        <ele>26.39999961853</ele>
        <time>2020-02-20T10:53:19.000Z</time>
      </trkpt>
      <trkpt lat="47.28681" lon="-2.36811">
        <ele>26.799999237061</ele>
        <time>2020-02-20T10:53:20.000Z</time>
      </trkpt>
      <trkpt lat="47.28678" lon="-2.36808">
        <ele>27.200000762939</ele>
        <time>2020-02-20T10:53:21.000Z</time>
      </trkpt>
      <trkpt lat="47.28669" lon="-2.36799">
        <ele>27.200000762939</ele>
        <time>2020-02-20T10:53:24.000Z</time>
      </trkpt>
      <trkpt lat="47.2866" lon="-2.36803">
        <ele>27.200000762939</ele>
        <time>2020-02-20T10:53:27.000Z</time>
      </trkpt>
      <trkpt lat="47.28646" lon="-2.36815">
        <ele>27.200000762939</ele>
        <time>2020-02-20T10:53:30.000Z</time>
      </trkpt>
      <trkpt lat="47.28641" lon="-2.3682">
        <ele>27.200000762939</ele>
        <time>2020-02-20T10:53:31.000Z</time>
      </trkpt>
      <trkpt lat="47.2862" lon="-2.36841">
        <ele>27.200000762939</ele>
        <time>2020-02-20T10:53:35.000Z</time>
      </trkpt>
      <trkpt lat="47.28613" lon="-2.36844">
        <ele>26.799999237061</ele>
        <time>2020-02-20T10:53:36.000Z</time>
      </trkpt>
      <trkpt lat="47.28606" lon="-2.36845">
        <ele>26.39999961853</ele>
        <time>2020-02-20T10:53:37.000Z</time>
      </trkpt>
      <trkpt lat="47.286" lon="-2.36843">
        <ele>26</ele>
        <time>2020-02-20T10:53:38.000Z</time>
      </trkpt>
      <trkpt lat="47.28595" lon="-2.3684">
        <ele>25.60000038147</ele>
        <time>2020-02-20T10:53:39.000Z</time>
      </trkpt>
      <trkpt lat="47.2859" lon="-2.36834">
        <ele>25.200000762939</ele>
        <time>2020-02-20T10:53:40.000Z</time>
      </trkpt>
      <trkpt lat="47.28586" lon="-2.36828">
        <ele>25.200000762939</ele>
        <time>2020-02-20T10:53:41.000Z</time>
      </trkpt>
      <trkpt lat="47.28579" lon="-2.36815">
        <ele>25.200000762939</ele>
        <time>2020-02-20T10:53:43.000Z</time>
      </trkpt>
      <trkpt lat="47.28563" lon="-2.36783">
        <ele>25.200000762939</ele>
        <time>2020-02-20T10:53:48.000Z</time>
      </trkpt>
      <trkpt lat="47.28556" lon="-2.36772">
        <ele>25.200000762939</ele>
        <time>2020-02-20T10:53:50.000Z</time>
      </trkpt>
      <trkpt lat="47.28534" lon="-2.3673">
        <ele>25.200000762939</ele>
        <time>2020-02-20T10:53:58.000Z</time>
      </trkpt>
      <trkpt lat="47.28521" lon="-2.36708">
        <ele>25.60000038147</ele>
        <time>2020-02-20T10:54:03.000Z</time>
      </trkpt>
      <trkpt lat="47.28519" lon="-2.36704">
        <ele>26</ele>
        <time>2020-02-20T10:54:04.000Z</time>
      </trkpt>
      <trkpt lat="47.28516" lon="-2.367">
        <ele>26.39999961853</ele>
        <time>2020-02-20T10:54:05.000Z</time>
      </trkpt>
      <trkpt lat="47.28514" lon="-2.36696">
        <ele>26.799999237061</ele>
        <time>2020-02-20T10:54:06.000Z</time>
      </trkpt>
      <trkpt lat="47.28512" lon="-2.36692">
        <ele>27.200000762939</ele>
        <time>2020-02-20T10:54:07.000Z</time>
      </trkpt>
      <trkpt lat="47.28505" lon="-2.36684">
        <ele>27.60000038147</ele>
        <time>2020-02-20T10:54:10.000Z</time>
      </trkpt>
      <trkpt lat="47.28503" lon="-2.36682">
        <ele>28</ele>
        <time>2020-02-20T10:54:11.000Z</time>
      </trkpt>
      <trkpt lat="47.285" lon="-2.36679">
        <ele>28.39999961853</ele>
        <time>2020-02-20T10:54:12.000Z</time>
      </trkpt>
      <trkpt lat="47.28497" lon="-2.36675">
        <ele>28.799999237061</ele>
        <time>2020-02-20T10:54:13.000Z</time>
      </trkpt>
      <trkpt lat="47.28495" lon="-2.3667">
        <ele>29.200000762939</ele>
        <time>2020-02-20T10:54:14.000Z</time>
      </trkpt>
      <trkpt lat="47.28492" lon="-2.36665">
        <ele>29.200000762939</ele>
        <time>2020-02-20T10:54:15.000Z</time>
      </trkpt>
      <trkpt lat="47.28486" lon="-2.36646">
        <ele>29.200000762939</ele>
        <time>2020-02-20T10:54:18.000Z</time>
      </trkpt>
      <trkpt lat="47.28485" lon="-2.36636">
        <ele>29.200000762939</ele>
        <time>2020-02-20T10:54:20.000Z</time>
      </trkpt>
      <trkpt lat="47.28481" lon="-2.36618">
        <ele>29.200000762939</ele>
        <time>2020-02-20T10:54:23.000Z</time>
      </trkpt>
      <trkpt lat="47.28479" lon="-2.36611">
        <ele>29.200000762939</ele>
        <time>2020-02-20T10:54:24.000Z</time>
      </trkpt>
      <trkpt lat="47.28473" lon="-2.36593">
        <ele>29.200000762939</ele>
        <time>2020-02-20T10:54:27.000Z</time>
      </trkpt>
      <trkpt lat="47.28467" lon="-2.36574">
        <ele>29.200000762939</ele>
        <time>2020-02-20T10:54:30.000Z</time>
      </trkpt>
      <trkpt lat="47.28467" lon="-2.36568">
        <ele>29.200000762939</ele>
        <time>2020-02-20T10:54:31.000Z</time>
      </trkpt>
      <trkpt lat="47.28474" lon="-2.36553">
        <ele>29.200000762939</ele>
        <time>2020-02-20T10:54:34.000Z</time>
      </trkpt>
      <trkpt lat="47.28481" lon="-2.36544">
        <ele>29.200000762939</ele>
        <time>2020-02-20T10:54:36.000Z</time>
      </trkpt>
      <trkpt lat="47.28496" lon="-2.36527">
        <ele>29.200000762939</ele>
        <time>2020-02-20T10:54:40.000Z</time>
      </trkpt>
      <trkpt lat="47.28502" lon="-2.3652">
        <ele>29.60000038147</ele>
        <time>2020-02-20T10:54:42.000Z</time>
      </trkpt>
      <trkpt lat="47.28505" lon="-2.36516">
        <ele>30</ele>
        <time>2020-02-20T10:54:43.000Z</time>
      </trkpt>
      <trkpt lat="47.28508" lon="-2.36513">
        <ele>30.60000038147</ele>
        <time>2020-02-20T10:54:44.000Z</time>
      </trkpt>
      <trkpt lat="47.28511" lon="-2.36509">
        <ele>31</ele>
        <time>2020-02-20T10:54:45.000Z</time>
      </trkpt>
      <trkpt lat="47.28514" lon="-2.36505">
        <ele>31.39999961853</ele>
        <time>2020-02-20T10:54:46.000Z</time>
      </trkpt>
      <trkpt lat="47.28516" lon="-2.36491">
        <ele>31.39999961853</ele>
        <time>2020-02-20T10:54:49.000Z</time>
      </trkpt>
      <trkpt lat="47.28515" lon="-2.36481">
        <ele>31.39999961853</ele>
        <time>2020-02-20T10:54:51.000Z</time>
      </trkpt>
      <trkpt lat="47.2851" lon="-2.36466">
        <ele>31.799999237061</ele>
        <time>2020-02-20T10:54:54.000Z</time>
      </trkpt>
      <trkpt lat="47.28508" lon="-2.36461">
        <ele>32.200000762939</ele>
        <time>2020-02-20T10:54:55.000Z</time>
      </trkpt>
      <trkpt lat="47.28507" lon="-2.36456">
        <ele>33</ele>
        <time>2020-02-20T10:54:56.000Z</time>
      </trkpt>
      <trkpt lat="47.28506" lon="-2.36451">
        <ele>33.599998474121</ele>
        <time>2020-02-20T10:54:57.000Z</time>
      </trkpt>
      <trkpt lat="47.28496" lon="-2.36439">
        <ele>33.599998474121</ele>
        <time>2020-02-20T10:55:00.000Z</time>
      </trkpt>
      <trkpt lat="47.28476" lon="-2.36426">
        <ele>33.599998474121</ele>
        <time>2020-02-20T10:55:05.000Z</time>
      </trkpt>
      <trkpt lat="47.28467" lon="-2.36419">
        <ele>34</ele>
        <time>2020-02-20T10:55:08.000Z</time>
      </trkpt>
      <trkpt lat="47.28464" lon="-2.36415">
        <ele>34.400001525879</ele>
        <time>2020-02-20T10:55:09.000Z</time>
      </trkpt>
      <trkpt lat="47.28463" lon="-2.36411">
        <ele>34.799999237061</ele>
        <time>2020-02-20T10:55:10.000Z</time>
      </trkpt>
      <trkpt lat="47.28462" lon="-2.36407">
        <ele>35.200000762939</ele>
        <time>2020-02-20T10:55:11.000Z</time>
      </trkpt>
      <trkpt lat="47.28461" lon="-2.36405">
        <ele>35.599998474121</ele>
        <time>2020-02-20T10:55:12.000Z</time>
      </trkpt>
      <trkpt lat="47.28461" lon="-2.36403">
        <ele>35.599998474121</ele>
        <time>2020-02-20T10:55:13.000Z</time>
      </trkpt>
      <trkpt lat="47.2846" lon="-2.36401">
        <ele>35.599998474121</ele>
        <time>2020-02-20T10:55:14.000Z</time>
      </trkpt>
      <trkpt lat="47.28445" lon="-2.36386">
        <ele>35.599998474121</ele>
        <time>2020-02-20T10:55:21.000Z</time>
      </trkpt>
      <trkpt lat="47.28433" lon="-2.36371">
        <ele>35.599998474121</ele>
        <time>2020-02-20T10:55:25.000Z</time>
      </trkpt>
      <trkpt lat="47.2843" lon="-2.36365">
        <ele>35</ele>
        <time>2020-02-20T10:55:26.000Z</time>
      </trkpt>
      <trkpt lat="47.28427" lon="-2.3636">
        <ele>34.599998474121</ele>
        <time>2020-02-20T10:55:27.000Z</time>
      </trkpt>
      <trkpt lat="47.28424" lon="-2.36355">
        <ele>34.200000762939</ele>
        <time>2020-02-20T10:55:28.000Z</time>
      </trkpt>
      <trkpt lat="47.28421" lon="-2.36351">
        <ele>33.799999237061</ele>
        <time>2020-02-20T10:55:29.000Z</time>
      </trkpt>
      <trkpt lat="47.28417" lon="-2.36347">
        <ele>33.200000762939</ele>
        <time>2020-02-20T10:55:30.000Z</time>
      </trkpt>
      <trkpt lat="47.28414" lon="-2.36343">
        <ele>33.200000762939</ele>
        <time>2020-02-20T10:55:31.000Z</time>
      </trkpt>
      <trkpt lat="47.28397" lon="-2.36328">
        <ele>33.200000762939</ele>
        <time>2020-02-20T10:55:35.000Z</time>
      </trkpt>
      <trkpt lat="47.28385" lon="-2.3632">
        <ele>32.799999237061</ele>
        <time>2020-02-20T10:55:38.000Z</time>
      </trkpt>
      <trkpt lat="47.2838" lon="-2.36315">
        <ele>32.400001525879</ele>
        <time>2020-02-20T10:55:39.000Z</time>
      </trkpt>
      <trkpt lat="47.28377" lon="-2.3631">
        <ele>32</ele>
        <time>2020-02-20T10:55:40.000Z</time>
      </trkpt>
      <trkpt lat="47.28373" lon="-2.36304">
        <ele>31.39999961853</ele>
        <time>2020-02-20T10:55:41.000Z</time>
      </trkpt>
      <trkpt lat="47.28371" lon="-2.36298">
        <ele>31</ele>
        <time>2020-02-20T10:55:42.000Z</time>
      </trkpt>
      <trkpt lat="47.2837" lon="-2.36292">
        <ele>31</ele>
        <time>2020-02-20T10:55:43.000Z</time>
      </trkpt>
      <trkpt lat="47.28365" lon="-2.36273">
        <ele>31</ele>
        <time>2020-02-20T10:55:47.000Z</time>
      </trkpt>
      <trkpt lat="47.28345" lon="-2.36257">
        <ele>31</ele>
        <time>2020-02-20T10:55:52.000Z</time>
      </trkpt>
      <trkpt lat="47.28336" lon="-2.36256">
        <ele>30.60000038147</ele>
        <time>2020-02-20T10:55:53.000Z</time>
      </trkpt>
      <trkpt lat="47.28329" lon="-2.36253">
        <ele>30.200000762939</ele>
        <time>2020-02-20T10:55:54.000Z</time>
      </trkpt>
      <trkpt lat="47.28323" lon="-2.36251">
        <ele>29.799999237061</ele>
        <time>2020-02-20T10:55:55.000Z</time>
      </trkpt>
      <trkpt lat="47.28316" lon="-2.3625">
        <ele>29.200000762939</ele>
        <time>2020-02-20T10:55:56.000Z</time>
      </trkpt>
      <trkpt lat="47.2831" lon="-2.36249">
        <ele>28.799999237061</ele>
        <time>2020-02-20T10:55:57.000Z</time>
      </trkpt>
      <trkpt lat="47.28289" lon="-2.3624">
        <ele>28.799999237061</ele>
        <time>2020-02-20T10:56:00.000Z</time>
      </trkpt>
      <trkpt lat="47.28279" lon="-2.36228">
        <ele>28.39999961853</ele>
        <time>2020-02-20T10:56:02.000Z</time>
      </trkpt>
      <trkpt lat="47.28275" lon="-2.36221">
        <ele>28</ele>
        <time>2020-02-20T10:56:03.000Z</time>
      </trkpt>
      <trkpt lat="47.28271" lon="-2.36214">
        <ele>27.60000038147</ele>
        <time>2020-02-20T10:56:04.000Z</time>
      </trkpt>
      <trkpt lat="47.28269" lon="-2.36207">
        <ele>27.200000762939</ele>
        <time>2020-02-20T10:56:05.000Z</time>
      </trkpt>
      <trkpt lat="47.28265" lon="-2.362">
        <ele>26.799999237061</ele>
        <time>2020-02-20T10:56:06.000Z</time>
      </trkpt>
      <trkpt lat="47.28256" lon="-2.36178">
        <ele>26.799999237061</ele>
        <time>2020-02-20T10:56:09.000Z</time>
      </trkpt>
      <trkpt lat="47.28243" lon="-2.36143">
        <ele>26.799999237061</ele>
        <time>2020-02-20T10:56:15.000Z</time>
      </trkpt>
      <trkpt lat="47.28232" lon="-2.36126">
        <ele>26.799999237061</ele>
        <time>2020-02-20T10:56:20.000Z</time>
      </trkpt>
      <trkpt lat="47.28223" lon="-2.36098">
        <ele>26.799999237061</ele>
        <time>2020-02-20T10:56:25.000Z</time>
      </trkpt>
      <trkpt lat="47.28216" lon="-2.36064">
        <ele>26.799999237061</ele>
        <time>2020-02-20T10:56:31.000Z</time>
      </trkpt>
      <trkpt lat="47.28213" lon="-2.36049">
        <ele>26.799999237061</ele>
        <time>2020-02-20T10:56:33.000Z</time>
      </trkpt>
      <trkpt lat="47.28211" lon="-2.36045">
        <ele>26.799999237061</ele>
        <time>2020-02-20T10:56:34.000Z</time>
      </trkpt>
      <trkpt lat="47.28206" lon="-2.36038">
        <ele>26.799999237061</ele>
        <time>2020-02-20T10:56:37.000Z</time>
      </trkpt>
      <trkpt lat="47.28204" lon="-2.36036">
        <ele>26.799999237061</ele>
        <time>2020-02-20T10:56:38.000Z</time>
      </trkpt>
      <trkpt lat="47.28198" lon="-2.36024">
        <ele>26.799999237061</ele>
        <time>2020-02-20T10:56:41.000Z</time>
      </trkpt>
      <trkpt lat="47.28195" lon="-2.36018">
        <ele>26.799999237061</ele>
        <time>2020-02-20T10:56:42.000Z</time>
      </trkpt>
      <trkpt lat="47.28185" lon="-2.35988">
        <ele>26.799999237061</ele>
        <time>2020-02-20T10:56:47.000Z</time>
      </trkpt>
      <trkpt lat="47.28177" lon="-2.35969">
        <ele>26.799999237061</ele>
        <time>2020-02-20T10:56:51.000Z</time>
      </trkpt>
      <trkpt lat="47.28171" lon="-2.35954">
        <ele>26.799999237061</ele>
        <time>2020-02-20T10:56:55.000Z</time>
      </trkpt>
      <trkpt lat="47.2817" lon="-2.35951">
        <ele>26.799999237061</ele>
        <time>2020-02-20T10:56:56.000Z</time>
      </trkpt>
      <trkpt lat="47.2817" lon="-2.35931">
        <ele>27.799999237061</ele>
        <time>2020-02-20T10:57:00.000Z</time>
      </trkpt>
      <trkpt lat="47.28169" lon="-2.35925">
        <ele>28.200000762939</ele>
        <time>2020-02-20T10:57:01.000Z</time>
      </trkpt>
      <trkpt lat="47.28167" lon="-2.35919">
        <ele>28.60000038147</ele>
        <time>2020-02-20T10:57:02.000Z</time>
      </trkpt>
      <trkpt lat="47.28166" lon="-2.35916">
        <ele>29</ele>
        <time>2020-02-20T10:57:03.000Z</time>
      </trkpt>
      <trkpt lat="47.28162" lon="-2.35909">
        <ele>29</ele>
        <time>2020-02-20T10:57:05.000Z</time>
      </trkpt>
      <trkpt lat="47.28158" lon="-2.35904">
        <ele>29</ele>
        <time>2020-02-20T10:57:07.000Z</time>
      </trkpt>
      <trkpt lat="47.28147" lon="-2.35891">
        <ele>29</ele>
        <time>2020-02-20T10:57:11.000Z</time>
      </trkpt>
      <trkpt lat="47.28132" lon="-2.35877">
        <ele>29</ele>
        <time>2020-02-20T10:57:15.000Z</time>
      </trkpt>
      <trkpt lat="47.28129" lon="-2.35867">
        <ele>29</ele>
        <time>2020-02-20T10:57:17.000Z</time>
      </trkpt>
      <trkpt lat="47.28124" lon="-2.35855">
        <ele>29</ele>
        <time>2020-02-20T10:57:21.000Z</time>
      </trkpt>
      <trkpt lat="47.28121" lon="-2.35852">
        <ele>29.39999961853</ele>
        <time>2020-02-20T10:57:22.000Z</time>
      </trkpt>
      <trkpt lat="47.28119" lon="-2.3585">
        <ele>29.799999237061</ele>
        <time>2020-02-20T10:57:23.000Z</time>
      </trkpt>
      <trkpt lat="47.28116" lon="-2.35848">
        <ele>30.39999961853</ele>
        <time>2020-02-20T10:57:24.000Z</time>
      </trkpt>
      <trkpt lat="47.28114" lon="-2.35847">
        <ele>31.200000762939</ele>
        <time>2020-02-20T10:57:25.000Z</time>
      </trkpt>
      <trkpt lat="47.28103" lon="-2.35843">
        <ele>31.200000762939</ele>
        <time>2020-02-20T10:57:27.000Z</time>
      </trkpt>
      <trkpt lat="47.28086" lon="-2.35823">
        <ele>31.200000762939</ele>
        <time>2020-02-20T10:57:31.000Z</time>
      </trkpt>
      <trkpt lat="47.28076" lon="-2.35806">
        <ele>31.200000762939</ele>
        <time>2020-02-20T10:57:34.000Z</time>
      </trkpt>
      <trkpt lat="47.28074" lon="-2.35795">
        <ele>31.200000762939</ele>
        <time>2020-02-20T10:57:36.000Z</time>
      </trkpt>
      <trkpt lat="47.28076" lon="-2.35781">
        <ele>31.200000762939</ele>
        <time>2020-02-20T10:57:39.000Z</time>
      </trkpt>
      <trkpt lat="47.28076" lon="-2.35776">
        <ele>31.200000762939</ele>
        <time>2020-02-20T10:57:40.000Z</time>
      </trkpt>
      <trkpt lat="47.2808" lon="-2.3575">
        <ele>31.200000762939</ele>
        <time>2020-02-20T10:57:45.000Z</time>
      </trkpt>
      <trkpt lat="47.28086" lon="-2.35731">
        <ele>31.60000038147</ele>
        <time>2020-02-20T10:57:49.000Z</time>
      </trkpt>
      <trkpt lat="47.28087" lon="-2.35727">
        <ele>32.200000762939</ele>
        <time>2020-02-20T10:57:50.000Z</time>
      </trkpt>
      <trkpt lat="47.28088" lon="-2.35722">
        <ele>32.599998474121</ele>
        <time>2020-02-20T10:57:51.000Z</time>
      </trkpt>
      <trkpt lat="47.28089" lon="-2.35717">
        <ele>33</ele>
        <time>2020-02-20T10:57:52.000Z</time>
      </trkpt>
      <trkpt lat="47.28089" lon="-2.35712">
        <ele>33.599998474121</ele>
        <time>2020-02-20T10:57:53.000Z</time>
      </trkpt>
      <trkpt lat="47.2809" lon="-2.357">
        <ele>33.599998474121</ele>
        <time>2020-02-20T10:57:55.000Z</time>
      </trkpt>
      <trkpt lat="47.2809" lon="-2.35694">
        <ele>33.599998474121</ele>
        <time>2020-02-20T10:57:56.000Z</time>
      </trkpt>
      <trkpt lat="47.2809" lon="-2.35662">
        <ele>33.599998474121</ele>
        <time>2020-02-20T10:58:00.000Z</time>
      </trkpt>
      <trkpt lat="47.28088" lon="-2.35624">
        <ele>33</ele>
        <time>2020-02-20T10:58:04.000Z</time>
      </trkpt>
      <trkpt lat="47.28086" lon="-2.35614">
        <ele>32.400001525879</ele>
        <time>2020-02-20T10:58:05.000Z</time>
      </trkpt>
      <trkpt lat="47.28082" lon="-2.35605">
        <ele>31.799999237061</ele>
        <time>2020-02-20T10:58:06.000Z</time>
      </trkpt>
      <trkpt lat="47.28079" lon="-2.356">
        <ele>31.200000762939</ele>
        <time>2020-02-20T10:58:07.000Z</time>
      </trkpt>
      <trkpt lat="47.28074" lon="-2.35594">
        <ele>30.60000038147</ele>
        <time>2020-02-20T10:58:08.000Z</time>
      </trkpt>
      <trkpt lat="47.28069" lon="-2.3559">
        <ele>30</ele>
        <time>2020-02-20T10:58:09.000Z</time>
      </trkpt>
      <trkpt lat="47.28063" lon="-2.35587">
        <ele>29.39999961853</ele>
        <time>2020-02-20T10:58:10.000Z</time>
      </trkpt>
      <trkpt lat="47.28057" lon="-2.35585">
        <ele>28.799999237061</ele>
        <time>2020-02-20T10:58:11.000Z</time>
      </trkpt>
      <trkpt lat="47.2805" lon="-2.35583">
        <ele>28.39999961853</ele>
        <time>2020-02-20T10:58:12.000Z</time>
      </trkpt>
      <trkpt lat="47.28036" lon="-2.35583">
        <ele>28.39999961853</ele>
        <time>2020-02-20T10:58:14.000Z</time>
      </trkpt>
      <trkpt lat="47.2803" lon="-2.35583">
        <ele>28.39999961853</ele>
        <time>2020-02-20T10:58:15.000Z</time>
      </trkpt>
      <trkpt lat="47.28018" lon="-2.3558">
        <ele>28.39999961853</ele>
        <time>2020-02-20T10:58:17.000Z</time>
      </trkpt>
      <trkpt lat="47.28015" lon="-2.35577">
        <ele>28.39999961853</ele>
        <time>2020-02-20T10:58:18.000Z</time>
      </trkpt>
      <trkpt lat="47.28012" lon="-2.35573">
        <ele>27.799999237061</ele>
        <time>2020-02-20T10:58:19.000Z</time>
      </trkpt>
      <trkpt lat="47.2801" lon="-2.35568">
        <ele>27.39999961853</ele>
        <time>2020-02-20T10:58:20.000Z</time>
      </trkpt>
      <trkpt lat="47.28008" lon="-2.35563">
        <ele>26.799999237061</ele>
        <time>2020-02-20T10:58:21.000Z</time>
      </trkpt>
      <trkpt lat="47.28006" lon="-2.35558">
        <ele>26.39999961853</ele>
        <time>2020-02-20T10:58:22.000Z</time>
      </trkpt>
      <trkpt lat="47.28004" lon="-2.35553">
        <ele>26</ele>
        <time>2020-02-20T10:58:23.000Z</time>
      </trkpt>
      <trkpt lat="47.28001" lon="-2.3554">
        <ele>26</ele>
        <time>2020-02-20T10:58:25.000Z</time>
      </trkpt>
      <trkpt lat="47.27996" lon="-2.35524">
        <ele>25.60000038147</ele>
        <time>2020-02-20T10:58:27.000Z</time>
      </trkpt>
      <trkpt lat="47.27994" lon="-2.35515">
        <ele>25.200000762939</ele>
        <time>2020-02-20T10:58:28.000Z</time>
      </trkpt>
      <trkpt lat="47.2799" lon="-2.35506">
        <ele>24.60000038147</ele>
        <time>2020-02-20T10:58:29.000Z</time>
      </trkpt>
      <trkpt lat="47.27986" lon="-2.35497">
        <ele>24.200000762939</ele>
        <time>2020-02-20T10:58:30.000Z</time>
      </trkpt>
      <trkpt lat="47.27982" lon="-2.35488">
        <ele>23.799999237061</ele>
        <time>2020-02-20T10:58:31.000Z</time>
      </trkpt>
      <trkpt lat="47.27974" lon="-2.35472">
        <ele>23.799999237061</ele>
        <time>2020-02-20T10:58:33.000Z</time>
      </trkpt>
      <trkpt lat="47.27968" lon="-2.35467">
        <ele>23.799999237061</ele>
        <time>2020-02-20T10:58:34.000Z</time>
      </trkpt>
      <trkpt lat="47.27959" lon="-2.35456">
        <ele>23.799999237061</ele>
        <time>2020-02-20T10:58:36.000Z</time>
      </trkpt>
      <trkpt lat="47.27957" lon="-2.35449">
        <ele>23.799999237061</ele>
        <time>2020-02-20T10:58:37.000Z</time>
      </trkpt>
      <trkpt lat="47.27952" lon="-2.35438">
        <ele>23.799999237061</ele>
        <time>2020-02-20T10:58:39.000Z</time>
      </trkpt>
      <trkpt lat="47.27946" lon="-2.35428">
        <ele>23.799999237061</ele>
        <time>2020-02-20T10:58:41.000Z</time>
      </trkpt>
      <trkpt lat="47.27934" lon="-2.35412">
        <ele>23.799999237061</ele>
        <time>2020-02-20T10:58:44.000Z</time>
      </trkpt>
      <trkpt lat="47.27932" lon="-2.35405">
        <ele>23.799999237061</ele>
        <time>2020-02-20T10:58:45.000Z</time>
      </trkpt>
      <trkpt lat="47.27929" lon="-2.35382">
        <ele>23.799999237061</ele>
        <time>2020-02-20T10:58:48.000Z</time>
      </trkpt>
      <trkpt lat="47.27928" lon="-2.35375">
        <ele>23.799999237061</ele>
        <time>2020-02-20T10:58:49.000Z</time>
      </trkpt>
      <trkpt lat="47.27926" lon="-2.35351">
        <ele>23.799999237061</ele>
        <time>2020-02-20T10:58:52.000Z</time>
      </trkpt>
      <trkpt lat="47.27926" lon="-2.35336">
        <ele>23.799999237061</ele>
        <time>2020-02-20T10:58:54.000Z</time>
      </trkpt>
      <trkpt lat="47.27926" lon="-2.35329">
        <ele>23.799999237061</ele>
        <time>2020-02-20T10:58:55.000Z</time>
      </trkpt>
      <trkpt lat="47.27925" lon="-2.35321">
        <ele>23.799999237061</ele>
        <time>2020-02-20T10:58:56.000Z</time>
      </trkpt>
      <trkpt lat="47.27922" lon="-2.35287">
        <ele>23.799999237061</ele>
        <time>2020-02-20T10:59:00.000Z</time>
      </trkpt>
      <trkpt lat="47.27913" lon="-2.35214">
        <ele>23.799999237061</ele>
        <time>2020-02-20T10:59:08.000Z</time>
      </trkpt>
      <trkpt lat="47.27909" lon="-2.35161">
        <ele>23.799999237061</ele>
        <time>2020-02-20T10:59:14.000Z</time>
      </trkpt>
      <trkpt lat="47.27905" lon="-2.35101">
        <ele>23.799999237061</ele>
        <time>2020-02-20T10:59:21.000Z</time>
      </trkpt>
      <trkpt lat="47.27903" lon="-2.35061">
        <ele>23.799999237061</ele>
        <time>2020-02-20T10:59:26.000Z</time>
      </trkpt>
      <trkpt lat="47.27902" lon="-2.35056">
        <ele>23.799999237061</ele>
        <time>2020-02-20T10:59:27.000Z</time>
      </trkpt>
      <trkpt lat="47.27901" lon="-2.35053">
        <ele>23.799999237061</ele>
        <time>2020-02-20T10:59:28.000Z</time>
      </trkpt>
      <trkpt lat="47.27901" lon="-2.35054">
        <ele>24.799999237061</ele>
        <time>2020-02-20T10:59:29.000Z</time>
      </trkpt>
      <trkpt lat="47.27898" lon="-2.35057">
        <ele>25.200000762939</ele>
        <time>2020-02-20T10:59:30.000Z</time>
      </trkpt>
      <trkpt lat="47.27893" lon="-2.35061">
        <ele>25.60000038147</ele>
        <time>2020-02-20T10:59:31.000Z</time>
      </trkpt>
      <trkpt lat="47.27888" lon="-2.35064">
        <ele>26</ele>
        <time>2020-02-20T10:59:32.000Z</time>
      </trkpt>
      <trkpt lat="47.27876" lon="-2.35072">
        <ele>26</ele>
        <time>2020-02-20T10:59:34.000Z</time>
      </trkpt>
      <trkpt lat="47.27871" lon="-2.35074">
        <ele>26</ele>
        <time>2020-02-20T10:59:35.000Z</time>
      </trkpt>
      <trkpt lat="47.27865" lon="-2.3507">
        <ele>26</ele>
        <time>2020-02-20T10:59:37.000Z</time>
      </trkpt>
      <trkpt lat="47.27861" lon="-2.35057">
        <ele>26</ele>
        <time>2020-02-20T10:59:40.000Z</time>
      </trkpt>
      <trkpt lat="47.27859" lon="-2.35052">
        <ele>26</ele>
        <time>2020-02-20T10:59:41.000Z</time>
      </trkpt>
      <trkpt lat="47.27854" lon="-2.35038">
        <ele>26</ele>
        <time>2020-02-20T10:59:45.000Z</time>
      </trkpt>
      <trkpt lat="47.27851" lon="-2.35036">
        <ele>26</ele>
        <time>2020-02-20T10:59:48.000Z</time>
      </trkpt>
      <trkpt lat="47.27847" lon="-2.35039">
        <ele>26</ele>
        <time>2020-02-20T10:59:50.000Z</time>
      </trkpt>
      <trkpt lat="47.27839" lon="-2.35044">
        <ele>26</ele>
        <time>2020-02-20T10:59:52.000Z</time>
      </trkpt>
      <trkpt lat="47.27833" lon="-2.35047">
        <ele>26</ele>
        <time>2020-02-20T10:59:53.000Z</time>
      </trkpt>
      <trkpt lat="47.27828" lon="-2.35049">
        <ele>26</ele>
        <time>2020-02-20T10:59:54.000Z</time>
      </trkpt>
      <trkpt lat="47.27808" lon="-2.35054">
        <ele>26</ele>
        <time>2020-02-20T10:59:57.000Z</time>
      </trkpt>
      <trkpt lat="47.27782" lon="-2.3506">
        <ele>26</ele>
        <time>2020-02-20T11:00:01.000Z</time>
      </trkpt>
      <trkpt lat="47.27776" lon="-2.35058">
        <ele>26</ele>
        <time>2020-02-20T11:00:02.000Z</time>
      </trkpt>
      <trkpt lat="47.27772" lon="-2.35056">
        <ele>25.39999961853</ele>
        <time>2020-02-20T11:00:03.000Z</time>
      </trkpt>
      <trkpt lat="47.27767" lon="-2.35053">
        <ele>25</ele>
        <time>2020-02-20T11:00:04.000Z</time>
      </trkpt>
      <trkpt lat="47.27764" lon="-2.35048">
        <ele>24.39999961853</ele>
        <time>2020-02-20T11:00:05.000Z</time>
      </trkpt>
      <trkpt lat="47.27761" lon="-2.35043">
        <ele>24</ele>
        <time>2020-02-20T11:00:06.000Z</time>
      </trkpt>
      <trkpt lat="47.2776" lon="-2.35037">
        <ele>23.39999961853</ele>
        <time>2020-02-20T11:00:07.000Z</time>
      </trkpt>
      <trkpt lat="47.27751" lon="-2.35027">
        <ele>23.39999961853</ele>
        <time>2020-02-20T11:00:10.000Z</time>
      </trkpt>
      <trkpt lat="47.27743" lon="-2.35029">
        <ele>23.39999961853</ele>
        <time>2020-02-20T11:00:12.000Z</time>
      </trkpt>
      <trkpt lat="47.27733" lon="-2.35032">
        <ele>23.39999961853</ele>
        <time>2020-02-20T11:00:14.000Z</time>
      </trkpt>
      <trkpt lat="47.27706" lon="-2.35038">
        <ele>23.39999961853</ele>
        <time>2020-02-20T11:00:19.000Z</time>
      </trkpt>
      <trkpt lat="47.27702" lon="-2.3504">
        <ele>24</ele>
        <time>2020-02-20T11:00:20.000Z</time>
      </trkpt>
      <trkpt lat="47.27696" lon="-2.3504">
        <ele>24.39999961853</ele>
        <time>2020-02-20T11:00:21.000Z</time>
      </trkpt>
      <trkpt lat="47.27691" lon="-2.35039">
        <ele>25</ele>
        <time>2020-02-20T11:00:22.000Z</time>
      </trkpt>
      <trkpt lat="47.27687" lon="-2.35035">
        <ele>25.39999961853</ele>
        <time>2020-02-20T11:00:23.000Z</time>
      </trkpt>
      <trkpt lat="47.27684" lon="-2.3503">
        <ele>26</ele>
        <time>2020-02-20T11:00:24.000Z</time>
      </trkpt>
      <trkpt lat="47.27679" lon="-2.35018">
        <ele>26</ele>
        <time>2020-02-20T11:00:26.000Z</time>
      </trkpt>
      <trkpt lat="47.27677" lon="-2.34995">
        <ele>26</ele>
        <time>2020-02-20T11:00:29.000Z</time>
      </trkpt>
      <trkpt lat="47.27678" lon="-2.3498">
        <ele>26</ele>
        <time>2020-02-20T11:00:31.000Z</time>
      </trkpt>
      <trkpt lat="47.27677" lon="-2.34932">
        <ele>26</ele>
        <time>2020-02-20T11:00:37.000Z</time>
      </trkpt>
      <trkpt lat="47.27676" lon="-2.34926">
        <ele>26</ele>
        <time>2020-02-20T11:00:38.000Z</time>
      </trkpt>
      <trkpt lat="47.27668" lon="-2.34912">
        <ele>26</ele>
        <time>2020-02-20T11:00:41.000Z</time>
      </trkpt>
      <trkpt lat="47.27659" lon="-2.34912">
        <ele>26.39999961853</ele>
        <time>2020-02-20T11:00:43.000Z</time>
      </trkpt>
      <trkpt lat="47.27653" lon="-2.34914">
        <ele>26.799999237061</ele>
        <time>2020-02-20T11:00:44.000Z</time>
      </trkpt>
      <trkpt lat="47.27648" lon="-2.34914">
        <ele>27.200000762939</ele>
        <time>2020-02-20T11:00:45.000Z</time>
      </trkpt>
      <trkpt lat="47.27642" lon="-2.34916">
        <ele>27.60000038147</ele>
        <time>2020-02-20T11:00:46.000Z</time>
      </trkpt>
      <trkpt lat="47.27636" lon="-2.34916">
        <ele>28</ele>
        <time>2020-02-20T11:00:47.000Z</time>
      </trkpt>
      <trkpt lat="47.27625" lon="-2.34917">
        <ele>28</ele>
        <time>2020-02-20T11:00:49.000Z</time>
      </trkpt>
      <trkpt lat="47.27613" lon="-2.34915">
        <ele>28</ele>
        <time>2020-02-20T11:00:51.000Z</time>
      </trkpt>
      <trkpt lat="47.27574" lon="-2.34908">
        <ele>28</ele>
        <time>2020-02-20T11:00:58.000Z</time>
      </trkpt>
      <trkpt lat="47.2753" lon="-2.34902">
        <ele>28</ele>
        <time>2020-02-20T11:01:06.000Z</time>
      </trkpt>
      <trkpt lat="47.2752" lon="-2.34902">
        <ele>28</ele>
        <time>2020-02-20T11:01:08.000Z</time>
      </trkpt>
      <trkpt lat="47.27505" lon="-2.34909">
        <ele>28</ele>
        <time>2020-02-20T11:01:11.000Z</time>
      </trkpt>
      <trkpt lat="47.2748" lon="-2.34916">
        <ele>28</ele>
        <time>2020-02-20T11:01:16.000Z</time>
      </trkpt>
      <trkpt lat="47.27474" lon="-2.34915">
        <ele>28</ele>
        <time>2020-02-20T11:01:17.000Z</time>
      </trkpt>
      <trkpt lat="47.27469" lon="-2.34914">
        <ele>28</ele>
        <time>2020-02-20T11:01:18.000Z</time>
      </trkpt>
      <trkpt lat="47.27461" lon="-2.34909">
        <ele>28</ele>
        <time>2020-02-20T11:01:20.000Z</time>
      </trkpt>
      <trkpt lat="47.27456" lon="-2.34889">
        <ele>28</ele>
        <time>2020-02-20T11:01:23.000Z</time>
      </trkpt>
      <trkpt lat="47.27456" lon="-2.34882">
        <ele>28</ele>
        <time>2020-02-20T11:01:24.000Z</time>
      </trkpt>
      <trkpt lat="47.27455" lon="-2.3484">
        <ele>28</ele>
        <time>2020-02-20T11:01:30.000Z</time>
      </trkpt>
      <trkpt lat="47.27451" lon="-2.34834">
        <ele>28</ele>
        <time>2020-02-20T11:01:32.000Z</time>
      </trkpt>
      <trkpt lat="47.27448" lon="-2.34836">
        <ele>28</ele>
        <time>2020-02-20T11:01:33.000Z</time>
      </trkpt>
      <trkpt lat="47.27426" lon="-2.34846">
        <ele>28</ele>
        <time>2020-02-20T11:01:38.000Z</time>
      </trkpt>
      <trkpt lat="47.27388" lon="-2.34861">
        <ele>28</ele>
        <time>2020-02-20T11:01:45.000Z</time>
      </trkpt>
      <trkpt lat="47.27378" lon="-2.34864">
        <ele>28</ele>
        <time>2020-02-20T11:01:47.000Z</time>
      </trkpt>
      <trkpt lat="47.27369" lon="-2.34861">
        <ele>28</ele>
        <time>2020-02-20T11:01:49.000Z</time>
      </trkpt>
      <trkpt lat="47.27363" lon="-2.34844">
        <ele>27.39999961853</ele>
        <time>2020-02-20T11:01:52.000Z</time>
      </trkpt>
      <trkpt lat="47.27362" lon="-2.34837">
        <ele>27</ele>
        <time>2020-02-20T11:01:53.000Z</time>
      </trkpt>
      <trkpt lat="47.27361" lon="-2.34829">
        <ele>26.39999961853</ele>
        <time>2020-02-20T11:01:54.000Z</time>
      </trkpt>
      <trkpt lat="47.27359" lon="-2.34822">
        <ele>26</ele>
        <time>2020-02-20T11:01:55.000Z</time>
      </trkpt>
      <trkpt lat="47.27358" lon="-2.34815">
        <ele>25.60000038147</ele>
        <time>2020-02-20T11:01:56.000Z</time>
      </trkpt>
      <trkpt lat="47.27356" lon="-2.34808">
        <ele>25.60000038147</ele>
        <time>2020-02-20T11:01:57.000Z</time>
      </trkpt>
      <trkpt lat="47.27353" lon="-2.34793">
        <ele>25.60000038147</ele>
        <time>2020-02-20T11:01:59.000Z</time>
      </trkpt>
      <trkpt lat="47.27347" lon="-2.34768">
        <ele>25.60000038147</ele>
        <time>2020-02-20T11:02:03.000Z</time>
      </trkpt>
      <trkpt lat="47.27342" lon="-2.34756">
        <ele>25.60000038147</ele>
        <time>2020-02-20T11:02:06.000Z</time>
      </trkpt>
      <trkpt lat="47.27338" lon="-2.34757">
        <ele>26</ele>
        <time>2020-02-20T11:02:07.000Z</time>
      </trkpt>
      <trkpt lat="47.27334" lon="-2.34759">
        <ele>26.39999961853</ele>
        <time>2020-02-20T11:02:08.000Z</time>
      </trkpt>
      <trkpt lat="47.2733" lon="-2.34761">
        <ele>26.799999237061</ele>
        <time>2020-02-20T11:02:09.000Z</time>
      </trkpt>
      <trkpt lat="47.27325" lon="-2.34764">
        <ele>27.200000762939</ele>
        <time>2020-02-20T11:02:10.000Z</time>
      </trkpt>
      <trkpt lat="47.2732" lon="-2.34766">
        <ele>27.799999237061</ele>
        <time>2020-02-20T11:02:11.000Z</time>
      </trkpt>
      <trkpt lat="47.27314" lon="-2.34768">
        <ele>27.799999237061</ele>
        <time>2020-02-20T11:02:12.000Z</time>
      </trkpt>
      <trkpt lat="47.27302" lon="-2.34773">
        <ele>27.799999237061</ele>
        <time>2020-02-20T11:02:14.000Z</time>
      </trkpt>
      <trkpt lat="47.27277" lon="-2.34786">
        <ele>27.799999237061</ele>
        <time>2020-02-20T11:02:18.000Z</time>
      </trkpt>
      <trkpt lat="47.27271" lon="-2.34789">
        <ele>27.200000762939</ele>
        <time>2020-02-20T11:02:19.000Z</time>
      </trkpt>
      <trkpt lat="47.27264" lon="-2.34792">
        <ele>26.799999237061</ele>
        <time>2020-02-20T11:02:20.000Z</time>
      </trkpt>
      <trkpt lat="47.27257" lon="-2.34796">
        <ele>26.39999961853</ele>
        <time>2020-02-20T11:02:21.000Z</time>
      </trkpt>
      <trkpt lat="47.27249" lon="-2.34799">
        <ele>25.39999961853</ele>
        <time>2020-02-20T11:02:22.000Z</time>
      </trkpt>
      <trkpt lat="47.27243" lon="-2.34801">
        <ele>25</ele>
        <time>2020-02-20T11:02:23.000Z</time>
      </trkpt>
      <trkpt lat="47.27238" lon="-2.34802">
        <ele>24.60000038147</ele>
        <time>2020-02-20T11:02:24.000Z</time>
      </trkpt>
      <trkpt lat="47.27234" lon="-2.348">
        <ele>23.799999237061</ele>
        <time>2020-02-20T11:02:25.000Z</time>
      </trkpt>
      <trkpt lat="47.2723" lon="-2.34796">
        <ele>23</ele>
        <time>2020-02-20T11:02:26.000Z</time>
      </trkpt>
      <trkpt lat="47.27228" lon="-2.34791">
        <ele>22.39999961853</ele>
        <time>2020-02-20T11:02:27.000Z</time>
      </trkpt>
      <trkpt lat="47.27225" lon="-2.34783">
        <ele>21.60000038147</ele>
        <time>2020-02-20T11:02:28.000Z</time>
      </trkpt>
      <trkpt lat="47.27223" lon="-2.34775">
        <ele>20.799999237061</ele>
        <time>2020-02-20T11:02:29.000Z</time>
      </trkpt>
      <trkpt lat="47.27217" lon="-2.34747">
        <ele>20.799999237061</ele>
        <time>2020-02-20T11:02:32.000Z</time>
      </trkpt>
      <trkpt lat="47.27212" lon="-2.3472">
        <ele>20.799999237061</ele>
        <time>2020-02-20T11:02:35.000Z</time>
      </trkpt>
      <trkpt lat="47.27197" lon="-2.34653">
        <ele>20.799999237061</ele>
        <time>2020-02-20T11:02:42.000Z</time>
      </trkpt>
      <trkpt lat="47.27183" lon="-2.34586">
        <ele>20.799999237061</ele>
        <time>2020-02-20T11:02:49.000Z</time>
      </trkpt>
      <trkpt lat="47.27181" lon="-2.34577">
        <ele>20.39999961853</ele>
        <time>2020-02-20T11:02:50.000Z</time>
      </trkpt>
      <trkpt lat="47.27179" lon="-2.34568">
        <ele>20</ele>
        <time>2020-02-20T11:02:51.000Z</time>
      </trkpt>
      <trkpt lat="47.27177" lon="-2.34559">
        <ele>19.60000038147</ele>
        <time>2020-02-20T11:02:52.000Z</time>
      </trkpt>
      <trkpt lat="47.27175" lon="-2.34549">
        <ele>19.200000762939</ele>
        <time>2020-02-20T11:02:53.000Z</time>
      </trkpt>
      <trkpt lat="47.27174" lon="-2.3454">
        <ele>18.799999237061</ele>
        <time>2020-02-20T11:02:54.000Z</time>
      </trkpt>
      <trkpt lat="47.2717" lon="-2.34522">
        <ele>18.799999237061</ele>
        <time>2020-02-20T11:02:56.000Z</time>
      </trkpt>
      <trkpt lat="47.27157" lon="-2.34466">
        <ele>18.799999237061</ele>
        <time>2020-02-20T11:03:02.000Z</time>
      </trkpt>
      <trkpt lat="47.27141" lon="-2.34403">
        <ele>18.799999237061</ele>
        <time>2020-02-20T11:03:09.000Z</time>
      </trkpt>
      <trkpt lat="47.27133" lon="-2.34373">
        <ele>18.799999237061</ele>
        <time>2020-02-20T11:03:13.000Z</time>
      </trkpt>
      <trkpt lat="47.27131" lon="-2.34367">
        <ele>18.799999237061</ele>
        <time>2020-02-20T11:03:14.000Z</time>
      </trkpt>
      <trkpt lat="47.27124" lon="-2.3434">
        <ele>18.799999237061</ele>
        <time>2020-02-20T11:03:19.000Z</time>
      </trkpt>
      <trkpt lat="47.27116" lon="-2.34299">
        <ele>18.799999237061</ele>
        <time>2020-02-20T11:03:25.000Z</time>
      </trkpt>
      <trkpt lat="47.27107" lon="-2.34245">
        <ele>18.799999237061</ele>
        <time>2020-02-20T11:03:32.000Z</time>
      </trkpt>
      <trkpt lat="47.27099" lon="-2.34196">
        <ele>18.39999961853</ele>
        <time>2020-02-20T11:03:38.000Z</time>
      </trkpt>
      <trkpt lat="47.27098" lon="-2.34188">
        <ele>18</ele>
        <time>2020-02-20T11:03:39.000Z</time>
      </trkpt>
      <trkpt lat="47.27097" lon="-2.34179">
        <ele>17.60000038147</ele>
        <time>2020-02-20T11:03:40.000Z</time>
      </trkpt>
      <trkpt lat="47.27096" lon="-2.34171">
        <ele>17</ele>
        <time>2020-02-20T11:03:41.000Z</time>
      </trkpt>
      <trkpt lat="47.27095" lon="-2.34163">
        <ele>16.60000038147</ele>
        <time>2020-02-20T11:03:42.000Z</time>
      </trkpt>
      <trkpt lat="47.27095" lon="-2.34155">
        <ele>16.60000038147</ele>
        <time>2020-02-20T11:03:43.000Z</time>
      </trkpt>
      <trkpt lat="47.27095" lon="-2.34129">
        <ele>16.60000038147</ele>
        <time>2020-02-20T11:03:46.000Z</time>
      </trkpt>
      <trkpt lat="47.27096" lon="-2.34077">
        <ele>16.60000038147</ele>
        <time>2020-02-20T11:03:53.000Z</time>
      </trkpt>
      <trkpt lat="47.27101" lon="-2.34052">
        <ele>17.200000762939</ele>
        <time>2020-02-20T11:03:57.000Z</time>
      </trkpt>
      <trkpt lat="47.27102" lon="-2.34046">
        <ele>17.60000038147</ele>
        <time>2020-02-20T11:03:58.000Z</time>
      </trkpt>
      <trkpt lat="47.27103" lon="-2.3404">
        <ele>18</ele>
        <time>2020-02-20T11:03:59.000Z</time>
      </trkpt>
      <trkpt lat="47.27103" lon="-2.34034">
        <ele>18.39999961853</ele>
        <time>2020-02-20T11:04:00.000Z</time>
      </trkpt>
      <trkpt lat="47.27105" lon="-2.34029">
        <ele>19.200000762939</ele>
        <time>2020-02-20T11:04:01.000Z</time>
      </trkpt>
      <trkpt lat="47.27106" lon="-2.34023">
        <ele>19.799999237061</ele>
        <time>2020-02-20T11:04:02.000Z</time>
      </trkpt>
      <trkpt lat="47.27107" lon="-2.34017">
        <ele>20.200000762939</ele>
        <time>2020-02-20T11:04:03.000Z</time>
      </trkpt>
      <trkpt lat="47.27108" lon="-2.34011">
        <ele>20.60000038147</ele>
        <time>2020-02-20T11:04:04.000Z</time>
      </trkpt>
      <trkpt lat="47.27109" lon="-2.34005">
        <ele>21.200000762939</ele>
        <time>2020-02-20T11:04:05.000Z</time>
      </trkpt>
      <trkpt lat="47.2711" lon="-2.34">
        <ele>21.60000038147</ele>
        <time>2020-02-20T11:04:06.000Z</time>
      </trkpt>
      <trkpt lat="47.27111" lon="-2.33994">
        <ele>22</ele>
        <time>2020-02-20T11:04:07.000Z</time>
      </trkpt>
      <trkpt lat="47.27113" lon="-2.33988">
        <ele>22.39999961853</ele>
        <time>2020-02-20T11:04:08.000Z</time>
      </trkpt>
      <trkpt lat="47.27114" lon="-2.33983">
        <ele>22.799999237061</ele>
        <time>2020-02-20T11:04:09.000Z</time>
      </trkpt>
      <trkpt lat="47.27115" lon="-2.33977">
        <ele>23.200000762939</ele>
        <time>2020-02-20T11:04:10.000Z</time>
      </trkpt>
      <trkpt lat="47.27117" lon="-2.33965">
        <ele>23.200000762939</ele>
        <time>2020-02-20T11:04:12.000Z</time>
      </trkpt>
      <trkpt lat="47.27113" lon="-2.3395">
        <ele>23.200000762939</ele>
        <time>2020-02-20T11:04:15.000Z</time>
      </trkpt>
      <trkpt lat="47.271" lon="-2.33936">
        <ele>23.200000762939</ele>
        <time>2020-02-20T11:04:19.000Z</time>
      </trkpt>
      <trkpt lat="47.27071" lon="-2.33908">
        <ele>23.200000762939</ele>
        <time>2020-02-20T11:04:24.000Z</time>
      </trkpt>
      <trkpt lat="47.27035" lon="-2.33877">
        <ele>22.799999237061</ele>
        <time>2020-02-20T11:04:29.000Z</time>
      </trkpt>
      <trkpt lat="47.27029" lon="-2.33872">
        <ele>22.39999961853</ele>
        <time>2020-02-20T11:04:30.000Z</time>
      </trkpt>
      <trkpt lat="47.27022" lon="-2.33866">
        <ele>22</ele>
        <time>2020-02-20T11:04:31.000Z</time>
      </trkpt>
      <trkpt lat="47.27015" lon="-2.33862">
        <ele>21.60000038147</ele>
        <time>2020-02-20T11:04:32.000Z</time>
      </trkpt>
      <trkpt lat="47.27008" lon="-2.33856">
        <ele>21.200000762939</ele>
        <time>2020-02-20T11:04:33.000Z</time>
      </trkpt>
      <trkpt lat="47.26994" lon="-2.33848">
        <ele>21.200000762939</ele>
        <time>2020-02-20T11:04:35.000Z</time>
      </trkpt>
      <trkpt lat="47.26962" lon="-2.33831">
        <ele>20.60000038147</ele>
        <time>2020-02-20T11:04:39.000Z</time>
      </trkpt>
      <trkpt lat="47.26954" lon="-2.33826">
        <ele>20</ele>
        <time>2020-02-20T11:04:40.000Z</time>
      </trkpt>
      <trkpt lat="47.26946" lon="-2.3382">
        <ele>19.39999961853</ele>
        <time>2020-02-20T11:04:41.000Z</time>
      </trkpt>
      <trkpt lat="47.26939" lon="-2.33815">
        <ele>18.799999237061</ele>
        <time>2020-02-20T11:04:42.000Z</time>
      </trkpt>
      <trkpt lat="47.26933" lon="-2.33809">
        <ele>18.200000762939</ele>
        <time>2020-02-20T11:04:43.000Z</time>
      </trkpt>
      <trkpt lat="47.26929" lon="-2.33802">
        <ele>17.60000038147</ele>
        <time>2020-02-20T11:04:44.000Z</time>
      </trkpt>
      <trkpt lat="47.26927" lon="-2.33794">
        <ele>17</ele>
        <time>2020-02-20T11:04:45.000Z</time>
      </trkpt>
      <trkpt lat="47.26926" lon="-2.33785">
        <ele>16.60000038147</ele>
        <time>2020-02-20T11:04:46.000Z</time>
      </trkpt>
      <trkpt lat="47.26926" lon="-2.33776">
        <ele>16</ele>
        <time>2020-02-20T11:04:47.000Z</time>
      </trkpt>
      <trkpt lat="47.26928" lon="-2.33768">
        <ele>16</ele>
        <time>2020-02-20T11:04:48.000Z</time>
      </trkpt>
      <trkpt lat="47.26936" lon="-2.33715">
        <ele>16</ele>
        <time>2020-02-20T11:04:54.000Z</time>
      </trkpt>
      <trkpt lat="47.26936" lon="-2.33705">
        <ele>15.60000038147</ele>
        <time>2020-02-20T11:04:55.000Z</time>
      </trkpt>
      <trkpt lat="47.26935" lon="-2.33696">
        <ele>15.199999809265</ele>
        <time>2020-02-20T11:04:56.000Z</time>
      </trkpt>
      <trkpt lat="47.26933" lon="-2.33687">
        <ele>14.800000190735</ele>
        <time>2020-02-20T11:04:57.000Z</time>
      </trkpt>
      <trkpt lat="47.26932" lon="-2.33677">
        <ele>14.39999961853</ele>
        <time>2020-02-20T11:04:58.000Z</time>
      </trkpt>
      <trkpt lat="47.2693" lon="-2.33668">
        <ele>14</ele>
        <time>2020-02-20T11:04:59.000Z</time>
      </trkpt>
      <trkpt lat="47.26913" lon="-2.33591">
        <ele>14</ele>
        <time>2020-02-20T11:05:07.000Z</time>
      </trkpt>
      <trkpt lat="47.26895" lon="-2.33545">
        <ele>14</ele>
        <time>2020-02-20T11:05:12.000Z</time>
      </trkpt>
      <trkpt lat="47.26891" lon="-2.33538">
        <ele>14</ele>
        <time>2020-02-20T11:05:13.000Z</time>
      </trkpt>
      <trkpt lat="47.26884" lon="-2.3353">
        <ele>13</ele>
        <time>2020-02-20T11:05:15.000Z</time>
      </trkpt>
      <trkpt lat="47.26879" lon="-2.3353">
        <ele>12.60000038147</ele>
        <time>2020-02-20T11:05:16.000Z</time>
      </trkpt>
      <trkpt lat="47.26873" lon="-2.33531">
        <ele>12.199999809265</ele>
        <time>2020-02-20T11:05:17.000Z</time>
      </trkpt>
      <trkpt lat="47.26867" lon="-2.33534">
        <ele>11.800000190735</ele>
        <time>2020-02-20T11:05:18.000Z</time>
      </trkpt>
      <trkpt lat="47.26858" lon="-2.33538">
        <ele>11.800000190735</ele>
        <time>2020-02-20T11:05:19.000Z</time>
      </trkpt>
      <trkpt lat="47.26842" lon="-2.33546">
        <ele>11.800000190735</ele>
        <time>2020-02-20T11:05:21.000Z</time>
      </trkpt>
      <trkpt lat="47.26803" lon="-2.33562">
        <ele>11.800000190735</ele>
        <time>2020-02-20T11:05:26.000Z</time>
      </trkpt>
      <trkpt lat="47.26797" lon="-2.33565">
        <ele>11.39999961853</ele>
        <time>2020-02-20T11:05:27.000Z</time>
      </trkpt>
      <trkpt lat="47.26791" lon="-2.33567">
        <ele>11</ele>
        <time>2020-02-20T11:05:28.000Z</time>
      </trkpt>
      <trkpt lat="47.26785" lon="-2.33567">
        <ele>10.60000038147</ele>
        <time>2020-02-20T11:05:29.000Z</time>
      </trkpt>
      <trkpt lat="47.26781" lon="-2.33564">
        <ele>10.199999809265</ele>
        <time>2020-02-20T11:05:30.000Z</time>
      </trkpt>
      <trkpt lat="47.26779" lon="-2.33558">
        <ele>9.8000001907349</ele>
        <time>2020-02-20T11:05:31.000Z</time>
      </trkpt>
      <trkpt lat="47.26776" lon="-2.33543">
        <ele>9.3999996185303</ele>
        <time>2020-02-20T11:05:33.000Z</time>
      </trkpt>
      <trkpt lat="47.26775" lon="-2.33535">
        <ele>9</ele>
        <time>2020-02-20T11:05:34.000Z</time>
      </trkpt>
      <trkpt lat="47.26773" lon="-2.33527">
        <ele>8.6000003814697</ele>
        <time>2020-02-20T11:05:35.000Z</time>
      </trkpt>
      <trkpt lat="47.26771" lon="-2.33518">
        <ele>8.1999998092651</ele>
        <time>2020-02-20T11:05:36.000Z</time>
      </trkpt>
      <trkpt lat="47.2677" lon="-2.33509">
        <ele>7.8000001907349</ele>
        <time>2020-02-20T11:05:37.000Z</time>
      </trkpt>
      <trkpt lat="47.26766" lon="-2.33492">
        <ele>7.8000001907349</ele>
        <time>2020-02-20T11:05:39.000Z</time>
      </trkpt>
      <trkpt lat="47.26756" lon="-2.33427">
        <ele>7.8000001907349</ele>
        <time>2020-02-20T11:05:46.000Z</time>
      </trkpt>
      <trkpt lat="47.26754" lon="-2.3341">
        <ele>7.8000001907349</ele>
        <time>2020-02-20T11:05:48.000Z</time>
      </trkpt>
      <trkpt lat="47.26752" lon="-2.33393">
        <ele>7.8000001907349</ele>
        <time>2020-02-20T11:05:50.000Z</time>
      </trkpt>
      <trkpt lat="47.26749" lon="-2.33354">
        <ele>7.8000001907349</ele>
        <time>2020-02-20T11:05:55.000Z</time>
      </trkpt>
      <trkpt lat="47.26745" lon="-2.3334">
        <ele>7.8000001907349</ele>
        <time>2020-02-20T11:05:59.000Z</time>
      </trkpt>
      <trkpt lat="47.26733" lon="-2.3333">
        <ele>7.8000001907349</ele>
        <time>2020-02-20T11:06:04.000Z</time>
      </trkpt>
      <trkpt lat="47.2672" lon="-2.3332">
        <ele>7.8000001907349</ele>
        <time>2020-02-20T11:06:08.000Z</time>
      </trkpt>
      <trkpt lat="47.26716" lon="-2.33316">
        <ele>7.8000001907349</ele>
        <time>2020-02-20T11:06:09.000Z</time>
      </trkpt>
      <trkpt lat="47.26708" lon="-2.33291">
        <ele>7.8000001907349</ele>
        <time>2020-02-20T11:06:13.000Z</time>
      </trkpt>
      <trkpt lat="47.26706" lon="-2.33277">
        <ele>7.8000001907349</ele>
        <time>2020-02-20T11:06:15.000Z</time>
      </trkpt>
      <trkpt lat="47.26701" lon="-2.33248">
        <ele>7.8000001907349</ele>
        <time>2020-02-20T11:06:19.000Z</time>
      </trkpt>
      <trkpt lat="47.26699" lon="-2.33242">
        <ele>7.8000001907349</ele>
        <time>2020-02-20T11:06:20.000Z</time>
      </trkpt>
      <trkpt lat="47.26693" lon="-2.33219">
        <ele>7.8000001907349</ele>
        <time>2020-02-20T11:06:24.000Z</time>
      </trkpt>
      <trkpt lat="47.2669" lon="-2.33191">
        <ele>7.8000001907349</ele>
        <time>2020-02-20T11:06:29.000Z</time>
      </trkpt>
      <trkpt lat="47.26685" lon="-2.33172">
        <ele>7.8000001907349</ele>
        <time>2020-02-20T11:06:34.000Z</time>
      </trkpt>
      <trkpt lat="47.26677" lon="-2.33165">
        <ele>7.8000001907349</ele>
        <time>2020-02-20T11:06:38.000Z</time>
      </trkpt>
      <trkpt lat="47.26675" lon="-2.33165">
        <ele>7.8000001907349</ele>
        <time>2020-02-20T11:06:39.000Z</time>
      </trkpt>
      <trkpt lat="47.26663" lon="-2.33175">
        <ele>7.8000001907349</ele>
        <time>2020-02-20T11:06:43.000Z</time>
      </trkpt>
      <trkpt lat="47.26654" lon="-2.33183">
        <ele>7.8000001907349</ele>
        <time>2020-02-20T11:06:45.000Z</time>
      </trkpt>
      <trkpt lat="47.2664" lon="-2.33196">
        <ele>7.8000001907349</ele>
        <time>2020-02-20T11:06:48.000Z</time>
      </trkpt>
      <trkpt lat="47.26636" lon="-2.33202">
        <ele>8.1999998092651</ele>
        <time>2020-02-20T11:06:49.000Z</time>
      </trkpt>
      <trkpt lat="47.26631" lon="-2.33206">
        <ele>8.6000003814697</ele>
        <time>2020-02-20T11:06:50.000Z</time>
      </trkpt>
      <trkpt lat="47.26627" lon="-2.3321">
        <ele>9</ele>
        <time>2020-02-20T11:06:51.000Z</time>
      </trkpt>
      <trkpt lat="47.26622" lon="-2.33214">
        <ele>9.8000001907349</ele>
        <time>2020-02-20T11:06:52.000Z</time>
      </trkpt>
      <trkpt lat="47.26618" lon="-2.33219">
        <ele>10.39999961853</ele>
        <time>2020-02-20T11:06:53.000Z</time>
      </trkpt>
      <trkpt lat="47.26614" lon="-2.33223">
        <ele>11.60000038147</ele>
        <time>2020-02-20T11:06:54.000Z</time>
      </trkpt>
      <trkpt lat="47.26609" lon="-2.33227">
        <ele>12.39999961853</ele>
        <time>2020-02-20T11:06:55.000Z</time>
      </trkpt>
      <trkpt lat="47.26581" lon="-2.33255">
        <ele>12</ele>
        <time>2020-02-20T11:07:01.000Z</time>
      </trkpt>
      <trkpt lat="47.26577" lon="-2.33259">
        <ele>11.60000038147</ele>
        <time>2020-02-20T11:07:02.000Z</time>
      </trkpt>
      <trkpt lat="47.26572" lon="-2.33264">
        <ele>11.199999809265</ele>
        <time>2020-02-20T11:07:03.000Z</time>
      </trkpt>
      <trkpt lat="47.26568" lon="-2.33269">
        <ele>10.800000190735</ele>
        <time>2020-02-20T11:07:04.000Z</time>
      </trkpt>
      <trkpt lat="47.26563" lon="-2.33273">
        <ele>10.39999961853</ele>
        <time>2020-02-20T11:07:05.000Z</time>
      </trkpt>
      <trkpt lat="47.26555" lon="-2.33281">
        <ele>10.39999961853</ele>
        <time>2020-02-20T11:07:07.000Z</time>
      </trkpt>
      <trkpt lat="47.26539" lon="-2.33299">
        <ele>10.39999961853</ele>
        <time>2020-02-20T11:07:11.000Z</time>
      </trkpt>
      <trkpt lat="47.26535" lon="-2.33299">
        <ele>10.39999961853</ele>
        <time>2020-02-20T11:07:12.000Z</time>
      </trkpt>
      <trkpt lat="47.26528" lon="-2.3329">
        <ele>9.8000001907349</ele>
        <time>2020-02-20T11:07:15.000Z</time>
      </trkpt>
      <trkpt lat="47.26527" lon="-2.33287">
        <ele>9.1999998092651</ele>
        <time>2020-02-20T11:07:16.000Z</time>
      </trkpt>
      <trkpt lat="47.26525" lon="-2.33284">
        <ele>8.8000001907349</ele>
        <time>2020-02-20T11:07:17.000Z</time>
      </trkpt>
      <trkpt lat="47.26524" lon="-2.33283">
        <ele>8.1999998092651</ele>
        <time>2020-02-20T11:07:18.000Z</time>
      </trkpt>
      <trkpt lat="47.26521" lon="-2.33284">
        <ele>7.8000001907349</ele>
        <time>2020-02-20T11:07:19.000Z</time>
      </trkpt>
      <trkpt lat="47.26518" lon="-2.33285">
        <ele>7.8000001907349</ele>
        <time>2020-02-20T11:07:20.000Z</time>
      </trkpt>
      <trkpt lat="47.26507" lon="-2.33284">
        <ele>7.8000001907349</ele>
        <time>2020-02-20T11:07:23.000Z</time>
      </trkpt>
      <trkpt lat="47.26497" lon="-2.3328">
        <ele>7.8000001907349</ele>
        <time>2020-02-20T11:07:26.000Z</time>
      </trkpt>
      <trkpt lat="47.26493" lon="-2.3328">
        <ele>7.8000001907349</ele>
        <time>2020-02-20T11:07:27.000Z</time>
      </trkpt>
      <trkpt lat="47.26479" lon="-2.33276">
        <ele>7.8000001907349</ele>
        <time>2020-02-20T11:07:30.000Z</time>
      </trkpt>
      <trkpt lat="47.26474" lon="-2.33275">
        <ele>7.8000001907349</ele>
        <time>2020-02-20T11:07:31.000Z</time>
      </trkpt>
      <trkpt lat="47.26441" lon="-2.3327">
        <ele>7.8000001907349</ele>
        <time>2020-02-20T11:07:37.000Z</time>
      </trkpt>
      <trkpt lat="47.26419" lon="-2.33267">
        <ele>8.1999998092651</ele>
        <time>2020-02-20T11:07:41.000Z</time>
      </trkpt>
      <trkpt lat="47.26415" lon="-2.33267">
        <ele>8.6000003814697</ele>
        <time>2020-02-20T11:07:42.000Z</time>
      </trkpt>
      <trkpt lat="47.2641" lon="-2.33267">
        <ele>9.3999996185303</ele>
        <time>2020-02-20T11:07:43.000Z</time>
      </trkpt>
      <trkpt lat="47.26406" lon="-2.33266">
        <ele>9.1999998092651</ele>
        <time>2020-02-20T11:07:44.000Z</time>
      </trkpt>
      <trkpt lat="47.26401" lon="-2.33265">
        <ele>8.8000001907349</ele>
        <time>2020-02-20T11:07:45.000Z</time>
      </trkpt>
      <trkpt lat="47.26397" lon="-2.33265">
        <ele>8.3999996185303</ele>
        <time>2020-02-20T11:07:46.000Z</time>
      </trkpt>
      <trkpt lat="47.26393" lon="-2.33263">
        <ele>8.1999998092651</ele>
        <time>2020-02-20T11:07:47.000Z</time>
      </trkpt>
      <trkpt lat="47.2639" lon="-2.33262">
        <ele>7.8000001907349</ele>
        <time>2020-02-20T11:07:48.000Z</time>
      </trkpt>
      <trkpt lat="47.26386" lon="-2.3326">
        <ele>7.8000001907349</ele>
        <time>2020-02-20T11:07:49.000Z</time>
      </trkpt>
      <trkpt lat="47.2638" lon="-2.33245">
        <ele>7.8000001907349</ele>
        <time>2020-02-20T11:07:52.000Z</time>
      </trkpt>
      <trkpt lat="47.26376" lon="-2.33205">
        <ele>7.8000001907349</ele>
        <time>2020-02-20T11:07:57.000Z</time>
      </trkpt>
      <trkpt lat="47.26374" lon="-2.33155">
        <ele>7.8000001907349</ele>
        <time>2020-02-20T11:08:03.000Z</time>
      </trkpt>
      <trkpt lat="47.26371" lon="-2.33115">
        <ele>7.8000001907349</ele>
        <time>2020-02-20T11:08:08.000Z</time>
      </trkpt>
      <trkpt lat="47.26369" lon="-2.33099">
        <ele>7.8000001907349</ele>
        <time>2020-02-20T11:08:10.000Z</time>
      </trkpt>
      <trkpt lat="47.26368" lon="-2.33083">
        <ele>7.8000001907349</ele>
        <time>2020-02-20T11:08:12.000Z</time>
      </trkpt>
      <trkpt lat="47.26367" lon="-2.33049">
        <ele>7.8000001907349</ele>
        <time>2020-02-20T11:08:16.000Z</time>
      </trkpt>
      <trkpt lat="47.26364" lon="-2.32992">
        <ele>7.8000001907349</ele>
        <time>2020-02-20T11:08:24.000Z</time>
      </trkpt>
      <trkpt lat="47.26364" lon="-2.32986">
        <ele>7.8000001907349</ele>
        <time>2020-02-20T11:08:25.000Z</time>
      </trkpt>
      <trkpt lat="47.26356" lon="-2.32974">
        <ele>7.8000001907349</ele>
        <time>2020-02-20T11:08:28.000Z</time>
      </trkpt>
      <trkpt lat="47.26352" lon="-2.32969">
        <ele>7.8000001907349</ele>
        <time>2020-02-20T11:08:29.000Z</time>
      </trkpt>
      <trkpt lat="47.26348" lon="-2.32964">
        <ele>7.8000001907349</ele>
        <time>2020-02-20T11:08:30.000Z</time>
      </trkpt>
      <trkpt lat="47.26342" lon="-2.3295">
        <ele>7.8000001907349</ele>
        <time>2020-02-20T11:08:32.000Z</time>
      </trkpt>
      <trkpt lat="47.26325" lon="-2.32897">
        <ele>7.8000001907349</ele>
        <time>2020-02-20T11:08:39.000Z</time>
      </trkpt>
      <trkpt lat="47.26315" lon="-2.32869">
        <ele>7.8000001907349</ele>
        <time>2020-02-20T11:08:43.000Z</time>
      </trkpt>
      <trkpt lat="47.26306" lon="-2.3286">
        <ele>7.8000001907349</ele>
        <time>2020-02-20T11:08:45.000Z</time>
      </trkpt>
      <trkpt lat="47.26287" lon="-2.32846">
        <ele>7.8000001907349</ele>
        <time>2020-02-20T11:08:49.000Z</time>
      </trkpt>
      <trkpt lat="47.26277" lon="-2.32813">
        <ele>7.8000001907349</ele>
        <time>2020-02-20T11:08:53.000Z</time>
      </trkpt>
      <trkpt lat="47.26264" lon="-2.32781">
        <ele>7.8000001907349</ele>
        <time>2020-02-20T11:08:57.000Z</time>
      </trkpt>
      <trkpt lat="47.26261" lon="-2.32774">
        <ele>7.8000001907349</ele>
        <time>2020-02-20T11:08:58.000Z</time>
      </trkpt>
      <trkpt lat="47.26233" lon="-2.32728">
        <ele>7.8000001907349</ele>
        <time>2020-02-20T11:09:05.000Z</time>
      </trkpt>
      <trkpt lat="47.26201" lon="-2.32683">
        <ele>7.8000001907349</ele>
        <time>2020-02-20T11:09:13.000Z</time>
      </trkpt>
      <trkpt lat="47.26168" lon="-2.32653">
        <ele>7.8000001907349</ele>
        <time>2020-02-20T11:09:20.000Z</time>
      </trkpt>
      <trkpt lat="47.26158" lon="-2.32648">
        <ele>8.6000003814697</ele>
        <time>2020-02-20T11:09:23.000Z</time>
      </trkpt>
      <trkpt lat="47.26153" lon="-2.32645">
        <ele>9.1999998092651</ele>
        <time>2020-02-20T11:09:24.000Z</time>
      </trkpt>
      <trkpt lat="47.26147" lon="-2.32643">
        <ele>9.6000003814697</ele>
        <time>2020-02-20T11:09:25.000Z</time>
      </trkpt>
      <trkpt lat="47.26142" lon="-2.32642">
        <ele>10</ele>
        <time>2020-02-20T11:09:26.000Z</time>
      </trkpt>
      <trkpt lat="47.26137" lon="-2.3264">
        <ele>10</ele>
        <time>2020-02-20T11:09:27.000Z</time>
      </trkpt>
      <trkpt lat="47.26121" lon="-2.32638">
        <ele>10</ele>
        <time>2020-02-20T11:09:30.000Z</time>
      </trkpt>
      <trkpt lat="47.26104" lon="-2.32639">
        <ele>10</ele>
        <time>2020-02-20T11:09:33.000Z</time>
      </trkpt>
      <trkpt lat="47.26059" lon="-2.32647">
        <ele>10</ele>
        <time>2020-02-20T11:09:41.000Z</time>
      </trkpt>
      <trkpt lat="47.26053" lon="-2.32647">
        <ele>10</ele>
        <time>2020-02-20T11:09:42.000Z</time>
      </trkpt>
      <trkpt lat="47.26031" lon="-2.3265">
        <ele>10</ele>
        <time>2020-02-20T11:09:46.000Z</time>
      </trkpt>
      <trkpt lat="47.25981" lon="-2.32658">
        <ele>10</ele>
        <time>2020-02-20T11:09:55.000Z</time>
      </trkpt>
      <trkpt lat="47.25976" lon="-2.32657">
        <ele>10</ele>
        <time>2020-02-20T11:09:56.000Z</time>
      </trkpt>
      <trkpt lat="47.25965" lon="-2.32656">
        <ele>10</ele>
        <time>2020-02-20T11:09:58.000Z</time>
      </trkpt>
      <trkpt lat="47.25959" lon="-2.32656">
        <ele>10</ele>
        <time>2020-02-20T11:09:59.000Z</time>
      </trkpt>
      <trkpt lat="47.25944" lon="-2.3265">
        <ele>9.6000003814697</ele>
        <time>2020-02-20T11:10:02.000Z</time>
      </trkpt>
      <trkpt lat="47.2594" lon="-2.32645">
        <ele>9.1999998092651</ele>
        <time>2020-02-20T11:10:03.000Z</time>
      </trkpt>
      <trkpt lat="47.25936" lon="-2.3264">
        <ele>8.8000001907349</ele>
        <time>2020-02-20T11:10:04.000Z</time>
      </trkpt>
      <trkpt lat="47.25932" lon="-2.32635">
        <ele>8.3999996185303</ele>
        <time>2020-02-20T11:10:05.000Z</time>
      </trkpt>
      <trkpt lat="47.25929" lon="-2.32629">
        <ele>8</ele>
        <time>2020-02-20T11:10:06.000Z</time>
      </trkpt>
      <trkpt lat="47.25921" lon="-2.32618">
        <ele>8</ele>
        <time>2020-02-20T11:10:08.000Z</time>
      </trkpt>
      <trkpt lat="47.25916" lon="-2.32613">
        <ele>8</ele>
        <time>2020-02-20T11:10:09.000Z</time>
      </trkpt>
      <trkpt lat="47.25913" lon="-2.32607">
        <ele>8</ele>
        <time>2020-02-20T11:10:10.000Z</time>
      </trkpt>
      <trkpt lat="47.25901" lon="-2.3259">
        <ele>8</ele>
        <time>2020-02-20T11:10:13.000Z</time>
      </trkpt>
      <trkpt lat="47.25892" lon="-2.32582">
        <ele>8</ele>
        <time>2020-02-20T11:10:15.000Z</time>
      </trkpt>
      <trkpt lat="47.25883" lon="-2.32575">
        <ele>8</ele>
        <time>2020-02-20T11:10:17.000Z</time>
      </trkpt>
      <trkpt lat="47.25872" lon="-2.32559">
        <ele>8</ele>
        <time>2020-02-20T11:10:20.000Z</time>
      </trkpt>
      <trkpt lat="47.25868" lon="-2.32554">
        <ele>8</ele>
        <time>2020-02-20T11:10:21.000Z</time>
      </trkpt>
      <trkpt lat="47.25843" lon="-2.32519">
        <ele>8</ele>
        <time>2020-02-20T11:10:28.000Z</time>
      </trkpt>
      <trkpt lat="47.25825" lon="-2.32495">
        <ele>8</ele>
        <time>2020-02-20T11:10:34.000Z</time>
      </trkpt>
      <trkpt lat="47.25807" lon="-2.32481">
        <ele>8</ele>
        <time>2020-02-20T11:10:39.000Z</time>
      </trkpt>
      <trkpt lat="47.25788" lon="-2.3248">
        <ele>8</ele>
        <time>2020-02-20T11:10:44.000Z</time>
      </trkpt>
      <trkpt lat="47.25782" lon="-2.32461">
        <ele>8</ele>
        <time>2020-02-20T11:10:47.000Z</time>
      </trkpt>
      <trkpt lat="47.2578" lon="-2.32455">
        <ele>8</ele>
        <time>2020-02-20T11:10:48.000Z</time>
      </trkpt>
      <trkpt lat="47.25769" lon="-2.3243">
        <ele>8</ele>
        <time>2020-02-20T11:10:52.000Z</time>
      </trkpt>
      <trkpt lat="47.25755" lon="-2.32425">
        <ele>8</ele>
        <time>2020-02-20T11:10:55.000Z</time>
      </trkpt>
      <trkpt lat="47.25745" lon="-2.32425">
        <ele>8</ele>
        <time>2020-02-20T11:10:57.000Z</time>
      </trkpt>
      <trkpt lat="47.25723" lon="-2.32424">
        <ele>8</ele>
        <time>2020-02-20T11:11:01.000Z</time>
      </trkpt>
      <trkpt lat="47.25708" lon="-2.32425">
        <ele>8.3999996185303</ele>
        <time>2020-02-20T11:11:04.000Z</time>
      </trkpt>
      <trkpt lat="47.25703" lon="-2.32424">
        <ele>9</ele>
        <time>2020-02-20T11:11:05.000Z</time>
      </trkpt>
      <trkpt lat="47.25699" lon="-2.32424">
        <ele>9.6000003814697</ele>
        <time>2020-02-20T11:11:06.000Z</time>
      </trkpt>
      <trkpt lat="47.25694" lon="-2.32424">
        <ele>10</ele>
        <time>2020-02-20T11:11:07.000Z</time>
      </trkpt>
      <trkpt lat="47.25689" lon="-2.32424">
        <ele>10.60000038147</ele>
        <time>2020-02-20T11:11:08.000Z</time>
      </trkpt>
      <trkpt lat="47.25684" lon="-2.32424">
        <ele>10.60000038147</ele>
        <time>2020-02-20T11:11:09.000Z</time>
      </trkpt>
      <trkpt lat="47.2567" lon="-2.32421">
        <ele>10.199999809265</ele>
        <time>2020-02-20T11:11:13.000Z</time>
      </trkpt>
      <trkpt lat="47.25667" lon="-2.3242">
        <ele>9.8000001907349</ele>
        <time>2020-02-20T11:11:14.000Z</time>
      </trkpt>
      <trkpt lat="47.25664" lon="-2.32417">
        <ele>9.1999998092651</ele>
        <time>2020-02-20T11:11:15.000Z</time>
      </trkpt>
      <trkpt lat="47.25662" lon="-2.32413">
        <ele>8.8000001907349</ele>
        <time>2020-02-20T11:11:16.000Z</time>
      </trkpt>
      <trkpt lat="47.25659" lon="-2.32409">
        <ele>8.3999996185303</ele>
        <time>2020-02-20T11:11:17.000Z</time>
      </trkpt>
      <trkpt lat="47.25653" lon="-2.32385">
        <ele>8.3999996185303</ele>
        <time>2020-02-20T11:11:21.000Z</time>
      </trkpt>
      <trkpt lat="47.25653" lon="-2.32378">
        <ele>8.3999996185303</ele>
        <time>2020-02-20T11:11:22.000Z</time>
      </trkpt>
      <trkpt lat="47.25649" lon="-2.32341">
        <ele>8.3999996185303</ele>
        <time>2020-02-20T11:11:27.000Z</time>
      </trkpt>
      <trkpt lat="47.25647" lon="-2.32326">
        <ele>8.8000001907349</ele>
        <time>2020-02-20T11:11:29.000Z</time>
      </trkpt>
      <trkpt lat="47.25647" lon="-2.32318">
        <ele>9.1999998092651</ele>
        <time>2020-02-20T11:11:30.000Z</time>
      </trkpt>
      <trkpt lat="47.25646" lon="-2.32311">
        <ele>9.8000001907349</ele>
        <time>2020-02-20T11:11:31.000Z</time>
      </trkpt>
      <trkpt lat="47.25645" lon="-2.32303">
        <ele>10.199999809265</ele>
        <time>2020-02-20T11:11:32.000Z</time>
      </trkpt>
      <trkpt lat="47.25645" lon="-2.32296">
        <ele>10.60000038147</ele>
        <time>2020-02-20T11:11:33.000Z</time>
      </trkpt>
      <trkpt lat="47.25644" lon="-2.32281">
        <ele>11</ele>
        <time>2020-02-20T11:11:35.000Z</time>
      </trkpt>
      <trkpt lat="47.25644" lon="-2.32274">
        <ele>11.60000038147</ele>
        <time>2020-02-20T11:11:36.000Z</time>
      </trkpt>
      <trkpt lat="47.25643" lon="-2.32266">
        <ele>12</ele>
        <time>2020-02-20T11:11:37.000Z</time>
      </trkpt>
      <trkpt lat="47.25643" lon="-2.32259">
        <ele>12.39999961853</ele>
        <time>2020-02-20T11:11:38.000Z</time>
      </trkpt>
      <trkpt lat="47.25643" lon="-2.32252">
        <ele>12.800000190735</ele>
        <time>2020-02-20T11:11:39.000Z</time>
      </trkpt>
      <trkpt lat="47.25641" lon="-2.32238">
        <ele>13.39999961853</ele>
        <time>2020-02-20T11:11:41.000Z</time>
      </trkpt>
      <trkpt lat="47.25641" lon="-2.32231">
        <ele>13.800000190735</ele>
        <time>2020-02-20T11:11:42.000Z</time>
      </trkpt>
      <trkpt lat="47.25641" lon="-2.32224">
        <ele>14.199999809265</ele>
        <time>2020-02-20T11:11:43.000Z</time>
      </trkpt>
      <trkpt lat="47.2564" lon="-2.32217">
        <ele>14.60000038147</ele>
        <time>2020-02-20T11:11:44.000Z</time>
      </trkpt>
      <trkpt lat="47.25639" lon="-2.32211">
        <ele>15.199999809265</ele>
        <time>2020-02-20T11:11:45.000Z</time>
      </trkpt>
      <trkpt lat="47.25638" lon="-2.32197">
        <ele>15.60000038147</ele>
        <time>2020-02-20T11:11:47.000Z</time>
      </trkpt>
      <trkpt lat="47.25637" lon="-2.3219">
        <ele>16</ele>
        <time>2020-02-20T11:11:48.000Z</time>
      </trkpt>
      <trkpt lat="47.25635" lon="-2.32183">
        <ele>16.39999961853</ele>
        <time>2020-02-20T11:11:49.000Z</time>
      </trkpt>
      <trkpt lat="47.25634" lon="-2.32176">
        <ele>17</ele>
        <time>2020-02-20T11:11:50.000Z</time>
      </trkpt>
      <trkpt lat="47.25632" lon="-2.32169">
        <ele>17.39999961853</ele>
        <time>2020-02-20T11:11:51.000Z</time>
      </trkpt>
      <trkpt lat="47.25626" lon="-2.32147">
        <ele>17.39999961853</ele>
        <time>2020-02-20T11:11:54.000Z</time>
      </trkpt>
      <trkpt lat="47.25623" lon="-2.3214">
        <ele>17.39999961853</ele>
        <time>2020-02-20T11:11:55.000Z</time>
      </trkpt>
      <trkpt lat="47.25617" lon="-2.3212">
        <ele>17.39999961853</ele>
        <time>2020-02-20T11:11:58.000Z</time>
      </trkpt>
      <trkpt lat="47.25614" lon="-2.32113">
        <ele>17.39999961853</ele>
        <time>2020-02-20T11:11:59.000Z</time>
      </trkpt>
      <trkpt lat="47.25596" lon="-2.32061">
        <ele>17.39999961853</ele>
        <time>2020-02-20T11:12:07.000Z</time>
      </trkpt>
      <trkpt lat="47.25588" lon="-2.32035">
        <ele>17.799999237061</ele>
        <time>2020-02-20T11:12:11.000Z</time>
      </trkpt>
      <trkpt lat="47.25585" lon="-2.32029">
        <ele>18.200000762939</ele>
        <time>2020-02-20T11:12:12.000Z</time>
      </trkpt>
      <trkpt lat="47.25583" lon="-2.32022">
        <ele>18.60000038147</ele>
        <time>2020-02-20T11:12:13.000Z</time>
      </trkpt>
      <trkpt lat="47.25581" lon="-2.32016">
        <ele>19</ele>
        <time>2020-02-20T11:12:14.000Z</time>
      </trkpt>
      <trkpt lat="47.25579" lon="-2.32009">
        <ele>19.39999961853</ele>
        <time>2020-02-20T11:12:15.000Z</time>
      </trkpt>
      <trkpt lat="47.25567" lon="-2.31971">
        <ele>19.39999961853</ele>
        <time>2020-02-20T11:12:21.000Z</time>
      </trkpt>
      <trkpt lat="47.25566" lon="-2.31965">
        <ele>19.39999961853</ele>
        <time>2020-02-20T11:12:22.000Z</time>
      </trkpt>
      <trkpt lat="47.25562" lon="-2.31931">
        <ele>19.39999961853</ele>
        <time>2020-02-20T11:12:28.000Z</time>
      </trkpt>
      <trkpt lat="47.25562" lon="-2.31927">
        <ele>19.799999237061</ele>
        <time>2020-02-20T11:12:29.000Z</time>
      </trkpt>
      <trkpt lat="47.25561" lon="-2.31922">
        <ele>20.200000762939</ele>
        <time>2020-02-20T11:12:30.000Z</time>
      </trkpt>
      <trkpt lat="47.25561" lon="-2.31918">
        <ele>20.799999237061</ele>
        <time>2020-02-20T11:12:31.000Z</time>
      </trkpt>
      <trkpt lat="47.25561" lon="-2.31916">
        <ele>21.200000762939</ele>
        <time>2020-02-20T11:12:32.000Z</time>
      </trkpt>
      <trkpt lat="47.2556" lon="-2.31915">
        <ele>21.60000038147</ele>
        <time>2020-02-20T11:12:33.000Z</time>
      </trkpt>
      <trkpt lat="47.25559" lon="-2.31915">
        <ele>21.60000038147</ele>
        <time>2020-02-20T11:12:34.000Z</time>
      </trkpt>
      <trkpt lat="47.25553" lon="-2.31918">
        <ele>21.60000038147</ele>
        <time>2020-02-20T11:12:36.000Z</time>
      </trkpt>
      <trkpt lat="47.25544" lon="-2.31921">
        <ele>21.60000038147</ele>
        <time>2020-02-20T11:12:39.000Z</time>
      </trkpt>
      <trkpt lat="47.25542" lon="-2.31917">
        <ele>21.60000038147</ele>
        <time>2020-02-20T11:12:40.000Z</time>
      </trkpt>
      <trkpt lat="47.25536" lon="-2.31897">
        <ele>21.60000038147</ele>
        <time>2020-02-20T11:12:44.000Z</time>
      </trkpt>
      <trkpt lat="47.25535" lon="-2.31893">
        <ele>21.60000038147</ele>
        <time>2020-02-20T11:12:45.000Z</time>
      </trkpt>
      <trkpt lat="47.25528" lon="-2.31865">
        <ele>21.60000038147</ele>
        <time>2020-02-20T11:12:52.000Z</time>
      </trkpt>
      <trkpt lat="47.25526" lon="-2.31834">
        <ele>21.60000038147</ele>
        <time>2020-02-20T11:12:59.000Z</time>
      </trkpt>
      <trkpt lat="47.25523" lon="-2.31828">
        <ele>21.60000038147</ele>
        <time>2020-02-20T11:13:01.000Z</time>
      </trkpt>
      <trkpt lat="47.25519" lon="-2.3183">
        <ele>21.60000038147</ele>
        <time>2020-02-20T11:13:03.000Z</time>
      </trkpt>
      <trkpt lat="47.25516" lon="-2.31834">
        <ele>21.60000038147</ele>
        <time>2020-02-20T11:13:07.000Z</time>
      </trkpt>
      <trkpt lat="47.25513" lon="-2.31832">
        <ele>23.60000038147</ele>
        <time>2020-02-20T11:23:06.000Z</time>
      </trkpt>
      <trkpt lat="47.25512" lon="-2.31826">
        <ele>23.60000038147</ele>
        <time>2020-02-20T11:23:08.000Z</time>
      </trkpt>
      <trkpt lat="47.25513" lon="-2.31813">
        <ele>23.60000038147</ele>
        <time>2020-02-20T11:23:13.000Z</time>
      </trkpt>
      <trkpt lat="47.25514" lon="-2.31813">
        <ele>23.60000038147</ele>
        <time>2020-02-20T11:23:14.000Z</time>
      </trkpt>
      <trkpt lat="47.25527" lon="-2.3181">
        <ele>23.60000038147</ele>
        <time>2020-02-20T11:23:20.000Z</time>
      </trkpt>
      <trkpt lat="47.25543" lon="-2.31802">
        <ele>23.60000038147</ele>
        <time>2020-02-20T11:23:25.000Z</time>
      </trkpt>
      <trkpt lat="47.25556" lon="-2.31794">
        <ele>23.60000038147</ele>
        <time>2020-02-20T11:23:28.000Z</time>
      </trkpt>
      <trkpt lat="47.25563" lon="-2.31786">
        <ele>23.60000038147</ele>
        <time>2020-02-20T11:23:30.000Z</time>
      </trkpt>
      <trkpt lat="47.25575" lon="-2.31769">
        <ele>23.60000038147</ele>
        <time>2020-02-20T11:23:34.000Z</time>
      </trkpt>
      <trkpt lat="47.25579" lon="-2.31764">
        <ele>23.200000762939</ele>
        <time>2020-02-20T11:23:35.000Z</time>
      </trkpt>
      <trkpt lat="47.25583" lon="-2.31758">
        <ele>22.799999237061</ele>
        <time>2020-02-20T11:23:36.000Z</time>
      </trkpt>
      <trkpt lat="47.25587" lon="-2.3175">
        <ele>22.200000762939</ele>
        <time>2020-02-20T11:23:37.000Z</time>
      </trkpt>
      <trkpt lat="47.25589" lon="-2.31742">
        <ele>21.799999237061</ele>
        <time>2020-02-20T11:23:38.000Z</time>
      </trkpt>
      <trkpt lat="47.25591" lon="-2.31734">
        <ele>21.39999961853</ele>
        <time>2020-02-20T11:23:39.000Z</time>
      </trkpt>
      <trkpt lat="47.25593" lon="-2.31726">
        <ele>21.39999961853</ele>
        <time>2020-02-20T11:23:40.000Z</time>
      </trkpt>
      <trkpt lat="47.25596" lon="-2.3172">
        <ele>21.39999961853</ele>
        <time>2020-02-20T11:23:41.000Z</time>
      </trkpt>
      <trkpt lat="47.256" lon="-2.31714">
        <ele>21.39999961853</ele>
        <time>2020-02-20T11:23:42.000Z</time>
      </trkpt>
      <trkpt lat="47.25617" lon="-2.31708">
        <ele>21.39999961853</ele>
        <time>2020-02-20T11:23:45.000Z</time>
      </trkpt>
      <trkpt lat="47.25623" lon="-2.31707">
        <ele>21.39999961853</ele>
        <time>2020-02-20T11:23:46.000Z</time>
      </trkpt>
      <trkpt lat="47.25635" lon="-2.31704">
        <ele>21.39999961853</ele>
        <time>2020-02-20T11:23:48.000Z</time>
      </trkpt>
      <trkpt lat="47.25647" lon="-2.31694">
        <ele>21.39999961853</ele>
        <time>2020-02-20T11:23:50.000Z</time>
      </trkpt>
      <trkpt lat="47.25655" lon="-2.31677">
        <ele>21</ele>
        <time>2020-02-20T11:23:52.000Z</time>
      </trkpt>
      <trkpt lat="47.25657" lon="-2.31668">
        <ele>20.60000038147</ele>
        <time>2020-02-20T11:23:53.000Z</time>
      </trkpt>
      <trkpt lat="47.2566" lon="-2.31663">
        <ele>20.200000762939</ele>
        <time>2020-02-20T11:23:54.000Z</time>
      </trkpt>
      <trkpt lat="47.25665" lon="-2.31662">
        <ele>19.799999237061</ele>
        <time>2020-02-20T11:23:55.000Z</time>
      </trkpt>
      <trkpt lat="47.2567" lon="-2.31664">
        <ele>19.39999961853</ele>
        <time>2020-02-20T11:23:56.000Z</time>
      </trkpt>
      <trkpt lat="47.2569" lon="-2.31677">
        <ele>19.39999961853</ele>
        <time>2020-02-20T11:24:00.000Z</time>
      </trkpt>
      <trkpt lat="47.25696" lon="-2.31679">
        <ele>19</ele>
        <time>2020-02-20T11:24:01.000Z</time>
      </trkpt>
      <trkpt lat="47.25702" lon="-2.31682">
        <ele>18.60000038147</ele>
        <time>2020-02-20T11:24:02.000Z</time>
      </trkpt>
      <trkpt lat="47.25708" lon="-2.31686">
        <ele>18</ele>
        <time>2020-02-20T11:24:03.000Z</time>
      </trkpt>
      <trkpt lat="47.25715" lon="-2.3169">
        <ele>17.60000038147</ele>
        <time>2020-02-20T11:24:04.000Z</time>
      </trkpt>
      <trkpt lat="47.25722" lon="-2.31695">
        <ele>17.200000762939</ele>
        <time>2020-02-20T11:24:05.000Z</time>
      </trkpt>
      <trkpt lat="47.25728" lon="-2.31699">
        <ele>17.200000762939</ele>
        <time>2020-02-20T11:24:06.000Z</time>
      </trkpt>
      <trkpt lat="47.25734" lon="-2.31699">
        <ele>17.200000762939</ele>
        <time>2020-02-20T11:24:07.000Z</time>
      </trkpt>
      <trkpt lat="47.25746" lon="-2.31692">
        <ele>17.200000762939</ele>
        <time>2020-02-20T11:24:09.000Z</time>
      </trkpt>
      <trkpt lat="47.25755" lon="-2.31683">
        <ele>17.200000762939</ele>
        <time>2020-02-20T11:24:11.000Z</time>
      </trkpt>
      <trkpt lat="47.25769" lon="-2.31671">
        <ele>17.200000762939</ele>
        <time>2020-02-20T11:24:14.000Z</time>
      </trkpt>
      <trkpt lat="47.25807" lon="-2.31642">
        <ele>17.200000762939</ele>
        <time>2020-02-20T11:24:23.000Z</time>
      </trkpt>
      <trkpt lat="47.25834" lon="-2.31617">
        <ele>17.200000762939</ele>
        <time>2020-02-20T11:24:30.000Z</time>
      </trkpt>
      <trkpt lat="47.2586" lon="-2.31592">
        <ele>17.200000762939</ele>
        <time>2020-02-20T11:24:36.000Z</time>
      </trkpt>
      <trkpt lat="47.25886" lon="-2.31562">
        <ele>17.200000762939</ele>
        <time>2020-02-20T11:24:41.000Z</time>
      </trkpt>
      <trkpt lat="47.25899" lon="-2.31527">
        <ele>17.200000762939</ele>
        <time>2020-02-20T11:24:45.000Z</time>
      </trkpt>
      <trkpt lat="47.25902" lon="-2.31522">
        <ele>17.200000762939</ele>
        <time>2020-02-20T11:24:46.000Z</time>
      </trkpt>
      <trkpt lat="47.25906" lon="-2.31518">
        <ele>16.799999237061</ele>
        <time>2020-02-20T11:24:47.000Z</time>
      </trkpt>
      <trkpt lat="47.25909" lon="-2.31516">
        <ele>16.39999961853</ele>
        <time>2020-02-20T11:24:48.000Z</time>
      </trkpt>
      <trkpt lat="47.25911" lon="-2.31513">
        <ele>16</ele>
        <time>2020-02-20T11:24:49.000Z</time>
      </trkpt>
      <trkpt lat="47.25912" lon="-2.3151">
        <ele>15.39999961853</ele>
        <time>2020-02-20T11:24:50.000Z</time>
      </trkpt>
      <trkpt lat="47.25913" lon="-2.31508">
        <ele>15</ele>
        <time>2020-02-20T11:24:51.000Z</time>
      </trkpt>
      <trkpt lat="47.25913" lon="-2.31506">
        <ele>15</ele>
        <time>2020-02-20T11:24:53.000Z</time>
      </trkpt>
      <trkpt lat="47.25914" lon="-2.31502">
        <ele>15</ele>
        <time>2020-02-20T11:24:58.000Z</time>
      </trkpt>
      <trkpt lat="47.25916" lon="-2.315">
        <ele>15</ele>
        <time>2020-02-20T11:24:59.000Z</time>
      </trkpt>
      <trkpt lat="47.25921" lon="-2.31483">
        <ele>15</ele>
        <time>2020-02-20T11:25:02.000Z</time>
      </trkpt>
      <trkpt lat="47.25931" lon="-2.31459">
        <ele>15</ele>
        <time>2020-02-20T11:25:06.000Z</time>
      </trkpt>
      <trkpt lat="47.25937" lon="-2.31458">
        <ele>14.60000038147</ele>
        <time>2020-02-20T11:25:08.000Z</time>
      </trkpt>
      <trkpt lat="47.25941" lon="-2.3146">
        <ele>14.199999809265</ele>
        <time>2020-02-20T11:25:09.000Z</time>
      </trkpt>
      <trkpt lat="47.25945" lon="-2.31463">
        <ele>13.60000038147</ele>
        <time>2020-02-20T11:25:10.000Z</time>
      </trkpt>
      <trkpt lat="47.25948" lon="-2.31466">
        <ele>13.199999809265</ele>
        <time>2020-02-20T11:25:11.000Z</time>
      </trkpt>
      <trkpt lat="47.25952" lon="-2.3147">
        <ele>12.800000190735</ele>
        <time>2020-02-20T11:25:12.000Z</time>
      </trkpt>
      <trkpt lat="47.2596" lon="-2.31478">
        <ele>12.800000190735</ele>
        <time>2020-02-20T11:25:14.000Z</time>
      </trkpt>
      <trkpt lat="47.25974" lon="-2.31501">
        <ele>12.800000190735</ele>
        <time>2020-02-20T11:25:19.000Z</time>
      </trkpt>
      <trkpt lat="47.25988" lon="-2.31528">
        <ele>12.800000190735</ele>
        <time>2020-02-20T11:25:25.000Z</time>
      </trkpt>
      <trkpt lat="47.26" lon="-2.31553">
        <ele>12.800000190735</ele>
        <time>2020-02-20T11:25:31.000Z</time>
      </trkpt>
      <trkpt lat="47.26015" lon="-2.31561">
        <ele>12.800000190735</ele>
        <time>2020-02-20T11:25:36.000Z</time>
      </trkpt>
      <trkpt lat="47.26024" lon="-2.31546">
        <ele>12.800000190735</ele>
        <time>2020-02-20T11:25:39.000Z</time>
      </trkpt>
      <trkpt lat="47.26028" lon="-2.31535">
        <ele>12.800000190735</ele>
        <time>2020-02-20T11:25:41.000Z</time>
      </trkpt>
      <trkpt lat="47.2603" lon="-2.3153">
        <ele>12.800000190735</ele>
        <time>2020-02-20T11:25:42.000Z</time>
      </trkpt>
      <trkpt lat="47.26035" lon="-2.31516">
        <ele>12.800000190735</ele>
        <time>2020-02-20T11:25:45.000Z</time>
      </trkpt>
      <trkpt lat="47.26039" lon="-2.31514">
        <ele>12.800000190735</ele>
        <time>2020-02-20T11:25:46.000Z</time>
      </trkpt>
      <trkpt lat="47.26046" lon="-2.31518">
        <ele>12.800000190735</ele>
        <time>2020-02-20T11:25:48.000Z</time>
      </trkpt>
      <trkpt lat="47.26058" lon="-2.31534">
        <ele>12.800000190735</ele>
        <time>2020-02-20T11:25:51.000Z</time>
      </trkpt>
      <trkpt lat="47.26062" lon="-2.31539">
        <ele>12.800000190735</ele>
        <time>2020-02-20T11:25:52.000Z</time>
      </trkpt>
      <trkpt lat="47.26073" lon="-2.31568">
        <ele>12.800000190735</ele>
        <time>2020-02-20T11:25:57.000Z</time>
      </trkpt>
      <trkpt lat="47.2608" lon="-2.31578">
        <ele>12.800000190735</ele>
        <time>2020-02-20T11:26:01.000Z</time>
      </trkpt>
      <trkpt lat="47.26089" lon="-2.31589">
        <ele>12.800000190735</ele>
        <time>2020-02-20T11:26:05.000Z</time>
      </trkpt>
      <trkpt lat="47.26093" lon="-2.31594">
        <ele>12.800000190735</ele>
        <time>2020-02-20T11:26:06.000Z</time>
      </trkpt>
      <trkpt lat="47.26099" lon="-2.31606">
        <ele>12.39999961853</ele>
        <time>2020-02-20T11:26:08.000Z</time>
      </trkpt>
      <trkpt lat="47.26103" lon="-2.31612">
        <ele>12</ele>
        <time>2020-02-20T11:26:09.000Z</time>
      </trkpt>
      <trkpt lat="47.26107" lon="-2.31616">
        <ele>11.60000038147</ele>
        <time>2020-02-20T11:26:10.000Z</time>
      </trkpt>
      <trkpt lat="47.26113" lon="-2.31617">
        <ele>11</ele>
        <time>2020-02-20T11:26:11.000Z</time>
      </trkpt>
      <trkpt lat="47.26118" lon="-2.31617">
        <ele>10.60000038147</ele>
        <time>2020-02-20T11:26:12.000Z</time>
      </trkpt>
      <trkpt lat="47.26134" lon="-2.31615">
        <ele>10.60000038147</ele>
        <time>2020-02-20T11:26:15.000Z</time>
      </trkpt>
      <trkpt lat="47.26143" lon="-2.31613">
        <ele>10.60000038147</ele>
        <time>2020-02-20T11:26:17.000Z</time>
      </trkpt>
      <trkpt lat="47.26149" lon="-2.3161">
        <ele>10.60000038147</ele>
        <time>2020-02-20T11:26:18.000Z</time>
      </trkpt>
      <trkpt lat="47.26169" lon="-2.31601">
        <ele>10.60000038147</ele>
        <time>2020-02-20T11:26:22.000Z</time>
      </trkpt>
      <trkpt lat="47.26204" lon="-2.31591">
        <ele>10.60000038147</ele>
        <time>2020-02-20T11:26:29.000Z</time>
      </trkpt>
      <trkpt lat="47.26214" lon="-2.31592">
        <ele>10.60000038147</ele>
        <time>2020-02-20T11:26:31.000Z</time>
      </trkpt>
      <trkpt lat="47.26229" lon="-2.31599">
        <ele>10.60000038147</ele>
        <time>2020-02-20T11:26:34.000Z</time>
      </trkpt>
      <trkpt lat="47.26233" lon="-2.31602">
        <ele>10.60000038147</ele>
        <time>2020-02-20T11:26:35.000Z</time>
      </trkpt>
      <trkpt lat="47.26244" lon="-2.31613">
        <ele>10.60000038147</ele>
        <time>2020-02-20T11:26:38.000Z</time>
      </trkpt>
      <trkpt lat="47.26247" lon="-2.31617">
        <ele>10.60000038147</ele>
        <time>2020-02-20T11:26:39.000Z</time>
      </trkpt>
      <trkpt lat="47.26256" lon="-2.31631">
        <ele>10.60000038147</ele>
        <time>2020-02-20T11:26:42.000Z</time>
      </trkpt>
      <trkpt lat="47.26264" lon="-2.31648">
        <ele>10.60000038147</ele>
        <time>2020-02-20T11:26:45.000Z</time>
      </trkpt>
      <trkpt lat="47.26284" lon="-2.31686">
        <ele>10.60000038147</ele>
        <time>2020-02-20T11:26:52.000Z</time>
      </trkpt>
      <trkpt lat="47.26302" lon="-2.31712">
        <ele>10.60000038147</ele>
        <time>2020-02-20T11:26:57.000Z</time>
      </trkpt>
      <trkpt lat="47.26306" lon="-2.31712">
        <ele>10.60000038147</ele>
        <time>2020-02-20T11:26:58.000Z</time>
      </trkpt>
      <trkpt lat="47.26314" lon="-2.31709">
        <ele>10.60000038147</ele>
        <time>2020-02-20T11:27:00.000Z</time>
      </trkpt>
      <trkpt lat="47.2633" lon="-2.317">
        <ele>10.60000038147</ele>
        <time>2020-02-20T11:27:04.000Z</time>
      </trkpt>
      <trkpt lat="47.26333" lon="-2.3169">
        <ele>11</ele>
        <time>2020-02-20T11:27:06.000Z</time>
      </trkpt>
      <trkpt lat="47.26336" lon="-2.31687">
        <ele>11.39999961853</ele>
        <time>2020-02-20T11:27:07.000Z</time>
      </trkpt>
      <trkpt lat="47.26338" lon="-2.31685">
        <ele>11.800000190735</ele>
        <time>2020-02-20T11:27:08.000Z</time>
      </trkpt>
      <trkpt lat="47.26342" lon="-2.31684">
        <ele>12.199999809265</ele>
        <time>2020-02-20T11:27:09.000Z</time>
      </trkpt>
      <trkpt lat="47.26346" lon="-2.31683">
        <ele>12.60000038147</ele>
        <time>2020-02-20T11:27:10.000Z</time>
      </trkpt>
      <trkpt lat="47.26356" lon="-2.31678">
        <ele>12.60000038147</ele>
        <time>2020-02-20T11:27:13.000Z</time>
      </trkpt>
      <trkpt lat="47.26378" lon="-2.31669">
        <ele>12.60000038147</ele>
        <time>2020-02-20T11:27:19.000Z</time>
      </trkpt>
      <trkpt lat="47.264" lon="-2.31658">
        <ele>12.60000038147</ele>
        <time>2020-02-20T11:27:26.000Z</time>
      </trkpt>
      <trkpt lat="47.2641" lon="-2.3165">
        <ele>12.60000038147</ele>
        <time>2020-02-20T11:27:29.000Z</time>
      </trkpt>
      <trkpt lat="47.2641" lon="-2.31637">
        <ele>12.60000038147</ele>
        <time>2020-02-20T11:27:32.000Z</time>
      </trkpt>
      <trkpt lat="47.2641" lon="-2.31633">
        <ele>12.60000038147</ele>
        <time>2020-02-20T11:27:33.000Z</time>
      </trkpt>
      <trkpt lat="47.26411" lon="-2.31607">
        <ele>13.199999809265</ele>
        <time>2020-02-20T11:27:39.000Z</time>
      </trkpt>
      <trkpt lat="47.26411" lon="-2.31603">
        <ele>13.60000038147</ele>
        <time>2020-02-20T11:27:40.000Z</time>
      </trkpt>
      <trkpt lat="47.26411" lon="-2.316">
        <ele>14</ele>
        <time>2020-02-20T11:27:41.000Z</time>
      </trkpt>
      <trkpt lat="47.26411" lon="-2.31595">
        <ele>14.39999961853</ele>
        <time>2020-02-20T11:27:42.000Z</time>
      </trkpt>
      <trkpt lat="47.26411" lon="-2.31591">
        <ele>14.800000190735</ele>
        <time>2020-02-20T11:27:43.000Z</time>
      </trkpt>
      <trkpt lat="47.26412" lon="-2.31578">
        <ele>14.800000190735</ele>
        <time>2020-02-20T11:27:46.000Z</time>
      </trkpt>
      <trkpt lat="47.26411" lon="-2.31556">
        <ele>14.800000190735</ele>
        <time>2020-02-20T11:27:52.000Z</time>
      </trkpt>
      <trkpt lat="47.26415" lon="-2.31554">
        <ele>14.800000190735</ele>
        <time>2020-02-20T11:27:55.000Z</time>
      </trkpt>
      <trkpt lat="47.26416" lon="-2.31554">
        <ele>14.800000190735</ele>
        <time>2020-02-20T11:27:56.000Z</time>
      </trkpt>
      <trkpt lat="47.26418" lon="-2.31554">
        <ele>14.800000190735</ele>
        <time>2020-02-20T11:27:58.000Z</time>
      </trkpt>
    </trkseg>
  </trk>
</gpx>